﻿<?xml version="1.0" encoding="utf-8"?><gpx creator="Garmin Desktop App" version="1.1" xsi:schemaLocation="http://www.topografix.com/GPX/1/1 http://www.topografix.com/GPX/1/1/gpx.xsd http://www.garmin.com/xmlschemas/WaypointExtension/v1 http://www8.garmin.com/xmlschemas/WaypointExtensionv1.xsd http://www.garmin.com/xmlschemas/TrackPointExtension/v1 http://www.garmin.com/xmlschemas/TrackPointExtensionv1.xsd http://www.garmin.com/xmlschemas/GpxExtensions/v3 http://www8.garmin.com/xmlschemas/GpxExtensionsv3.xsd http://www.garmin.com/xmlschemas/ActivityExtension/v1 http://www8.garmin.com/xmlschemas/ActivityExtensionv1.xsd http://www.garmin.com/xmlschemas/AdventuresExtensions/v1 http://www8.garmin.com/xmlschemas/AdventuresExtensionv1.xsd http://www.garmin.com/xmlschemas/PressureExtension/v1 http://www.garmin.com/xmlschemas/PressureExtensionv1.xsd http://www.garmin.com/xmlschemas/TripExtensions/v1 http://www.garmin.com/xmlschemas/TripExtensionsv1.xsd http://www.garmin.com/xmlschemas/TripMetaDataExtensions/v1 http://www.garmin.com/xmlschemas/TripMetaDataExtensionsv1.xsd http://www.garmin.com/xmlschemas/ViaPointTransportationModeExtensions/v1 http://www.garmin.com/xmlschemas/ViaPointTransportationModeExtensionsv1.xsd http://www.garmin.com/xmlschemas/CreationTimeExtension/v1 http://www.garmin.com/xmlschemas/CreationTimeExtensionsv1.xsd http://www.garmin.com/xmlschemas/AccelerationExtension/v1 http://www.garmin.com/xmlschemas/AccelerationExtensionv1.xsd http://www.garmin.com/xmlschemas/PowerExtension/v1 http://www.garmin.com/xmlschemas/PowerExtensionv1.xsd http://www.garmin.com/xmlschemas/VideoExtension/v1 http://www.garmin.com/xmlschemas/VideoExtensionv1.xsd" xmlns="http://www.topografix.com/GPX/1/1" xmlns:xsi="http://www.w3.org/2001/XMLSchema-instance" xmlns:wptx1="http://www.garmin.com/xmlschemas/WaypointExtension/v1" xmlns:gpxtrx="http://www.garmin.com/xmlschemas/GpxExtensions/v3" xmlns:gpxtpx="http://www.garmin.com/xmlschemas/TrackPointExtension/v1" xmlns:gpxx="http://www.garmin.com/xmlschemas/GpxExtensions/v3" xmlns:trp="http://www.garmin.com/xmlschemas/TripExtensions/v1" xmlns:adv="http://www.garmin.com/xmlschemas/AdventuresExtensions/v1" xmlns:prs="http://www.garmin.com/xmlschemas/PressureExtension/v1" xmlns:tmd="http://www.garmin.com/xmlschemas/TripMetaDataExtensions/v1" xmlns:vptm="http://www.garmin.com/xmlschemas/ViaPointTransportationModeExtensions/v1" xmlns:ctx="http://www.garmin.com/xmlschemas/CreationTimeExtension/v1" xmlns:gpxacc="http://www.garmin.com/xmlschemas/AccelerationExtension/v1" xmlns:gpxpx="http://www.garmin.com/xmlschemas/PowerExtension/v1" xmlns:vidx1="http://www.garmin.com/xmlschemas/VideoExtension/v1">

  <metadata>
    <link href="http://www.garmin.com">
      <text>Garmin International</text>
    </link>
    <time>2017-06-20T13:43:16Z</time>
    <bounds maxlat="46.363593488931656" maxlon="9.353972431272268" minlat="46.347342487424612" minlon="9.306515101343393" />
  </metadata>

  <trk>
    <name>bacino del truzzo2017-06-18</name>
    <extensions>
      <gpxx:TrackExtension>
        <gpxx:DisplayColor>Yellow</gpxx:DisplayColor>
      </gpxx:TrackExtension>
      <gpxtrkx:TrackStatsExtension xmlns:gpxtrkx="http://www.garmin.com/xmlschemas/TrackStatsExtension/v1">
        <gpxtrkx:Distance>18846</gpxtrkx:Distance>
        <gpxtrkx:TotalElapsedTime>29218</gpxtrkx:TotalElapsedTime>
        <gpxtrkx:MovingTime>21502</gpxtrkx:MovingTime>
        <gpxtrkx:StoppedTime>7705</gpxtrkx:StoppedTime>
        <gpxtrkx:MovingSpeed>1</gpxtrkx:MovingSpeed>
        <gpxtrkx:MaxSpeed>2</gpxtrkx:MaxSpeed>
        <gpxtrkx:MaxElevation>2165</gpxtrkx:MaxElevation>
        <gpxtrkx:MinElevation>1160</gpxtrkx:MinElevation>
        <gpxtrkx:Ascent>1207</gpxtrkx:Ascent>
        <gpxtrkx:Descent>1201</gpxtrkx:Descent>
        <gpxtrkx:AvgAscentRate>0</gpxtrkx:AvgAscentRate>
        <gpxtrkx:MaxAscentRate>1</gpxtrkx:MaxAscentRate>
        <gpxtrkx:AvgDescentRate>0</gpxtrkx:AvgDescentRate>
        <gpxtrkx:MaxDescentRate>-1</gpxtrkx:MaxDescentRate>
      </gpxtrkx:TrackStatsExtension>
    </extensions>
    <trkseg>
      <trkpt lat="46.347833499312401" lon="9.353930102661252">
        <ele>1160.45</ele>
        <time>2017-06-18T07:34:09Z</time>
      </trkpt>
      <trkpt lat="46.347833080217242" lon="9.353930605575442">
        <ele>1160.45</ele>
        <time>2017-06-18T07:34:10Z</time>
      </trkpt>
      <trkpt lat="46.347831906750798" lon="9.353921385481954">
        <ele>1160.45</ele>
        <time>2017-06-18T07:34:31Z</time>
      </trkpt>
      <trkpt lat="46.347841965034604" lon="9.353932533413172">
        <ele>1160.45</ele>
        <time>2017-06-18T07:34:40Z</time>
      </trkpt>
      <trkpt lat="46.347840121015906" lon="9.353927588090301">
        <ele>1160.45</ele>
        <time>2017-06-18T07:34:59Z</time>
      </trkpt>
      <trkpt lat="46.347792008891702" lon="9.35393295250833">
        <ele>1160.45</ele>
        <time>2017-06-18T07:35:10Z</time>
      </trkpt>
      <trkpt lat="46.347755715250969" lon="9.353866903111339">
        <ele>1161.8900000000001</ele>
        <time>2017-06-18T07:35:19Z</time>
      </trkpt>
      <trkpt lat="46.347769545391202" lon="9.353809067979455">
        <ele>1162.3699999999999</ele>
        <time>2017-06-18T07:35:31Z</time>
      </trkpt>
      <trkpt lat="46.347759235650301" lon="9.353781742975116">
        <ele>1161.8900000000001</ele>
        <time>2017-06-18T07:35:46Z</time>
      </trkpt>
      <trkpt lat="46.347746830433607" lon="9.353824323043227">
        <ele>1162.3699999999999</ele>
        <time>2017-06-18T07:36:01Z</time>
      </trkpt>
      <trkpt lat="46.347736101597548" lon="9.353841170668602">
        <ele>1162.3699999999999</ele>
        <time>2017-06-18T07:36:15Z</time>
      </trkpt>
      <trkpt lat="46.347737610340118" lon="9.353860784322023">
        <ele>1162.3699999999999</ele>
        <time>2017-06-18T07:36:28Z</time>
      </trkpt>
      <trkpt lat="46.347748674452305" lon="9.353811917826533">
        <ele>1163.3299999999999</ele>
        <time>2017-06-18T07:36:39Z</time>
      </trkpt>
      <trkpt lat="46.347744734957814" lon="9.353866735473275">
        <ele>1162.8499999999999</ele>
        <time>2017-06-18T07:36:48Z</time>
      </trkpt>
      <trkpt lat="46.347759990021586" lon="9.353878051042557">
        <ele>1162.3699999999999</ele>
        <time>2017-06-18T07:36:57Z</time>
      </trkpt>
      <trkpt lat="46.347750183194876" lon="9.353866316378117">
        <ele>1162.3699999999999</ele>
        <time>2017-06-18T07:37:09Z</time>
      </trkpt>
      <trkpt lat="46.347762169316411" lon="9.353862376883626">
        <ele>1162.3699999999999</ele>
        <time>2017-06-18T07:37:25Z</time>
      </trkpt>
      <trkpt lat="46.347785051912069" lon="9.353869752958417">
        <ele>1162.3699999999999</ele>
        <time>2017-06-18T07:37:36Z</time>
      </trkpt>
      <trkpt lat="46.347765689715743" lon="9.353860868141055">
        <ele>1162.3699999999999</ele>
        <time>2017-06-18T07:37:49Z</time>
      </trkpt>
      <trkpt lat="46.347745573148131" lon="9.353826083242893">
        <ele>1162.8499999999999</ele>
        <time>2017-06-18T07:38:10Z</time>
      </trkpt>
      <trkpt lat="46.347747249528766" lon="9.353850055485964">
        <ele>1162.3699999999999</ele>
        <time>2017-06-18T07:38:30Z</time>
      </trkpt>
      <trkpt lat="46.347778514027596" lon="9.353866903111339">
        <ele>1162.3699999999999</ele>
        <time>2017-06-18T07:38:40Z</time>
      </trkpt>
      <trkpt lat="46.347780358046293" lon="9.353942759335041">
        <ele>1162.3699999999999</ele>
        <time>2017-06-18T07:38:54Z</time>
      </trkpt>
      <trkpt lat="46.347815226763487" lon="9.353952314704657">
        <ele>1161.4100000000001</ele>
        <time>2017-06-18T07:39:06Z</time>
      </trkpt>
      <trkpt lat="46.347752027213573" lon="9.353822814300656">
        <ele>1162.8499999999999</ele>
        <time>2017-06-18T07:39:18Z</time>
      </trkpt>
      <trkpt lat="46.347749512642622" lon="9.353831447660923">
        <ele>1163.3299999999999</ele>
        <time>2017-06-18T07:39:28Z</time>
      </trkpt>
      <trkpt lat="46.347742807120085" lon="9.353784760460258">
        <ele>1163.3299999999999</ele>
        <time>2017-06-18T07:39:37Z</time>
      </trkpt>
      <trkpt lat="46.347737442702055" lon="9.353773528710008">
        <ele>1163.8099999999999</ele>
        <time>2017-06-18T07:39:50Z</time>
      </trkpt>
      <trkpt lat="46.347705675289035" lon="9.353714101016522">
        <ele>1164.77</ele>
        <time>2017-06-18T07:40:05Z</time>
      </trkpt>
      <trkpt lat="46.347710620611906" lon="9.353705132380128">
        <ele>1165.26</ele>
        <time>2017-06-18T07:40:19Z</time>
      </trkpt>
      <trkpt lat="46.347715146839619" lon="9.353658445179462">
        <ele>1164.77</ele>
        <time>2017-06-18T07:40:30Z</time>
      </trkpt>
      <trkpt lat="46.347681283950806" lon="9.353675208985806">
        <ele>1165.26</ele>
        <time>2017-06-18T07:40:45Z</time>
      </trkpt>
      <trkpt lat="46.347696790471673" lon="9.353746203705668">
        <ele>1164.77</ele>
        <time>2017-06-18T07:40:59Z</time>
      </trkpt>
      <trkpt lat="46.347689665853977" lon="9.353676130995154">
        <ele>1165.26</ele>
        <time>2017-06-18T07:41:11Z</time>
      </trkpt>
      <trkpt lat="46.347694611176848" lon="9.35367638245225">
        <ele>1165.26</ele>
        <time>2017-06-18T07:41:22Z</time>
      </trkpt>
      <trkpt lat="46.347686648368835" lon="9.353670850396156">
        <ele>1165.26</ele>
        <time>2017-06-18T07:41:41Z</time>
      </trkpt>
      <trkpt lat="46.347688408568501" lon="9.353686608374119">
        <ele>1165.26</ele>
        <time>2017-06-18T07:41:56Z</time>
      </trkpt>
      <trkpt lat="46.347686061635613" lon="9.353691218420863">
        <ele>1165.26</ele>
        <time>2017-06-18T07:42:13Z</time>
      </trkpt>
      <trkpt lat="46.347682625055313" lon="9.353641849011183">
        <ele>1165.74</ele>
        <time>2017-06-18T07:42:24Z</time>
      </trkpt>
      <trkpt lat="46.347706597298384" lon="9.353661462664604">
        <ele>1165.74</ele>
        <time>2017-06-18T07:42:35Z</time>
      </trkpt>
      <trkpt lat="46.347669884562492" lon="9.353609913960099">
        <ele>1165.74</ele>
        <time>2017-06-18T07:42:47Z</time>
      </trkpt>
      <trkpt lat="46.347666196525097" lon="9.353595916181803">
        <ele>1165.74</ele>
        <time>2017-06-18T07:42:55Z</time>
      </trkpt>
      <trkpt lat="46.347678601741791" lon="9.353598682209849">
        <ele>1165.74</ele>
        <time>2017-06-18T07:43:14Z</time>
      </trkpt>
      <trkpt lat="46.347669465467334" lon="9.353554174304009">
        <ele>1166.22</ele>
        <time>2017-06-18T07:43:27Z</time>
      </trkpt>
      <trkpt lat="46.347675835713744" lon="9.353568842634559">
        <ele>1166.22</ele>
        <time>2017-06-18T07:43:37Z</time>
      </trkpt>
      <trkpt lat="46.347630573436618" lon="9.35340422205627">
        <ele>1167.1800000000001</ele>
        <time>2017-06-18T07:43:48Z</time>
      </trkpt>
      <trkpt lat="46.347589753568172" lon="9.353257790207863">
        <ele>1168.6199999999999</ele>
        <time>2017-06-18T07:44:00Z</time>
      </trkpt>
      <trkpt lat="46.347579946741462" lon="9.353269273415208">
        <ele>1168.6199999999999</ele>
        <time>2017-06-18T07:44:10Z</time>
      </trkpt>
      <trkpt lat="46.347527895122766" lon="9.353111190721393">
        <ele>1170.0599999999999</ele>
        <time>2017-06-18T07:44:23Z</time>
      </trkpt>
      <trkpt lat="46.347490092739463" lon="9.35298697091639">
        <ele>1171.02</ele>
        <time>2017-06-18T07:44:33Z</time>
      </trkpt>
      <trkpt lat="46.347444914281368" lon="9.35282620601356">
        <ele>1171.98</ele>
        <time>2017-06-18T07:44:45Z</time>
      </trkpt>
      <trkpt lat="46.347397975623608" lon="9.352676840499044">
        <ele>1173.4300000000001</ele>
        <time>2017-06-18T07:44:56Z</time>
      </trkpt>
      <trkpt lat="46.347351791337132" lon="9.352527977898717">
        <ele>1174.3900000000001</ele>
        <time>2017-06-18T07:45:06Z</time>
      </trkpt>
      <trkpt lat="46.347342487424612" lon="9.352503921836615">
        <ele>1174.8699999999999</ele>
        <time>2017-06-18T07:45:08Z</time>
      </trkpt>
      <trkpt lat="46.347375512123108" lon="9.352347012609243">
        <ele>1176.3099999999999</ele>
        <time>2017-06-18T07:45:19Z</time>
      </trkpt>
      <trkpt lat="46.347456481307745" lon="9.352377103641629">
        <ele>1176.3099999999999</ele>
        <time>2017-06-18T07:45:25Z</time>
      </trkpt>
      <trkpt lat="46.347500653937459" lon="9.352421443909407">
        <ele>1177.27</ele>
        <time>2017-06-18T07:45:35Z</time>
      </trkpt>
      <trkpt lat="46.347506688907743" lon="9.352435609325767">
        <ele>1177.27</ele>
        <time>2017-06-18T07:45:40Z</time>
      </trkpt>
      <trkpt lat="46.347603918984532" lon="9.352580113336444">
        <ele>1177.75</ele>
        <time>2017-06-18T07:45:52Z</time>
      </trkpt>
      <trkpt lat="46.347683211788535" lon="9.352702992036939">
        <ele>1179.1900000000001</ele>
        <time>2017-06-18T07:46:03Z</time>
      </trkpt>
      <trkpt lat="46.347785973921418" lon="9.352846154943109">
        <ele>1180.6400000000001</ele>
        <time>2017-06-18T07:46:15Z</time>
      </trkpt>
      <trkpt lat="46.347872475162148" lon="9.352815309539437">
        <ele>1182.0799999999999</ele>
        <time>2017-06-18T07:46:26Z</time>
      </trkpt>
      <trkpt lat="46.347864428535104" lon="9.352728221565485">
        <ele>1182.5599999999999</ele>
        <time>2017-06-18T07:46:32Z</time>
      </trkpt>
      <trkpt lat="46.34785839356482" lon="9.352589081972837">
        <ele>1184.48</ele>
        <time>2017-06-18T07:46:43Z</time>
      </trkpt>
      <trkpt lat="46.34784858673811" lon="9.3524753395468">
        <ele>1185.4400000000001</ele>
        <time>2017-06-18T07:46:52Z</time>
      </trkpt>
      <trkpt lat="46.347856549546123" lon="9.352366710081697">
        <ele>1186.8800000000001</ele>
        <time>2017-06-18T07:47:03Z</time>
      </trkpt>
      <trkpt lat="46.347863506525755" lon="9.35234977863729">
        <ele>1186.4000000000001</ele>
        <time>2017-06-18T07:47:07Z</time>
      </trkpt>
      <trkpt lat="46.347838444635272" lon="9.352258164435625">
        <ele>1186.4000000000001</ele>
        <time>2017-06-18T07:47:15Z</time>
      </trkpt>
      <trkpt lat="46.347825117409229" lon="9.352071080356836">
        <ele>1187.8499999999999</ele>
        <time>2017-06-18T07:47:29Z</time>
      </trkpt>
      <trkpt lat="46.347807263955474" lon="9.351992458105087">
        <ele>1188.8099999999999</ele>
        <time>2017-06-18T07:47:34Z</time>
      </trkpt>
      <trkpt lat="46.347798714414239" lon="9.351954571902752">
        <ele>1189.77</ele>
        <time>2017-06-18T07:47:37Z</time>
      </trkpt>
      <trkpt lat="46.347739119082689" lon="9.351737815886736">
        <ele>1189.29</ele>
        <time>2017-06-18T07:47:51Z</time>
      </trkpt>
      <trkpt lat="46.347665106877685" lon="9.35153866186738">
        <ele>1189.77</ele>
        <time>2017-06-18T07:48:04Z</time>
      </trkpt>
      <trkpt lat="46.347598889842629" lon="9.351317044347525">
        <ele>1189.77</ele>
        <time>2017-06-18T07:48:18Z</time>
      </trkpt>
      <trkpt lat="46.347548263147473" lon="9.351113699376583">
        <ele>1189.77</ele>
        <time>2017-06-18T07:48:31Z</time>
      </trkpt>
      <trkpt lat="46.347540970891714" lon="9.351084362715483">
        <ele>1190.25</ele>
        <time>2017-06-18T07:48:33Z</time>
      </trkpt>
      <trkpt lat="46.347478777170181" lon="9.35090197250247">
        <ele>1191.21</ele>
        <time>2017-06-18T07:48:46Z</time>
      </trkpt>
      <trkpt lat="46.347413901239634" lon="9.350746739655733">
        <ele>1192.1700000000001</ele>
        <time>2017-06-18T07:48:58Z</time>
      </trkpt>
      <trkpt lat="46.347390851005912" lon="9.350571809336543">
        <ele>1193.6099999999999</ele>
        <time>2017-06-18T07:49:10Z</time>
      </trkpt>
      <trkpt lat="46.347409961745143" lon="9.350416073575616">
        <ele>1196.02</ele>
        <time>2017-06-18T07:49:22Z</time>
      </trkpt>
      <trkpt lat="46.347446590662003" lon="9.350232677534223">
        <ele>1197.9400000000001</ele>
        <time>2017-06-18T07:49:35Z</time>
      </trkpt>
      <trkpt lat="46.347487913444638" lon="9.350104937329888">
        <ele>1199.8599999999999</ele>
        <time>2017-06-18T07:49:45Z</time>
      </trkpt>
      <trkpt lat="46.347547341138124" lon="9.349977448582649">
        <ele>1201.3</ele>
        <time>2017-06-18T07:49:56Z</time>
      </trkpt>
      <trkpt lat="46.347601907327771" lon="9.349836381152272">
        <ele>1202.75</ele>
        <time>2017-06-18T07:50:07Z</time>
      </trkpt>
      <trkpt lat="46.347619844600558" lon="9.349776031449437">
        <ele>1203.71</ele>
        <time>2017-06-18T07:50:12Z</time>
      </trkpt>
      <trkpt lat="46.34764239192009" lon="9.349634628742933">
        <ele>1205.1500000000001</ele>
        <time>2017-06-18T07:50:22Z</time>
      </trkpt>
      <trkpt lat="46.347652031108737" lon="9.349495153874159">
        <ele>1206.5899999999999</ele>
        <time>2017-06-18T07:50:31Z</time>
      </trkpt>
      <trkpt lat="46.34765949100256" lon="9.349329862743616">
        <ele>1208.51</ele>
        <time>2017-06-18T07:50:43Z</time>
      </trkpt>
      <trkpt lat="46.347657814621925" lon="9.349156860262156">
        <ele>1210.9200000000001</ele>
        <time>2017-06-18T07:50:56Z</time>
      </trkpt>
      <trkpt lat="46.347665693610907" lon="9.348978912457824">
        <ele>1211.8800000000001</ele>
        <time>2017-06-18T07:51:08Z</time>
      </trkpt>
      <trkpt lat="46.3476936891675" lon="9.348807670176029">
        <ele>1212.8399999999999</ele>
        <time>2017-06-18T07:51:19Z</time>
      </trkpt>
      <trkpt lat="46.347709866240621" lon="9.348674230277538">
        <ele>1213.8</ele>
        <time>2017-06-18T07:51:29Z</time>
      </trkpt>
      <trkpt lat="46.347697461023927" lon="9.348616898059845">
        <ele>1214.28</ele>
        <time>2017-06-18T07:51:39Z</time>
      </trkpt>
      <trkpt lat="46.347681032493711" lon="9.348630644381046">
        <ele>1214.28</ele>
        <time>2017-06-18T07:51:49Z</time>
      </trkpt>
      <trkpt lat="46.347665442153811" lon="9.348592171445489">
        <ele>1214.76</ele>
        <time>2017-06-18T07:52:03Z</time>
      </trkpt>
      <trkpt lat="46.347662089392543" lon="9.348511537536979">
        <ele>1215.72</ele>
        <time>2017-06-18T07:52:11Z</time>
      </trkpt>
      <trkpt lat="46.347659910097718" lon="9.34849988669157">
        <ele>1216.21</ele>
        <time>2017-06-18T07:52:12Z</time>
      </trkpt>
      <trkpt lat="46.347663179039955" lon="9.348386730998755">
        <ele>1217.6500000000001</ele>
        <time>2017-06-18T07:52:21Z</time>
      </trkpt>
      <trkpt lat="46.34765119291842" lon="9.348232755437493">
        <ele>1219.5699999999999</ele>
        <time>2017-06-18T07:52:33Z</time>
      </trkpt>
      <trkpt lat="46.347639793530107" lon="9.348083892837167">
        <ele>1220.53</ele>
        <time>2017-06-18T07:52:43Z</time>
      </trkpt>
      <trkpt lat="46.34764825925231" lon="9.348004851490259">
        <ele>1221.97</ele>
        <time>2017-06-18T07:52:51Z</time>
      </trkpt>
      <trkpt lat="46.347684049978852" lon="9.347912399098277">
        <ele>1222.9300000000001</ele>
        <time>2017-06-18T07:53:01Z</time>
      </trkpt>
      <trkpt lat="46.347668040543795" lon="9.347929749637842">
        <ele>1222.9300000000001</ele>
        <time>2017-06-18T07:53:21Z</time>
      </trkpt>
      <trkpt lat="46.347662759944797" lon="9.347952716052532">
        <ele>1222.9300000000001</ele>
        <time>2017-06-18T07:53:43Z</time>
      </trkpt>
      <trkpt lat="46.347632501274347" lon="9.347973503172398">
        <ele>1222.45</ele>
        <time>2017-06-18T07:53:45Z</time>
      </trkpt>
      <trkpt lat="46.347585814073682" lon="9.347889348864555">
        <ele>1223.4200000000001</ele>
        <time>2017-06-18T07:53:52Z</time>
      </trkpt>
      <trkpt lat="46.347575252875686" lon="9.347767224535346">
        <ele>1224.8599999999999</ele>
        <time>2017-06-18T07:54:00Z</time>
      </trkpt>
      <trkpt lat="46.347539126873016" lon="9.347568238154054">
        <ele>1227.74</ele>
        <time>2017-06-18T07:54:14Z</time>
      </trkpt>
      <trkpt lat="46.347521105781198" lon="9.34737210161984">
        <ele>1228.7</ele>
        <time>2017-06-18T07:54:26Z</time>
      </trkpt>
      <trkpt lat="46.347529906779528" lon="9.347179401665926">
        <ele>1228.22</ele>
        <time>2017-06-18T07:54:36Z</time>
      </trkpt>
      <trkpt lat="46.347524207085371" lon="9.347107652574778">
        <ele>1229.1800000000001</ele>
        <time>2017-06-18T07:54:40Z</time>
      </trkpt>
      <trkpt lat="46.347535941749811" lon="9.346919730305672">
        <ele>1229.1800000000001</ele>
        <time>2017-06-18T07:54:50Z</time>
      </trkpt>
      <trkpt lat="46.347510796040297" lon="9.346729880198836">
        <ele>1230.1400000000001</ele>
        <time>2017-06-18T07:54:59Z</time>
      </trkpt>
      <trkpt lat="46.347517417743802" lon="9.346480015665293">
        <ele>1231.5899999999999</ele>
        <time>2017-06-18T07:55:12Z</time>
      </trkpt>
      <trkpt lat="46.347490176558495" lon="9.346255548298359">
        <ele>1233.51</ele>
        <time>2017-06-18T07:55:25Z</time>
      </trkpt>
      <trkpt lat="46.347438124939799" lon="9.346110709011555">
        <ele>1235.9100000000001</ele>
        <time>2017-06-18T07:55:37Z</time>
      </trkpt>
      <trkpt lat="46.347420271486044" lon="9.345952123403549">
        <ele>1237.8299999999999</ele>
        <time>2017-06-18T07:55:50Z</time>
      </trkpt>
      <trkpt lat="46.347434520721436" lon="9.345877356827259">
        <ele>1239.28</ele>
        <time>2017-06-18T07:55:57Z</time>
      </trkpt>
      <trkpt lat="46.347443237900734" lon="9.345840476453304">
        <ele>1239.76</ele>
        <time>2017-06-18T07:56:00Z</time>
      </trkpt>
      <trkpt lat="46.347475927323103" lon="9.345747856423259">
        <ele>1240.72</ele>
        <time>2017-06-18T07:56:10Z</time>
      </trkpt>
      <trkpt lat="46.347528230398893" lon="9.34560134075582">
        <ele>1242.1600000000001</ele>
        <time>2017-06-18T07:56:22Z</time>
      </trkpt>
      <trkpt lat="46.34752755984664" lon="9.345444850623608">
        <ele>1242.6400000000001</ele>
        <time>2017-06-18T07:56:33Z</time>
      </trkpt>
      <trkpt lat="46.347525380551815" lon="9.345370084047318">
        <ele>1243.1199999999999</ele>
        <time>2017-06-18T07:56:37Z</time>
      </trkpt>
      <trkpt lat="46.347529739141464" lon="9.345227172598243">
        <ele>1243.5999999999999</ele>
        <time>2017-06-18T07:56:46Z</time>
      </trkpt>
      <trkpt lat="46.347580784931779" lon="9.345031203702092">
        <ele>1245.04</ele>
        <time>2017-06-18T07:56:59Z</time>
      </trkpt>
      <trkpt lat="46.34761699475348" lon="9.344948055222631">
        <ele>1245.53</ele>
        <time>2017-06-18T07:57:05Z</time>
      </trkpt>
      <trkpt lat="46.347717996686697" lon="9.344803215935826">
        <ele>1246.01</ele>
        <time>2017-06-18T07:57:17Z</time>
      </trkpt>
      <trkpt lat="46.347784800454974" lon="9.344705734401941">
        <ele>1246.49</ele>
        <time>2017-06-18T07:57:25Z</time>
      </trkpt>
      <trkpt lat="46.347819920629263" lon="9.344516973942518">
        <ele>1247.45</ele>
        <time>2017-06-18T07:57:36Z</time>
      </trkpt>
      <trkpt lat="46.34784322232008" lon="9.344331314787269">
        <ele>1248.4100000000001</ele>
        <time>2017-06-18T07:57:47Z</time>
      </trkpt>
      <trkpt lat="46.347871134057641" lon="9.344149930402637">
        <ele>1249.3699999999999</ele>
        <time>2017-06-18T07:57:58Z</time>
      </trkpt>
      <trkpt lat="46.347934333607554" lon="9.343976508826017">
        <ele>1250.3299999999999</ele>
        <time>2017-06-18T07:58:10Z</time>
      </trkpt>
      <trkpt lat="46.34795512072742" lon="9.343853211030364">
        <ele>1250.8099999999999</ele>
        <time>2017-06-18T07:58:18Z</time>
      </trkpt>
      <trkpt lat="46.347974902018905" lon="9.343801243230701">
        <ele>1251.77</ele>
        <time>2017-06-18T07:58:22Z</time>
      </trkpt>
      <trkpt lat="46.348008261993527" lon="9.343653470277786">
        <ele>1253.22</ele>
        <time>2017-06-18T07:58:34Z</time>
      </trkpt>
      <trkpt lat="46.348033659160137" lon="9.343554982915521">
        <ele>1254.6600000000001</ele>
        <time>2017-06-18T07:58:42Z</time>
      </trkpt>
      <trkpt lat="46.348048159852624" lon="9.343393547460437">
        <ele>1255.6199999999999</ele>
        <time>2017-06-18T07:58:53Z</time>
      </trkpt>
      <trkpt lat="46.348030976951122" lon="9.343229932710528">
        <ele>1256.5799999999999</ele>
        <time>2017-06-18T07:59:04Z</time>
      </trkpt>
      <trkpt lat="46.348017398267984" lon="9.343133121728897">
        <ele>1257.0599999999999</ele>
        <time>2017-06-18T07:59:10Z</time>
      </trkpt>
      <trkpt lat="46.34804111905396" lon="9.34298375621438">
        <ele>1258.02</ele>
        <time>2017-06-18T07:59:21Z</time>
      </trkpt>
      <trkpt lat="46.348095182329416" lon="9.342856770381331">
        <ele>1258.5</ele>
        <time>2017-06-18T07:59:31Z</time>
      </trkpt>
      <trkpt lat="46.348150838166475" lon="9.342701621353626">
        <ele>1258.5</ele>
        <time>2017-06-18T07:59:41Z</time>
      </trkpt>
      <trkpt lat="46.348188808187842" lon="9.342522919178009">
        <ele>1258.5</ele>
        <time>2017-06-18T07:59:53Z</time>
      </trkpt>
      <trkpt lat="46.348227113485336" lon="9.342343881726265">
        <ele>1259.9400000000001</ele>
        <time>2017-06-18T08:00:05Z</time>
      </trkpt>
      <trkpt lat="46.34831135161221" lon="9.342199880629778">
        <ele>1260.4300000000001</ele>
        <time>2017-06-18T08:00:18Z</time>
      </trkpt>
      <trkpt lat="46.348350578919053" lon="9.342112205922604">
        <ele>1262.3499999999999</ele>
        <time>2017-06-18T08:00:27Z</time>
      </trkpt>
      <trkpt lat="46.348354518413544" lon="9.342100638896227">
        <ele>1262.8299999999999</ele>
        <time>2017-06-18T08:00:28Z</time>
      </trkpt>
      <trkpt lat="46.348360385745764" lon="9.341941885650158">
        <ele>1264.27</ele>
        <time>2017-06-18T08:00:39Z</time>
      </trkpt>
      <trkpt lat="46.348392572253942" lon="9.341748431324959">
        <ele>1264.27</ele>
        <time>2017-06-18T08:00:51Z</time>
      </trkpt>
      <trkpt lat="46.348440600559115" lon="9.341588001698256">
        <ele>1262.3499999999999</ele>
        <time>2017-06-18T08:01:02Z</time>
      </trkpt>
      <trkpt lat="46.348477564752102" lon="9.341356409713626">
        <ele>1259.46</ele>
        <time>2017-06-18T08:01:17Z</time>
      </trkpt>
      <trkpt lat="46.348500531166792" lon="9.341166643425822">
        <ele>1256.0999999999999</ele>
        <time>2017-06-18T08:01:30Z</time>
      </trkpt>
      <trkpt lat="46.348541434854269" lon="9.341007973998785">
        <ele>1253.22</ele>
        <time>2017-06-18T08:01:41Z</time>
      </trkpt>
      <trkpt lat="46.348551828414202" lon="9.3409139290452">
        <ele>1251.77</ele>
        <time>2017-06-18T08:01:48Z</time>
      </trkpt>
      <trkpt lat="46.348545290529728" lon="9.340677643194795">
        <ele>1248.8900000000001</ele>
        <time>2017-06-18T08:02:03Z</time>
      </trkpt>
      <trkpt lat="46.34854931384325" lon="9.340536911040545">
        <ele>1246.97</ele>
        <time>2017-06-18T08:02:13Z</time>
      </trkpt>
      <trkpt lat="46.348542189225554" lon="9.340521655976772">
        <ele>1246.97</ele>
        <time>2017-06-18T08:02:20Z</time>
      </trkpt>
      <trkpt lat="46.348568508401513" lon="9.340273216366768">
        <ele>1245.04</ele>
        <time>2017-06-18T08:02:33Z</time>
      </trkpt>
      <trkpt lat="46.348596252501011" lon="9.340033745393157">
        <ele>1244.5599999999999</ele>
        <time>2017-06-18T08:02:46Z</time>
      </trkpt>
      <trkpt lat="46.348603796213865" lon="9.339773906394839">
        <ele>1243.5999999999999</ele>
        <time>2017-06-18T08:03:01Z</time>
      </trkpt>
      <trkpt lat="46.348607987165451" lon="9.339740630239248">
        <ele>1243.1199999999999</ele>
        <time>2017-06-18T08:03:03Z</time>
      </trkpt>
      <trkpt lat="46.348657608032227" lon="9.339534100145102">
        <ele>1241.2</ele>
        <time>2017-06-18T08:03:15Z</time>
      </trkpt>
      <trkpt lat="46.348598599433899" lon="9.339342322200537">
        <ele>1242.1600000000001</ele>
        <time>2017-06-18T08:03:28Z</time>
      </trkpt>
      <trkpt lat="46.348551828414202" lon="9.339175019413233">
        <ele>1242.1600000000001</ele>
        <time>2017-06-18T08:03:40Z</time>
      </trkpt>
      <trkpt lat="46.348621901124716" lon="9.338959436863661">
        <ele>1241.2</ele>
        <time>2017-06-18T08:03:55Z</time>
      </trkpt>
      <trkpt lat="46.348641598597169" lon="9.33892423287034">
        <ele>1240.72</ele>
        <time>2017-06-18T08:03:58Z</time>
      </trkpt>
      <trkpt lat="46.348737990483642" lon="9.338768916204572">
        <ele>1240.24</ele>
        <time>2017-06-18T08:04:11Z</time>
      </trkpt>
      <trkpt lat="46.348756095394492" lon="9.33876003138721">
        <ele>1239.76</ele>
        <time>2017-06-18T08:04:21Z</time>
      </trkpt>
      <trkpt lat="46.348768752068281" lon="9.338756678625941">
        <ele>1240.24</ele>
        <time>2017-06-18T08:04:36Z</time>
      </trkpt>
      <trkpt lat="46.348731201142073" lon="9.338820464909077">
        <ele>1240.24</ele>
        <time>2017-06-18T08:04:45Z</time>
      </trkpt>
      <trkpt lat="46.348697254434228" lon="9.338855249807239">
        <ele>1240.24</ele>
        <time>2017-06-18T08:04:57Z</time>
      </trkpt>
      <trkpt lat="46.348656602203846" lon="9.33884066529572">
        <ele>1240.72</ele>
        <time>2017-06-18T08:05:07Z</time>
      </trkpt>
      <trkpt lat="46.348652662709355" lon="9.338857512921095">
        <ele>1240.72</ele>
        <time>2017-06-18T08:05:11Z</time>
      </trkpt>
      <trkpt lat="46.34852827526629" lon="9.338854243978858">
        <ele>1237.3499999999999</ele>
        <time>2017-06-18T08:05:23Z</time>
      </trkpt>
      <trkpt lat="46.348530119284987" lon="9.338739328086376">
        <ele>1235.4300000000001</ele>
        <time>2017-06-18T08:05:33Z</time>
      </trkpt>
      <trkpt lat="46.348559623584151" lon="9.338638996705413">
        <ele>1233.51</ele>
        <time>2017-06-18T08:05:43Z</time>
      </trkpt>
      <trkpt lat="46.348569011315703" lon="9.338594824075699">
        <ele>1233.03</ele>
        <time>2017-06-18T08:05:47Z</time>
      </trkpt>
      <trkpt lat="46.348581584170461" lon="9.338536066934466">
        <ele>1231.5899999999999</ele>
        <time>2017-06-18T08:05:56Z</time>
      </trkpt>
      <trkpt lat="46.348611004650593" lon="9.338446129113436">
        <ele>1229.6600000000001</ele>
        <time>2017-06-18T08:06:06Z</time>
      </trkpt>
      <trkpt lat="46.348625589162111" lon="9.338309587910771">
        <ele>1228.22</ele>
        <time>2017-06-18T08:06:17Z</time>
      </trkpt>
      <trkpt lat="46.348637994378805" lon="9.338163742795587">
        <ele>1225.8199999999999</ele>
        <time>2017-06-18T08:06:29Z</time>
      </trkpt>
      <trkpt lat="46.348646627739072" lon="9.338037427514792">
        <ele>1223.4200000000001</ele>
        <time>2017-06-18T08:06:41Z</time>
      </trkpt>
      <trkpt lat="46.348659787327051" lon="9.337895773351193">
        <ele>1222.45</ele>
        <time>2017-06-18T08:06:52Z</time>
      </trkpt>
      <trkpt lat="46.348704127594829" lon="9.33776568621397">
        <ele>1220.05</ele>
        <time>2017-06-18T08:07:02Z</time>
      </trkpt>
      <trkpt lat="46.348717957735062" lon="9.337742635980249">
        <ele>1219.5699999999999</ele>
        <time>2017-06-18T08:07:04Z</time>
      </trkpt>
      <trkpt lat="46.348818792030215" lon="9.33771338313818">
        <ele>1218.6099999999999</ele>
        <time>2017-06-18T08:07:14Z</time>
      </trkpt>
      <trkpt lat="46.348844608291984" lon="9.33765672147274">
        <ele>1219.0899999999999</ele>
        <time>2017-06-18T08:07:22Z</time>
      </trkpt>
      <trkpt lat="46.348815942183137" lon="9.337531244382262">
        <ele>1218.6099999999999</ele>
        <time>2017-06-18T08:07:30Z</time>
      </trkpt>
      <trkpt lat="46.348728351294994" lon="9.337427476420999">
        <ele>1217.1700000000001</ele>
        <time>2017-06-18T08:07:40Z</time>
      </trkpt>
      <trkpt lat="46.348681580275297" lon="9.33730736374855">
        <ele>1217.1700000000001</ele>
        <time>2017-06-18T08:07:50Z</time>
      </trkpt>
      <trkpt lat="46.348681412637234" lon="9.337291605770588">
        <ele>1216.6900000000001</ele>
        <time>2017-06-18T08:07:51Z</time>
      </trkpt>
      <trkpt lat="46.348683256655931" lon="9.337145509198308">
        <ele>1216.21</ele>
        <time>2017-06-18T08:08:00Z</time>
      </trkpt>
      <trkpt lat="46.348684849217534" lon="9.337090943008661">
        <ele>1216.21</ele>
        <time>2017-06-18T08:08:03Z</time>
      </trkpt>
      <trkpt lat="46.348720137029886" lon="9.336911905556917">
        <ele>1215.72</ele>
        <time>2017-06-18T08:08:17Z</time>
      </trkpt>
      <trkpt lat="46.348716448992491" lon="9.336897991597652">
        <ele>1215.72</ele>
        <time>2017-06-18T08:08:18Z</time>
      </trkpt>
      <trkpt lat="46.348745953291655" lon="9.336765557527542">
        <ele>1214.76</ele>
        <time>2017-06-18T08:08:28Z</time>
      </trkpt>
      <trkpt lat="46.348858186975121" lon="9.336720043793321">
        <ele>1215.24</ele>
        <time>2017-06-18T08:08:40Z</time>
      </trkpt>
      <trkpt lat="46.348903449252248" lon="9.336687102913857">
        <ele>1215.72</ele>
        <time>2017-06-18T08:08:48Z</time>
      </trkpt>
      <trkpt lat="46.348952148109674" lon="9.336654413491488">
        <ele>1217.1700000000001</ele>
        <time>2017-06-18T08:08:59Z</time>
      </trkpt>
      <trkpt lat="46.348962541669607" lon="9.336619209498167">
        <ele>1217.1700000000001</ele>
        <time>2017-06-18T08:09:08Z</time>
      </trkpt>
      <trkpt lat="46.348954243585467" lon="9.336595153436065">
        <ele>1216.6900000000001</ele>
        <time>2017-06-18T08:09:10Z</time>
      </trkpt>
      <trkpt lat="46.348964469507337" lon="9.336579814553261">
        <ele>1216.21</ele>
        <time>2017-06-18T08:09:20Z</time>
      </trkpt>
      <trkpt lat="46.348963128402829" lon="9.336529606953263">
        <ele>1215.24</ele>
        <time>2017-06-18T08:09:28Z</time>
      </trkpt>
      <trkpt lat="46.348978048190475" lon="9.336402788758278">
        <ele>1214.76</ele>
        <time>2017-06-18T08:09:38Z</time>
      </trkpt>
      <trkpt lat="46.348971175029874" lon="9.336273455992341">
        <ele>1215.72</ele>
        <time>2017-06-18T08:09:49Z</time>
      </trkpt>
      <trkpt lat="46.348967403173447" lon="9.336207322776318">
        <ele>1215.72</ele>
        <time>2017-06-18T08:09:54Z</time>
      </trkpt>
      <trkpt lat="46.348969582468271" lon="9.336061896756291">
        <ele>1215.24</ele>
        <time>2017-06-18T08:10:05Z</time>
      </trkpt>
      <trkpt lat="46.348978886380792" lon="9.335971623659134">
        <ele>1214.28</ele>
        <time>2017-06-18T08:10:16Z</time>
      </trkpt>
      <trkpt lat="46.348981484770775" lon="9.335906077176333">
        <ele>1214.28</ele>
        <time>2017-06-18T08:10:21Z</time>
      </trkpt>
      <trkpt lat="46.348990453407168" lon="9.335889983922243">
        <ele>1215.24</ele>
        <time>2017-06-18T08:10:30Z</time>
      </trkpt>
      <trkpt lat="46.348989950492978" lon="9.335842961445451">
        <ele>1214.28</ele>
        <time>2017-06-18T08:10:42Z</time>
      </trkpt>
      <trkpt lat="46.348995566368103" lon="9.335807841271162">
        <ele>1213.8</ele>
        <time>2017-06-18T08:10:46Z</time>
      </trkpt>
      <trkpt lat="46.349029596894979" lon="9.335742630064488">
        <ele>1214.28</ele>
        <time>2017-06-18T08:10:54Z</time>
      </trkpt>
      <trkpt lat="46.349116265773773" lon="9.335628720000386">
        <ele>1214.76</ele>
        <time>2017-06-18T08:11:06Z</time>
      </trkpt>
      <trkpt lat="46.349120624363422" lon="9.335616817697883">
        <ele>1214.76</ele>
        <time>2017-06-18T08:11:07Z</time>
      </trkpt>
      <trkpt lat="46.349128754809499" lon="9.335588067770004">
        <ele>1214.76</ele>
        <time>2017-06-18T08:11:09Z</time>
      </trkpt>
      <trkpt lat="46.349187595769763" lon="9.335378017276526">
        <ele>1215.24</ele>
        <time>2017-06-18T08:11:22Z</time>
      </trkpt>
      <trkpt lat="46.34923973120749" lon="9.335229070857167">
        <ele>1214.76</ele>
        <time>2017-06-18T08:11:34Z</time>
      </trkpt>
      <trkpt lat="46.349276276305318" lon="9.335026815533638">
        <ele>1214.76</ele>
        <time>2017-06-18T08:11:47Z</time>
      </trkpt>
      <trkpt lat="46.349293878301978" lon="9.334930758923292">
        <ele>1214.76</ele>
        <time>2017-06-18T08:11:53Z</time>
      </trkpt>
      <trkpt lat="46.349329417571425" lon="9.334705621004105">
        <ele>1213.3199999999999</ele>
        <time>2017-06-18T08:12:08Z</time>
      </trkpt>
      <trkpt lat="46.349350791424513" lon="9.334535803645849">
        <ele>1212.8399999999999</ele>
        <time>2017-06-18T08:12:19Z</time>
      </trkpt>
      <trkpt lat="46.349387085065246" lon="9.334355508908629">
        <ele>1214.76</ele>
        <time>2017-06-18T08:12:33Z</time>
      </trkpt>
      <trkpt lat="46.349416421726346" lon="9.334221314638853">
        <ele>1214.76</ele>
        <time>2017-06-18T08:12:44Z</time>
      </trkpt>
      <trkpt lat="46.349448608234525" lon="9.334097430109978">
        <ele>1216.21</ele>
        <time>2017-06-18T08:12:55Z</time>
      </trkpt>
      <trkpt lat="46.349424803629518" lon="9.334024842828512">
        <ele>1216.6900000000001</ele>
        <time>2017-06-18T08:13:03Z</time>
      </trkpt>
      <trkpt lat="46.349430670961738" lon="9.333885535597801">
        <ele>1218.1300000000001</ele>
        <time>2017-06-18T08:13:14Z</time>
      </trkpt>
      <trkpt lat="46.349425977095962" lon="9.333790317177773">
        <ele>1219.0899999999999</ele>
        <time>2017-06-18T08:13:22Z</time>
      </trkpt>
      <trkpt lat="46.349434442818165" lon="9.333676071837544">
        <ele>1220.53</ele>
        <time>2017-06-18T08:13:34Z</time>
      </trkpt>
      <trkpt lat="46.349412314593792" lon="9.333607256412506">
        <ele>1221.97</ele>
        <time>2017-06-18T08:13:45Z</time>
      </trkpt>
      <trkpt lat="46.349385241046548" lon="9.333545984700322">
        <ele>1222.45</ele>
        <time>2017-06-18T08:13:53Z</time>
      </trkpt>
      <trkpt lat="46.349334195256233" lon="9.333385471254587">
        <ele>1222.45</ele>
        <time>2017-06-18T08:14:05Z</time>
      </trkpt>
      <trkpt lat="46.349332015961409" lon="9.33337289839983">
        <ele>1221.97</ele>
        <time>2017-06-18T08:14:06Z</time>
      </trkpt>
      <trkpt lat="46.349355150014162" lon="9.333290420472622">
        <ele>1222.45</ele>
        <time>2017-06-18T08:14:12Z</time>
      </trkpt>
      <trkpt lat="46.349384738132358" lon="9.333248175680637">
        <ele>1222.9300000000001</ele>
        <time>2017-06-18T08:14:18Z</time>
      </trkpt>
      <trkpt lat="46.349431341513991" lon="9.333106772974134">
        <ele>1224.3800000000001</ele>
        <time>2017-06-18T08:14:29Z</time>
      </trkpt>
      <trkpt lat="46.349453218281269" lon="9.332993868738413">
        <ele>1225.3399999999999</ele>
        <time>2017-06-18T08:14:40Z</time>
      </trkpt>
      <trkpt lat="46.349454978480935" lon="9.332876605913043">
        <ele>1226.78</ele>
        <time>2017-06-18T08:14:49Z</time>
      </trkpt>
      <trkpt lat="46.349460678175092" lon="9.332828745245934">
        <ele>1226.78</ele>
        <time>2017-06-18T08:14:53Z</time>
      </trkpt>
      <trkpt lat="46.349539635702968" lon="9.332730425521731">
        <ele>1228.22</ele>
        <time>2017-06-18T08:15:04Z</time>
      </trkpt>
      <trkpt lat="46.349607277661562" lon="9.332648031413555">
        <ele>1229.6600000000001</ele>
        <time>2017-06-18T08:15:15Z</time>
      </trkpt>
      <trkpt lat="46.349639128893614" lon="9.332511825487018">
        <ele>1230.1400000000001</ele>
        <time>2017-06-18T08:15:25Z</time>
      </trkpt>
      <trkpt lat="46.349641727283597" lon="9.332481566816568">
        <ele>1230.6199999999999</ele>
        <time>2017-06-18T08:15:27Z</time>
      </trkpt>
      <trkpt lat="46.349606858566403" lon="9.332337733358145">
        <ele>1230.6199999999999</ele>
        <time>2017-06-18T08:15:38Z</time>
      </trkpt>
      <trkpt lat="46.349610546603799" lon="9.332223320379853">
        <ele>1231.1099999999999</ele>
        <time>2017-06-18T08:15:47Z</time>
      </trkpt>
      <trkpt lat="46.349608451128006" lon="9.332144362851977">
        <ele>1231.1099999999999</ele>
        <time>2017-06-18T08:15:52Z</time>
      </trkpt>
      <trkpt lat="46.349590932950377" lon="9.331985441967845">
        <ele>1231.1099999999999</ele>
        <time>2017-06-18T08:16:02Z</time>
      </trkpt>
      <trkpt lat="46.34948305785656" lon="9.331870106980205">
        <ele>1230.6199999999999</ele>
        <time>2017-06-18T08:16:14Z</time>
      </trkpt>
      <trkpt lat="46.349471993744373" lon="9.331721495836973">
        <ele>1230.6199999999999</ele>
        <time>2017-06-18T08:16:25Z</time>
      </trkpt>
      <trkpt lat="46.349474927410483" lon="9.331695595756173">
        <ele>1230.6199999999999</ele>
        <time>2017-06-18T08:16:27Z</time>
      </trkpt>
      <trkpt lat="46.349539803341031" lon="9.331546649336815">
        <ele>1233.51</ele>
        <time>2017-06-18T08:16:41Z</time>
      </trkpt>
      <trkpt lat="46.349557572975755" lon="9.33152586221695">
        <ele>1233.99</ele>
        <time>2017-06-18T08:16:44Z</time>
      </trkpt>
      <trkpt lat="46.349576935172081" lon="9.331502392888069">
        <ele>1233.99</ele>
        <time>2017-06-18T08:16:47Z</time>
      </trkpt>
      <trkpt lat="46.34958179667592" lon="9.331469535827637">
        <ele>1234.95</ele>
        <time>2017-06-18T08:16:50Z</time>
      </trkpt>
      <trkpt lat="46.349562602117658" lon="9.331369874998927">
        <ele>1235.9100000000001</ele>
        <time>2017-06-18T08:16:57Z</time>
      </trkpt>
      <trkpt lat="46.349549191072583" lon="9.331203494220972">
        <ele>1237.3499999999999</ele>
        <time>2017-06-18T08:17:09Z</time>
      </trkpt>
      <trkpt lat="46.349529745057225" lon="9.331009788438678">
        <ele>1239.28</ele>
        <time>2017-06-18T08:17:21Z</time>
      </trkpt>
      <trkpt lat="46.349574336782098" lon="9.330844916403294">
        <ele>1240.72</ele>
        <time>2017-06-18T08:17:32Z</time>
      </trkpt>
      <trkpt lat="46.34962135925889" lon="9.330790853127837">
        <ele>1242.6400000000001</ele>
        <time>2017-06-18T08:17:41Z</time>
      </trkpt>
      <trkpt lat="46.349635859951377" lon="9.330783477053046">
        <ele>1243.1199999999999</ele>
        <time>2017-06-18T08:17:52Z</time>
      </trkpt>
      <trkpt lat="46.349624879658222" lon="9.330730838701129">
        <ele>1243.5999999999999</ele>
        <time>2017-06-18T08:18:05Z</time>
      </trkpt>
      <trkpt lat="46.349621945992112" lon="9.330660095438361">
        <ele>1244.5599999999999</ele>
        <time>2017-06-18T08:18:12Z</time>
      </trkpt>
      <trkpt lat="46.349611887708306" lon="9.330563200637698">
        <ele>1246.01</ele>
        <time>2017-06-18T08:18:22Z</time>
      </trkpt>
      <trkpt lat="46.349627645686269" lon="9.330466641113162">
        <ele>1247.9300000000001</ele>
        <time>2017-06-18T08:18:34Z</time>
      </trkpt>
      <trkpt lat="46.349690509960055" lon="9.330374859273434">
        <ele>1249.8499999999999</ele>
        <time>2017-06-18T08:18:47Z</time>
      </trkpt>
      <trkpt lat="46.349689001217484" lon="9.330339822918177">
        <ele>1250.3299999999999</ele>
        <time>2017-06-18T08:18:50Z</time>
      </trkpt>
      <trkpt lat="46.349694449454546" lon="9.330212501809001">
        <ele>1251.77</ele>
        <time>2017-06-18T08:19:00Z</time>
      </trkpt>
      <trkpt lat="46.349719343706965" lon="9.33012398891151">
        <ele>1253.22</ele>
        <time>2017-06-18T08:19:09Z</time>
      </trkpt>
      <trkpt lat="46.349723115563393" lon="9.330032458528876">
        <ele>1254.1800000000001</ele>
        <time>2017-06-18T08:19:16Z</time>
      </trkpt>
      <trkpt lat="46.349725378677249" lon="9.329962385818362">
        <ele>1254.6600000000001</ele>
        <time>2017-06-18T08:19:22Z</time>
      </trkpt>
      <trkpt lat="46.349728647619486" lon="9.32992173358798">
        <ele>1255.1400000000001</ele>
        <time>2017-06-18T08:19:25Z</time>
      </trkpt>
      <trkpt lat="46.349726635962725" lon="9.329845458269119">
        <ele>1255.6199999999999</ele>
        <time>2017-06-18T08:19:31Z</time>
      </trkpt>
      <trkpt lat="46.349739208817482" lon="9.329716712236404">
        <ele>1256.5799999999999</ele>
        <time>2017-06-18T08:19:41Z</time>
      </trkpt>
      <trkpt lat="46.349736275151372" lon="9.329677736386657">
        <ele>1257.0599999999999</ele>
        <time>2017-06-18T08:19:44Z</time>
      </trkpt>
      <trkpt lat="46.349708698689938" lon="9.329611519351602">
        <ele>1257.54</ele>
        <time>2017-06-18T08:19:50Z</time>
      </trkpt>
      <trkpt lat="46.349709033966064" lon="9.329558713361621">
        <ele>1257.0599999999999</ele>
        <time>2017-06-18T08:19:54Z</time>
      </trkpt>
      <trkpt lat="46.349762426689267" lon="9.329381939023733">
        <ele>1257.54</ele>
        <time>2017-06-18T08:20:06Z</time>
      </trkpt>
      <trkpt lat="46.34977818466723" lon="9.329283032566309">
        <ele>1258.02</ele>
        <time>2017-06-18T08:20:13Z</time>
      </trkpt>
      <trkpt lat="46.349806515499949" lon="9.329173061996698">
        <ele>1258.5</ele>
        <time>2017-06-18T08:20:21Z</time>
      </trkpt>
      <trkpt lat="46.34983534924686" lon="9.329173732548952">
        <ele>1258.98</ele>
        <time>2017-06-18T08:20:26Z</time>
      </trkpt>
      <trkpt lat="46.349880527704954" lon="9.329186556860805">
        <ele>1260.4300000000001</ele>
        <time>2017-06-18T08:20:35Z</time>
      </trkpt>
      <trkpt lat="46.349936183542013" lon="9.329175241291523">
        <ele>1262.3499999999999</ele>
        <time>2017-06-18T08:20:46Z</time>
      </trkpt>
      <trkpt lat="46.349997874349356" lon="9.329153532162309">
        <ele>1264.75</ele>
        <time>2017-06-18T08:20:58Z</time>
      </trkpt>
      <trkpt lat="46.350074568763375" lon="9.329149005934596">
        <ele>1266.1900000000001</ele>
        <time>2017-06-18T08:21:09Z</time>
      </trkpt>
      <trkpt lat="46.350127793848515" lon="9.329129224643111">
        <ele>1268.1199999999999</ele>
        <time>2017-06-18T08:21:20Z</time>
      </trkpt>
      <trkpt lat="46.35018520988524" lon="9.32907784357667">
        <ele>1269.5599999999999</ele>
        <time>2017-06-18T08:21:31Z</time>
      </trkpt>
      <trkpt lat="46.350230555981398" lon="9.329087315127254">
        <ele>1271.48</ele>
        <time>2017-06-18T08:21:42Z</time>
      </trkpt>
      <trkpt lat="46.350269112735987" lon="9.329100642353296">
        <ele>1273.4000000000001</ele>
        <time>2017-06-18T08:21:53Z</time>
      </trkpt>
      <trkpt lat="46.350296018645167" lon="9.329089997336268">
        <ele>1275.3299999999999</ele>
        <time>2017-06-18T08:22:03Z</time>
      </trkpt>
      <trkpt lat="46.350317895412445" lon="9.329051524400711">
        <ele>1276.77</ele>
        <time>2017-06-18T08:22:14Z</time>
      </trkpt>
      <trkpt lat="46.350359134376049" lon="9.329136349260807">
        <ele>1277.73</ele>
        <time>2017-06-18T08:22:25Z</time>
      </trkpt>
      <trkpt lat="46.350344382226467" lon="9.329170295968652">
        <ele>1279.6500000000001</ele>
        <time>2017-06-18T08:22:39Z</time>
      </trkpt>
      <trkpt lat="46.350393081083894" lon="9.329203153029084">
        <ele>1279.1700000000001</ele>
        <time>2017-06-18T08:22:49Z</time>
      </trkpt>
      <trkpt lat="46.350446809083223" lon="9.329278254881501">
        <ele>1280.6099999999999</ele>
        <time>2017-06-18T08:22:59Z</time>
      </trkpt>
      <trkpt lat="46.350450748577714" lon="9.329289989545941">
        <ele>1280.6099999999999</ele>
        <time>2017-06-18T08:23:00Z</time>
      </trkpt>
      <trkpt lat="46.350500453263521" lon="9.329398702830076">
        <ele>1282.0599999999999</ele>
        <time>2017-06-18T08:23:12Z</time>
      </trkpt>
      <trkpt lat="46.350569436326623" lon="9.329337514936924">
        <ele>1283.5</ele>
        <time>2017-06-18T08:23:25Z</time>
      </trkpt>
      <trkpt lat="46.350600868463516" lon="9.329201811924577">
        <ele>1285.4200000000001</ele>
        <time>2017-06-18T08:23:37Z</time>
      </trkpt>
      <trkpt lat="46.35066163726151" lon="9.329243302345276">
        <ele>1286.8599999999999</ele>
        <time>2017-06-18T08:23:48Z</time>
      </trkpt>
      <trkpt lat="46.350740259513259" lon="9.329344388097525">
        <ele>1288.3</ele>
        <time>2017-06-18T08:23:59Z</time>
      </trkpt>
      <trkpt lat="46.350797256454825" lon="9.329438600689173">
        <ele>1289.75</ele>
        <time>2017-06-18T08:24:11Z</time>
      </trkpt>
      <trkpt lat="46.35085953399539" lon="9.329410437494516">
        <ele>1291.1900000000001</ele>
        <time>2017-06-18T08:24:23Z</time>
      </trkpt>
      <trkpt lat="46.350869005545974" lon="9.329280937090516">
        <ele>1292.6300000000001</ele>
        <time>2017-06-18T08:24:34Z</time>
      </trkpt>
      <trkpt lat="46.350922649726272" lon="9.329190580174327">
        <ele>1294.55</ele>
        <time>2017-06-18T08:24:46Z</time>
      </trkpt>
      <trkpt lat="46.350984508171678" lon="9.329320164397359">
        <ele>1296.48</ele>
        <time>2017-06-18T08:24:59Z</time>
      </trkpt>
      <trkpt lat="46.351025914773345" lon="9.329404402524233">
        <ele>1297.9200000000001</ele>
        <time>2017-06-18T08:25:11Z</time>
      </trkpt>
      <trkpt lat="46.351069584488869" lon="9.329506997019053">
        <ele>1299.3599999999999</ele>
        <time>2017-06-18T08:25:25Z</time>
      </trkpt>
      <trkpt lat="46.351112332195044" lon="9.329630043357611">
        <ele>1301.28</ele>
        <time>2017-06-18T08:25:38Z</time>
      </trkpt>
      <trkpt lat="46.351137729361653" lon="9.329734733328223">
        <ele>1302.72</ele>
        <time>2017-06-18T08:25:49Z</time>
      </trkpt>
      <trkpt lat="46.351168407127261" lon="9.329861048609018">
        <ele>1303.2</ele>
        <time>2017-06-18T08:26:00Z</time>
      </trkpt>
      <trkpt lat="46.351220877841115" lon="9.329948723316193">
        <ele>1304.1700000000001</ele>
        <time>2017-06-18T08:26:10Z</time>
      </trkpt>
      <trkpt lat="46.35126605629921" lon="9.329937240108848">
        <ele>1305.6099999999999</ele>
        <time>2017-06-18T08:26:21Z</time>
      </trkpt>
      <trkpt lat="46.351302266120911" lon="9.329842943698168">
        <ele>1307.05</ele>
        <time>2017-06-18T08:26:31Z</time>
      </trkpt>
      <trkpt lat="46.351320119574666" lon="9.32975267060101">
        <ele>1308.97</ele>
        <time>2017-06-18T08:26:44Z</time>
      </trkpt>
      <trkpt lat="46.351326908916235" lon="9.329668348655105">
        <ele>1310.4100000000001</ele>
        <time>2017-06-18T08:26:53Z</time>
      </trkpt>
      <trkpt lat="46.351331938058138" lon="9.329556785523891">
        <ele>1312.3399999999999</ele>
        <time>2017-06-18T08:27:04Z</time>
      </trkpt>
      <trkpt lat="46.351357419043779" lon="9.329450000077486">
        <ele>1314.26</ele>
        <time>2017-06-18T08:27:16Z</time>
      </trkpt>
      <trkpt lat="46.35137208737433" lon="9.329352015629411">
        <ele>1315.7</ele>
        <time>2017-06-18T08:27:27Z</time>
      </trkpt>
      <trkpt lat="46.351389270275831" lon="9.329279931262136">
        <ele>1317.1400000000001</ele>
        <time>2017-06-18T08:27:38Z</time>
      </trkpt>
      <trkpt lat="46.35141609236598" lon="9.329194435849786">
        <ele>1319.0699999999999</ele>
        <time>2017-06-18T08:27:49Z</time>
      </trkpt>
      <trkpt lat="46.351455906406045" lon="9.329212540760636">
        <ele>1319.55</ele>
        <time>2017-06-18T08:27:57Z</time>
      </trkpt>
      <trkpt lat="46.351523296907544" lon="9.329355955123901">
        <ele>1321.47</ele>
        <time>2017-06-18T08:28:10Z</time>
      </trkpt>
      <trkpt lat="46.351549532264471" lon="9.329465255141258">
        <ele>1322.9100000000001</ele>
        <time>2017-06-18T08:28:22Z</time>
      </trkpt>
      <trkpt lat="46.35158758610487" lon="9.329360397532582">
        <ele>1324.8299999999999</ele>
        <time>2017-06-18T08:28:32Z</time>
      </trkpt>
      <trkpt lat="46.351613402366638" lon="9.32924447581172">
        <ele>1325.8</ele>
        <time>2017-06-18T08:28:42Z</time>
      </trkpt>
      <trkpt lat="46.351643325760961" lon="9.329134002327919">
        <ele>1327.72</ele>
        <time>2017-06-18T08:28:53Z</time>
      </trkpt>
      <trkpt lat="46.35165648534894" lon="9.329087818041444">
        <ele>1328.2</ele>
        <time>2017-06-18T08:28:59Z</time>
      </trkpt>
      <trkpt lat="46.351674422621727" lon="9.32897717691958">
        <ele>1329.6400000000001</ele>
        <time>2017-06-18T08:29:11Z</time>
      </trkpt>
      <trkpt lat="46.351706860587001" lon="9.328884892165661">
        <ele>1331.5599999999999</ele>
        <time>2017-06-18T08:29:23Z</time>
      </trkpt>
      <trkpt lat="46.351696886122227" lon="9.32879151776433">
        <ele>1333.49</ele>
        <time>2017-06-18T08:29:35Z</time>
      </trkpt>
      <trkpt lat="46.351728066802025" lon="9.328705687075853">
        <ele>1334.9300000000001</ele>
        <time>2017-06-18T08:29:45Z</time>
      </trkpt>
      <trkpt lat="46.351782381534576" lon="9.328755391761661">
        <ele>1336.8499999999999</ele>
        <time>2017-06-18T08:29:55Z</time>
      </trkpt>
      <trkpt lat="46.351838707923889" lon="9.328860333189368">
        <ele>1338.77</ele>
        <time>2017-06-18T08:30:08Z</time>
      </trkpt>
      <trkpt lat="46.351879192516208" lon="9.328917749226093">
        <ele>1339.73</ele>
        <time>2017-06-18T08:30:17Z</time>
      </trkpt>
      <trkpt lat="46.351926634088159" lon="9.328975835815072">
        <ele>1341.1800000000001</ele>
        <time>2017-06-18T08:30:26Z</time>
      </trkpt>
      <trkpt lat="46.351933674886823" lon="9.328893274068832">
        <ele>1341.6600000000001</ele>
        <time>2017-06-18T08:30:33Z</time>
      </trkpt>
      <trkpt lat="46.351902578026056" lon="9.328755475580692">
        <ele>1344.54</ele>
        <time>2017-06-18T08:30:44Z</time>
      </trkpt>
      <trkpt lat="46.351885981857777" lon="9.328679032623768">
        <ele>1344.54</ele>
        <time>2017-06-18T08:30:54Z</time>
      </trkpt>
      <trkpt lat="46.351911127567291" lon="9.328646427020431">
        <ele>1345.98</ele>
        <time>2017-06-18T08:31:06Z</time>
      </trkpt>
      <trkpt lat="46.351962340995669" lon="9.328759415075183">
        <ele>1347.4300000000001</ele>
        <time>2017-06-18T08:31:18Z</time>
      </trkpt>
      <trkpt lat="46.35201221331954" lon="9.328824710100889">
        <ele>1348.8699999999999</ele>
        <time>2017-06-18T08:31:29Z</time>
      </trkpt>
      <trkpt lat="46.352048171684146" lon="9.328720020130277">
        <ele>1350.79</ele>
        <time>2017-06-18T08:31:41Z</time>
      </trkpt>
      <trkpt lat="46.352050686255097" lon="9.3286307528615">
        <ele>1352.23</ele>
        <time>2017-06-18T08:31:51Z</time>
      </trkpt>
      <trkpt lat="46.352026797831059" lon="9.328558249399066">
        <ele>1353.6700000000001</ele>
        <time>2017-06-18T08:32:00Z</time>
      </trkpt>
      <trkpt lat="46.352050183340907" lon="9.328452721238136">
        <ele>1355.5999999999999</ele>
        <time>2017-06-18T08:32:12Z</time>
      </trkpt>
      <trkpt lat="46.352068120613694" lon="9.32836982421577">
        <ele>1357.52</ele>
        <time>2017-06-18T08:32:22Z</time>
      </trkpt>
      <trkpt lat="46.352035263553262" lon="9.328306205570698">
        <ele>1358</ele>
        <time>2017-06-18T08:32:32Z</time>
      </trkpt>
      <trkpt lat="46.351971058174968" lon="9.328282820060849">
        <ele>1358.48</ele>
        <time>2017-06-18T08:32:43Z</time>
      </trkpt>
      <trkpt lat="46.351896543055773" lon="9.328223979100585">
        <ele>1360.4000000000001</ele>
        <time>2017-06-18T08:32:55Z</time>
      </trkpt>
      <trkpt lat="46.351846167817712" lon="9.32806539349258">
        <ele>1362.8099999999999</ele>
        <time>2017-06-18T08:33:11Z</time>
      </trkpt>
      <trkpt lat="46.35181674733758" lon="9.327941760420799">
        <ele>1365.21</ele>
        <time>2017-06-18T08:33:24Z</time>
      </trkpt>
      <trkpt lat="46.351821273565292" lon="9.3278484698385">
        <ele>1366.1700000000001</ele>
        <time>2017-06-18T08:33:34Z</time>
      </trkpt>
      <trkpt lat="46.351816998794675" lon="9.327783677726984">
        <ele>1367.6099999999999</ele>
        <time>2017-06-18T08:33:43Z</time>
      </trkpt>
      <trkpt lat="46.351828230544925" lon="9.32776247151196">
        <ele>1368.5699999999999</ele>
        <time>2017-06-18T08:33:47Z</time>
      </trkpt>
      <trkpt lat="46.351900398731232" lon="9.32776439934969">
        <ele>1369.05</ele>
        <time>2017-06-18T08:33:56Z</time>
      </trkpt>
      <trkpt lat="46.351964101195335" lon="9.327769177034497">
        <ele>1371.46</ele>
        <time>2017-06-18T08:34:06Z</time>
      </trkpt>
      <trkpt lat="46.352035431191325" lon="9.327838663011789">
        <ele>1372.4200000000001</ele>
        <time>2017-06-18T08:34:16Z</time>
      </trkpt>
      <trkpt lat="46.352073736488819" lon="9.32787730358541">
        <ele>1373.3800000000001</ele>
        <time>2017-06-18T08:34:26Z</time>
      </trkpt>
      <trkpt lat="46.352052027359605" lon="9.327771607786417">
        <ele>1375.3</ele>
        <time>2017-06-18T08:34:36Z</time>
      </trkpt>
      <trkpt lat="46.352023361250758" lon="9.327669600024819">
        <ele>1377.23</ele>
        <time>2017-06-18T08:34:47Z</time>
      </trkpt>
      <trkpt lat="46.352002238854766" lon="9.327597515657544">
        <ele>1378.6700000000001</ele>
        <time>2017-06-18T08:34:58Z</time>
      </trkpt>
      <trkpt lat="46.351983044296503" lon="9.327509673312306">
        <ele>1380.1099999999999</ele>
        <time>2017-06-18T08:35:09Z</time>
      </trkpt>
      <trkpt lat="46.352052194997668" lon="9.32754211127758">
        <ele>1381.55</ele>
        <time>2017-06-18T08:35:20Z</time>
      </trkpt>
      <trkpt lat="46.352108689025044" lon="9.327551834285259">
        <ele>1382.99</ele>
        <time>2017-06-18T08:35:29Z</time>
      </trkpt>
      <trkpt lat="46.352134672924876" lon="9.327547727152705">
        <ele>1382.99</ele>
        <time>2017-06-18T08:35:31Z</time>
      </trkpt>
      <trkpt lat="46.352137187495828" lon="9.327506069093943">
        <ele>1384.9200000000001</ele>
        <time>2017-06-18T08:35:40Z</time>
      </trkpt>
      <trkpt lat="46.352113634347916" lon="9.327459717169404">
        <ele>1385.8800000000001</ele>
        <time>2017-06-18T08:35:47Z</time>
      </trkpt>
      <trkpt lat="46.352156801149249" lon="9.327393164858222">
        <ele>1387.8</ele>
        <time>2017-06-18T08:35:58Z</time>
      </trkpt>
      <trkpt lat="46.352202147245407" lon="9.327442534267902">
        <ele>1389.24</ele>
        <time>2017-06-18T08:36:09Z</time>
      </trkpt>
      <trkpt lat="46.352255288511515" lon="9.327464327216148">
        <ele>1390.6800000000001</ele>
        <time>2017-06-18T08:36:19Z</time>
      </trkpt>
      <trkpt lat="46.352309184148908" lon="9.327484862878919">
        <ele>1392.6099999999999</ele>
        <time>2017-06-18T08:36:28Z</time>
      </trkpt>
      <trkpt lat="46.352377161383629" lon="9.327519899234176">
        <ele>1394.05</ele>
        <time>2017-06-18T08:36:40Z</time>
      </trkpt>
      <trkpt lat="46.352335168048739" lon="9.327402720227838">
        <ele>1395.97</ele>
        <time>2017-06-18T08:36:53Z</time>
      </trkpt>
      <trkpt lat="46.35235033929348" lon="9.327364498749375">
        <ele>1396.9300000000001</ele>
        <time>2017-06-18T08:37:05Z</time>
      </trkpt>
      <trkpt lat="46.352415215224028" lon="9.32739014737308">
        <ele>1399.3399999999999</ele>
        <time>2017-06-18T08:37:15Z</time>
      </trkpt>
      <trkpt lat="46.352417226880789" lon="9.327394003048539">
        <ele>1399.3399999999999</ele>
        <time>2017-06-18T08:37:16Z</time>
      </trkpt>
      <trkpt lat="46.352436086162925" lon="9.327404731884599">
        <ele>1400.3</ele>
        <time>2017-06-18T08:37:21Z</time>
      </trkpt>
      <trkpt lat="46.352470703423023" lon="9.32742384262383">
        <ele>1401.74</ele>
        <time>2017-06-18T08:37:28Z</time>
      </trkpt>
      <trkpt lat="46.352487802505493" lon="9.327318063005805">
        <ele>1403.6600000000001</ele>
        <time>2017-06-18T08:37:39Z</time>
      </trkpt>
      <trkpt lat="46.352464836090803" lon="9.327215719968081">
        <ele>1405.0999999999999</ele>
        <time>2017-06-18T08:37:51Z</time>
      </trkpt>
      <trkpt lat="46.352522922679782" lon="9.327316218987107">
        <ele>1407.03</ele>
        <time>2017-06-18T08:38:02Z</time>
      </trkpt>
      <trkpt lat="46.352550750598311" lon="9.327272633090615">
        <ele>1408.47</ele>
        <time>2017-06-18T08:38:13Z</time>
      </trkpt>
      <trkpt lat="46.352573130279779" lon="9.327219072729349">
        <ele>1409.9100000000001</ele>
        <time>2017-06-18T08:38:23Z</time>
      </trkpt>
      <trkpt lat="46.35261763818562" lon="9.327253438532352">
        <ele>1410.8699999999999</ele>
        <time>2017-06-18T08:38:34Z</time>
      </trkpt>
      <trkpt lat="46.352630043402314" lon="9.327170122414827">
        <ele>1412.79</ele>
        <time>2017-06-18T08:38:47Z</time>
      </trkpt>
      <trkpt lat="46.352673461660743" lon="9.327167356386781">
        <ele>1414.72</ele>
        <time>2017-06-18T08:38:58Z</time>
      </trkpt>
      <trkpt lat="46.352709420025349" lon="9.327210104092956">
        <ele>1416.1600000000001</ele>
        <time>2017-06-18T08:39:09Z</time>
      </trkpt>
      <trkpt lat="46.352695086970925" lon="9.327113209292293">
        <ele>1417.1199999999999</ele>
        <time>2017-06-18T08:39:20Z</time>
      </trkpt>
      <trkpt lat="46.352681759744883" lon="9.327032994478941">
        <ele>1418.5599999999999</ele>
        <time>2017-06-18T08:39:30Z</time>
      </trkpt>
      <trkpt lat="46.352690141648054" lon="9.326904499903321">
        <ele>1420</ele>
        <time>2017-06-18T08:39:40Z</time>
      </trkpt>
      <trkpt lat="46.35269139893353" lon="9.326818501576781">
        <ele>1421.45</ele>
        <time>2017-06-18T08:39:50Z</time>
      </trkpt>
      <trkpt lat="46.352709587663412" lon="9.326700400561094">
        <ele>1423.8499999999999</ele>
        <time>2017-06-18T08:40:04Z</time>
      </trkpt>
      <trkpt lat="46.352723082527518" lon="9.326615491881967">
        <ele>1425.77</ele>
        <time>2017-06-18T08:40:14Z</time>
      </trkpt>
      <trkpt lat="46.352744707837701" lon="9.326548017561436">
        <ele>1426.73</ele>
        <time>2017-06-18T08:40:25Z</time>
      </trkpt>
      <trkpt lat="46.352787874639034" lon="9.326687073335052">
        <ele>1428.6600000000001</ele>
        <time>2017-06-18T08:40:36Z</time>
      </trkpt>
      <trkpt lat="46.352827018126845" lon="9.326783716678619">
        <ele>1429.1400000000001</ele>
        <time>2017-06-18T08:40:46Z</time>
      </trkpt>
      <trkpt lat="46.352837411686778" lon="9.326802659779787">
        <ele>1429.6199999999999</ele>
        <time>2017-06-18T08:40:48Z</time>
      </trkpt>
      <trkpt lat="46.352859707549214" lon="9.326742142438889">
        <ele>1431.0599999999999</ele>
        <time>2017-06-18T08:40:57Z</time>
      </trkpt>
      <trkpt lat="46.35288585908711" lon="9.326690593734384">
        <ele>1432.5</ele>
        <time>2017-06-18T08:41:08Z</time>
      </trkpt>
      <trkpt lat="46.352927936241031" lon="9.326743483543396">
        <ele>1433.46</ele>
        <time>2017-06-18T08:41:18Z</time>
      </trkpt>
      <trkpt lat="46.353004965931177" lon="9.326810287311673">
        <ele>1434.9100000000001</ele>
        <time>2017-06-18T08:41:29Z</time>
      </trkpt>
      <trkpt lat="46.353068752214313" lon="9.326850771903992">
        <ele>1436.3499999999999</ele>
        <time>2017-06-18T08:41:38Z</time>
      </trkpt>
      <trkpt lat="46.353079732507467" lon="9.326862338930368">
        <ele>1436.8299999999999</ele>
        <time>2017-06-18T08:41:41Z</time>
      </trkpt>
      <trkpt lat="46.353108063340187" lon="9.326885221526027">
        <ele>1437.3099999999999</ele>
        <time>2017-06-18T08:41:51Z</time>
      </trkpt>
      <trkpt lat="46.353082079440355" lon="9.326818250119686">
        <ele>1438.75</ele>
        <time>2017-06-18T08:42:01Z</time>
      </trkpt>
      <trkpt lat="46.353077217936516" lon="9.326739544048905">
        <ele>1440.1900000000001</ele>
        <time>2017-06-18T08:42:11Z</time>
      </trkpt>
      <trkpt lat="46.353087527677417" lon="9.326680200174451">
        <ele>1441.6300000000001</ele>
        <time>2017-06-18T08:42:19Z</time>
      </trkpt>
      <trkpt lat="46.353160282596946" lon="9.3267329223454">
        <ele>1443.5599999999999</ele>
        <time>2017-06-18T08:42:30Z</time>
      </trkpt>
      <trkpt lat="46.353212501853704" lon="9.326714482158423">
        <ele>1445</ele>
        <time>2017-06-18T08:42:42Z</time>
      </trkpt>
      <trkpt lat="46.353223901242018" lon="9.326619012281299">
        <ele>1447.4000000000001</ele>
        <time>2017-06-18T08:42:55Z</time>
      </trkpt>
      <trkpt lat="46.353263799101114" lon="9.326613480225205">
        <ele>1449.3199999999999</ele>
        <time>2017-06-18T08:43:07Z</time>
      </trkpt>
      <trkpt lat="46.353314593434334" lon="9.326652036979795">
        <ele>1450.29</ele>
        <time>2017-06-18T08:43:17Z</time>
      </trkpt>
      <trkpt lat="46.353358263149858" lon="9.326691599562764">
        <ele>1452.21</ele>
        <time>2017-06-18T08:43:29Z</time>
      </trkpt>
      <trkpt lat="46.353397741913795" lon="9.326585819944739">
        <ele>1453.6500000000001</ele>
        <time>2017-06-18T08:43:40Z</time>
      </trkpt>
      <trkpt lat="46.353396316990256" lon="9.326579617336392">
        <ele>1454.1300000000001</ele>
        <time>2017-06-18T08:43:41Z</time>
      </trkpt>
      <trkpt lat="46.353432442992926" lon="9.326494038105011">
        <ele>1453.6500000000001</ele>
        <time>2017-06-18T08:43:51Z</time>
      </trkpt>
      <trkpt lat="46.353460187092423" lon="9.326450452208519">
        <ele>1457.02</ele>
        <time>2017-06-18T08:44:00Z</time>
      </trkpt>
      <trkpt lat="46.353489691391587" lon="9.326527062803507">
        <ele>1458.46</ele>
        <time>2017-06-18T08:44:12Z</time>
      </trkpt>
      <trkpt lat="46.353539563715458" lon="9.326613312587142">
        <ele>1460.3800000000001</ele>
        <time>2017-06-18T08:44:24Z</time>
      </trkpt>
      <trkpt lat="46.35358951985836" lon="9.326675590127707">
        <ele>1461.3399999999999</ele>
        <time>2017-06-18T08:44:34Z</time>
      </trkpt>
      <trkpt lat="46.353620951995254" lon="9.326613731682301">
        <ele>1463.26</ele>
        <time>2017-06-18T08:44:44Z</time>
      </trkpt>
      <trkpt lat="46.353651629760861" lon="9.326565200462937">
        <ele>1464.71</ele>
        <time>2017-06-18T08:44:53Z</time>
      </trkpt>
      <trkpt lat="46.353696053847671" lon="9.326512645930052">
        <ele>1466.1500000000001</ele>
        <time>2017-06-18T08:45:04Z</time>
      </trkpt>
      <trkpt lat="46.35373167693615" lon="9.326436035335064">
        <ele>1469.03</ele>
        <time>2017-06-18T08:45:17Z</time>
      </trkpt>
      <trkpt lat="46.353763611987233" lon="9.326382474973798">
        <ele>1470.47</ele>
        <time>2017-06-18T08:45:26Z</time>
      </trkpt>
      <trkpt lat="46.353823794052005" lon="9.326336206868291">
        <ele>1471.9200000000001</ele>
        <time>2017-06-18T08:45:37Z</time>
      </trkpt>
      <trkpt lat="46.353870900347829" lon="9.326259093359113">
        <ele>1474.3199999999999</ele>
        <time>2017-06-18T08:45:49Z</time>
      </trkpt>
      <trkpt lat="46.353931250050664" lon="9.326211400330067">
        <ele>1475.28</ele>
        <time>2017-06-18T08:46:00Z</time>
      </trkpt>
      <trkpt lat="46.353953629732132" lon="9.326178291812539">
        <ele>1476.72</ele>
        <time>2017-06-18T08:46:11Z</time>
      </trkpt>
      <trkpt lat="46.353996209800243" lon="9.326080894097686">
        <ele>1478.1600000000001</ele>
        <time>2017-06-18T08:46:23Z</time>
      </trkpt>
      <trkpt lat="46.354054464027286" lon="9.326071674004197">
        <ele>1479.1300000000001</ele>
        <time>2017-06-18T08:46:32Z</time>
      </trkpt>
      <trkpt lat="46.354066450148821" lon="9.326077625155449">
        <ele>1478.6500000000001</ele>
        <time>2017-06-18T08:46:40Z</time>
      </trkpt>
      <trkpt lat="46.354048680514097" lon="9.326074607670307">
        <ele>1480.0899999999999</ele>
        <time>2017-06-18T08:46:53Z</time>
      </trkpt>
      <trkpt lat="46.354025043547153" lon="9.326069327071309">
        <ele>1478.6500000000001</ele>
        <time>2017-06-18T08:47:15Z</time>
      </trkpt>
      <trkpt lat="46.354038789868355" lon="9.326033787801862">
        <ele>1478.6500000000001</ele>
        <time>2017-06-18T08:47:47Z</time>
      </trkpt>
      <trkpt lat="46.354038035497069" lon="9.326071590185165">
        <ele>1478.6500000000001</ele>
        <time>2017-06-18T08:48:19Z</time>
      </trkpt>
      <trkpt lat="46.354059744626284" lon="9.3260542396456">
        <ele>1479.1300000000001</ele>
        <time>2017-06-18T08:48:44Z</time>
      </trkpt>
      <trkpt lat="46.354075418785214" lon="9.326035799458623">
        <ele>1479.1300000000001</ele>
        <time>2017-06-18T08:49:12Z</time>
      </trkpt>
      <trkpt lat="46.353993192315102" lon="9.326074020937085">
        <ele>1479.6099999999999</ele>
        <time>2017-06-18T08:49:29Z</time>
      </trkpt>
      <trkpt lat="46.354000316932797" lon="9.326032530516386">
        <ele>1479.6099999999999</ele>
        <time>2017-06-18T08:49:50Z</time>
      </trkpt>
      <trkpt lat="46.353935692459345" lon="9.326041750609875">
        <ele>1479.6099999999999</ele>
        <time>2017-06-18T08:50:12Z</time>
      </trkpt>
      <trkpt lat="46.353974165394902" lon="9.326063459739089">
        <ele>1480.0899999999999</ele>
        <time>2017-06-18T08:50:31Z</time>
      </trkpt>
      <trkpt lat="46.354048596695065" lon="9.326045522466302">
        <ele>1480.0899999999999</ele>
        <time>2017-06-18T08:50:58Z</time>
      </trkpt>
      <trkpt lat="46.354044238105416" lon="9.326056335121393">
        <ele>1480.0899999999999</ele>
        <time>2017-06-18T08:51:22Z</time>
      </trkpt>
      <trkpt lat="46.354077849537134" lon="9.326069746166468">
        <ele>1480.0899999999999</ele>
        <time>2017-06-18T08:51:42Z</time>
      </trkpt>
      <trkpt lat="46.354012386873364" lon="9.326045271009207">
        <ele>1480.0899999999999</ele>
        <time>2017-06-18T08:52:07Z</time>
      </trkpt>
      <trkpt lat="46.353954384103417" lon="9.326088689267635">
        <ele>1480.5699999999999</ele>
        <time>2017-06-18T08:52:27Z</time>
      </trkpt>
      <trkpt lat="46.353937033563852" lon="9.326062789186835">
        <ele>1480.5699999999999</ele>
        <time>2017-06-18T08:52:54Z</time>
      </trkpt>
      <trkpt lat="46.353962011635303" lon="9.326082402840257">
        <ele>1480.5699999999999</ele>
        <time>2017-06-18T08:53:13Z</time>
      </trkpt>
      <trkpt lat="46.353956982493401" lon="9.326056418940425">
        <ele>1481.05</ele>
        <time>2017-06-18T08:53:37Z</time>
      </trkpt>
      <trkpt lat="46.353999059647322" lon="9.326036805287004">
        <ele>1481.05</ele>
        <time>2017-06-18T08:54:00Z</time>
      </trkpt>
      <trkpt lat="46.353987157344818" lon="9.326039403676987">
        <ele>1481.05</ele>
        <time>2017-06-18T08:54:22Z</time>
      </trkpt>
      <trkpt lat="46.354020768776536" lon="9.326047701761127">
        <ele>1481.53</ele>
        <time>2017-06-18T08:54:52Z</time>
      </trkpt>
      <trkpt lat="46.354013392701745" lon="9.326038146391511">
        <ele>1481.53</ele>
        <time>2017-06-18T08:55:19Z</time>
      </trkpt>
      <trkpt lat="46.353957150131464" lon="9.326030351221561">
        <ele>1481.53</ele>
        <time>2017-06-18T08:55:44Z</time>
      </trkpt>
      <trkpt lat="46.353937536478043" lon="9.326026830822229">
        <ele>1482.01</ele>
        <time>2017-06-18T08:56:06Z</time>
      </trkpt>
      <trkpt lat="46.353934099897742" lon="9.326033955439925">
        <ele>1482.01</ele>
        <time>2017-06-18T08:56:28Z</time>
      </trkpt>
      <trkpt lat="46.353940302506089" lon="9.326015515252948">
        <ele>1482.97</ele>
        <time>2017-06-18T08:56:43Z</time>
      </trkpt>
      <trkpt lat="46.354003418236971" lon="9.326048120856285">
        <ele>1483.45</ele>
        <time>2017-06-18T08:56:58Z</time>
      </trkpt>
      <trkpt lat="46.353968381881714" lon="9.326131101697683">
        <ele>1483.45</ele>
        <time>2017-06-18T08:57:13Z</time>
      </trkpt>
      <trkpt lat="46.35394080542028" lon="9.326175944879651">
        <ele>1483.45</ele>
        <time>2017-06-18T08:57:31Z</time>
      </trkpt>
      <trkpt lat="46.353915240615606" lon="9.326135460287333">
        <ele>1483.9300000000001</ele>
        <time>2017-06-18T08:57:49Z</time>
      </trkpt>
      <trkpt lat="46.353897303342819" lon="9.326109895482659">
        <ele>1483.9300000000001</ele>
        <time>2017-06-18T08:58:08Z</time>
      </trkpt>
      <trkpt lat="46.353908535093069" lon="9.326116098091006">
        <ele>1483.9300000000001</ele>
        <time>2017-06-18T08:58:25Z</time>
      </trkpt>
      <trkpt lat="46.353958658874035" lon="9.326237887144089">
        <ele>1485.3699999999999</ele>
        <time>2017-06-18T08:58:35Z</time>
      </trkpt>
      <trkpt lat="46.354000065475702" lon="9.326331093907356">
        <ele>1486.3399999999999</ele>
        <time>2017-06-18T08:58:46Z</time>
      </trkpt>
      <trkpt lat="46.354044154286385" lon="9.326318604871631">
        <ele>1487.78</ele>
        <time>2017-06-18T08:58:59Z</time>
      </trkpt>
      <trkpt lat="46.354049518704414" lon="9.326295722275972">
        <ele>1488.74</ele>
        <time>2017-06-18T08:59:04Z</time>
      </trkpt>
      <trkpt lat="46.354097379371524" lon="9.326214836910367">
        <ele>1490.1800000000001</ele>
        <time>2017-06-18T08:59:16Z</time>
      </trkpt>
      <trkpt lat="46.354137361049652" lon="9.326159851625562">
        <ele>1491.6199999999999</ele>
        <time>2017-06-18T08:59:26Z</time>
      </trkpt>
      <trkpt lat="46.35416560806334" lon="9.326105369254947">
        <ele>1492.5799999999999</ele>
        <time>2017-06-18T08:59:38Z</time>
      </trkpt>
      <trkpt lat="46.354221431538463" lon="9.326036218553782">
        <ele>1494.03</ele>
        <time>2017-06-18T08:59:48Z</time>
      </trkpt>
      <trkpt lat="46.354258395731449" lon="9.326000427827239">
        <ele>1495.47</ele>
        <time>2017-06-18T08:59:58Z</time>
      </trkpt>
      <trkpt lat="46.354304747655988" lon="9.325995985418558">
        <ele>1497.3900000000001</ele>
        <time>2017-06-18T09:00:09Z</time>
      </trkpt>
      <trkpt lat="46.354324193671346" lon="9.326082654297352">
        <ele>1498.3499999999999</ele>
        <time>2017-06-18T09:00:19Z</time>
      </trkpt>
      <trkpt lat="46.354321092367172" lon="9.326189607381821">
        <ele>1500.27</ele>
        <time>2017-06-18T09:00:30Z</time>
      </trkpt>
      <trkpt lat="46.354327546432614" lon="9.326212154701352">
        <ele>1500.27</ele>
        <time>2017-06-18T09:00:33Z</time>
      </trkpt>
      <trkpt lat="46.354309609159827" lon="9.326332351192832">
        <ele>1501.72</ele>
        <time>2017-06-18T09:00:43Z</time>
      </trkpt>
      <trkpt lat="46.354332156479359" lon="9.326340146362782">
        <ele>1502.6800000000001</ele>
        <time>2017-06-18T09:00:52Z</time>
      </trkpt>
      <trkpt lat="46.354370294138789" lon="9.326276695355773">
        <ele>1504.5999999999999</ele>
        <time>2017-06-18T09:01:03Z</time>
      </trkpt>
      <trkpt lat="46.354426788166165" lon="9.326225984841585">
        <ele>1505.5599999999999</ele>
        <time>2017-06-18T09:01:14Z</time>
      </trkpt>
      <trkpt lat="46.354499040171504" lon="9.326169323176146">
        <ele>1507</ele>
        <time>2017-06-18T09:01:24Z</time>
      </trkpt>
      <trkpt lat="46.354549583047628" lon="9.326097322627902">
        <ele>1508.9300000000001</ele>
        <time>2017-06-18T09:01:35Z</time>
      </trkpt>
      <trkpt lat="46.354584451764822" lon="9.326022304594517">
        <ele>1510.3699999999999</ele>
        <time>2017-06-18T09:01:45Z</time>
      </trkpt>
      <trkpt lat="46.354591911658645" lon="9.326009647920728">
        <ele>1510.3699999999999</ele>
        <time>2017-06-18T09:01:47Z</time>
      </trkpt>
      <trkpt lat="46.354629714041948" lon="9.325922140851617">
        <ele>1511.8099999999999</ele>
        <time>2017-06-18T09:01:56Z</time>
      </trkpt>
      <trkpt lat="46.354638682678342" lon="9.325847458094358">
        <ele>1512.77</ele>
        <time>2017-06-18T09:02:04Z</time>
      </trkpt>
      <trkpt lat="46.354625606909394" lon="9.325777133926749">
        <ele>1513.73</ele>
        <time>2017-06-18T09:02:13Z</time>
      </trkpt>
      <trkpt lat="46.354627283290029" lon="9.325705720111728">
        <ele>1514.6900000000001</ele>
        <time>2017-06-18T09:02:22Z</time>
      </trkpt>
      <trkpt lat="46.354632312431931" lon="9.325683424249291">
        <ele>1515.1800000000001</ele>
        <time>2017-06-18T09:02:27Z</time>
      </trkpt>
      <trkpt lat="46.354619152843952" lon="9.325621481984854">
        <ele>1515.1800000000001</ele>
        <time>2017-06-18T09:02:32Z</time>
      </trkpt>
      <trkpt lat="46.354597862809896" lon="9.325528275221586">
        <ele>1515.6600000000001</ele>
        <time>2017-06-18T09:02:43Z</time>
      </trkpt>
      <trkpt lat="46.354604568332434" lon="9.325469015166163">
        <ele>1516.1400000000001</ele>
        <time>2017-06-18T09:02:53Z</time>
      </trkpt>
      <trkpt lat="46.354605993255973" lon="9.325408833101392">
        <ele>1517.0999999999999</ele>
        <time>2017-06-18T09:03:02Z</time>
      </trkpt>
      <trkpt lat="46.354604735970497" lon="9.325401876121759">
        <ele>1517.5799999999999</ele>
        <time>2017-06-18T09:03:13Z</time>
      </trkpt>
      <trkpt lat="46.354607585817575" lon="9.325398020446301">
        <ele>1519.5</ele>
        <time>2017-06-18T09:03:23Z</time>
      </trkpt>
      <trkpt lat="46.354555785655975" lon="9.325374299660325">
        <ele>1521.4200000000001</ele>
        <time>2017-06-18T09:03:33Z</time>
      </trkpt>
      <trkpt lat="46.354474648833275" lon="9.325249996036291">
        <ele>1523.3499999999999</ele>
        <time>2017-06-18T09:03:43Z</time>
      </trkpt>
      <trkpt lat="46.354455035179853" lon="9.325233232229948">
        <ele>1524.79</ele>
        <time>2017-06-18T09:03:51Z</time>
      </trkpt>
      <trkpt lat="46.354478839784861" lon="9.325263826176524">
        <ele>1525.27</ele>
        <time>2017-06-18T09:04:01Z</time>
      </trkpt>
      <trkpt lat="46.354455621913075" lon="9.325288636609912">
        <ele>1525.75</ele>
        <time>2017-06-18T09:04:08Z</time>
      </trkpt>
      <trkpt lat="46.354384375736117" lon="9.325236668810248">
        <ele>1526.23</ele>
        <time>2017-06-18T09:04:19Z</time>
      </trkpt>
      <trkpt lat="46.354345483705401" lon="9.325164081528783">
        <ele>1527.1900000000001</ele>
        <time>2017-06-18T09:04:30Z</time>
      </trkpt>
      <trkpt lat="46.354328636080027" lon="9.3250872194767">
        <ele>1528.6300000000001</ele>
        <time>2017-06-18T09:04:39Z</time>
      </trkpt>
      <trkpt lat="46.354281948879361" lon="9.325003987178206">
        <ele>1530.0799999999999</ele>
        <time>2017-06-18T09:04:48Z</time>
      </trkpt>
      <trkpt lat="46.354249930009246" lon="9.324943302199245">
        <ele>1532.48</ele>
        <time>2017-06-18T09:04:59Z</time>
      </trkpt>
      <trkpt lat="46.354151945561171" lon="9.324788236990571">
        <ele>1533.9200000000001</ele>
        <time>2017-06-18T09:05:09Z</time>
      </trkpt>
      <trkpt lat="46.354110455140471" lon="9.324720678851008">
        <ele>1535.3599999999999</ele>
        <time>2017-06-18T09:05:17Z</time>
      </trkpt>
      <trkpt lat="46.354058822616935" lon="9.324672818183899">
        <ele>1536.8</ele>
        <time>2017-06-18T09:05:27Z</time>
      </trkpt>
      <trkpt lat="46.354010291397572" lon="9.324575755745173">
        <ele>1538.73</ele>
        <time>2017-06-18T09:05:36Z</time>
      </trkpt>
      <trkpt lat="46.353956228122115" lon="9.324472574517131">
        <ele>1539.6900000000001</ele>
        <time>2017-06-18T09:05:47Z</time>
      </trkpt>
      <trkpt lat="46.353915575891733" lon="9.32444030418992">
        <ele>1541.1300000000001</ele>
        <time>2017-06-18T09:05:59Z</time>
      </trkpt>
      <trkpt lat="46.353920521214604" lon="9.324407447129488">
        <ele>1542.5699999999999</ele>
        <time>2017-06-18T09:06:10Z</time>
      </trkpt>
      <trkpt lat="46.353913145139813" lon="9.324391772970557">
        <ele>1543.05</ele>
        <time>2017-06-18T09:06:28Z</time>
      </trkpt>
      <trkpt lat="46.353956731036305" lon="9.324349611997604">
        <ele>1544.5</ele>
        <time>2017-06-18T09:06:38Z</time>
      </trkpt>
      <trkpt lat="46.35399361141026" lon="9.324337206780911">
        <ele>1546.4200000000001</ele>
        <time>2017-06-18T09:06:47Z</time>
      </trkpt>
      <trkpt lat="46.353966118767858" lon="9.324304768815637">
        <ele>1547.3800000000001</ele>
        <time>2017-06-18T09:06:52Z</time>
      </trkpt>
      <trkpt lat="46.353929070755839" lon="9.324182141572237">
        <ele>1549.3</ele>
        <time>2017-06-18T09:07:02Z</time>
      </trkpt>
      <trkpt lat="46.353930411860347" lon="9.32408600114286">
        <ele>1551.22</ele>
        <time>2017-06-18T09:07:11Z</time>
      </trkpt>
      <trkpt lat="46.353958072140813" lon="9.324019616469741">
        <ele>1552.6700000000001</ele>
        <time>2017-06-18T09:07:21Z</time>
      </trkpt>
      <trkpt lat="46.353952959179878" lon="9.323992626741529">
        <ele>1554.1099999999999</ele>
        <time>2017-06-18T09:07:30Z</time>
      </trkpt>
      <trkpt lat="46.353930328041315" lon="9.323912495747209">
        <ele>1555.55</ele>
        <time>2017-06-18T09:07:40Z</time>
      </trkpt>
      <trkpt lat="46.353936698287725" lon="9.323777630925179">
        <ele>1556.99</ele>
        <time>2017-06-18T09:07:51Z</time>
      </trkpt>
      <trkpt lat="46.353946253657341" lon="9.323691381141543">
        <ele>1558.9200000000001</ele>
        <time>2017-06-18T09:08:01Z</time>
      </trkpt>
      <trkpt lat="46.353933848440647" lon="9.323607226833701">
        <ele>1559.8800000000001</ele>
        <time>2017-06-18T09:08:11Z</time>
      </trkpt>
      <trkpt lat="46.353885065764189" lon="9.323560539633036">
        <ele>1560.3599999999999</ele>
        <time>2017-06-18T09:08:22Z</time>
      </trkpt>
      <trkpt lat="46.353812729939818" lon="9.323503458872438">
        <ele>1561.3199999999999</ele>
        <time>2017-06-18T09:08:31Z</time>
      </trkpt>
      <trkpt lat="46.353759421035647" lon="9.323416873812676">
        <ele>1562.76</ele>
        <time>2017-06-18T09:08:41Z</time>
      </trkpt>
      <trkpt lat="46.353742992505431" lon="9.323309669271112">
        <ele>1564.2</ele>
        <time>2017-06-18T09:08:51Z</time>
      </trkpt>
      <trkpt lat="46.353735364973545" lon="9.323202129453421">
        <ele>1566.1199999999999</ele>
        <time>2017-06-18T09:09:02Z</time>
      </trkpt>
      <trkpt lat="46.353726563975215" lon="9.323106072843075">
        <ele>1568.05</ele>
        <time>2017-06-18T09:09:13Z</time>
      </trkpt>
      <trkpt lat="46.353810131549835" lon="9.323108419775963">
        <ele>1569.49</ele>
        <time>2017-06-18T09:09:24Z</time>
      </trkpt>
      <trkpt lat="46.353856064379215" lon="9.323130715638399">
        <ele>1571.4100000000001</ele>
        <time>2017-06-18T09:09:34Z</time>
      </trkpt>
      <trkpt lat="46.353935524821281" lon="9.323176145553589">
        <ele>1572.8499999999999</ele>
        <time>2017-06-18T09:09:47Z</time>
      </trkpt>
      <trkpt lat="46.353963017463684" lon="9.323191735893488">
        <ele>1574.3</ele>
        <time>2017-06-18T09:09:58Z</time>
      </trkpt>
      <trkpt lat="46.353917419910431" lon="9.323133146390319">
        <ele>1576.22</ele>
        <time>2017-06-18T09:10:10Z</time>
      </trkpt>
      <trkpt lat="46.353912558406591" lon="9.323078077286482">
        <ele>1578.1400000000001</ele>
        <time>2017-06-18T09:10:21Z</time>
      </trkpt>
      <trkpt lat="46.353897387161851" lon="9.322987217456102">
        <ele>1580.0599999999999</ele>
        <time>2017-06-18T09:10:30Z</time>
      </trkpt>
      <trkpt lat="46.353890094906092" lon="9.322934076189995">
        <ele>1581.51</ele>
        <time>2017-06-18T09:10:41Z</time>
      </trkpt>
      <trkpt lat="46.35386754758656" lon="9.322849586606026">
        <ele>1583.9100000000001</ele>
        <time>2017-06-18T09:10:53Z</time>
      </trkpt>
      <trkpt lat="46.353860339149833" lon="9.322790326550603">
        <ele>1585.3499999999999</ele>
        <time>2017-06-18T09:11:04Z</time>
      </trkpt>
      <trkpt lat="46.353890094906092" lon="9.322762750089169">
        <ele>1586.79</ele>
        <time>2017-06-18T09:11:12Z</time>
      </trkpt>
      <trkpt lat="46.353946253657341" lon="9.322786387056112">
        <ele>1588.24</ele>
        <time>2017-06-18T09:11:22Z</time>
      </trkpt>
      <trkpt lat="46.353991851210594" lon="9.322835756465793">
        <ele>1589.2</ele>
        <time>2017-06-18T09:11:33Z</time>
      </trkpt>
      <trkpt lat="46.354030407965183" lon="9.322852184996009">
        <ele>1590.1600000000001</ele>
        <time>2017-06-18T09:11:42Z</time>
      </trkpt>
      <trkpt lat="46.354083213955164" lon="9.322909517213702">
        <ele>1592.0799999999999</ele>
        <time>2017-06-18T09:11:55Z</time>
      </trkpt>
      <trkpt lat="46.354124872013927" lon="9.322960395365953">
        <ele>1594</ele>
        <time>2017-06-18T09:12:08Z</time>
      </trkpt>
      <trkpt lat="46.3541763368994" lon="9.323044382035732">
        <ele>1595.45</ele>
        <time>2017-06-18T09:12:19Z</time>
      </trkpt>
      <trkpt lat="46.354220928624272" lon="9.323064582422376">
        <ele>1597.3699999999999</ele>
        <time>2017-06-18T09:12:30Z</time>
      </trkpt>
      <trkpt lat="46.354189999401569" lon="9.322992581874132">
        <ele>1598.8099999999999</ele>
        <time>2017-06-18T09:12:40Z</time>
      </trkpt>
      <trkpt lat="46.35419737547636" lon="9.322975734248757">
        <ele>1599.77</ele>
        <time>2017-06-18T09:12:50Z</time>
      </trkpt>
      <trkpt lat="46.354255462065339" lon="9.323073802515864">
        <ele>1602.1700000000001</ele>
        <time>2017-06-18T09:13:04Z</time>
      </trkpt>
      <trkpt lat="46.354294773191214" lon="9.323115376755595">
        <ele>1603.6199999999999</ele>
        <time>2017-06-18T09:13:14Z</time>
      </trkpt>
      <trkpt lat="46.354350512847304" lon="9.323181677609682">
        <ele>1604.5799999999999</ele>
        <time>2017-06-18T09:13:23Z</time>
      </trkpt>
      <trkpt lat="46.35438303463161" lon="9.323271783068776">
        <ele>1605.54</ele>
        <time>2017-06-18T09:13:33Z</time>
      </trkpt>
      <trkpt lat="46.354445144534111" lon="9.323292905464768">
        <ele>1606.5</ele>
        <time>2017-06-18T09:13:44Z</time>
      </trkpt>
      <trkpt lat="46.35450029745698" lon="9.323347974568605">
        <ele>1607.46</ele>
        <time>2017-06-18T09:13:55Z</time>
      </trkpt>
      <trkpt lat="46.354554612189531" lon="9.323393404483795">
        <ele>1609.3800000000001</ele>
        <time>2017-06-18T09:14:06Z</time>
      </trkpt>
      <trkpt lat="46.35459266602993" lon="9.323473032563925">
        <ele>1610.3499999999999</ele>
        <time>2017-06-18T09:14:15Z</time>
      </trkpt>
      <trkpt lat="46.354639437049627" lon="9.3235744535923">
        <ele>1610.8299999999999</ele>
        <time>2017-06-18T09:14:25Z</time>
      </trkpt>
      <trkpt lat="46.354715544730425" lon="9.323681239038706">
        <ele>1610.3499999999999</ele>
        <time>2017-06-18T09:14:38Z</time>
      </trkpt>
      <trkpt lat="46.354752592742443" lon="9.323791963979602">
        <ele>1610.8299999999999</ele>
        <time>2017-06-18T09:14:48Z</time>
      </trkpt>
      <trkpt lat="46.354733482003212" lon="9.323863629251719">
        <ele>1612.27</ele>
        <time>2017-06-18T09:14:59Z</time>
      </trkpt>
      <trkpt lat="46.354729039594531" lon="9.323959099128842">
        <ele>1616.1099999999999</ele>
        <time>2017-06-18T09:15:10Z</time>
      </trkpt>
      <trkpt lat="46.354772709310055" lon="9.324033614248037">
        <ele>1615.6300000000001</ele>
        <time>2017-06-18T09:15:19Z</time>
      </trkpt>
      <trkpt lat="46.354797519743443" lon="9.324019448831677">
        <ele>1617.5599999999999</ele>
        <time>2017-06-18T09:15:30Z</time>
      </trkpt>
      <trkpt lat="46.354806236922741" lon="9.323954908177257">
        <ele>1619</ele>
        <time>2017-06-18T09:15:41Z</time>
      </trkpt>
      <trkpt lat="46.354841524735093" lon="9.323936887085438">
        <ele>1619.96</ele>
        <time>2017-06-18T09:15:51Z</time>
      </trkpt>
      <trkpt lat="46.354856444522738" lon="9.32399220764637">
        <ele>1620.9200000000001</ele>
        <time>2017-06-18T09:16:01Z</time>
      </trkpt>
      <trkpt lat="46.354835741221905" lon="9.324039565399289">
        <ele>1621.4000000000001</ele>
        <time>2017-06-18T09:16:17Z</time>
      </trkpt>
      <trkpt lat="46.354883350431919" lon="9.324103351682425">
        <ele>1622.8399999999999</ele>
        <time>2017-06-18T09:16:34Z</time>
      </trkpt>
      <trkpt lat="46.354919392615557" lon="9.324203263968229">
        <ele>1623.8</ele>
        <time>2017-06-18T09:16:45Z</time>
      </trkpt>
      <trkpt lat="46.354945376515388" lon="9.324207287281752">
        <ele>1623.8</ele>
        <time>2017-06-18T09:17:01Z</time>
      </trkpt>
      <trkpt lat="46.354943532496691" lon="9.324154565110803">
        <ele>1624.77</ele>
        <time>2017-06-18T09:17:14Z</time>
      </trkpt>
      <trkpt lat="46.354950070381165" lon="9.324185578152537">
        <ele>1624.77</ele>
        <time>2017-06-18T09:17:28Z</time>
      </trkpt>
      <trkpt lat="46.354936072602868" lon="9.324182141572237">
        <ele>1625.73</ele>
        <time>2017-06-18T09:17:38Z</time>
      </trkpt>
      <trkpt lat="46.354908579960465" lon="9.324115170165896">
        <ele>1627.1700000000001</ele>
        <time>2017-06-18T09:17:49Z</time>
      </trkpt>
      <trkpt lat="46.354934731498361" lon="9.324062950909138">
        <ele>1629.0899999999999</ele>
        <time>2017-06-18T09:17:59Z</time>
      </trkpt>
      <trkpt lat="46.355012180283666" lon="9.324109889566898">
        <ele>1631.01</ele>
        <time>2017-06-18T09:18:10Z</time>
      </trkpt>
      <trkpt lat="46.355010336264968" lon="9.324136627838016">
        <ele>1631.49</ele>
        <time>2017-06-18T09:18:21Z</time>
      </trkpt>
      <trkpt lat="46.355047468096018" lon="9.32419253513217">
        <ele>1632.9400000000001</ele>
        <time>2017-06-18T09:18:33Z</time>
      </trkpt>
      <trkpt lat="46.355102453380823" lon="9.32423796504736">
        <ele>1633.9000000000001</ele>
        <time>2017-06-18T09:18:42Z</time>
      </trkpt>
      <trkpt lat="46.355100860819221" lon="9.324201168492436">
        <ele>1635.3399999999999</ele>
        <time>2017-06-18T09:18:51Z</time>
      </trkpt>
      <trkpt lat="46.355092730373144" lon="9.324156073853374">
        <ele>1636.78</ele>
        <time>2017-06-18T09:19:01Z</time>
      </trkpt>
      <trkpt lat="46.355079906061292" lon="9.324072757735848">
        <ele>1639.6700000000001</ele>
        <time>2017-06-18T09:19:13Z</time>
      </trkpt>
      <trkpt lat="46.355079738423228" lon="9.324015257880092">
        <ele>1640.1500000000001</ele>
        <time>2017-06-18T09:19:24Z</time>
      </trkpt>
      <trkpt lat="46.355091389268637" lon="9.323932947590947">
        <ele>1642.0699999999999</ele>
        <time>2017-06-18T09:19:35Z</time>
      </trkpt>
      <trkpt lat="46.355088204145432" lon="9.323832616209984">
        <ele>1643.51</ele>
        <time>2017-06-18T09:19:45Z</time>
      </trkpt>
      <trkpt lat="46.355093317106366" lon="9.323755167424679">
        <ele>1644.95</ele>
        <time>2017-06-18T09:19:54Z</time>
      </trkpt>
      <trkpt lat="46.35511108674109" lon="9.323695069178939">
        <ele>1645.9100000000001</ele>
        <time>2017-06-18T09:20:04Z</time>
      </trkpt>
      <trkpt lat="46.355149643495679" lon="9.323755251243711">
        <ele>1647.8399999999999</ele>
        <time>2017-06-18T09:20:15Z</time>
      </trkpt>
      <trkpt lat="46.355198761448264" lon="9.323829263448715">
        <ele>1649.28</ele>
        <time>2017-06-18T09:20:25Z</time>
      </trkpt>
      <trkpt lat="46.355230528861284" lon="9.323893552646041">
        <ele>1650.24</ele>
        <time>2017-06-18T09:20:35Z</time>
      </trkpt>
      <trkpt lat="46.355199934914708" lon="9.323791963979602">
        <ele>1651.6800000000001</ele>
        <time>2017-06-18T09:20:46Z</time>
      </trkpt>
      <trkpt lat="46.355216698721051" lon="9.323738990351558">
        <ele>1653.5999999999999</ele>
        <time>2017-06-18T09:20:57Z</time>
      </trkpt>
      <trkpt lat="46.355249304324389" lon="9.32369121350348">
        <ele>1655.05</ele>
        <time>2017-06-18T09:21:07Z</time>
      </trkpt>
      <trkpt lat="46.35527721606195" lon="9.323753491044045">
        <ele>1656.01</ele>
        <time>2017-06-18T09:21:16Z</time>
      </trkpt>
      <trkpt lat="46.355312336236238" lon="9.32384267449379">
        <ele>1656.97</ele>
        <time>2017-06-18T09:21:27Z</time>
      </trkpt>
      <trkpt lat="46.355306133627892" lon="9.32381677441299">
        <ele>1657.9300000000001</ele>
        <time>2017-06-18T09:21:37Z</time>
      </trkpt>
      <trkpt lat="46.355318706482649" lon="9.323769668117166">
        <ele>1659.8499999999999</ele>
        <time>2017-06-18T09:21:48Z</time>
      </trkpt>
      <trkpt lat="46.355333290994167" lon="9.323730943724513">
        <ele>1661.3</ele>
        <time>2017-06-18T09:21:59Z</time>
      </trkpt>
      <trkpt lat="46.355392634868622" lon="9.323674952611327">
        <ele>1662.74</ele>
        <time>2017-06-18T09:22:10Z</time>
      </trkpt>
      <trkpt lat="46.355422222986817" lon="9.323623739182949">
        <ele>1664.6600000000001</ele>
        <time>2017-06-18T09:22:21Z</time>
      </trkpt>
      <trkpt lat="46.355439992621541" lon="9.323597503826022">
        <ele>1665.6199999999999</ele>
        <time>2017-06-18T09:22:33Z</time>
      </trkpt>
      <trkpt lat="46.355476202443242" lon="9.323697919026017">
        <ele>1667.54</ele>
        <time>2017-06-18T09:22:44Z</time>
      </trkpt>
      <trkpt lat="46.35550344362855" lon="9.323770757764578">
        <ele>1668.99</ele>
        <time>2017-06-18T09:22:53Z</time>
      </trkpt>
      <trkpt lat="46.355511657893658" lon="9.323869831860066">
        <ele>1669.95</ele>
        <time>2017-06-18T09:23:04Z</time>
      </trkpt>
      <trkpt lat="46.355530433356762" lon="9.323918614536524">
        <ele>1670.9100000000001</ele>
        <time>2017-06-18T09:23:14Z</time>
      </trkpt>
      <trkpt lat="46.355556920170784" lon="9.323991956189275">
        <ele>1672.3499999999999</ele>
        <time>2017-06-18T09:23:22Z</time>
      </trkpt>
      <trkpt lat="46.355585502460599" lon="9.324063202366233">
        <ele>1673.79</ele>
        <time>2017-06-18T09:23:32Z</time>
      </trkpt>
      <trkpt lat="46.355604277923703" lon="9.324095891788602">
        <ele>1674.75</ele>
        <time>2017-06-18T09:23:43Z</time>
      </trkpt>
      <trkpt lat="46.355606792494655" lon="9.323961194604635">
        <ele>1677.1600000000001</ele>
        <time>2017-06-18T09:23:56Z</time>
      </trkpt>
      <trkpt lat="46.355590028688312" lon="9.323947029188275">
        <ele>1677.6400000000001</ele>
        <time>2017-06-18T09:24:06Z</time>
      </trkpt>
      <trkpt lat="46.355596650391817" lon="9.323986005038023">
        <ele>1677.6400000000001</ele>
        <time>2017-06-18T09:24:29Z</time>
      </trkpt>
      <trkpt lat="46.355623891577125" lon="9.323890451341867">
        <ele>1678.5999999999999</ele>
        <time>2017-06-18T09:24:43Z</time>
      </trkpt>
      <trkpt lat="46.35567401535809" lon="9.323811829090118">
        <ele>1681</ele>
        <time>2017-06-18T09:24:54Z</time>
      </trkpt>
      <trkpt lat="46.355708464980125" lon="9.323839824646711">
        <ele>1683.8900000000001</ele>
        <time>2017-06-18T09:25:09Z</time>
      </trkpt>
      <trkpt lat="46.355793960392475" lon="9.323967648670077">
        <ele>1686.29</ele>
        <time>2017-06-18T09:25:22Z</time>
      </trkpt>
      <trkpt lat="46.355795888230205" lon="9.323930516839027">
        <ele>1687.73</ele>
        <time>2017-06-18T09:25:32Z</time>
      </trkpt>
      <trkpt lat="46.355818519368768" lon="9.323811493813992">
        <ele>1689.6500000000001</ele>
        <time>2017-06-18T09:25:45Z</time>
      </trkpt>
      <trkpt lat="46.355814412236214" lon="9.323730859905481">
        <ele>1692.0599999999999</ele>
        <time>2017-06-18T09:25:59Z</time>
      </trkpt>
      <trkpt lat="46.355789517983794" lon="9.323622398078442">
        <ele>1694.46</ele>
        <time>2017-06-18T09:26:15Z</time>
      </trkpt>
      <trkpt lat="46.35588901117444" lon="9.323581578209996">
        <ele>1696.8599999999999</ele>
        <time>2017-06-18T09:26:30Z</time>
      </trkpt>
      <trkpt lat="46.355952294543386" lon="9.323658607900143">
        <ele>1698.3099999999999</ele>
        <time>2017-06-18T09:26:44Z</time>
      </trkpt>
      <trkpt lat="46.355959251523018" lon="9.323720969259739">
        <ele>1700.23</ele>
        <time>2017-06-18T09:26:56Z</time>
      </trkpt>
      <trkpt lat="46.355966459959745" lon="9.323789868503809">
        <ele>1702.6300000000001</ele>
        <time>2017-06-18T09:27:09Z</time>
      </trkpt>
      <trkpt lat="46.355968220159411" lon="9.323929343372583">
        <ele>1704.55</ele>
        <time>2017-06-18T09:27:24Z</time>
      </trkpt>
      <trkpt lat="46.355966459959745" lon="9.324010061100125">
        <ele>1706.48</ele>
        <time>2017-06-18T09:27:37Z</time>
      </trkpt>
      <trkpt lat="46.356032006442547" lon="9.324098993092775">
        <ele>1708.8800000000001</ele>
        <time>2017-06-18T09:27:52Z</time>
      </trkpt>
      <trkpt lat="46.356131080538034" lon="9.3240752723068">
        <ele>1710.8</ele>
        <time>2017-06-18T09:28:06Z</time>
      </trkpt>
      <trkpt lat="46.356156980618834" lon="9.324049456045032">
        <ele>1712.73</ele>
        <time>2017-06-18T09:28:19Z</time>
      </trkpt>
      <trkpt lat="46.356183467432857" lon="9.324050126597285">
        <ele>1715.1300000000001</ele>
        <time>2017-06-18T09:28:31Z</time>
      </trkpt>
      <trkpt lat="46.356164272874594" lon="9.324113074690104">
        <ele>1716.5699999999999</ele>
        <time>2017-06-18T09:28:42Z</time>
      </trkpt>
      <trkpt lat="46.356191597878933" lon="9.324182812124491">
        <ele>1718.49</ele>
        <time>2017-06-18T09:28:55Z</time>
      </trkpt>
      <trkpt lat="46.356242476031184" lon="9.324183231219649">
        <ele>1719.9400000000001</ele>
        <time>2017-06-18T09:29:06Z</time>
      </trkpt>
      <trkpt lat="46.356230909004807" lon="9.324264116585255">
        <ele>1721.3800000000001</ele>
        <time>2017-06-18T09:29:17Z</time>
      </trkpt>
      <trkpt lat="46.356226047500968" lon="9.324318431317806">
        <ele>1722.8199999999999</ele>
        <time>2017-06-18T09:29:30Z</time>
      </trkpt>
      <trkpt lat="46.356224790215492" lon="9.324343660846353">
        <ele>1724.26</ele>
        <time>2017-06-18T09:29:40Z</time>
      </trkpt>
      <trkpt lat="46.35618707165122" lon="9.324397472664714">
        <ele>1725.22</ele>
        <time>2017-06-18T09:29:51Z</time>
      </trkpt>
      <trkpt lat="46.356198638677597" lon="9.32439973577857">
        <ele>1725.7</ele>
        <time>2017-06-18T09:30:08Z</time>
      </trkpt>
      <trkpt lat="46.356193777173758" lon="9.324406776577234">
        <ele>1725.7</ele>
        <time>2017-06-18T09:30:22Z</time>
      </trkpt>
      <trkpt lat="46.356241386383772" lon="9.324336955323815">
        <ele>1727.1500000000001</ele>
        <time>2017-06-18T09:30:34Z</time>
      </trkpt>
      <trkpt lat="46.35628723539412" lon="9.324351707473397">
        <ele>1728.5899999999999</ele>
        <time>2017-06-18T09:30:42Z</time>
      </trkpt>
      <trkpt lat="46.356297796592116" lon="9.324468299746513">
        <ele>1730.51</ele>
        <time>2017-06-18T09:30:53Z</time>
      </trkpt>
      <trkpt lat="46.356292348355055" lon="9.324569553136826">
        <ele>1732.4300000000001</ele>
        <time>2017-06-18T09:31:07Z</time>
      </trkpt>
      <trkpt lat="46.356306178495288" lon="9.32467189617455">
        <ele>1735.8</ele>
        <time>2017-06-18T09:31:19Z</time>
      </trkpt>
      <trkpt lat="46.356298802420497" lon="9.324732162058353">
        <ele>1736.28</ele>
        <time>2017-06-18T09:31:29Z</time>
      </trkpt>
      <trkpt lat="46.356324199587107" lon="9.324775077402592">
        <ele>1737.72</ele>
        <time>2017-06-18T09:31:41Z</time>
      </trkpt>
      <trkpt lat="46.356339538469911" lon="9.3248057551682">
        <ele>1740.1199999999999</ele>
        <time>2017-06-18T09:31:52Z</time>
      </trkpt>
      <trkpt lat="46.356366695836186" lon="9.324859315529466">
        <ele>1741.5699999999999</ele>
        <time>2017-06-18T09:32:04Z</time>
      </trkpt>
      <trkpt lat="46.356366444379091" lon="9.324797540903091">
        <ele>1743.01</ele>
        <time>2017-06-18T09:32:13Z</time>
      </trkpt>
      <trkpt lat="46.356394775211811" lon="9.324724366888404">
        <ele>1744.45</ele>
        <time>2017-06-18T09:32:24Z</time>
      </trkpt>
      <trkpt lat="46.356423776596785" lon="9.32463719509542">
        <ele>1745.8900000000001</ele>
        <time>2017-06-18T09:32:37Z</time>
      </trkpt>
      <trkpt lat="46.356461076065898" lon="9.324591094627976">
        <ele>1747.8099999999999</ele>
        <time>2017-06-18T09:32:49Z</time>
      </trkpt>
      <trkpt lat="46.356470128521323" lon="9.324496379122138">
        <ele>1749.74</ele>
        <time>2017-06-18T09:33:02Z</time>
      </trkpt>
      <trkpt lat="46.356493094936013" lon="9.324397388845682">
        <ele>1751.1800000000001</ele>
        <time>2017-06-18T09:33:14Z</time>
      </trkpt>
      <trkpt lat="46.356547996401787" lon="9.324352210387588">
        <ele>1753.0999999999999</ele>
        <time>2017-06-18T09:33:27Z</time>
      </trkpt>
      <trkpt lat="46.356568699702621" lon="9.324406776577234">
        <ele>1754.0599999999999</ele>
        <time>2017-06-18T09:33:40Z</time>
      </trkpt>
      <trkpt lat="46.356565095484257" lon="9.324399568140507">
        <ele>1753.5799999999999</ele>
        <time>2017-06-18T09:33:51Z</time>
      </trkpt>
      <trkpt lat="46.356589235365391" lon="9.324400909245014">
        <ele>1754.54</ele>
        <time>2017-06-18T09:34:02Z</time>
      </trkpt>
      <trkpt lat="46.35663952678442" lon="9.324412308633328">
        <ele>1756.95</ele>
        <time>2017-06-18T09:34:14Z</time>
      </trkpt>
      <trkpt lat="46.356695014983416" lon="9.324450446292758">
        <ele>1758.8699999999999</ele>
        <time>2017-06-18T09:34:26Z</time>
      </trkpt>
      <trkpt lat="46.356711611151695" lon="9.324444495141506">
        <ele>1759.8299999999999</ele>
        <time>2017-06-18T09:34:35Z</time>
      </trkpt>
      <trkpt lat="46.356684202328324" lon="9.324400322511792">
        <ele>1760.3099999999999</ele>
        <time>2017-06-18T09:34:48Z</time>
      </trkpt>
      <trkpt lat="46.356710772961378" lon="9.324349192902446">
        <ele>1761.75</ele>
        <time>2017-06-18T09:34:58Z</time>
      </trkpt>
      <trkpt lat="46.3567147962749" lon="9.324329243972898">
        <ele>1762.23</ele>
        <time>2017-06-18T09:35:08Z</time>
      </trkpt>
      <trkpt lat="46.35676902718842" lon="9.324251208454371">
        <ele>1764.1600000000001</ele>
        <time>2017-06-18T09:35:20Z</time>
      </trkpt>
      <trkpt lat="46.356796016916633" lon="9.324172418564558">
        <ele>1766.0799999999999</ele>
        <time>2017-06-18T09:35:32Z</time>
      </trkpt>
      <trkpt lat="46.356831807643175" lon="9.324080217629671">
        <ele>1768</ele>
        <time>2017-06-18T09:35:44Z</time>
      </trkpt>
      <trkpt lat="46.356855528429151" lon="9.324187505990267">
        <ele>1769.4400000000001</ele>
        <time>2017-06-18T09:35:55Z</time>
      </trkpt>
      <trkpt lat="46.356898779049516" lon="9.324144087731838">
        <ele>1770.8900000000001</ele>
        <time>2017-06-18T09:36:06Z</time>
      </trkpt>
      <trkpt lat="46.356934066861868" lon="9.324249951168895">
        <ele>1772.8099999999999</ele>
        <time>2017-06-18T09:36:18Z</time>
      </trkpt>
      <trkpt lat="46.356957284733653" lon="9.324203012511134">
        <ele>1774.25</ele>
        <time>2017-06-18T09:36:29Z</time>
      </trkpt>
      <trkpt lat="46.35699525475502" lon="9.324216591194272">
        <ele>1776.1700000000001</ele>
        <time>2017-06-18T09:36:41Z</time>
      </trkpt>
      <trkpt lat="46.357025010511279" lon="9.324220530688763">
        <ele>1778.0999999999999</ele>
        <time>2017-06-18T09:36:52Z</time>
      </trkpt>
      <trkpt lat="46.357058538123965" lon="9.324285909533501">
        <ele>1780.02</ele>
        <time>2017-06-18T09:37:04Z</time>
      </trkpt>
      <trkpt lat="46.357087539508939" lon="9.324309211224318">
        <ele>1780.98</ele>
        <time>2017-06-18T09:37:17Z</time>
      </trkpt>
      <trkpt lat="46.357083264738321" lon="9.324398813769221">
        <ele>1781.9400000000001</ele>
        <time>2017-06-18T09:37:29Z</time>
      </trkpt>
      <trkpt lat="46.357009168714285" lon="9.324491433799267">
        <ele>1783.8599999999999</ele>
        <time>2017-06-18T09:37:42Z</time>
      </trkpt>
      <trkpt lat="46.357028027996421" lon="9.324522698298097">
        <ele>1785.79</ele>
        <time>2017-06-18T09:37:54Z</time>
      </trkpt>
      <trkpt lat="46.357076140120625" lon="9.324504844844341">
        <ele>1787.23</ele>
        <time>2017-06-18T09:38:07Z</time>
      </trkpt>
      <trkpt lat="46.357043450698256" lon="9.324622694402933">
        <ele>1789.6300000000001</ele>
        <time>2017-06-18T09:38:20Z</time>
      </trkpt>
      <trkpt lat="46.357078403234482" lon="9.324634512886405">
        <ele>1791.55</ele>
        <time>2017-06-18T09:38:35Z</time>
      </trkpt>
      <trkpt lat="46.357124336063862" lon="9.324659071862698">
        <ele>1793</ele>
        <time>2017-06-18T09:38:45Z</time>
      </trkpt>
      <trkpt lat="46.357142021879554" lon="9.324649935588241">
        <ele>1794.4400000000001</ele>
        <time>2017-06-18T09:38:56Z</time>
      </trkpt>
      <trkpt lat="46.357143446803093" lon="9.324756050482392">
        <ele>1796.3599999999999</ele>
        <time>2017-06-18T09:39:09Z</time>
      </trkpt>
      <trkpt lat="46.357130538672209" lon="9.324834002181888">
        <ele>1797.3199999999999</ele>
        <time>2017-06-18T09:39:20Z</time>
      </trkpt>
      <trkpt lat="46.357152415439487" lon="9.324810616672039">
        <ele>1797.8</ele>
        <time>2017-06-18T09:39:30Z</time>
      </trkpt>
      <trkpt lat="46.357182590290904" lon="9.324779519811273">
        <ele>1799.73</ele>
        <time>2017-06-18T09:39:41Z</time>
      </trkpt>
      <trkpt lat="46.357211759313941" lon="9.324742974713445">
        <ele>1800.6900000000001</ele>
        <time>2017-06-18T09:39:53Z</time>
      </trkpt>
      <trkpt lat="46.357254507020116" lon="9.324805336073041">
        <ele>1802.6099999999999</ele>
        <time>2017-06-18T09:40:07Z</time>
      </trkpt>
      <trkpt lat="46.357252160087228" lon="9.324881946668029">
        <ele>1804.05</ele>
        <time>2017-06-18T09:40:18Z</time>
      </trkpt>
      <trkpt lat="46.35728107765317" lon="9.324839869514108">
        <ele>1805.01</ele>
        <time>2017-06-18T09:40:28Z</time>
      </trkpt>
      <trkpt lat="46.357305552810431" lon="9.324790332466364">
        <ele>1806.9400000000001</ele>
        <time>2017-06-18T09:40:41Z</time>
      </trkpt>
      <trkpt lat="46.357346540316939" lon="9.324736604467034">
        <ele>1808.8599999999999</ele>
        <time>2017-06-18T09:40:54Z</time>
      </trkpt>
      <trkpt lat="46.357367411255836" lon="9.32466016151011">
        <ele>1810.78</ele>
        <time>2017-06-18T09:41:07Z</time>
      </trkpt>
      <trkpt lat="46.357400771230459" lon="9.324579024687409">
        <ele>1812.7</ele>
        <time>2017-06-18T09:41:20Z</time>
      </trkpt>
      <trkpt lat="46.357429269701242" lon="9.32453359477222">
        <ele>1814.6300000000001</ele>
        <time>2017-06-18T09:41:29Z</time>
      </trkpt>
      <trkpt lat="46.357444105669856" lon="9.324455559253693">
        <ele>1815.5899999999999</ele>
        <time>2017-06-18T09:41:40Z</time>
      </trkpt>
      <trkpt lat="46.357445614412427" lon="9.324347013607621">
        <ele>1817.03</ele>
        <time>2017-06-18T09:41:53Z</time>
      </trkpt>
      <trkpt lat="46.357467994093895" lon="9.32427367195487">
        <ele>1818.47</ele>
        <time>2017-06-18T09:42:07Z</time>
      </trkpt>
      <trkpt lat="46.357496995478868" lon="9.324164791032672">
        <ele>1820.8699999999999</ele>
        <time>2017-06-18T09:42:24Z</time>
      </trkpt>
      <trkpt lat="46.357521889731288" lon="9.324250454083085">
        <ele>1822.3199999999999</ele>
        <time>2017-06-18T09:42:36Z</time>
      </trkpt>
      <trkpt lat="46.35753320530057" lon="9.324290184304118">
        <ele>1822.8</ele>
        <time>2017-06-18T09:42:40Z</time>
      </trkpt>
      <trkpt lat="46.357568576931953" lon="9.324389342218638">
        <ele>1823.76</ele>
        <time>2017-06-18T09:42:51Z</time>
      </trkpt>
      <trkpt lat="46.35758894495666" lon="9.324432592839003">
        <ele>1824.24</ele>
        <time>2017-06-18T09:43:02Z</time>
      </trkpt>
      <trkpt lat="46.357613923028111" lon="9.324516244232655">
        <ele>1825.6800000000001</ele>
        <time>2017-06-18T09:43:11Z</time>
      </trkpt>
      <trkpt lat="46.357643594965339" lon="9.32449746876955">
        <ele>1826.6400000000001</ele>
        <time>2017-06-18T09:43:21Z</time>
      </trkpt>
      <trkpt lat="46.357652060687542" lon="9.324390264227986">
        <ele>1828.5599999999999</ele>
        <time>2017-06-18T09:43:35Z</time>
      </trkpt>
      <trkpt lat="46.357662370428443" lon="9.324331507086754">
        <ele>1829.53</ele>
        <time>2017-06-18T09:43:46Z</time>
      </trkpt>
      <trkpt lat="46.357675949111581" lon="9.324286160990596">
        <ele>1830.01</ele>
        <time>2017-06-18T09:43:56Z</time>
      </trkpt>
      <trkpt lat="46.357728000730276" lon="9.324223883450031">
        <ele>1831.9300000000001</ele>
        <time>2017-06-18T09:44:08Z</time>
      </trkpt>
      <trkpt lat="46.357750883325934" lon="9.324327567592263">
        <ele>1832.8900000000001</ele>
        <time>2017-06-18T09:44:19Z</time>
      </trkpt>
      <trkpt lat="46.357792876660824" lon="9.324389593675733">
        <ele>1835.29</ele>
        <time>2017-06-18T09:44:32Z</time>
      </trkpt>
      <trkpt lat="46.357820201665163" lon="9.324476849287748">
        <ele>1837.22</ele>
        <time>2017-06-18T09:44:44Z</time>
      </trkpt>
      <trkpt lat="46.357775777578354" lon="9.324577348306775">
        <ele>1838.6600000000001</ele>
        <time>2017-06-18T09:44:58Z</time>
      </trkpt>
      <trkpt lat="46.357811149209738" lon="9.324693521484733">
        <ele>1840.0999999999999</ele>
        <time>2017-06-18T09:45:11Z</time>
      </trkpt>
      <trkpt lat="46.357861440628767" lon="9.324738532304764">
        <ele>1841.54</ele>
        <time>2017-06-18T09:45:24Z</time>
      </trkpt>
      <trkpt lat="46.357885664328933" lon="9.324655551463366">
        <ele>1843.95</ele>
        <time>2017-06-18T09:45:41Z</time>
      </trkpt>
      <trkpt lat="46.357921790331602" lon="9.324551280587912">
        <ele>1845.3900000000001</ele>
        <time>2017-06-18T09:45:53Z</time>
      </trkpt>
      <trkpt lat="46.357939057052135" lon="9.324485650286079">
        <ele>1847.3099999999999</ele>
        <time>2017-06-18T09:46:06Z</time>
      </trkpt>
      <trkpt lat="46.357934698462486" lon="9.324487829580903">
        <ele>1847.79</ele>
        <time>2017-06-18T09:46:10Z</time>
      </trkpt>
      <trkpt lat="46.357938554137945" lon="9.324512388557196">
        <ele>1846.3499999999999</ele>
        <time>2017-06-18T09:46:19Z</time>
      </trkpt>
      <trkpt lat="46.357950456440449" lon="9.324514232575893">
        <ele>1846.3499999999999</ele>
        <time>2017-06-18T09:46:37Z</time>
      </trkpt>
      <trkpt lat="46.357949785888195" lon="9.324521776288748">
        <ele>1846.3499999999999</ele>
        <time>2017-06-18T09:47:07Z</time>
      </trkpt>
      <trkpt lat="46.357948025688529" lon="9.324522614479065">
        <ele>1846.3499999999999</ele>
        <time>2017-06-18T09:47:09Z</time>
      </trkpt>
      <trkpt lat="46.357937883585691" lon="9.324513729661703">
        <ele>1846.3499999999999</ele>
        <time>2017-06-18T09:47:16Z</time>
      </trkpt>
      <trkpt lat="46.357926819473505" lon="9.324483051896095">
        <ele>1846.3499999999999</ele>
        <time>2017-06-18T09:47:30Z</time>
      </trkpt>
      <trkpt lat="46.357921455055475" lon="9.324478358030319">
        <ele>1846.8299999999999</ele>
        <time>2017-06-18T09:47:54Z</time>
      </trkpt>
      <trkpt lat="46.357915084809065" lon="9.324473077431321">
        <ele>1846.8299999999999</ele>
        <time>2017-06-18T09:48:17Z</time>
      </trkpt>
      <trkpt lat="46.35792313143611" lon="9.324482716619968">
        <ele>1846.8299999999999</ele>
        <time>2017-06-18T09:48:38Z</time>
      </trkpt>
      <trkpt lat="46.357938135042787" lon="9.324503755196929">
        <ele>1846.8299999999999</ele>
        <time>2017-06-18T09:49:02Z</time>
      </trkpt>
      <trkpt lat="46.357950456440449" lon="9.324468467384577">
        <ele>1848.27</ele>
        <time>2017-06-18T09:49:09Z</time>
      </trkpt>
      <trkpt lat="46.357954647392035" lon="9.324512975290418">
        <ele>1848.27</ele>
        <time>2017-06-18T09:49:21Z</time>
      </trkpt>
      <trkpt lat="46.357934698462486" lon="9.324526889249682">
        <ele>1848.27</ele>
        <time>2017-06-18T09:49:35Z</time>
      </trkpt>
      <trkpt lat="46.357928579673171" lon="9.32452772744">
        <ele>1848.27</ele>
        <time>2017-06-18T09:49:55Z</time>
      </trkpt>
      <trkpt lat="46.357915420085192" lon="9.324537785723805">
        <ele>1848.27</ele>
        <time>2017-06-18T09:50:18Z</time>
      </trkpt>
      <trkpt lat="46.357924472540617" lon="9.324549017474055">
        <ele>1848.75</ele>
        <time>2017-06-18T09:50:38Z</time>
      </trkpt>
      <trkpt lat="46.357934279367328" lon="9.324535354971886">
        <ele>1848.75</ele>
        <time>2017-06-18T09:50:56Z</time>
      </trkpt>
      <trkpt lat="46.357921790331602" lon="9.324505515396595">
        <ele>1848.27</ele>
        <time>2017-06-18T09:51:10Z</time>
      </trkpt>
      <trkpt lat="46.357948528602719" lon="9.324511969462037">
        <ele>1848.75</ele>
        <time>2017-06-18T09:51:32Z</time>
      </trkpt>
      <trkpt lat="46.35796076618135" lon="9.324537953361869">
        <ele>1848.75</ele>
        <time>2017-06-18T09:51:50Z</time>
      </trkpt>
      <trkpt lat="46.357939308509231" lon="9.324532505124807">
        <ele>1849.23</ele>
        <time>2017-06-18T09:52:11Z</time>
      </trkpt>
      <trkpt lat="46.357954144477844" lon="9.324540635570884">
        <ele>1849.23</ele>
        <time>2017-06-18T09:52:36Z</time>
      </trkpt>
      <trkpt lat="46.357933944091201" lon="9.324528649449348">
        <ele>1849.23</ele>
        <time>2017-06-18T09:52:54Z</time>
      </trkpt>
      <trkpt lat="46.357925143092871" lon="9.324510460719466">
        <ele>1849.23</ele>
        <time>2017-06-18T09:53:16Z</time>
      </trkpt>
      <trkpt lat="46.357977194711566" lon="9.324536612257361">
        <ele>1849.71</ele>
        <time>2017-06-18T09:53:41Z</time>
      </trkpt>
      <trkpt lat="46.357965292409062" lon="9.324549939483404">
        <ele>1849.71</ele>
        <time>2017-06-18T09:54:04Z</time>
      </trkpt>
      <trkpt lat="46.357958167791367" lon="9.324550777673721">
        <ele>1849.71</ele>
        <time>2017-06-18T09:54:24Z</time>
      </trkpt>
      <trkpt lat="46.357986750081182" lon="9.324547424912453">
        <ele>1850.6800000000001</ele>
        <time>2017-06-18T09:54:44Z</time>
      </trkpt>
      <trkpt lat="46.358019523322582" lon="9.324594447389245">
        <ele>1852.1199999999999</ele>
        <time>2017-06-18T09:54:57Z</time>
      </trkpt>
      <trkpt lat="46.358021954074502" lon="9.324503839015961">
        <ele>1853.5599999999999</ele>
        <time>2017-06-18T09:55:08Z</time>
      </trkpt>
      <trkpt lat="46.358045423403382" lon="9.32441147044301">
        <ele>1855</ele>
        <time>2017-06-18T09:55:19Z</time>
      </trkpt>
      <trkpt lat="46.358063612133265" lon="9.324332345277071">
        <ele>1855.96</ele>
        <time>2017-06-18T09:55:29Z</time>
      </trkpt>
      <trkpt lat="46.358102085068822" lon="9.324289932847023">
        <ele>1857.4000000000001</ele>
        <time>2017-06-18T09:55:39Z</time>
      </trkpt>
      <trkpt lat="46.358137540519238" lon="9.324368638917804">
        <ele>1859.3299999999999</ele>
        <time>2017-06-18T09:55:50Z</time>
      </trkpt>
      <trkpt lat="46.358139216899872" lon="9.324455810710788">
        <ele>1860.29</ele>
        <time>2017-06-18T09:55:59Z</time>
      </trkpt>
      <trkpt lat="46.358142653480172" lon="9.324605846777558">
        <ele>1860.77</ele>
        <time>2017-06-18T09:56:12Z</time>
      </trkpt>
      <trkpt lat="46.358175342902541" lon="9.324531331658363">
        <ele>1862.6900000000001</ele>
        <time>2017-06-18T09:56:21Z</time>
      </trkpt>
      <trkpt lat="46.358191771432757" lon="9.324450362473726">
        <ele>1864.6099999999999</ele>
        <time>2017-06-18T09:56:36Z</time>
      </trkpt>
      <trkpt lat="46.358223203569651" lon="9.324552621692419">
        <ele>1866.0599999999999</ele>
        <time>2017-06-18T09:56:47Z</time>
      </trkpt>
      <trkpt lat="46.358212390914559" lon="9.324651444330812">
        <ele>1866.54</ele>
        <time>2017-06-18T09:56:58Z</time>
      </trkpt>
      <trkpt lat="46.358179366216063" lon="9.324723444879055">
        <ele>1868.46</ele>
        <time>2017-06-18T09:57:11Z</time>
      </trkpt>
      <trkpt lat="46.358207780867815" lon="9.324757307767868">
        <ele>1869.9000000000001</ele>
        <time>2017-06-18T09:57:22Z</time>
      </trkpt>
      <trkpt lat="46.358251869678497" lon="9.324667956680059">
        <ele>1870.8599999999999</ele>
        <time>2017-06-18T09:57:33Z</time>
      </trkpt>
      <trkpt lat="46.358300149440765" lon="9.32461079210043">
        <ele>1872.3</ele>
        <time>2017-06-18T09:57:44Z</time>
      </trkpt>
      <trkpt lat="46.358331581577659" lon="9.324693353846669">
        <ele>1873.75</ele>
        <time>2017-06-18T09:57:56Z</time>
      </trkpt>
      <trkpt lat="46.358300819993019" lon="9.324781447649002">
        <ele>1875.6700000000001</ele>
        <time>2017-06-18T09:58:08Z</time>
      </trkpt>
      <trkpt lat="46.35832236148417" lon="9.32486149482429">
        <ele>1876.6300000000001</ele>
        <time>2017-06-18T09:58:20Z</time>
      </trkpt>
      <trkpt lat="46.358335185796022" lon="9.324816819280386">
        <ele>1878.0699999999999</ele>
        <time>2017-06-18T09:58:33Z</time>
      </trkpt>
      <trkpt lat="46.35838053189218" lon="9.32471782900393">
        <ele>1879.51</ele>
        <time>2017-06-18T09:58:46Z</time>
      </trkpt>
      <trkpt lat="46.358456891030073" lon="9.324690001085401">
        <ele>1881.9200000000001</ele>
        <time>2017-06-18T09:59:01Z</time>
      </trkpt>
      <trkpt lat="46.358518162742257" lon="9.324603164568543">
        <ele>1883.3599999999999</ele>
        <time>2017-06-18T09:59:14Z</time>
      </trkpt>
      <trkpt lat="46.358555797487497" lon="9.324531080201268">
        <ele>1884.8</ele>
        <time>2017-06-18T09:59:25Z</time>
      </trkpt>
      <trkpt lat="46.358561581000686" lon="9.324445081874728">
        <ele>1886.24</ele>
        <time>2017-06-18T09:59:36Z</time>
      </trkpt>
      <trkpt lat="46.358558395877481" lon="9.324348270893097">
        <ele>1887.6900000000001</ele>
        <time>2017-06-18T09:59:46Z</time>
      </trkpt>
      <trkpt lat="46.358515899628401" lon="9.32424676604569">
        <ele>1888.1700000000001</ele>
        <time>2017-06-18T09:59:59Z</time>
      </trkpt>
      <trkpt lat="46.358448592945933" lon="9.324160516262054">
        <ele>1888.6500000000001</ele>
        <time>2017-06-18T10:00:10Z</time>
      </trkpt>
      <trkpt lat="46.35840006172657" lon="9.324117936193943">
        <ele>1891.05</ele>
        <time>2017-06-18T10:00:22Z</time>
      </trkpt>
      <trkpt lat="46.358345495536923" lon="9.324146267026663">
        <ele>1892.49</ele>
        <time>2017-06-18T10:00:34Z</time>
      </trkpt>
      <trkpt lat="46.358348177745938" lon="9.324123719707131">
        <ele>1892.49</ele>
        <time>2017-06-18T10:00:50Z</time>
      </trkpt>
      <trkpt lat="46.358336191624403" lon="9.324091030284762">
        <ele>1892.01</ele>
        <time>2017-06-18T10:01:11Z</time>
      </trkpt>
      <trkpt lat="46.358368210494518" lon="9.32406647130847">
        <ele>1892.97</ele>
        <time>2017-06-18T10:01:22Z</time>
      </trkpt>
      <trkpt lat="46.358339712023735" lon="9.324096813797951">
        <ele>1893.9300000000001</ele>
        <time>2017-06-18T10:01:39Z</time>
      </trkpt>
      <trkpt lat="46.358321942389011" lon="9.324051635339856">
        <ele>1895.3800000000001</ele>
        <time>2017-06-18T10:01:48Z</time>
      </trkpt>
      <trkpt lat="46.358275171369314" lon="9.323978796601296">
        <ele>1895.8599999999999</ele>
        <time>2017-06-18T10:02:01Z</time>
      </trkpt>
      <trkpt lat="46.35830232873559" lon="9.323979802429676">
        <ele>1895.8599999999999</ele>
        <time>2017-06-18T10:02:18Z</time>
      </trkpt>
      <trkpt lat="46.358275841921568" lon="9.323984915390611">
        <ele>1896.3399999999999</ele>
        <time>2017-06-18T10:02:30Z</time>
      </trkpt>
      <trkpt lat="46.358239045366645" lon="9.323914926499128">
        <ele>1896.8199999999999</ele>
        <time>2017-06-18T10:02:39Z</time>
      </trkpt>
      <trkpt lat="46.3582275621593" lon="9.323817864060402">
        <ele>1897.3</ele>
        <time>2017-06-18T10:02:47Z</time>
      </trkpt>
      <trkpt lat="46.358227226883173" lon="9.323785258457065">
        <ele>1897.78</ele>
        <time>2017-06-18T10:02:49Z</time>
      </trkpt>
      <trkpt lat="46.358214905485511" lon="9.323648298159242">
        <ele>1897.3</ele>
        <time>2017-06-18T10:02:59Z</time>
      </trkpt>
      <trkpt lat="46.35821096599102" lon="9.323604209348559">
        <ele>1897.3</ele>
        <time>2017-06-18T10:03:02Z</time>
      </trkpt>
      <trkpt lat="46.358198476955295" lon="9.323506811633706">
        <ele>1896.3399999999999</ele>
        <time>2017-06-18T10:03:15Z</time>
      </trkpt>
      <trkpt lat="46.358207864686847" lon="9.323387369513512">
        <ele>1895.8599999999999</ele>
        <time>2017-06-18T10:03:23Z</time>
      </trkpt>
      <trkpt lat="46.358222281560302" lon="9.323349986225367">
        <ele>1895.8599999999999</ele>
        <time>2017-06-18T10:03:26Z</time>
      </trkpt>
      <trkpt lat="46.358266705647111" lon="9.3232861161232">
        <ele>1895.8599999999999</ele>
        <time>2017-06-18T10:03:32Z</time>
      </trkpt>
      <trkpt lat="46.358346585184336" lon="9.323190897703171">
        <ele>1896.8199999999999</ele>
        <time>2017-06-18T10:03:43Z</time>
      </trkpt>
      <trkpt lat="46.358401821926236" lon="9.323107916861773">
        <ele>1898.26</ele>
        <time>2017-06-18T10:03:54Z</time>
      </trkpt>
      <trkpt lat="46.358398301526904" lon="9.323009932413697">
        <ele>1900.1800000000001</ele>
        <time>2017-06-18T10:04:04Z</time>
      </trkpt>
      <trkpt lat="46.358410455286503" lon="9.322937177494168">
        <ele>1902.1099999999999</ele>
        <time>2017-06-18T10:04:16Z</time>
      </trkpt>
      <trkpt lat="46.358377179130912" lon="9.322889987379313">
        <ele>1903.55</ele>
        <time>2017-06-18T10:04:28Z</time>
      </trkpt>
      <trkpt lat="46.358358068391681" lon="9.322852939367294">
        <ele>1904.03</ele>
        <time>2017-06-18T10:04:39Z</time>
      </trkpt>
      <trkpt lat="46.358411377295852" lon="9.322843970730901">
        <ele>1904.99</ele>
        <time>2017-06-18T10:04:48Z</time>
      </trkpt>
      <trkpt lat="46.358461836352944" lon="9.322897950187326">
        <ele>1906.9100000000001</ele>
        <time>2017-06-18T10:04:58Z</time>
      </trkpt>
      <trkpt lat="46.358519000932574" lon="9.322940111160278">
        <ele>1907.8699999999999</ele>
        <time>2017-06-18T10:05:09Z</time>
      </trkpt>
      <trkpt lat="46.358530651777983" lon="9.32299492880702">
        <ele>1908.3499999999999</ele>
        <time>2017-06-18T10:05:20Z</time>
      </trkpt>
      <trkpt lat="46.358545403927565" lon="9.322992246598005">
        <ele>1907.8699999999999</ele>
        <time>2017-06-18T10:05:30Z</time>
      </trkpt>
      <trkpt lat="46.358522102236748" lon="9.322998533025384">
        <ele>1907.3900000000001</ele>
        <time>2017-06-18T10:05:37Z</time>
      </trkpt>
      <trkpt lat="46.358525957912207" lon="9.322997443377972">
        <ele>1907.3900000000001</ele>
        <time>2017-06-18T10:05:56Z</time>
      </trkpt>
      <trkpt lat="46.358523359522223" lon="9.32299149222672">
        <ele>1907.3900000000001</ele>
        <time>2017-06-18T10:06:19Z</time>
      </trkpt>
      <trkpt lat="46.358519839122891" lon="9.3229890614748">
        <ele>1907.3900000000001</ele>
        <time>2017-06-18T10:06:42Z</time>
      </trkpt>
      <trkpt lat="46.358525706455112" lon="9.323002807796001">
        <ele>1907.3900000000001</ele>
        <time>2017-06-18T10:07:15Z</time>
      </trkpt>
      <trkpt lat="46.358516570180655" lon="9.322997946292162">
        <ele>1907.8699999999999</ele>
        <time>2017-06-18T10:07:39Z</time>
      </trkpt>
      <trkpt lat="46.358521180227399" lon="9.323003394529223">
        <ele>1907.3900000000001</ele>
        <time>2017-06-18T10:08:07Z</time>
      </trkpt>
      <trkpt lat="46.358521934598684" lon="9.322992078959942">
        <ele>1907.3900000000001</ele>
        <time>2017-06-18T10:08:28Z</time>
      </trkpt>
      <trkpt lat="46.358523275703192" lon="9.32298269122839">
        <ele>1907.3900000000001</ele>
        <time>2017-06-18T10:08:51Z</time>
      </trkpt>
      <trkpt lat="46.358522018417716" lon="9.322987552732229">
        <ele>1907.3900000000001</ele>
        <time>2017-06-18T10:09:15Z</time>
      </trkpt>
      <trkpt lat="46.358526963740587" lon="9.322997527197003">
        <ele>1907.3900000000001</ele>
        <time>2017-06-18T10:09:44Z</time>
      </trkpt>
      <trkpt lat="46.358522605150938" lon="9.322998700663447">
        <ele>1907.3900000000001</ele>
        <time>2017-06-18T10:10:12Z</time>
      </trkpt>
      <trkpt lat="46.358525874093175" lon="9.322999035939574">
        <ele>1907.3900000000001</ele>
        <time>2017-06-18T10:10:43Z</time>
      </trkpt>
      <trkpt lat="46.358528807759285" lon="9.32299786247313">
        <ele>1907.3900000000001</ele>
        <time>2017-06-18T10:11:08Z</time>
      </trkpt>
      <trkpt lat="46.358526377007365" lon="9.322983026504517">
        <ele>1907.8699999999999</ele>
        <time>2017-06-18T10:11:43Z</time>
      </trkpt>
      <trkpt lat="46.358531573787332" lon="9.322980009019375">
        <ele>1907.8699999999999</ele>
        <time>2017-06-18T10:12:14Z</time>
      </trkpt>
      <trkpt lat="46.358529226854444" lon="9.322981266304851">
        <ele>1907.8699999999999</ele>
        <time>2017-06-18T10:12:42Z</time>
      </trkpt>
      <trkpt lat="46.358520006760955" lon="9.322984367609024">
        <ele>1907.3900000000001</ele>
        <time>2017-06-18T10:13:01Z</time>
      </trkpt>
      <trkpt lat="46.358522353693843" lon="9.322982942685485">
        <ele>1907.8699999999999</ele>
        <time>2017-06-18T10:13:15Z</time>
      </trkpt>
      <trkpt lat="46.358513301238418" lon="9.322992414236069">
        <ele>1908.3499999999999</ele>
        <time>2017-06-18T10:13:47Z</time>
      </trkpt>
      <trkpt lat="46.358526963740587" lon="9.322990402579308">
        <ele>1908.3499999999999</ele>
        <time>2017-06-18T10:14:15Z</time>
      </trkpt>
      <trkpt lat="46.358517995104194" lon="9.322986798360944">
        <ele>1908.3499999999999</ele>
        <time>2017-06-18T10:14:32Z</time>
      </trkpt>
      <trkpt lat="46.358526796102524" lon="9.322987888008356">
        <ele>1908.3499999999999</ele>
        <time>2017-06-18T10:14:47Z</time>
      </trkpt>
      <trkpt lat="46.358528221026063" lon="9.323002807796001">
        <ele>1908.3499999999999</ele>
        <time>2017-06-18T10:15:06Z</time>
      </trkpt>
      <trkpt lat="46.358523275703192" lon="9.322976991534233">
        <ele>1908.8299999999999</ele>
        <time>2017-06-18T10:15:18Z</time>
      </trkpt>
      <trkpt lat="46.358541129156947" lon="9.323004567995668">
        <ele>1909.3199999999999</ele>
        <time>2017-06-18T10:15:28Z</time>
      </trkpt>
      <trkpt lat="46.358521766960621" lon="9.323001382872462">
        <ele>1909.3199999999999</ele>
        <time>2017-06-18T10:15:38Z</time>
      </trkpt>
      <trkpt lat="46.358508355915546" lon="9.322996018454433">
        <ele>1908.3499999999999</ele>
        <time>2017-06-18T10:15:43Z</time>
      </trkpt>
      <trkpt lat="46.358505003154278" lon="9.322990654036403">
        <ele>1908.3499999999999</ele>
        <time>2017-06-18T10:15:59Z</time>
      </trkpt>
      <trkpt lat="46.358510283753276" lon="9.322991073131561">
        <ele>1907.8699999999999</ele>
        <time>2017-06-18T10:16:13Z</time>
      </trkpt>
      <trkpt lat="46.358506679534912" lon="9.323010519146919">
        <ele>1909.3199999999999</ele>
        <time>2017-06-18T10:16:22Z</time>
      </trkpt>
      <trkpt lat="46.358502404764295" lon="9.32298076339066">
        <ele>1909.3199999999999</ele>
        <time>2017-06-18T10:16:33Z</time>
      </trkpt>
      <trkpt lat="46.358514307066798" lon="9.322955785319209">
        <ele>1909.3199999999999</ele>
        <time>2017-06-18T10:16:48Z</time>
      </trkpt>
      <trkpt lat="46.358512043952942" lon="9.322936926037073">
        <ele>1909.8</ele>
        <time>2017-06-18T10:16:59Z</time>
      </trkpt>
      <trkpt lat="46.358516653999686" lon="9.322898956015706">
        <ele>1909.3199999999999</ele>
        <time>2017-06-18T10:17:14Z</time>
      </trkpt>
      <trkpt lat="46.358519671484828" lon="9.322895519435406">
        <ele>1909.8</ele>
        <time>2017-06-18T10:17:26Z</time>
      </trkpt>
      <trkpt lat="46.358524113893509" lon="9.322878168895841">
        <ele>1909.8</ele>
        <time>2017-06-18T10:17:42Z</time>
      </trkpt>
      <trkpt lat="46.358550600707531" lon="9.322827961295843">
        <ele>1910.76</ele>
        <time>2017-06-18T10:17:51Z</time>
      </trkpt>
      <trkpt lat="46.358579266816378" lon="9.322761576622725">
        <ele>1912.2</ele>
        <time>2017-06-18T10:18:03Z</time>
      </trkpt>
      <trkpt lat="46.358619080856442" lon="9.322816394269466">
        <ele>1913.6400000000001</ele>
        <time>2017-06-18T10:18:14Z</time>
      </trkpt>
      <trkpt lat="46.35860281996429" lon="9.322919994592667">
        <ele>1914.5999999999999</ele>
        <time>2017-06-18T10:18:25Z</time>
      </trkpt>
      <trkpt lat="46.358610112220049" lon="9.323008256033063">
        <ele>1915.0799999999999</ele>
        <time>2017-06-18T10:18:36Z</time>
      </trkpt>
      <trkpt lat="46.358602400869131" lon="9.323113532736898">
        <ele>1915.5599999999999</ele>
        <time>2017-06-18T10:18:46Z</time>
      </trkpt>
      <trkpt lat="46.358612207695842" lon="9.323240518569946">
        <ele>1916.53</ele>
        <time>2017-06-18T10:18:58Z</time>
      </trkpt>
      <trkpt lat="46.358656883239746" lon="9.32332668453455">
        <ele>1917.49</ele>
        <time>2017-06-18T10:19:09Z</time>
      </trkpt>
      <trkpt lat="46.358657972887158" lon="9.323490802198649">
        <ele>1917.97</ele>
        <time>2017-06-18T10:19:21Z</time>
      </trkpt>
      <trkpt lat="46.358675826340914" lon="9.323658104985952">
        <ele>1919.4100000000001</ele>
        <time>2017-06-18T10:19:35Z</time>
      </trkpt>
      <trkpt lat="46.358700301498175" lon="9.32377377524972">
        <ele>1920.8499999999999</ele>
        <time>2017-06-18T10:19:46Z</time>
      </trkpt>
      <trkpt lat="46.358724944293499" lon="9.323823563754559">
        <ele>1921.8099999999999</ele>
        <time>2017-06-18T10:19:57Z</time>
      </trkpt>
      <trkpt lat="46.358714215457439" lon="9.323739241808653">
        <ele>1922.77</ele>
        <time>2017-06-18T10:20:06Z</time>
      </trkpt>
      <trkpt lat="46.358719328418374" lon="9.323642682284117">
        <ele>1923.74</ele>
        <time>2017-06-18T10:20:18Z</time>
      </trkpt>
      <trkpt lat="46.358726704493165" lon="9.323595324531198">
        <ele>1925.6600000000001</ele>
        <time>2017-06-18T10:20:29Z</time>
      </trkpt>
      <trkpt lat="46.358724441379309" lon="9.323563473299146">
        <ele>1925.6600000000001</ele>
        <time>2017-06-18T10:20:32Z</time>
      </trkpt>
      <trkpt lat="46.35876065120101" lon="9.323427099734545">
        <ele>1927.5799999999999</ele>
        <time>2017-06-18T10:20:45Z</time>
      </trkpt>
      <trkpt lat="46.358804404735565" lon="9.323366414755583">
        <ele>1929.5</ele>
        <time>2017-06-18T10:20:57Z</time>
      </trkpt>
      <trkpt lat="46.358828879892826" lon="9.323482420295477">
        <ele>1930.46</ele>
        <time>2017-06-18T10:21:08Z</time>
      </trkpt>
      <trkpt lat="46.358842877671123" lon="9.323566826060414">
        <ele>1932.8699999999999</ele>
        <time>2017-06-18T10:21:21Z</time>
      </trkpt>
      <trkpt lat="46.358848158270121" lon="9.323623823001981">
        <ele>1933.8299999999999</ele>
        <time>2017-06-18T10:21:30Z</time>
      </trkpt>
      <trkpt lat="46.358841620385647" lon="9.323708061128855">
        <ele>1934.79</ele>
        <time>2017-06-18T10:21:38Z</time>
      </trkpt>
      <trkpt lat="46.358862072229385" lon="9.323861869052053">
        <ele>1934.3099999999999</ele>
        <time>2017-06-18T10:21:50Z</time>
      </trkpt>
      <trkpt lat="46.35887254960835" lon="9.323932696133852">
        <ele>1934.79</ele>
        <time>2017-06-18T10:21:55Z</time>
      </trkpt>
      <trkpt lat="46.35888428427279" lon="9.324075356125832">
        <ele>1933.8299999999999</ele>
        <time>2017-06-18T10:22:07Z</time>
      </trkpt>
      <trkpt lat="46.358919739723206" lon="9.324212735518813">
        <ele>1931.9100000000001</ele>
        <time>2017-06-18T10:22:17Z</time>
      </trkpt>
      <trkpt lat="46.358933737501502" lon="9.324291106313467">
        <ele>1930.95</ele>
        <time>2017-06-18T10:22:23Z</time>
      </trkpt>
      <trkpt lat="46.358953267335892" lon="9.32439923286438">
        <ele>1931.4300000000001</ele>
        <time>2017-06-18T10:22:33Z</time>
      </trkpt>
      <trkpt lat="46.358952093869448" lon="9.324569217860699">
        <ele>1931.9100000000001</ele>
        <time>2017-06-18T10:22:45Z</time>
      </trkpt>
      <trkpt lat="46.358969695866108" lon="9.324657982215285">
        <ele>1933.3499999999999</ele>
        <time>2017-06-18T10:22:55Z</time>
      </trkpt>
      <trkpt lat="46.359004899859428" lon="9.324739286676049">
        <ele>1935.27</ele>
        <time>2017-06-18T10:23:06Z</time>
      </trkpt>
      <trkpt lat="46.359038595110178" lon="9.324834337458015">
        <ele>1937.1900000000001</ele>
        <time>2017-06-18T10:23:18Z</time>
      </trkpt>
      <trkpt lat="46.359057119116187" lon="9.324929304420948">
        <ele>1939.5999999999999</ele>
        <time>2017-06-18T10:23:31Z</time>
      </trkpt>
      <trkpt lat="46.35908855125308" lon="9.325019912794232">
        <ele>1942.96</ele>
        <time>2017-06-18T10:23:44Z</time>
      </trkpt>
      <trkpt lat="46.359138088300824" lon="9.32497238740325">
        <ele>1943.4400000000001</ele>
        <time>2017-06-18T10:23:57Z</time>
      </trkpt>
      <trkpt lat="46.359161222353578" lon="9.324859483167529">
        <ele>1945.3599999999999</ele>
        <time>2017-06-18T10:24:11Z</time>
      </trkpt>
      <trkpt lat="46.359193157404661" lon="9.324782202020288">
        <ele>1947.29</ele>
        <time>2017-06-18T10:24:23Z</time>
      </trkpt>
      <trkpt lat="46.359232971444726" lon="9.324922598898411">
        <ele>1948.73</ele>
        <time>2017-06-18T10:24:36Z</time>
      </trkpt>
      <trkpt lat="46.359273204579949" lon="9.324998538941145">
        <ele>1950.6500000000001</ele>
        <time>2017-06-18T10:24:48Z</time>
      </trkpt>
      <trkpt lat="46.359300529584289" lon="9.324915641918778">
        <ele>1952.5699999999999</ele>
        <time>2017-06-18T10:25:01Z</time>
      </trkpt>
      <trkpt lat="46.359345372766256" lon="9.324844060465694">
        <ele>1955.46</ele>
        <time>2017-06-18T10:25:16Z</time>
      </trkpt>
      <trkpt lat="46.359385773539543" lon="9.324833080172539">
        <ele>1956.4200000000001</ele>
        <time>2017-06-18T10:25:31Z</time>
      </trkpt>
      <trkpt lat="46.359389210119843" lon="9.324804078787565">
        <ele>1957.3800000000001</ele>
        <time>2017-06-18T10:25:41Z</time>
      </trkpt>
      <trkpt lat="46.3594139367342" lon="9.324750183150172">
        <ele>1958.8199999999999</ele>
        <time>2017-06-18T10:25:49Z</time>
      </trkpt>
      <trkpt lat="46.359441597014666" lon="9.324728138744831">
        <ele>1960.75</ele>
        <time>2017-06-18T10:25:58Z</time>
      </trkpt>
      <trkpt lat="46.35948627255857" lon="9.324834169819951">
        <ele>1962.6700000000001</ele>
        <time>2017-06-18T10:26:12Z</time>
      </trkpt>
      <trkpt lat="46.359472861513495" lon="9.324951432645321">
        <ele>1963.1500000000001</ele>
        <time>2017-06-18T10:26:22Z</time>
      </trkpt>
      <trkpt lat="46.359476884827018" lon="9.325082441791892">
        <ele>1963.6300000000001</ele>
        <time>2017-06-18T10:26:34Z</time>
      </trkpt>
      <trkpt lat="46.359490295872092" lon="9.325059307739139">
        <ele>1964.5899999999999</ele>
        <time>2017-06-18T10:26:44Z</time>
      </trkpt>
      <trkpt lat="46.359489038586617" lon="9.325005579739809">
        <ele>1966.03</ele>
        <time>2017-06-18T10:26:52Z</time>
      </trkpt>
      <trkpt lat="46.359502701088786" lon="9.324980769306421">
        <ele>1966.51</ele>
        <time>2017-06-18T10:27:02Z</time>
      </trkpt>
      <trkpt lat="46.35954980738461" lon="9.324932992458344">
        <ele>1968.4400000000001</ele>
        <time>2017-06-18T10:27:11Z</time>
      </trkpt>
      <trkpt lat="46.359557183459401" lon="9.325032737106085">
        <ele>1969.4000000000001</ele>
        <time>2017-06-18T10:27:20Z</time>
      </trkpt>
      <trkpt lat="46.359577802941203" lon="9.325127201154828">
        <ele>1969.8800000000001</ele>
        <time>2017-06-18T10:27:30Z</time>
      </trkpt>
      <trkpt lat="46.359578473493457" lon="9.325234992429614">
        <ele>1971.8</ele>
        <time>2017-06-18T10:27:41Z</time>
      </trkpt>
      <trkpt lat="46.359592722728848" lon="9.325268855318427">
        <ele>1973.24</ele>
        <time>2017-06-18T10:27:49Z</time>
      </trkpt>
      <trkpt lat="46.35961283929646" lon="9.325207499787211">
        <ele>1973.72</ele>
        <time>2017-06-18T10:27:58Z</time>
      </trkpt>
      <trkpt lat="46.3596177008003" lon="9.325179504230619">
        <ele>1974.2</ele>
        <time>2017-06-18T10:28:00Z</time>
      </trkpt>
      <trkpt lat="46.359630608931184" lon="9.325090488418937">
        <ele>1975.1700000000001</ele>
        <time>2017-06-18T10:28:08Z</time>
      </trkpt>
      <trkpt lat="46.35967536829412" lon="9.325028043240309">
        <ele>1977.5699999999999</ele>
        <time>2017-06-18T10:28:19Z</time>
      </trkpt>
      <trkpt lat="46.359717613086104" lon="9.325133403763175">
        <ele>1979.01</ele>
        <time>2017-06-18T10:28:32Z</time>
      </trkpt>
      <trkpt lat="46.359752649441361" lon="9.325218899175525">
        <ele>1980.9300000000001</ele>
        <time>2017-06-18T10:28:43Z</time>
      </trkpt>
      <trkpt lat="46.359763713553548" lon="9.325286960229278">
        <ele>1982.3800000000001</ele>
        <time>2017-06-18T10:28:54Z</time>
      </trkpt>
      <trkpt lat="46.359768323600292" lon="9.325210684910417">
        <ele>1983.8199999999999</ele>
        <time>2017-06-18T10:29:05Z</time>
      </trkpt>
      <trkpt lat="46.359783913940191" lon="9.32510775513947">
        <ele>1985.74</ele>
        <time>2017-06-18T10:29:17Z</time>
      </trkpt>
      <trkpt lat="46.359801851212978" lon="9.325025780126452">
        <ele>1987.6600000000001</ele>
        <time>2017-06-18T10:29:28Z</time>
      </trkpt>
      <trkpt lat="46.359844012185931" lon="9.325079843401909">
        <ele>1989.5899999999999</ele>
        <time>2017-06-18T10:29:37Z</time>
      </trkpt>
      <trkpt lat="46.359883826225996" lon="9.325206074863672">
        <ele>1991.51</ele>
        <time>2017-06-18T10:29:51Z</time>
      </trkpt>
      <trkpt lat="46.359919952228665" lon="9.32523868046701">
        <ele>1992.95</ele>
        <time>2017-06-18T10:30:03Z</time>
      </trkpt>
      <trkpt lat="46.359919281676412" lon="9.325091745704413">
        <ele>1993.9100000000001</ele>
        <time>2017-06-18T10:30:15Z</time>
      </trkpt>
      <trkpt lat="46.359942499548197" lon="9.32506668381393">
        <ele>1995.3499999999999</ele>
        <time>2017-06-18T10:30:23Z</time>
      </trkpt>
      <trkpt lat="46.359975691884756" lon="9.325160728767514">
        <ele>1996.8</ele>
        <time>2017-06-18T10:30:33Z</time>
      </trkpt>
      <trkpt lat="46.359996143728495" lon="9.325231136754155">
        <ele>1998.72</ele>
        <time>2017-06-18T10:30:44Z</time>
      </trkpt>
      <trkpt lat="46.360022127628326" lon="9.325192915275693">
        <ele>2000.1600000000001</ele>
        <time>2017-06-18T10:30:56Z</time>
      </trkpt>
      <trkpt lat="46.36004626750946" lon="9.325085040181875">
        <ele>2001.5999999999999</ele>
        <time>2017-06-18T10:31:08Z</time>
      </trkpt>
      <trkpt lat="46.360045932233334" lon="9.324977919459343">
        <ele>2003.52</ele>
        <time>2017-06-18T10:31:20Z</time>
      </trkpt>
      <trkpt lat="46.360051799565554" lon="9.324890580028296">
        <ele>2004.49</ele>
        <time>2017-06-18T10:31:30Z</time>
      </trkpt>
      <trkpt lat="46.360050123184919" lon="9.324799636378884">
        <ele>2005.45</ele>
        <time>2017-06-18T10:31:40Z</time>
      </trkpt>
      <trkpt lat="46.360055571421981" lon="9.324720678851008">
        <ele>2007.3699999999999</ele>
        <time>2017-06-18T10:31:50Z</time>
      </trkpt>
      <trkpt lat="46.360078956931829" lon="9.324632585048676">
        <ele>2006.8900000000001</ele>
        <time>2017-06-18T10:32:00Z</time>
      </trkpt>
      <trkpt lat="46.360082058236003" lon="9.32461716234684">
        <ele>2008.8099999999999</ele>
        <time>2017-06-18T10:32:02Z</time>
      </trkpt>
      <trkpt lat="46.360113238915801" lon="9.324533930048347">
        <ele>2009.77</ele>
        <time>2017-06-18T10:32:12Z</time>
      </trkpt>
      <trkpt lat="46.360159674659371" lon="9.324431587010622">
        <ele>2011.22</ele>
        <time>2017-06-18T10:32:24Z</time>
      </trkpt>
      <trkpt lat="46.360216252505779" lon="9.324378026649356">
        <ele>2012.6600000000001</ele>
        <time>2017-06-18T10:32:36Z</time>
      </trkpt>
      <trkpt lat="46.360206697136164" lon="9.324365286156535">
        <ele>2012.6600000000001</ele>
        <time>2017-06-18T10:32:48Z</time>
      </trkpt>
      <trkpt lat="46.360252294689417" lon="9.324318515136838">
        <ele>2014.5799999999999</ele>
        <time>2017-06-18T10:32:57Z</time>
      </trkpt>
      <trkpt lat="46.360282469540834" lon="9.324266212061048">
        <ele>2015.54</ele>
        <time>2017-06-18T10:33:06Z</time>
      </trkpt>
      <trkpt lat="46.360308285802603" lon="9.324218016117811">
        <ele>2015.54</ele>
        <time>2017-06-18T10:33:15Z</time>
      </trkpt>
      <trkpt lat="46.360326809808612" lon="9.324169317260385">
        <ele>2016.02</ele>
        <time>2017-06-18T10:33:20Z</time>
      </trkpt>
      <trkpt lat="46.360348770394921" lon="9.324070159345865">
        <ele>2016.5</ele>
        <time>2017-06-18T10:33:31Z</time>
      </trkpt>
      <trkpt lat="46.360360756516457" lon="9.324061777442694">
        <ele>2016.02</ele>
        <time>2017-06-18T10:33:40Z</time>
      </trkpt>
      <trkpt lat="46.360350698232651" lon="9.324063621461391">
        <ele>2016.98</ele>
        <time>2017-06-18T10:33:51Z</time>
      </trkpt>
      <trkpt lat="46.360335610806942" lon="9.324017688632011">
        <ele>2016.98</ele>
        <time>2017-06-18T10:33:59Z</time>
      </trkpt>
      <trkpt lat="46.360324043780565" lon="9.323873100802302">
        <ele>2017.9400000000001</ele>
        <time>2017-06-18T10:34:10Z</time>
      </trkpt>
      <trkpt lat="46.360344244167209" lon="9.323803866282105">
        <ele>2018.9100000000001</ele>
        <time>2017-06-18T10:34:16Z</time>
      </trkpt>
      <trkpt lat="46.360350949689746" lon="9.3237264174968">
        <ele>2019.8699999999999</ele>
        <time>2017-06-18T10:34:22Z</time>
      </trkpt>
      <trkpt lat="46.360355895012617" lon="9.323665983974934">
        <ele>2020.3499999999999</ele>
        <time>2017-06-18T10:34:26Z</time>
      </trkpt>
      <trkpt lat="46.360356649383903" lon="9.323520390316844">
        <ele>2020.3499999999999</ele>
        <time>2017-06-18T10:34:37Z</time>
      </trkpt>
      <trkpt lat="46.360336113721132" lon="9.323396841064096">
        <ele>2019.8699999999999</ele>
        <time>2017-06-18T10:34:50Z</time>
      </trkpt>
      <trkpt lat="46.360333180055022" lon="9.323280919343233">
        <ele>2020.8299999999999</ele>
        <time>2017-06-18T10:35:01Z</time>
      </trkpt>
      <trkpt lat="46.360299065709114" lon="9.323134738951922">
        <ele>2020.8299999999999</ele>
        <time>2017-06-18T10:35:14Z</time>
      </trkpt>
      <trkpt lat="46.360238464549184" lon="9.322946816682816">
        <ele>2021.79</ele>
        <time>2017-06-18T10:35:28Z</time>
      </trkpt>
      <trkpt lat="46.360171241685748" lon="9.322750512510538">
        <ele>2020.8299999999999</ele>
        <time>2017-06-18T10:35:42Z</time>
      </trkpt>
      <trkpt lat="46.360132433474064" lon="9.322672812268138">
        <ele>2020.3499999999999</ele>
        <time>2017-06-18T10:35:50Z</time>
      </trkpt>
      <trkpt lat="46.360112149268389" lon="9.322620676830411">
        <ele>2020.3499999999999</ele>
        <time>2017-06-18T10:35:55Z</time>
      </trkpt>
      <trkpt lat="46.360081722959876" lon="9.322580695152283">
        <ele>2020.8299999999999</ele>
        <time>2017-06-18T10:36:00Z</time>
      </trkpt>
      <trkpt lat="46.360060516744852" lon="9.322480028495193">
        <ele>2021.3099999999999</ele>
        <time>2017-06-18T10:36:08Z</time>
      </trkpt>
      <trkpt lat="46.360050207003951" lon="9.322436945512891">
        <ele>2021.3099999999999</ele>
        <time>2017-06-18T10:36:11Z</time>
      </trkpt>
      <trkpt lat="46.359977703541517" lon="9.322254722937942">
        <ele>2019.3900000000001</ele>
        <time>2017-06-18T10:36:26Z</time>
      </trkpt>
      <trkpt lat="46.359961861744523" lon="9.322204431518912">
        <ele>2018.9100000000001</ele>
        <time>2017-06-18T10:36:30Z</time>
      </trkpt>
      <trkpt lat="46.359897069633007" lon="9.322012821212411">
        <ele>2016.98</ele>
        <time>2017-06-18T10:36:45Z</time>
      </trkpt>
      <trkpt lat="46.359876366332173" lon="9.32192481122911">
        <ele>2016.98</ele>
        <time>2017-06-18T10:36:52Z</time>
      </trkpt>
      <trkpt lat="46.359829092398286" lon="9.321773936972022">
        <ele>2016.02</ele>
        <time>2017-06-18T10:37:03Z</time>
      </trkpt>
      <trkpt lat="46.359761031344533" lon="9.32156665250659">
        <ele>2014.0999999999999</ele>
        <time>2017-06-18T10:37:18Z</time>
      </trkpt>
      <trkpt lat="46.359697412699461" lon="9.321361798793078">
        <ele>2014.0999999999999</ele>
        <time>2017-06-18T10:37:32Z</time>
      </trkpt>
      <trkpt lat="46.359636224806309" lon="9.321163650602102">
        <ele>2013.1400000000001</ele>
        <time>2017-06-18T10:37:46Z</time>
      </trkpt>
      <trkpt lat="46.359589453786612" lon="9.321010010316968">
        <ele>2012.6600000000001</ele>
        <time>2017-06-18T10:37:57Z</time>
      </trkpt>
      <trkpt lat="46.359527930617332" lon="9.320852598175407">
        <ele>2013.1400000000001</ele>
        <time>2017-06-18T10:38:09Z</time>
      </trkpt>
      <trkpt lat="46.359477220103145" lon="9.320722427219153">
        <ele>2012.6600000000001</ele>
        <time>2017-06-18T10:38:19Z</time>
      </trkpt>
      <trkpt lat="46.359411254525185" lon="9.320572977885604">
        <ele>2012.1800000000001</ele>
        <time>2017-06-18T10:38:31Z</time>
      </trkpt>
      <trkpt lat="46.359376218169928" lon="9.320487566292286">
        <ele>2012.1800000000001</ele>
        <time>2017-06-18T10:38:41Z</time>
      </trkpt>
      <trkpt lat="46.359356185421348" lon="9.32041740976274">
        <ele>2011.7</ele>
        <time>2017-06-18T10:38:46Z</time>
      </trkpt>
      <trkpt lat="46.359292734414339" lon="9.32027718052268">
        <ele>2011.7</ele>
        <time>2017-06-18T10:38:58Z</time>
      </trkpt>
      <trkpt lat="46.359283095225692" lon="9.32025077752769">
        <ele>2011.7</ele>
        <time>2017-06-18T10:39:01Z</time>
      </trkpt>
      <trkpt lat="46.359278401359916" lon="9.320199145004153">
        <ele>2011.22</ele>
        <time>2017-06-18T10:39:12Z</time>
      </trkpt>
      <trkpt lat="46.359279826283455" lon="9.320211969316006">
        <ele>2010.25</ele>
        <time>2017-06-18T10:39:32Z</time>
      </trkpt>
      <trkpt lat="46.359270019456744" lon="9.320230660960078">
        <ele>2009.77</ele>
        <time>2017-06-18T10:39:52Z</time>
      </trkpt>
      <trkpt lat="46.359278066083789" lon="9.32020828127861">
        <ele>2010.25</ele>
        <time>2017-06-18T10:40:11Z</time>
      </trkpt>
      <trkpt lat="46.359282005578279" lon="9.320200486108661">
        <ele>2010.25</ele>
        <time>2017-06-18T10:40:25Z</time>
      </trkpt>
      <trkpt lat="46.359264403581619" lon="9.320223201066256">
        <ele>2010.25</ele>
        <time>2017-06-18T10:40:46Z</time>
      </trkpt>
      <trkpt lat="46.359266079962254" lon="9.320201240479946">
        <ele>2010.73</ele>
        <time>2017-06-18T10:41:12Z</time>
      </trkpt>
      <trkpt lat="46.359277898445725" lon="9.320209538564086">
        <ele>2010.73</ele>
        <time>2017-06-18T10:41:33Z</time>
      </trkpt>
      <trkpt lat="46.3592619728297" lon="9.320201743394136">
        <ele>2011.22</ele>
        <time>2017-06-18T10:41:57Z</time>
      </trkpt>
      <trkpt lat="46.359269935637712" lon="9.320219932124019">
        <ele>2010.73</ele>
        <time>2017-06-18T10:42:15Z</time>
      </trkpt>
      <trkpt lat="46.359280915930867" lon="9.320194032043219">
        <ele>2012.1800000000001</ele>
        <time>2017-06-18T10:42:23Z</time>
      </trkpt>
      <trkpt lat="46.359291393309832" lon="9.320218339562416">
        <ele>2012.1800000000001</ele>
        <time>2017-06-18T10:42:37Z</time>
      </trkpt>
      <trkpt lat="46.359283765777946" lon="9.320227559655905">
        <ele>2012.1800000000001</ele>
        <time>2017-06-18T10:42:57Z</time>
      </trkpt>
      <trkpt lat="46.359292147681117" lon="9.320241138339043">
        <ele>2012.1800000000001</ele>
        <time>2017-06-18T10:43:20Z</time>
      </trkpt>
      <trkpt lat="46.359328273683786" lon="9.320190008729696">
        <ele>2012.1800000000001</ele>
        <time>2017-06-18T10:43:31Z</time>
      </trkpt>
      <trkpt lat="46.359342690557241" lon="9.320197720080614">
        <ele>2012.1800000000001</ele>
        <time>2017-06-18T10:43:33Z</time>
      </trkpt>
      <trkpt lat="46.35939390398562" lon="9.320165449753404">
        <ele>2012.1800000000001</ele>
        <time>2017-06-18T10:43:45Z</time>
      </trkpt>
      <trkpt lat="46.359394658356905" lon="9.320054976269603">
        <ele>2014.0999999999999</ele>
        <time>2017-06-18T10:43:56Z</time>
      </trkpt>
      <trkpt lat="46.359402788802981" lon="9.320009462535381">
        <ele>2015.54</ele>
        <time>2017-06-18T10:44:07Z</time>
      </trkpt>
      <trkpt lat="46.359447045251727" lon="9.320067465305328">
        <ele>2016.98</ele>
        <time>2017-06-18T10:44:18Z</time>
      </trkpt>
      <trkpt lat="46.359479231759906" lon="9.320026393979788">
        <ele>2018.4300000000001</ele>
        <time>2017-06-18T10:44:29Z</time>
      </trkpt>
      <trkpt lat="46.359475208446383" lon="9.319963781163096">
        <ele>2019.8699999999999</ele>
        <time>2017-06-18T10:44:39Z</time>
      </trkpt>
      <trkpt lat="46.359466826543212" lon="9.319900833070278">
        <ele>2022.27</ele>
        <time>2017-06-18T10:44:54Z</time>
      </trkpt>
      <trkpt lat="46.359451152384281" lon="9.319809721782804">
        <ele>2023.71</ele>
        <time>2017-06-18T10:45:06Z</time>
      </trkpt>
      <trkpt lat="46.359441429376602" lon="9.319738307967782">
        <ele>2025.1500000000001</ele>
        <time>2017-06-18T10:45:17Z</time>
      </trkpt>
      <trkpt lat="46.359430951997638" lon="9.319688519462943">
        <ele>2027.5599999999999</ele>
        <time>2017-06-18T10:45:30Z</time>
      </trkpt>
      <trkpt lat="46.359478728845716" lon="9.319760352373123">
        <ele>2028.52</ele>
        <time>2017-06-18T10:45:41Z</time>
      </trkpt>
      <trkpt lat="46.359485518187284" lon="9.319689860567451">
        <ele>2029.96</ele>
        <time>2017-06-18T10:45:54Z</time>
      </trkpt>
      <trkpt lat="46.359415696933866" lon="9.319563545286655">
        <ele>2032.8399999999999</ele>
        <time>2017-06-18T10:46:09Z</time>
      </trkpt>
      <trkpt lat="46.35948384180665" lon="9.319559102877975">
        <ele>2035.73</ele>
        <time>2017-06-18T10:46:24Z</time>
      </trkpt>
      <trkpt lat="46.359454924240708" lon="9.319496070966125">
        <ele>2038.1300000000001</ele>
        <time>2017-06-18T10:46:38Z</time>
      </trkpt>
      <trkpt lat="46.359438998624682" lon="9.319421472027898">
        <ele>2040.05</ele>
        <time>2017-06-18T10:46:49Z</time>
      </trkpt>
      <trkpt lat="46.359427096322179" lon="9.31931845843792">
        <ele>2042.46</ele>
        <time>2017-06-18T10:47:04Z</time>
      </trkpt>
      <trkpt lat="46.359448134899139" lon="9.319296916946769">
        <ele>2043.4200000000001</ele>
        <time>2017-06-18T10:47:16Z</time>
      </trkpt>
      <trkpt lat="46.359461210668087" lon="9.319263054057956">
        <ele>2043.9000000000001</ele>
        <time>2017-06-18T10:47:25Z</time>
      </trkpt>
      <trkpt lat="46.359499264508486" lon="9.319360284134746">
        <ele>2046.3</ele>
        <time>2017-06-18T10:47:39Z</time>
      </trkpt>
      <trkpt lat="46.359539330005646" lon="9.319418119266629">
        <ele>2048.71</ele>
        <time>2017-06-18T10:47:53Z</time>
      </trkpt>
      <trkpt lat="46.359583754092455" lon="9.319454915821552">
        <ele>2051.1100000000001</ele>
        <time>2017-06-18T10:48:05Z</time>
      </trkpt>
      <trkpt lat="46.359633961692452" lon="9.319492634385824">
        <ele>2053.5100000000002</ele>
        <time>2017-06-18T10:48:17Z</time>
      </trkpt>
      <trkpt lat="46.35965483263135" lon="9.319461872801185">
        <ele>2054.4699999999998</ele>
        <time>2017-06-18T10:48:28Z</time>
      </trkpt>
      <trkpt lat="46.359670925885439" lon="9.319401020184159">
        <ele>2055.9200000000001</ele>
        <time>2017-06-18T10:48:37Z</time>
      </trkpt>
      <trkpt lat="46.359692718833685" lon="9.319343185052276">
        <ele>2056.8800000000001</ele>
        <time>2017-06-18T10:48:48Z</time>
      </trkpt>
      <trkpt lat="46.359696574509144" lon="9.319307813420892">
        <ele>2057.8400000000001</ele>
        <time>2017-06-18T10:49:00Z</time>
      </trkpt>
      <trkpt lat="46.359723480418324" lon="9.319248637184501">
        <ele>2059.7600000000002</ele>
        <time>2017-06-18T10:49:11Z</time>
      </trkpt>
      <trkpt lat="46.359752984717488" lon="9.319175127893686">
        <ele>2062.1700000000001</ele>
        <time>2017-06-18T10:49:23Z</time>
      </trkpt>
      <trkpt lat="46.359779136255383" lon="9.319110084325075">
        <ele>2063.6100000000001</ele>
        <time>2017-06-18T10:49:33Z</time>
      </trkpt>
      <trkpt lat="46.359799252822995" lon="9.3190345633775">
        <ele>2065.0500000000002</ele>
        <time>2017-06-18T10:49:45Z</time>
      </trkpt>
      <trkpt lat="46.35982196778059" lon="9.318955354392529">
        <ele>2066.4899999999998</ele>
        <time>2017-06-18T10:49:57Z</time>
      </trkpt>
      <trkpt lat="46.359850382432342" lon="9.318933896720409">
        <ele>2068.8899999999999</ele>
        <time>2017-06-18T10:50:11Z</time>
      </trkpt>
      <trkpt lat="46.359905283898115" lon="9.318982176482678">
        <ele>2070.8200000000002</ele>
        <time>2017-06-18T10:50:22Z</time>
      </trkpt>
      <trkpt lat="46.359950378537178" lon="9.31904730387032">
        <ele>2070.3400000000001</ele>
        <time>2017-06-18T10:50:34Z</time>
      </trkpt>
      <trkpt lat="46.359959850087762" lon="9.319056691601872">
        <ele>2072.7399999999998</ele>
        <time>2017-06-18T10:50:36Z</time>
      </trkpt>
      <trkpt lat="46.36000762693584" lon="9.31910346262157">
        <ele>2074.1799999999998</ele>
        <time>2017-06-18T10:50:47Z</time>
      </trkpt>
      <trkpt lat="46.360059510916471" lon="9.319153670221567">
        <ele>2076.0999999999999</ele>
        <time>2017-06-18T10:50:59Z</time>
      </trkpt>
      <trkpt lat="46.360075939446688" lon="9.319145372137427">
        <ele>2077.0700000000002</ele>
        <time>2017-06-18T10:51:12Z</time>
      </trkpt>
      <trkpt lat="46.360079040750861" lon="9.319144114851952">
        <ele>2077.5500000000002</ele>
        <time>2017-06-18T10:51:28Z</time>
      </trkpt>
      <trkpt lat="46.360058085992932" lon="9.319080831483007">
        <ele>2078.0300000000002</ele>
        <time>2017-06-18T10:51:45Z</time>
      </trkpt>
      <trkpt lat="46.360036879777908" lon="9.318989887833595">
        <ele>2080.9099999999999</ele>
        <time>2017-06-18T10:51:58Z</time>
      </trkpt>
      <trkpt lat="46.36001885868609" lon="9.318902380764484">
        <ele>2083.79</ele>
        <time>2017-06-18T10:52:10Z</time>
      </trkpt>
      <trkpt lat="46.359999999403954" lon="9.318816801533103">
        <ele>2087.1599999999999</ele>
        <time>2017-06-18T10:52:24Z</time>
      </trkpt>
      <trkpt lat="46.359966723248363" lon="9.318729378283024">
        <ele>2089.5599999999999</ele>
        <time>2017-06-18T10:52:37Z</time>
      </trkpt>
      <trkpt lat="46.359965549781919" lon="9.318666346371174">
        <ele>2089.0799999999999</ele>
        <time>2017-06-18T10:52:41Z</time>
      </trkpt>
      <trkpt lat="46.359948869794607" lon="9.318574983626604">
        <ele>2089.0799999999999</ele>
        <time>2017-06-18T10:52:49Z</time>
      </trkpt>
      <trkpt lat="46.359935291111469" lon="9.318463169038296">
        <ele>2089.5599999999999</ele>
        <time>2017-06-18T10:52:58Z</time>
      </trkpt>
      <trkpt lat="46.359940655529499" lon="9.318285975605249">
        <ele>2089.0799999999999</ele>
        <time>2017-06-18T10:53:11Z</time>
      </trkpt>
      <trkpt lat="46.359945349395275" lon="9.318237025290728">
        <ele>2089.0799999999999</ele>
        <time>2017-06-18T10:53:14Z</time>
      </trkpt>
      <trkpt lat="46.359935626387596" lon="9.318055054172874">
        <ele>2089.0799999999999</ele>
        <time>2017-06-18T10:53:27Z</time>
      </trkpt>
      <trkpt lat="46.359915509819984" lon="9.31790778413415">
        <ele>2088.1199999999999</ele>
        <time>2017-06-18T10:53:38Z</time>
      </trkpt>
      <trkpt lat="46.359909558668733" lon="9.317702511325479">
        <ele>2088.5999999999999</ele>
        <time>2017-06-18T10:53:51Z</time>
      </trkpt>
      <trkpt lat="46.359908888116479" lon="9.31749053299427">
        <ele>2089.0799999999999</ele>
        <time>2017-06-18T10:54:05Z</time>
      </trkpt>
      <trkpt lat="46.359913581982255" lon="9.31735172867775">
        <ele>2088.5999999999999</ele>
        <time>2017-06-18T10:54:15Z</time>
      </trkpt>
      <trkpt lat="46.359918275848031" lon="9.31733856908977">
        <ele>2087.6399999999999</ele>
        <time>2017-06-18T10:54:24Z</time>
      </trkpt>
      <trkpt lat="46.359909055754542" lon="9.31726329959929">
        <ele>2088.5999999999999</ele>
        <time>2017-06-18T10:54:44Z</time>
      </trkpt>
      <trkpt lat="46.359902182593942" lon="9.317145366221666">
        <ele>2088.5999999999999</ele>
        <time>2017-06-18T10:54:53Z</time>
      </trkpt>
      <trkpt lat="46.359886340796947" lon="9.316983511671424">
        <ele>2088.1199999999999</ele>
        <time>2017-06-18T10:55:05Z</time>
      </trkpt>
      <trkpt lat="46.359868235886097" lon="9.316798271611333">
        <ele>2088.1199999999999</ele>
        <time>2017-06-18T10:55:18Z</time>
      </trkpt>
      <trkpt lat="46.359844515100121" lon="9.31666474789381">
        <ele>2088.5999999999999</ele>
        <time>2017-06-18T10:55:28Z</time>
      </trkpt>
      <trkpt lat="46.359815681353211" lon="9.316488727927208">
        <ele>2088.1199999999999</ele>
        <time>2017-06-18T10:55:41Z</time>
      </trkpt>
      <trkpt lat="46.359800007194281" lon="9.316397029906511">
        <ele>2088.5999999999999</ele>
        <time>2017-06-18T10:55:48Z</time>
      </trkpt>
      <trkpt lat="46.359802689403296" lon="9.31630658917129">
        <ele>2088.1199999999999</ele>
        <time>2017-06-18T10:55:59Z</time>
      </trkpt>
      <trkpt lat="46.359804114326835" lon="9.316321173682809">
        <ele>2088.1199999999999</ele>
        <time>2017-06-18T10:56:17Z</time>
      </trkpt>
      <trkpt lat="46.359811071306467" lon="9.316323017701507">
        <ele>2088.1199999999999</ele>
        <time>2017-06-18T10:56:31Z</time>
      </trkpt>
      <trkpt lat="46.359786512330174" lon="9.316311869770289">
        <ele>2088.5999999999999</ele>
        <time>2017-06-18T10:56:42Z</time>
      </trkpt>
      <trkpt lat="46.359767569229007" lon="9.316221345216036">
        <ele>2088.1199999999999</ele>
        <time>2017-06-18T10:56:50Z</time>
      </trkpt>
      <trkpt lat="46.359727336093783" lon="9.316051611676812">
        <ele>2087.6399999999999</ele>
        <time>2017-06-18T10:57:02Z</time>
      </trkpt>
      <trkpt lat="46.359663801267743" lon="9.315845333039761">
        <ele>2088.5999999999999</ele>
        <time>2017-06-18T10:57:17Z</time>
      </trkpt>
      <trkpt lat="46.359606301411986" lon="9.315684316679835">
        <ele>2088.1199999999999</ele>
        <time>2017-06-18T10:57:29Z</time>
      </trkpt>
      <trkpt lat="46.359529606997967" lon="9.315478876233101">
        <ele>2088.1199999999999</ele>
        <time>2017-06-18T10:57:44Z</time>
      </trkpt>
      <trkpt lat="46.359452828764915" lon="9.315295396372676">
        <ele>2088.1199999999999</ele>
        <time>2017-06-18T10:57:58Z</time>
      </trkpt>
      <trkpt lat="46.359383761882782" lon="9.315108144655824">
        <ele>2087.6399999999999</ele>
        <time>2017-06-18T10:58:12Z</time>
      </trkpt>
      <trkpt lat="46.359464395791292" lon="9.314946122467518">
        <ele>2087.1599999999999</ele>
        <time>2017-06-18T10:58:24Z</time>
      </trkpt>
      <trkpt lat="46.359495325013995" lon="9.314844449982047">
        <ele>2086.6799999999998</ele>
        <time>2017-06-18T10:58:32Z</time>
      </trkpt>
      <trkpt lat="46.359449476003647" lon="9.314695922657847">
        <ele>2086.1999999999998</ele>
        <time>2017-06-18T10:58:44Z</time>
      </trkpt>
      <trkpt lat="46.35944134555757" lon="9.314676560461521">
        <ele>2086.1999999999998</ele>
        <time>2017-06-18T10:58:46Z</time>
      </trkpt>
      <trkpt lat="46.359396921470761" lon="9.314511688426137">
        <ele>2086.1999999999998</ele>
        <time>2017-06-18T10:58:59Z</time>
      </trkpt>
      <trkpt lat="46.359373787418008" lon="9.314423846080899">
        <ele>2085.7199999999998</ele>
        <time>2017-06-18T10:59:08Z</time>
      </trkpt>
      <trkpt lat="46.359382001683116" lon="9.314285712316632">
        <ele>2086.6799999999998</ele>
        <time>2017-06-18T10:59:19Z</time>
      </trkpt>
      <trkpt lat="46.35938610881567" lon="9.314272552728653">
        <ele>2086.1999999999998</ele>
        <time>2017-06-18T10:59:20Z</time>
      </trkpt>
      <trkpt lat="46.359419552609324" lon="9.314155206084251">
        <ele>2086.6799999999998</ele>
        <time>2017-06-18T10:59:27Z</time>
      </trkpt>
      <trkpt lat="46.359452493488789" lon="9.314051270484924">
        <ele>2086.1999999999998</ele>
        <time>2017-06-18T10:59:37Z</time>
      </trkpt>
      <trkpt lat="46.359467497095466" lon="9.313993938267231">
        <ele>2086.1999999999998</ele>
        <time>2017-06-18T10:59:41Z</time>
      </trkpt>
      <trkpt lat="46.359493229538202" lon="9.313844656571746">
        <ele>2085.2399999999998</ele>
        <time>2017-06-18T10:59:52Z</time>
      </trkpt>
      <trkpt lat="46.359501192346215" lon="9.313767878338695">
        <ele>2085.7199999999998</ele>
        <time>2017-06-18T11:00:01Z</time>
      </trkpt>
      <trkpt lat="46.359505718573928" lon="9.313719850033522">
        <ele>2087.6399999999999</ele>
        <time>2017-06-18T11:00:10Z</time>
      </trkpt>
      <trkpt lat="46.35951560921967" lon="9.313664194196463">
        <ele>2088.5999999999999</ele>
        <time>2017-06-18T11:00:19Z</time>
      </trkpt>
      <trkpt lat="46.359562044963241" lon="9.313595546409488">
        <ele>2088.1199999999999</ele>
        <time>2017-06-18T11:00:30Z</time>
      </trkpt>
      <trkpt lat="46.359582580626011" lon="9.313522791489959">
        <ele>2089.0799999999999</ele>
        <time>2017-06-18T11:00:38Z</time>
      </trkpt>
      <trkpt lat="46.359586855396628" lon="9.313515163958073">
        <ele>2089.5599999999999</ele>
        <time>2017-06-18T11:00:39Z</time>
      </trkpt>
      <trkpt lat="46.359635638073087" lon="9.313469650223851">
        <ele>2090.04</ele>
        <time>2017-06-18T11:00:51Z</time>
      </trkpt>
      <trkpt lat="46.359615437686443" lon="9.313503010198474">
        <ele>2090.04</ele>
        <time>2017-06-18T11:01:04Z</time>
      </trkpt>
      <trkpt lat="46.359585179015994" lon="9.313419358804822">
        <ele>2089.5599999999999</ele>
        <time>2017-06-18T11:01:12Z</time>
      </trkpt>
      <trkpt lat="46.359581239521503" lon="9.313386082649231">
        <ele>2090.52</ele>
        <time>2017-06-18T11:01:15Z</time>
      </trkpt>
      <trkpt lat="46.35958157479763" lon="9.313263623043895">
        <ele>2091.4899999999998</ele>
        <time>2017-06-18T11:01:24Z</time>
      </trkpt>
      <trkpt lat="46.359586687758565" lon="9.313173517584801">
        <ele>2092.9299999999998</ele>
        <time>2017-06-18T11:01:36Z</time>
      </trkpt>
      <trkpt lat="46.359564056620002" lon="9.313102187588811">
        <ele>2093.8899999999999</ele>
        <time>2017-06-18T11:01:44Z</time>
      </trkpt>
      <trkpt lat="46.35956640355289" lon="9.312938991934061">
        <ele>2092.9299999999998</ele>
        <time>2017-06-18T11:01:55Z</time>
      </trkpt>
      <trkpt lat="46.359573947265744" lon="9.312825752422214">
        <ele>2092.4499999999998</ele>
        <time>2017-06-18T11:02:06Z</time>
      </trkpt>
      <trkpt lat="46.359565984457731" lon="9.312792643904686">
        <ele>2091.9699999999998</ele>
        <time>2017-06-18T11:02:09Z</time>
      </trkpt>
      <trkpt lat="46.359578724950552" lon="9.312657946720719">
        <ele>2091.4899999999998</ele>
        <time>2017-06-18T11:02:21Z</time>
      </trkpt>
      <trkpt lat="46.35955274105072" lon="9.312576977536082">
        <ele>2093.4099999999999</ele>
        <time>2017-06-18T11:02:32Z</time>
      </trkpt>
      <trkpt lat="46.359559781849384" lon="9.312482010573149">
        <ele>2095.8099999999999</ele>
        <time>2017-06-18T11:02:44Z</time>
      </trkpt>
      <trkpt lat="46.35957176797092" lon="9.312367513775826">
        <ele>2096.29</ele>
        <time>2017-06-18T11:02:54Z</time>
      </trkpt>
      <trkpt lat="46.359589118510485" lon="9.312287215143442">
        <ele>2095.8099999999999</ele>
        <time>2017-06-18T11:03:02Z</time>
      </trkpt>
      <trkpt lat="46.359581323340535" lon="9.31215520016849">
        <ele>2097.25</ele>
        <time>2017-06-18T11:03:14Z</time>
      </trkpt>
      <trkpt lat="46.359573863446712" lon="9.311987310647965">
        <ele>2097.25</ele>
        <time>2017-06-18T11:03:27Z</time>
      </trkpt>
      <trkpt lat="46.359559446573257" lon="9.311874406412244">
        <ele>2097.25</ele>
        <time>2017-06-18T11:03:38Z</time>
      </trkpt>
      <trkpt lat="46.359541928395629" lon="9.311778265982866">
        <ele>2097.73</ele>
        <time>2017-06-18T11:03:52Z</time>
      </trkpt>
      <trkpt lat="46.359528936445713" lon="9.311689920723438">
        <ele>2098.6999999999998</ele>
        <time>2017-06-18T11:04:04Z</time>
      </trkpt>
      <trkpt lat="46.359511921182275" lon="9.311601240187883">
        <ele>2099.6599999999999</ele>
        <time>2017-06-18T11:04:14Z</time>
      </trkpt>
      <trkpt lat="46.359512256458402" lon="9.311464950442314">
        <ele>2098.21</ele>
        <time>2017-06-18T11:04:24Z</time>
      </trkpt>
      <trkpt lat="46.359516950324178" lon="9.311310723423958">
        <ele>2099.1799999999998</ele>
        <time>2017-06-18T11:04:36Z</time>
      </trkpt>
      <trkpt lat="46.359501527622342" lon="9.311270155012608">
        <ele>2099.1799999999998</ele>
        <time>2017-06-18T11:04:40Z</time>
      </trkpt>
      <trkpt lat="46.359452242031693" lon="9.311117185279727">
        <ele>2099.1799999999998</ele>
        <time>2017-06-18T11:04:53Z</time>
      </trkpt>
      <trkpt lat="46.35944377630949" lon="9.311087345704436">
        <ele>2099.1799999999998</ele>
        <time>2017-06-18T11:04:55Z</time>
      </trkpt>
      <trkpt lat="46.359398094937205" lon="9.311015428975225">
        <ele>2101.0999999999999</ele>
        <time>2017-06-18T11:05:05Z</time>
      </trkpt>
      <trkpt lat="46.359365405514836" lon="9.310903865844011">
        <ele>2101.5799999999999</ele>
        <time>2017-06-18T11:05:16Z</time>
      </trkpt>
      <trkpt lat="46.359322154894471" lon="9.310833876952529">
        <ele>2103.02</ele>
        <time>2017-06-18T11:05:27Z</time>
      </trkpt>
      <trkpt lat="46.359288627281785" lon="9.310721810907126">
        <ele>2103.98</ele>
        <time>2017-06-18T11:05:38Z</time>
      </trkpt>
      <trkpt lat="46.359218051657081" lon="9.310619300231338">
        <ele>2103.5</ele>
        <time>2017-06-18T11:05:49Z</time>
      </trkpt>
      <trkpt lat="46.359139680862427" lon="9.31052366271615">
        <ele>2103.02</ele>
        <time>2017-06-18T11:06:01Z</time>
      </trkpt>
      <trkpt lat="46.359096011146903" lon="9.310416290536523">
        <ele>2102.54</ele>
        <time>2017-06-18T11:06:13Z</time>
      </trkpt>
      <trkpt lat="46.359063992276788" lon="9.31033892557025">
        <ele>2102.0599999999999</ele>
        <time>2017-06-18T11:06:20Z</time>
      </trkpt>
      <trkpt lat="46.359028285369277" lon="9.310190230607987">
        <ele>2102.54</ele>
        <time>2017-06-18T11:06:32Z</time>
      </trkpt>
      <trkpt lat="46.359047396108508" lon="9.310096772387624">
        <ele>2103.02</ele>
        <time>2017-06-18T11:06:42Z</time>
      </trkpt>
      <trkpt lat="46.359051587060094" lon="9.310059221461415">
        <ele>2103.98</ele>
        <time>2017-06-18T11:06:51Z</time>
      </trkpt>
      <trkpt lat="46.359057119116187" lon="9.31003843434155">
        <ele>2103.98</ele>
        <time>2017-06-18T11:07:04Z</time>
      </trkpt>
      <trkpt lat="46.359071200713515" lon="9.309949418529868">
        <ele>2104.46</ele>
        <time>2017-06-18T11:07:16Z</time>
      </trkpt>
      <trkpt lat="46.359046809375286" lon="9.309854786843061">
        <ele>2104.46</ele>
        <time>2017-06-18T11:07:26Z</time>
      </trkpt>
      <trkpt lat="46.359035326167941" lon="9.309792509302497">
        <ele>2105.4200000000001</ele>
        <time>2017-06-18T11:07:33Z</time>
      </trkpt>
      <trkpt lat="46.359022166579962" lon="9.309665774926543">
        <ele>2107.3499999999999</ele>
        <time>2017-06-18T11:07:44Z</time>
      </trkpt>
      <trkpt lat="46.359011605381966" lon="9.309592265635729">
        <ele>2109.27</ele>
        <time>2017-06-18T11:07:54Z</time>
      </trkpt>
      <trkpt lat="46.358994338661432" lon="9.309511128813028">
        <ele>2110.71</ele>
        <time>2017-06-18T11:08:04Z</time>
      </trkpt>
      <trkpt lat="46.358996434137225" lon="9.309410210698843">
        <ele>2113.1199999999999</ele>
        <time>2017-06-18T11:08:17Z</time>
      </trkpt>
      <trkpt lat="46.359009342268109" lon="9.309342317283154">
        <ele>2113.1199999999999</ele>
        <time>2017-06-18T11:08:28Z</time>
      </trkpt>
      <trkpt lat="46.359058292582631" lon="9.309297557920218">
        <ele>2114.0799999999999</ele>
        <time>2017-06-18T11:08:37Z</time>
      </trkpt>
      <trkpt lat="46.359058208763599" lon="9.309284063056111">
        <ele>2114.0799999999999</ele>
        <time>2017-06-18T11:08:48Z</time>
      </trkpt>
      <trkpt lat="46.359056532382965" lon="9.309265287593007">
        <ele>2114.0799999999999</ele>
        <time>2017-06-18T11:09:01Z</time>
      </trkpt>
      <trkpt lat="46.359067931771278" lon="9.309216002002358">
        <ele>2115.04</ele>
        <time>2017-06-18T11:09:14Z</time>
      </trkpt>
      <trkpt lat="46.359133645892143" lon="9.309166884049773">
        <ele>2115.52</ele>
        <time>2017-06-18T11:09:26Z</time>
      </trkpt>
      <trkpt lat="46.359246298670769" lon="9.309095805510879">
        <ele>2117.4400000000001</ele>
        <time>2017-06-18T11:09:43Z</time>
      </trkpt>
      <trkpt lat="46.359244035556912" lon="9.309035539627075">
        <ele>2117.9200000000001</ele>
        <time>2017-06-18T11:09:50Z</time>
      </trkpt>
      <trkpt lat="46.359275467693806" lon="9.309035036712885">
        <ele>2118.4000000000001</ele>
        <time>2017-06-18T11:09:53Z</time>
      </trkpt>
      <trkpt lat="46.359295500442386" lon="9.309028079733253">
        <ele>2117.9200000000001</ele>
        <time>2017-06-18T11:09:55Z</time>
      </trkpt>
      <trkpt lat="46.359380828216672" lon="9.309051129966974">
        <ele>2117.9200000000001</ele>
        <time>2017-06-18T11:10:03Z</time>
      </trkpt>
      <trkpt lat="46.35942617431283" lon="9.309047693386674">
        <ele>2117.9200000000001</ele>
        <time>2017-06-18T11:10:13Z</time>
      </trkpt>
      <trkpt lat="46.359422570094466" lon="9.309045430272818">
        <ele>2117.9200000000001</ele>
        <time>2017-06-18T11:10:16Z</time>
      </trkpt>
      <trkpt lat="46.359510077163577" lon="9.308996815234423">
        <ele>2116.96</ele>
        <time>2017-06-18T11:10:26Z</time>
      </trkpt>
      <trkpt lat="46.359546622261405" lon="9.308951888233423">
        <ele>2117.4400000000001</ele>
        <time>2017-06-18T11:10:32Z</time>
      </trkpt>
      <trkpt lat="46.359590459614992" lon="9.308931268751621">
        <ele>2116.96</ele>
        <time>2017-06-18T11:10:37Z</time>
      </trkpt>
      <trkpt lat="46.359630860388279" lon="9.308923473581672">
        <ele>2116.96</ele>
        <time>2017-06-18T11:10:42Z</time>
      </trkpt>
      <trkpt lat="46.359672015532851" lon="9.308935794979334">
        <ele>2116.96</ele>
        <time>2017-06-18T11:10:46Z</time>
      </trkpt>
      <trkpt lat="46.35973789729178" lon="9.308922216296196">
        <ele>2118.4000000000001</ele>
        <time>2017-06-18T11:10:54Z</time>
      </trkpt>
      <trkpt lat="46.359834121540189" lon="9.308884833008051">
        <ele>2119.8400000000001</ele>
        <time>2017-06-18T11:11:06Z</time>
      </trkpt>
      <trkpt lat="46.359932776540518" lon="9.308852311223745">
        <ele>2119.8400000000001</ele>
        <time>2017-06-18T11:11:19Z</time>
      </trkpt>
      <trkpt lat="46.35996320284903" lon="9.308839738368988">
        <ele>2120.8099999999999</ele>
        <time>2017-06-18T11:11:32Z</time>
      </trkpt>
      <trkpt lat="46.36000762693584" lon="9.308846779167652">
        <ele>2120.8099999999999</ele>
        <time>2017-06-18T11:11:44Z</time>
      </trkpt>
      <trkpt lat="46.360027827322483" lon="9.30880319327116">
        <ele>2122.73</ele>
        <time>2017-06-18T11:11:55Z</time>
      </trkpt>
      <trkpt lat="46.360093709081411" lon="9.308766480535269">
        <ele>2124.1700000000001</ele>
        <time>2017-06-18T11:12:08Z</time>
      </trkpt>
      <trkpt lat="46.360120447352529" lon="9.308774778619409">
        <ele>2125.1300000000001</ele>
        <time>2017-06-18T11:12:20Z</time>
      </trkpt>
      <trkpt lat="46.360158082097769" lon="9.308783076703548">
        <ele>2126.0900000000001</ele>
        <time>2017-06-18T11:12:34Z</time>
      </trkpt>
      <trkpt lat="46.36018649674952" lon="9.308762289583683">
        <ele>2127.0500000000002</ele>
        <time>2017-06-18T11:12:42Z</time>
      </trkpt>
      <trkpt lat="46.360207535326481" lon="9.308759942650795">
        <ele>2128.5</ele>
        <time>2017-06-18T11:12:50Z</time>
      </trkpt>
      <trkpt lat="46.360251707956195" lon="9.308773437514901">
        <ele>2129.9400000000001</ele>
        <time>2017-06-18T11:12:59Z</time>
      </trkpt>
      <trkpt lat="46.360288001596928" lon="9.308814760297537">
        <ele>2131.8600000000001</ele>
        <time>2017-06-18T11:13:09Z</time>
      </trkpt>
      <trkpt lat="46.360341897234321" lon="9.308822555467486">
        <ele>2134.2600000000002</ele>
        <time>2017-06-18T11:13:20Z</time>
      </trkpt>
      <trkpt lat="46.360347094014287" lon="9.308845605701208">
        <ele>2134.7399999999998</ele>
        <time>2017-06-18T11:13:31Z</time>
      </trkpt>
      <trkpt lat="46.360388165339828" lon="9.308859435841441">
        <ele>2136.1900000000001</ele>
        <time>2017-06-18T11:13:39Z</time>
      </trkpt>
      <trkpt lat="46.360384812578559" lon="9.308793051168323">
        <ele>2137.6300000000001</ele>
        <time>2017-06-18T11:13:48Z</time>
      </trkpt>
      <trkpt lat="46.360388919711113" lon="9.308786848559976">
        <ele>2137.6300000000001</ele>
        <time>2017-06-18T11:13:52Z</time>
      </trkpt>
      <trkpt lat="46.360408281907439" lon="9.308776957914233">
        <ele>2139.0700000000002</ele>
        <time>2017-06-18T11:13:56Z</time>
      </trkpt>
      <trkpt lat="46.360424961894751" lon="9.308795062825084">
        <ele>2139.0700000000002</ele>
        <time>2017-06-18T11:13:58Z</time>
      </trkpt>
      <trkpt lat="46.36042739264667" lon="9.308828841894865">
        <ele>2139.5500000000002</ele>
        <time>2017-06-18T11:14:00Z</time>
      </trkpt>
      <trkpt lat="46.360454382374883" lon="9.308859184384346">
        <ele>2140.0300000000002</ele>
        <time>2017-06-18T11:14:10Z</time>
      </trkpt>
      <trkpt lat="46.360481791198254" lon="9.308833032846451">
        <ele>2140.0300000000002</ele>
        <time>2017-06-18T11:14:20Z</time>
      </trkpt>
      <trkpt lat="46.360563933849335" lon="9.308809647336602">
        <ele>2140.9899999999998</ele>
        <time>2017-06-18T11:14:32Z</time>
      </trkpt>
      <trkpt lat="46.36062235571444" lon="9.30882029235363">
        <ele>2142.9200000000001</ele>
        <time>2017-06-18T11:14:42Z</time>
      </trkpt>
      <trkpt lat="46.360634006559849" lon="9.308826578781009">
        <ele>2144.8400000000001</ele>
        <time>2017-06-18T11:14:52Z</time>
      </trkpt>
      <trkpt lat="46.360624367371202" lon="9.308821884915233">
        <ele>2145.3200000000002</ele>
        <time>2017-06-18T11:15:04Z</time>
      </trkpt>
      <trkpt lat="46.360613973811269" lon="9.308851892128587">
        <ele>2145.3200000000002</ele>
        <time>2017-06-18T11:15:17Z</time>
      </trkpt>
      <trkpt lat="46.360596287995577" lon="9.30882565677166">
        <ele>2146.2800000000002</ele>
        <time>2017-06-18T11:15:31Z</time>
      </trkpt>
      <trkpt lat="46.360663929954171" lon="9.308782238513231">
        <ele>2148.6799999999998</ele>
        <time>2017-06-18T11:15:44Z</time>
      </trkpt>
      <trkpt lat="46.360658230260015" lon="9.308774778619409">
        <ele>2148.6799999999998</ele>
        <time>2017-06-18T11:15:55Z</time>
      </trkpt>
      <trkpt lat="46.360658314079046" lon="9.308763211593032">
        <ele>2148.6799999999998</ele>
        <time>2017-06-18T11:16:16Z</time>
      </trkpt>
      <trkpt lat="46.360678346827626" lon="9.308761283755302">
        <ele>2149.6500000000001</ele>
        <time>2017-06-18T11:16:30Z</time>
      </trkpt>
      <trkpt lat="46.360711120069027" lon="9.308744268491864">
        <ele>2150.6100000000001</ele>
        <time>2017-06-18T11:16:39Z</time>
      </trkpt>
      <trkpt lat="46.36076501570642" lon="9.30872892960906">
        <ele>2152.5300000000002</ele>
        <time>2017-06-18T11:16:48Z</time>
      </trkpt>
      <trkpt lat="46.360796028748155" lon="9.308763043954969">
        <ele>2153.9699999999998</ele>
        <time>2017-06-18T11:17:01Z</time>
      </trkpt>
      <trkpt lat="46.360843386501074" lon="9.30876555852592">
        <ele>2154.4499999999998</ele>
        <time>2017-06-18T11:17:11Z</time>
      </trkpt>
      <trkpt lat="46.360885379835963" lon="9.308774443343282">
        <ele>2153.9699999999998</ele>
        <time>2017-06-18T11:17:20Z</time>
      </trkpt>
      <trkpt lat="46.360875153914094" lon="9.308795062825084">
        <ele>2154.4499999999998</ele>
        <time>2017-06-18T11:17:30Z</time>
      </trkpt>
      <trkpt lat="46.360928043723106" lon="9.308760948479176">
        <ele>2154.4499999999998</ele>
        <time>2017-06-18T11:17:45Z</time>
      </trkpt>
      <trkpt lat="46.360997864976525" lon="9.308821130543947">
        <ele>2153.4899999999998</ele>
        <time>2017-06-18T11:17:55Z</time>
      </trkpt>
      <trkpt lat="46.360998870804906" lon="9.30882666260004">
        <ele>2153.9699999999998</ele>
        <time>2017-06-18T11:18:01Z</time>
      </trkpt>
      <trkpt lat="46.361024603247643" lon="9.308826327323914">
        <ele>2153.4899999999998</ele>
        <time>2017-06-18T11:18:04Z</time>
      </trkpt>
      <trkpt lat="46.361105404794216" lon="9.308839403092861">
        <ele>2153.4899999999998</ele>
        <time>2017-06-18T11:18:14Z</time>
      </trkpt>
      <trkpt lat="46.361122000962496" lon="9.3088667280972">
        <ele>2152.5300000000002</ele>
        <time>2017-06-18T11:18:18Z</time>
      </trkpt>
      <trkpt lat="46.361135747283697" lon="9.308877205476165">
        <ele>2152.5300000000002</ele>
        <time>2017-06-18T11:18:20Z</time>
      </trkpt>
      <trkpt lat="46.361154774203897" lon="9.308888353407383">
        <ele>2152.0500000000002</ele>
        <time>2017-06-18T11:18:22Z</time>
      </trkpt>
      <trkpt lat="46.361230295151472" lon="9.30895809084177">
        <ele>2152.0500000000002</ele>
        <time>2017-06-18T11:18:33Z</time>
      </trkpt>
      <trkpt lat="46.361239599063993" lon="9.308962700888515">
        <ele>2152.5300000000002</ele>
        <time>2017-06-18T11:18:35Z</time>
      </trkpt>
      <trkpt lat="46.361265331506729" lon="9.309016680344939">
        <ele>2153.0100000000002</ele>
        <time>2017-06-18T11:18:42Z</time>
      </trkpt>
      <trkpt lat="46.361336326226592" lon="9.309080466628075">
        <ele>2153.4899999999998</ele>
        <time>2017-06-18T11:18:52Z</time>
      </trkpt>
      <trkpt lat="46.361421905457973" lon="9.309116341173649">
        <ele>2154.4499999999998</ele>
        <time>2017-06-18T11:19:04Z</time>
      </trkpt>
      <trkpt lat="46.36145249940455" lon="9.309111479669809">
        <ele>2153.9699999999998</ele>
        <time>2017-06-18T11:19:14Z</time>
      </trkpt>
      <trkpt lat="46.361487116664648" lon="9.309117514640093">
        <ele>2153.4899999999998</ele>
        <time>2017-06-18T11:19:20Z</time>
      </trkpt>
      <trkpt lat="46.361567163839936" lon="9.309105863794684">
        <ele>2152.0500000000002</ele>
        <time>2017-06-18T11:19:30Z</time>
      </trkpt>
      <trkpt lat="46.361601194366813" lon="9.309109970927239">
        <ele>2152.0500000000002</ele>
        <time>2017-06-18T11:19:33Z</time>
      </trkpt>
      <trkpt lat="46.361637990921736" lon="9.309115083888173">
        <ele>2152.0500000000002</ele>
        <time>2017-06-18T11:19:37Z</time>
      </trkpt>
      <trkpt lat="46.361664142459631" lon="9.309127405285835">
        <ele>2152.5300000000002</ele>
        <time>2017-06-18T11:19:40Z</time>
      </trkpt>
      <trkpt lat="46.36175693012774" lon="9.309152299538255">
        <ele>2152.5300000000002</ele>
        <time>2017-06-18T11:19:51Z</time>
      </trkpt>
      <trkpt lat="46.361834462732077" lon="9.309196472167969">
        <ele>2153.4899999999998</ele>
        <time>2017-06-18T11:20:01Z</time>
      </trkpt>
      <trkpt lat="46.361888609826565" lon="9.309195131063461">
        <ele>2154.4499999999998</ele>
        <time>2017-06-18T11:20:11Z</time>
      </trkpt>
      <trkpt lat="46.36186539195478" lon="9.309213571250439">
        <ele>2153.9699999999998</ele>
        <time>2017-06-18T11:20:22Z</time>
      </trkpt>
      <trkpt lat="46.361900344491005" lon="9.309221114963293">
        <ele>2154.4499999999998</ele>
        <time>2017-06-18T11:20:30Z</time>
      </trkpt>
      <trkpt lat="46.361906798556447" lon="9.309236034750938">
        <ele>2154.4499999999998</ele>
        <time>2017-06-18T11:20:40Z</time>
      </trkpt>
      <trkpt lat="46.361915767192841" lon="9.30928397923708">
        <ele>2154.4499999999998</ele>
        <time>2017-06-18T11:20:53Z</time>
      </trkpt>
      <trkpt lat="46.361962705850601" lon="9.309339383617044">
        <ele>2153.4899999999998</ele>
        <time>2017-06-18T11:21:05Z</time>
      </trkpt>
      <trkpt lat="46.361982319504023" lon="9.309369809925556">
        <ele>2152.5300000000002</ele>
        <time>2017-06-18T11:21:14Z</time>
      </trkpt>
      <trkpt lat="46.361983995884657" lon="9.309362517669797">
        <ele>2152.5300000000002</ele>
        <time>2017-06-18T11:21:25Z</time>
      </trkpt>
      <trkpt lat="46.361999250948429" lon="9.309415407478809">
        <ele>2152.5300000000002</ele>
        <time>2017-06-18T11:21:34Z</time>
      </trkpt>
      <trkpt lat="46.362027414143085" lon="9.309513894841075">
        <ele>2154.4499999999998</ele>
        <time>2017-06-18T11:21:46Z</time>
      </trkpt>
      <trkpt lat="46.362025151029229" lon="9.309539878740907">
        <ele>2154.4499999999998</ele>
        <time>2017-06-18T11:21:48Z</time>
      </trkpt>
      <trkpt lat="46.362022636458278" lon="9.309678012505174">
        <ele>2154.9299999999998</ele>
        <time>2017-06-18T11:22:00Z</time>
      </trkpt>
      <trkpt lat="46.362005788832903" lon="9.309784881770611">
        <ele>2156.3699999999999</ele>
        <time>2017-06-18T11:22:11Z</time>
      </trkpt>
      <trkpt lat="46.362029761075974" lon="9.309849590063095">
        <ele>2157.3400000000001</ele>
        <time>2017-06-18T11:22:21Z</time>
      </trkpt>
      <trkpt lat="46.362035209313035" lon="9.309848919510841">
        <ele>2158.3000000000002</ele>
        <time>2017-06-18T11:22:30Z</time>
      </trkpt>
      <trkpt lat="46.362035041674972" lon="9.309845650568605">
        <ele>2157.8200000000002</ele>
        <time>2017-06-18T11:22:44Z</time>
      </trkpt>
      <trkpt lat="46.362033616751432" lon="9.309858810156584">
        <ele>2157.8200000000002</ele>
        <time>2017-06-18T11:22:58Z</time>
      </trkpt>
      <trkpt lat="46.362066473811865" lon="9.309824025258422">
        <ele>2156.8600000000001</ele>
        <time>2017-06-18T11:23:09Z</time>
      </trkpt>
      <trkpt lat="46.362066641449928" lon="9.309804746881127">
        <ele>2156.3699999999999</ele>
        <time>2017-06-18T11:23:22Z</time>
      </trkpt>
      <trkpt lat="46.362099330872297" lon="9.309827545657754">
        <ele>2155.4099999999999</ele>
        <time>2017-06-18T11:23:31Z</time>
      </trkpt>
      <trkpt lat="46.362160602584481" lon="9.309838777408004">
        <ele>2153.4899999999998</ele>
        <time>2017-06-18T11:23:41Z</time>
      </trkpt>
      <trkpt lat="46.36220351792872" lon="9.309849673882127">
        <ele>2152.5300000000002</ele>
        <time>2017-06-18T11:23:47Z</time>
      </trkpt>
      <trkpt lat="46.36229689233005" lon="9.309900049120188">
        <ele>2151.5700000000002</ele>
        <time>2017-06-18T11:23:58Z</time>
      </trkpt>
      <trkpt lat="46.362371491268277" lon="9.309952268376946">
        <ele>2151.5700000000002</ele>
        <time>2017-06-18T11:24:08Z</time>
      </trkpt>
      <trkpt lat="46.362448269501328" lon="9.309981605038047">
        <ele>2151.0900000000001</ele>
        <time>2017-06-18T11:24:20Z</time>
      </trkpt>
      <trkpt lat="46.362461261451244" lon="9.309959225356579">
        <ele>2151.0900000000001</ele>
        <time>2017-06-18T11:24:29Z</time>
      </trkpt>
      <trkpt lat="46.362481713294983" lon="9.309910358861089">
        <ele>2152.0500000000002</ele>
        <time>2017-06-18T11:24:38Z</time>
      </trkpt>
      <trkpt lat="46.362506188452244" lon="9.309856295585632">
        <ele>2153.0100000000002</ele>
        <time>2017-06-18T11:24:45Z</time>
      </trkpt>
      <trkpt lat="46.36254508048296" lon="9.309813631698489">
        <ele>2152.5300000000002</ele>
        <time>2017-06-18T11:24:54Z</time>
      </trkpt>
      <trkpt lat="46.362550361081958" lon="9.309734255075455">
        <ele>2151.5700000000002</ele>
        <time>2017-06-18T11:25:03Z</time>
      </trkpt>
      <trkpt lat="46.362587995827198" lon="9.309669211506844">
        <ele>2153.4899999999998</ele>
        <time>2017-06-18T11:25:13Z</time>
      </trkpt>
      <trkpt lat="46.362587073817849" lon="9.309656554833055">
        <ele>2153.4899999999998</ele>
        <time>2017-06-18T11:25:14Z</time>
      </trkpt>
      <trkpt lat="46.362652704119682" lon="9.309577932581306">
        <ele>2154.4499999999998</ele>
        <time>2017-06-18T11:25:26Z</time>
      </trkpt>
      <trkpt lat="46.362685896456242" lon="9.309500902891159">
        <ele>2154.4499999999998</ele>
        <time>2017-06-18T11:25:35Z</time>
      </trkpt>
      <trkpt lat="46.36273761279881" lon="9.309431836009026">
        <ele>2155.4099999999999</ele>
        <time>2017-06-18T11:25:48Z</time>
      </trkpt>
      <trkpt lat="46.362682795152068" lon="9.30929814465344">
        <ele>2155.4099999999999</ele>
        <time>2017-06-18T11:26:05Z</time>
      </trkpt>
      <trkpt lat="46.362852528691292" lon="9.309290768578649">
        <ele>2157.3400000000001</ele>
        <time>2017-06-18T11:26:15Z</time>
      </trkpt>
      <trkpt lat="46.362844901159406" lon="9.3092708196491">
        <ele>2159.2600000000002</ele>
        <time>2017-06-18T11:26:25Z</time>
      </trkpt>
      <trkpt lat="46.362835764884949" lon="9.309231424704194">
        <ele>2161.1799999999998</ele>
        <time>2017-06-18T11:26:34Z</time>
      </trkpt>
      <trkpt lat="46.362853702157736" lon="9.309198902919889">
        <ele>2161.6599999999999</ele>
        <time>2017-06-18T11:26:38Z</time>
      </trkpt>
      <trkpt lat="46.362865604460239" lon="9.30912371724844">
        <ele>2162.1399999999999</ele>
        <time>2017-06-18T11:26:44Z</time>
      </trkpt>
      <trkpt lat="46.362885804846883" lon="9.309040736407042">
        <ele>2161.1799999999998</ele>
        <time>2017-06-18T11:26:52Z</time>
      </trkpt>
      <trkpt lat="46.362901143729687" lon="9.309027744457126">
        <ele>2160.6999999999998</ele>
        <time>2017-06-18T11:27:02Z</time>
      </trkpt>
      <trkpt lat="46.36288907378912" lon="9.309053979814053">
        <ele>2160.6999999999998</ele>
        <time>2017-06-18T11:27:14Z</time>
      </trkpt>
      <trkpt lat="46.362902987748384" lon="9.309009974822402">
        <ele>2160.2199999999998</ele>
        <time>2017-06-18T11:27:24Z</time>
      </trkpt>
      <trkpt lat="46.362938191741705" lon="9.308918360620737">
        <ele>2159.7399999999998</ele>
        <time>2017-06-18T11:27:32Z</time>
      </trkpt>
      <trkpt lat="46.363001307472587" lon="9.30884812027216">
        <ele>2158.3000000000002</ele>
        <time>2017-06-18T11:27:41Z</time>
      </trkpt>
      <trkpt lat="46.363057633861899" lon="9.308813670650125">
        <ele>2158.7800000000002</ele>
        <time>2017-06-18T11:27:48Z</time>
      </trkpt>
      <trkpt lat="46.363079259172082" lon="9.308774694800377">
        <ele>2158.3000000000002</ele>
        <time>2017-06-18T11:27:54Z</time>
      </trkpt>
      <trkpt lat="46.36315100826323" lon="9.308768576011062">
        <ele>2157.3400000000001</ele>
        <time>2017-06-18T11:28:03Z</time>
      </trkpt>
      <trkpt lat="46.363206328824162" lon="9.308740412816405">
        <ele>2156.8600000000001</ele>
        <time>2017-06-18T11:28:11Z</time>
      </trkpt>
      <trkpt lat="46.363207586109638" lon="9.308772431686521">
        <ele>2156.8600000000001</ele>
        <time>2017-06-18T11:28:16Z</time>
      </trkpt>
      <trkpt lat="46.363225942477584" lon="9.308802522718906">
        <ele>2156.8600000000001</ele>
        <time>2017-06-18T11:28:24Z</time>
      </trkpt>
      <trkpt lat="46.363227786496282" lon="9.308799337595701">
        <ele>2156.8600000000001</ele>
        <time>2017-06-18T11:28:39Z</time>
      </trkpt>
      <trkpt lat="46.363221919164062" lon="9.308722391724587">
        <ele>2155.4099999999999</ele>
        <time>2017-06-18T11:28:48Z</time>
      </trkpt>
      <trkpt lat="46.363220158964396" lon="9.308709315955639">
        <ele>2154.9299999999998</ele>
        <time>2017-06-18T11:28:50Z</time>
      </trkpt>
      <trkpt lat="46.363247651606798" lon="9.308606134727597">
        <ele>2152.5300000000002</ele>
        <time>2017-06-18T11:29:00Z</time>
      </trkpt>
      <trkpt lat="46.363255195319653" lon="9.308553244918585">
        <ele>2152.5300000000002</ele>
        <time>2017-06-18T11:29:04Z</time>
      </trkpt>
      <trkpt lat="46.363260727375746" lon="9.308431874960661">
        <ele>2154.4499999999998</ele>
        <time>2017-06-18T11:29:14Z</time>
      </trkpt>
      <trkpt lat="46.363265421241522" lon="9.308385355398059">
        <ele>2154.4499999999998</ele>
        <time>2017-06-18T11:29:19Z</time>
      </trkpt>
      <trkpt lat="46.363271959125996" lon="9.30828720331192">
        <ele>2153.4899999999998</ele>
        <time>2017-06-18T11:29:28Z</time>
      </trkpt>
      <trkpt lat="46.363324010744691" lon="9.308211514726281">
        <ele>2154.4499999999998</ele>
        <time>2017-06-18T11:29:43Z</time>
      </trkpt>
      <trkpt lat="46.363297607749701" lon="9.308126522228122">
        <ele>2153.9699999999998</ele>
        <time>2017-06-18T11:29:53Z</time>
      </trkpt>
      <trkpt lat="46.363294506445527" lon="9.308113781735301">
        <ele>2153.9699999999998</ele>
        <time>2017-06-18T11:29:54Z</time>
      </trkpt>
      <trkpt lat="46.363300709053874" lon="9.308078242465854">
        <ele>2153.4899999999998</ele>
        <time>2017-06-18T11:29:57Z</time>
      </trkpt>
      <trkpt lat="46.363354856148362" lon="9.308007247745991">
        <ele>2153.9699999999998</ele>
        <time>2017-06-18T11:30:04Z</time>
      </trkpt>
      <trkpt lat="46.363409757614136" lon="9.307875232771039">
        <ele>2153.9699999999998</ele>
        <time>2017-06-18T11:30:16Z</time>
      </trkpt>
      <trkpt lat="46.363431047648191" lon="9.307764759287238">
        <ele>2153.0100000000002</ele>
        <time>2017-06-18T11:30:26Z</time>
      </trkpt>
      <trkpt lat="46.363430544734001" lon="9.307752018794417">
        <ele>2152.5300000000002</ele>
        <time>2017-06-18T11:30:27Z</time>
      </trkpt>
      <trkpt lat="46.363418977707624" lon="9.307642132043839">
        <ele>2153.4899999999998</ele>
        <time>2017-06-18T11:30:38Z</time>
      </trkpt>
      <trkpt lat="46.363407243043184" lon="9.307539537549019">
        <ele>2152.0500000000002</ele>
        <time>2017-06-18T11:30:48Z</time>
      </trkpt>
      <trkpt lat="46.36340070515871" lon="9.307317165657878">
        <ele>2152.0500000000002</ele>
        <time>2017-06-18T11:31:03Z</time>
      </trkpt>
      <trkpt lat="46.363410763442516" lon="9.307138966396451">
        <ele>2152.0500000000002</ele>
        <time>2017-06-18T11:31:15Z</time>
      </trkpt>
      <trkpt lat="46.363428784534335" lon="9.307069815695286">
        <ele>2152.5300000000002</ele>
        <time>2017-06-18T11:31:25Z</time>
      </trkpt>
      <trkpt lat="46.363456277176738" lon="9.307051375508308">
        <ele>2153.0100000000002</ele>
        <time>2017-06-18T11:31:39Z</time>
      </trkpt>
      <trkpt lat="46.363475304096937" lon="9.306953307241201">
        <ele>2153.0100000000002</ele>
        <time>2017-06-18T11:31:49Z</time>
      </trkpt>
      <trkpt lat="46.363488296046853" lon="9.306970490142703">
        <ele>2153.0100000000002</ele>
        <time>2017-06-18T11:31:54Z</time>
      </trkpt>
      <trkpt lat="46.363498773425817" lon="9.307008711621165">
        <ele>2153.0100000000002</ele>
        <time>2017-06-18T11:31:57Z</time>
      </trkpt>
      <trkpt lat="46.36350966989994" lon="9.307023044675589">
        <ele>2152.5300000000002</ele>
        <time>2017-06-18T11:32:06Z</time>
      </trkpt>
      <trkpt lat="46.3634979352355" lon="9.307023799046874">
        <ele>2152.0500000000002</ele>
        <time>2017-06-18T11:32:23Z</time>
      </trkpt>
      <trkpt lat="46.363494079560041" lon="9.307032432407141">
        <ele>2152.5300000000002</ele>
        <time>2017-06-18T11:32:36Z</time>
      </trkpt>
      <trkpt lat="46.363485781475902" lon="9.30705682374537">
        <ele>2152.0500000000002</ele>
        <time>2017-06-18T11:32:53Z</time>
      </trkpt>
      <trkpt lat="46.363451248034835" lon="9.307043245062232">
        <ele>2152.5300000000002</ele>
        <time>2017-06-18T11:33:06Z</time>
      </trkpt>
      <trkpt lat="46.363409925252199" lon="9.307041401043534">
        <ele>2153.0100000000002</ele>
        <time>2017-06-18T11:33:15Z</time>
      </trkpt>
      <trkpt lat="46.36340606957674" lon="9.307049866765738">
        <ele>2153.0100000000002</ele>
        <time>2017-06-18T11:33:16Z</time>
      </trkpt>
      <trkpt lat="46.36338310316205" lon="9.307036874815822">
        <ele>2152.5300000000002</ele>
        <time>2017-06-18T11:33:19Z</time>
      </trkpt>
      <trkpt lat="46.363335996866226" lon="9.306987253949046">
        <ele>2152.0500000000002</ele>
        <time>2017-06-18T11:33:28Z</time>
      </trkpt>
      <trkpt lat="46.363271037116647" lon="9.307020865380764">
        <ele>2151.5700000000002</ele>
        <time>2017-06-18T11:33:38Z</time>
      </trkpt>
      <trkpt lat="46.363237928599119" lon="9.307052046060562">
        <ele>2150.1300000000001</ele>
        <time>2017-06-18T11:33:47Z</time>
      </trkpt>
      <trkpt lat="46.36323650367558" lon="9.307054141536355">
        <ele>2149.6500000000001</ele>
        <time>2017-06-18T11:33:48Z</time>
      </trkpt>
      <trkpt lat="46.363231809809804" lon="9.307046849280596">
        <ele>2149.1599999999999</ele>
        <time>2017-06-18T11:33:55Z</time>
      </trkpt>
      <trkpt lat="46.363252596929669" lon="9.307068726047874">
        <ele>2149.1599999999999</ele>
        <time>2017-06-18T11:34:04Z</time>
      </trkpt>
      <trkpt lat="46.363258464261889" lon="9.307070905342698">
        <ele>2148.6799999999998</ele>
        <time>2017-06-18T11:34:13Z</time>
      </trkpt>
      <trkpt lat="46.363238012418151" lon="9.30708272382617">
        <ele>2148.1999999999998</ele>
        <time>2017-06-18T11:34:37Z</time>
      </trkpt>
      <trkpt lat="46.363260643556714" lon="9.307074090465903">
        <ele>2147.7199999999998</ele>
        <time>2017-06-18T11:34:48Z</time>
      </trkpt>
      <trkpt lat="46.363276233896613" lon="9.307073336094618">
        <ele>2148.6799999999998</ele>
        <time>2017-06-18T11:35:06Z</time>
      </trkpt>
      <trkpt lat="46.363282101228833" lon="9.307088172063232">
        <ele>2148.6799999999998</ele>
        <time>2017-06-18T11:35:19Z</time>
      </trkpt>
      <trkpt lat="46.363262487575412" lon="9.307050621137023">
        <ele>2148.6799999999998</ele>
        <time>2017-06-18T11:35:36Z</time>
      </trkpt>
      <trkpt lat="46.36327313259244" lon="9.307072916999459">
        <ele>2148.6799999999998</ele>
        <time>2017-06-18T11:35:58Z</time>
      </trkpt>
      <trkpt lat="46.36327120475471" lon="9.307086076587439">
        <ele>2148.6799999999998</ele>
        <time>2017-06-18T11:36:19Z</time>
      </trkpt>
      <trkpt lat="46.363273719325662" lon="9.307060930877924">
        <ele>2148.6799999999998</ele>
        <time>2017-06-18T11:36:39Z</time>
      </trkpt>
      <trkpt lat="46.363270366564393" lon="9.307100074365735">
        <ele>2148.6799999999998</ele>
        <time>2017-06-18T11:36:59Z</time>
      </trkpt>
      <trkpt lat="46.363262739032507" lon="9.307111892849207">
        <ele>2148.6799999999998</ele>
        <time>2017-06-18T11:37:18Z</time>
      </trkpt>
      <trkpt lat="46.363267935812473" lon="9.307109713554382">
        <ele>2148.6799999999998</ele>
        <time>2017-06-18T11:37:38Z</time>
      </trkpt>
      <trkpt lat="46.363264163956046" lon="9.307116586714983">
        <ele>2148.6799999999998</ele>
        <time>2017-06-18T11:37:56Z</time>
      </trkpt>
      <trkpt lat="46.363270031288266" lon="9.307108540087938">
        <ele>2148.6799999999998</ele>
        <time>2017-06-18T11:38:15Z</time>
      </trkpt>
      <trkpt lat="46.363275563344359" lon="9.307100577279925">
        <ele>2148.6799999999998</ele>
        <time>2017-06-18T11:38:35Z</time>
      </trkpt>
      <trkpt lat="46.363276820629835" lon="9.30711449123919">
        <ele>2149.1599999999999</ele>
        <time>2017-06-18T11:38:58Z</time>
      </trkpt>
      <trkpt lat="46.363272294402122" lon="9.307102337479591">
        <ele>2149.1599999999999</ele>
        <time>2017-06-18T11:39:26Z</time>
      </trkpt>
      <trkpt lat="46.36327363550663" lon="9.307099571451545">
        <ele>2149.6500000000001</ele>
        <time>2017-06-18T11:39:50Z</time>
      </trkpt>
      <trkpt lat="46.363285621628165" lon="9.307098481804133">
        <ele>2149.1599999999999</ele>
        <time>2017-06-18T11:40:16Z</time>
      </trkpt>
      <trkpt lat="46.363277658820152" lon="9.307095631957054">
        <ele>2149.1599999999999</ele>
        <time>2017-06-18T11:40:37Z</time>
      </trkpt>
      <trkpt lat="46.363283777609468" lon="9.30708272382617">
        <ele>2149.6500000000001</ele>
        <time>2017-06-18T11:41:06Z</time>
      </trkpt>
      <trkpt lat="46.363285537809134" lon="9.307084400206804">
        <ele>2149.6500000000001</ele>
        <time>2017-06-18T11:41:24Z</time>
      </trkpt>
      <trkpt lat="46.363283609971404" lon="9.307102086022496">
        <ele>2149.6500000000001</ele>
        <time>2017-06-18T11:41:43Z</time>
      </trkpt>
      <trkpt lat="46.363279586657882" lon="9.307090938091278">
        <ele>2149.6500000000001</ele>
        <time>2017-06-18T11:42:00Z</time>
      </trkpt>
      <trkpt lat="46.363277826458216" lon="9.307100074365735">
        <ele>2149.6500000000001</ele>
        <time>2017-06-18T11:42:22Z</time>
      </trkpt>
      <trkpt lat="46.363278161734343" lon="9.307069396600127">
        <ele>2149.6500000000001</ele>
        <time>2017-06-18T11:42:47Z</time>
      </trkpt>
      <trkpt lat="46.363273551687598" lon="9.307073503732681">
        <ele>2150.1300000000001</ele>
        <time>2017-06-18T11:43:21Z</time>
      </trkpt>
      <trkpt lat="46.363277155905962" lon="9.307079371064901">
        <ele>2150.1300000000001</ele>
        <time>2017-06-18T11:43:42Z</time>
      </trkpt>
      <trkpt lat="46.36326776817441" lon="9.307078449055553">
        <ele>2149.6500000000001</ele>
        <time>2017-06-18T11:44:16Z</time>
      </trkpt>
      <trkpt lat="46.363270953297615" lon="9.307083394378424">
        <ele>2149.1599999999999</ele>
        <time>2017-06-18T11:44:41Z</time>
      </trkpt>
      <trkpt lat="46.363272881135345" lon="9.307075096294284">
        <ele>2150.1300000000001</ele>
        <time>2017-06-18T11:45:13Z</time>
      </trkpt>
      <trkpt lat="46.363282101228833" lon="9.307078616693616">
        <ele>2149.6500000000001</ele>
        <time>2017-06-18T11:45:39Z</time>
      </trkpt>
      <trkpt lat="46.363287046551704" lon="9.307087333872914">
        <ele>2149.6500000000001</ele>
        <time>2017-06-18T11:46:11Z</time>
      </trkpt>
      <trkpt lat="46.363286459818482" lon="9.307100577279925">
        <ele>2150.1300000000001</ele>
        <time>2017-06-18T11:46:41Z</time>
      </trkpt>
      <trkpt lat="46.363284196704626" lon="9.307104935869575">
        <ele>2150.1300000000001</ele>
        <time>2017-06-18T11:47:05Z</time>
      </trkpt>
      <trkpt lat="46.363276988267899" lon="9.307104935869575">
        <ele>2150.1300000000001</ele>
        <time>2017-06-18T11:47:28Z</time>
      </trkpt>
      <trkpt lat="46.363281598314643" lon="9.307094374671578">
        <ele>2150.1300000000001</ele>
        <time>2017-06-18T11:47:51Z</time>
      </trkpt>
      <trkpt lat="46.363278748467565" lon="9.307085406035185">
        <ele>2150.1300000000001</ele>
        <time>2017-06-18T11:48:19Z</time>
      </trkpt>
      <trkpt lat="46.3632717076689" lon="9.307088004425168">
        <ele>2150.1300000000001</ele>
        <time>2017-06-18T11:48:51Z</time>
      </trkpt>
      <trkpt lat="46.363272378221154" lon="9.3070949614048">
        <ele>2150.1300000000001</ele>
        <time>2017-06-18T11:49:19Z</time>
      </trkpt>
      <trkpt lat="46.36327019892633" lon="9.307099152356386">
        <ele>2150.6100000000001</ele>
        <time>2017-06-18T11:49:44Z</time>
      </trkpt>
      <trkpt lat="46.363271959125996" lon="9.307077778503299">
        <ele>2150.1300000000001</ele>
        <time>2017-06-18T11:50:10Z</time>
      </trkpt>
      <trkpt lat="46.363268103450537" lon="9.307085992768407">
        <ele>2150.6100000000001</ele>
        <time>2017-06-18T11:50:33Z</time>
      </trkpt>
      <trkpt lat="46.363274557515979" lon="9.307089345529676">
        <ele>2150.6100000000001</ele>
        <time>2017-06-18T11:51:00Z</time>
      </trkpt>
      <trkpt lat="46.363274725154042" lon="9.30709688924253">
        <ele>2151.0900000000001</ele>
        <time>2017-06-18T11:51:27Z</time>
      </trkpt>
      <trkpt lat="46.36328000575304" lon="9.307090099900961">
        <ele>2150.6100000000001</ele>
        <time>2017-06-18T11:51:52Z</time>
      </trkpt>
      <trkpt lat="46.363284280523658" lon="9.30709395557642">
        <ele>2150.6100000000001</ele>
        <time>2017-06-18T11:52:23Z</time>
      </trkpt>
      <trkpt lat="46.363279335200787" lon="9.3070915248245">
        <ele>2150.6100000000001</ele>
        <time>2017-06-18T11:52:47Z</time>
      </trkpt>
      <trkpt lat="46.363271540030837" lon="9.307081298902631">
        <ele>2151.0900000000001</ele>
        <time>2017-06-18T11:53:11Z</time>
      </trkpt>
      <trkpt lat="46.363272294402122" lon="9.307082472369075">
        <ele>2150.6100000000001</ele>
        <time>2017-06-18T11:53:31Z</time>
      </trkpt>
      <trkpt lat="46.36327707208693" lon="9.307076521217823">
        <ele>2150.6100000000001</ele>
        <time>2017-06-18T11:53:50Z</time>
      </trkpt>
      <trkpt lat="46.363275228068233" lon="9.307074761018157">
        <ele>2150.6100000000001</ele>
        <time>2017-06-18T11:54:11Z</time>
      </trkpt>
      <trkpt lat="46.363280173391104" lon="9.307072749361396">
        <ele>2150.6100000000001</ele>
        <time>2017-06-18T11:54:48Z</time>
      </trkpt>
      <trkpt lat="46.363275898620486" lon="9.307092865929008">
        <ele>2150.6100000000001</ele>
        <time>2017-06-18T11:55:20Z</time>
      </trkpt>
      <trkpt lat="46.363274222239852" lon="9.3070915248245">
        <ele>2150.6100000000001</ele>
        <time>2017-06-18T11:55:51Z</time>
      </trkpt>
      <trkpt lat="46.363282687962055" lon="9.307088339701295">
        <ele>2150.6100000000001</ele>
        <time>2017-06-18T11:56:12Z</time>
      </trkpt>
      <trkpt lat="46.363276736810803" lon="9.307076688855887">
        <ele>2150.6100000000001</ele>
        <time>2017-06-18T11:56:34Z</time>
      </trkpt>
      <trkpt lat="46.363280089572072" lon="9.30708565749228">
        <ele>2150.6100000000001</ele>
        <time>2017-06-18T11:56:54Z</time>
      </trkpt>
      <trkpt lat="46.363295596092939" lon="9.307059338316321">
        <ele>2151.5700000000002</ele>
        <time>2017-06-18T11:57:03Z</time>
      </trkpt>
      <trkpt lat="46.363278413191438" lon="9.307077527046204">
        <ele>2151.5700000000002</ele>
        <time>2017-06-18T11:57:11Z</time>
      </trkpt>
      <trkpt lat="46.363300709053874" lon="9.30706755258143">
        <ele>2151.0900000000001</ele>
        <time>2017-06-18T11:57:36Z</time>
      </trkpt>
      <trkpt lat="46.363298697397113" lon="9.307077694684267">
        <ele>2151.0900000000001</ele>
        <time>2017-06-18T11:57:52Z</time>
      </trkpt>
      <trkpt lat="46.363305738195777" lon="9.30707199499011">
        <ele>2151.0900000000001</ele>
        <time>2017-06-18T11:58:13Z</time>
      </trkpt>
      <trkpt lat="46.363302888348699" lon="9.307078700512648">
        <ele>2151.5700000000002</ele>
        <time>2017-06-18T11:58:40Z</time>
      </trkpt>
      <trkpt lat="46.363291908055544" lon="9.307077275589109">
        <ele>2151.5700000000002</ele>
        <time>2017-06-18T11:58:58Z</time>
      </trkpt>
      <trkpt lat="46.36329174041748" lon="9.307106779888272">
        <ele>2151.5700000000002</ele>
        <time>2017-06-18T11:59:19Z</time>
      </trkpt>
      <trkpt lat="46.363290399312973" lon="9.307073252275586">
        <ele>2152.0500000000002</ele>
        <time>2017-06-18T11:59:48Z</time>
      </trkpt>
      <trkpt lat="46.363276652991772" lon="9.307071827352047">
        <ele>2151.5700000000002</ele>
        <time>2017-06-18T12:00:14Z</time>
      </trkpt>
      <trkpt lat="46.36328436434269" lon="9.307095799595118">
        <ele>2151.5700000000002</ele>
        <time>2017-06-18T12:00:35Z</time>
      </trkpt>
      <trkpt lat="46.363294925540686" lon="9.307093117386103">
        <ele>2151.5700000000002</ele>
        <time>2017-06-18T12:01:02Z</time>
      </trkpt>
      <trkpt lat="46.36329953558743" lon="9.307079119607806">
        <ele>2151.5700000000002</ele>
        <time>2017-06-18T12:01:28Z</time>
      </trkpt>
      <trkpt lat="46.363305654376745" lon="9.307083142921329">
        <ele>2151.5700000000002</ele>
        <time>2017-06-18T12:01:49Z</time>
      </trkpt>
      <trkpt lat="46.363315377384424" lon="9.307084316387773">
        <ele>2151.5700000000002</ele>
        <time>2017-06-18T12:02:17Z</time>
      </trkpt>
      <trkpt lat="46.363272629678249" lon="9.307070234790444">
        <ele>2151.5700000000002</ele>
        <time>2017-06-18T12:02:37Z</time>
      </trkpt>
      <trkpt lat="46.363287046551704" lon="9.307068306952715">
        <ele>2151.5700000000002</ele>
        <time>2017-06-18T12:02:59Z</time>
      </trkpt>
      <trkpt lat="46.363281346857548" lon="9.307077862322331">
        <ele>2152.0500000000002</ele>
        <time>2017-06-18T12:03:19Z</time>
      </trkpt>
      <trkpt lat="46.36327413842082" lon="9.307080795988441">
        <ele>2151.5700000000002</ele>
        <time>2017-06-18T12:03:45Z</time>
      </trkpt>
      <trkpt lat="46.363272462040186" lon="9.307093871757388">
        <ele>2151.5700000000002</ele>
        <time>2017-06-18T12:04:12Z</time>
      </trkpt>
      <trkpt lat="46.363288974389434" lon="9.307082053273916">
        <ele>2152.0500000000002</ele>
        <time>2017-06-18T12:04:45Z</time>
      </trkpt>
      <trkpt lat="46.363272462040186" lon="9.307094626128674">
        <ele>2151.5700000000002</ele>
        <time>2017-06-18T12:05:09Z</time>
      </trkpt>
      <trkpt lat="46.36325360275805" lon="9.307078365236521">
        <ele>2151.5700000000002</ele>
        <time>2017-06-18T12:05:28Z</time>
      </trkpt>
      <trkpt lat="46.363238180056214" lon="9.307076437398791">
        <ele>2151.5700000000002</ele>
        <time>2017-06-18T12:05:54Z</time>
      </trkpt>
      <trkpt lat="46.363271456211805" lon="9.307062607258558">
        <ele>2151.5700000000002</ele>
        <time>2017-06-18T12:06:23Z</time>
      </trkpt>
      <trkpt lat="46.363273886963725" lon="9.30707735940814">
        <ele>2151.0900000000001</ele>
        <time>2017-06-18T12:06:46Z</time>
      </trkpt>
      <trkpt lat="46.363267181441188" lon="9.307064116001129">
        <ele>2151.0900000000001</ele>
        <time>2017-06-18T12:07:09Z</time>
      </trkpt>
      <trkpt lat="46.363279754295945" lon="9.307069228962064">
        <ele>2150.6100000000001</ele>
        <time>2017-06-18T12:07:39Z</time>
      </trkpt>
      <trkpt lat="46.363274222239852" lon="9.307083478197455">
        <ele>2150.6100000000001</ele>
        <time>2017-06-18T12:08:04Z</time>
      </trkpt>
      <trkpt lat="46.363272210583091" lon="9.307099655270577">
        <ele>2151.0900000000001</ele>
        <time>2017-06-18T12:08:29Z</time>
      </trkpt>
      <trkpt lat="46.363268941640854" lon="9.307085825130343">
        <ele>2151.0900000000001</ele>
        <time>2017-06-18T12:08:47Z</time>
      </trkpt>
      <trkpt lat="46.363269696012139" lon="9.307082807645202">
        <ele>2151.0900000000001</ele>
        <time>2017-06-18T12:09:08Z</time>
      </trkpt>
      <trkpt lat="46.363270031288266" lon="9.307077946141362">
        <ele>2151.0900000000001</ele>
        <time>2017-06-18T12:09:39Z</time>
      </trkpt>
      <trkpt lat="46.363263493403792" lon="9.307092279195786">
        <ele>2151.0900000000001</ele>
        <time>2017-06-18T12:10:02Z</time>
      </trkpt>
      <trkpt lat="46.363274054601789" lon="9.307085322216153">
        <ele>2151.0900000000001</ele>
        <time>2017-06-18T12:10:33Z</time>
      </trkpt>
      <trkpt lat="46.363260308280587" lon="9.307076437398791">
        <ele>2151.5700000000002</ele>
        <time>2017-06-18T12:10:56Z</time>
      </trkpt>
      <trkpt lat="46.363271456211805" lon="9.307083394378424">
        <ele>2150.6100000000001</ele>
        <time>2017-06-18T12:11:26Z</time>
      </trkpt>
      <trkpt lat="46.363275647163391" lon="9.307084064930677">
        <ele>2150.6100000000001</ele>
        <time>2017-06-18T12:11:51Z</time>
      </trkpt>
      <trkpt lat="46.363280760124326" lon="9.307059505954385">
        <ele>2150.6100000000001</ele>
        <time>2017-06-18T12:12:23Z</time>
      </trkpt>
      <trkpt lat="46.363265085965395" lon="9.307088507339358">
        <ele>2151.0900000000001</ele>
        <time>2017-06-18T12:12:58Z</time>
      </trkpt>
      <trkpt lat="46.363274892792106" lon="9.307094374671578">
        <ele>2150.6100000000001</ele>
        <time>2017-06-18T12:13:25Z</time>
      </trkpt>
      <trkpt lat="46.363266091793776" lon="9.307098984718323">
        <ele>2151.0900000000001</ele>
        <time>2017-06-18T12:14:03Z</time>
      </trkpt>
      <trkpt lat="46.363262655213475" lon="9.307107031345367">
        <ele>2151.0900000000001</ele>
        <time>2017-06-18T12:14:25Z</time>
      </trkpt>
      <trkpt lat="46.363265085965395" lon="9.307104768231511">
        <ele>2151.0900000000001</ele>
        <time>2017-06-18T12:14:50Z</time>
      </trkpt>
      <trkpt lat="46.363277742639184" lon="9.307067384943366">
        <ele>2151.0900000000001</ele>
        <time>2017-06-18T12:15:16Z</time>
      </trkpt>
      <trkpt lat="46.363274389877915" lon="9.307052968069911">
        <ele>2150.6100000000001</ele>
        <time>2017-06-18T12:15:39Z</time>
      </trkpt>
      <trkpt lat="46.363274222239852" lon="9.307085406035185">
        <ele>2150.6100000000001</ele>
        <time>2017-06-18T12:16:11Z</time>
      </trkpt>
      <trkpt lat="46.363251926377416" lon="9.307118011638522">
        <ele>2151.0900000000001</ele>
        <time>2017-06-18T12:16:41Z</time>
      </trkpt>
      <trkpt lat="46.363278497010469" lon="9.30707492865622">
        <ele>2150.6100000000001</ele>
        <time>2017-06-18T12:17:11Z</time>
      </trkpt>
      <trkpt lat="46.363272964954376" lon="9.307083729654551">
        <ele>2150.6100000000001</ele>
        <time>2017-06-18T12:17:39Z</time>
      </trkpt>
      <trkpt lat="46.363271288573742" lon="9.307092698290944">
        <ele>2151.0900000000001</ele>
        <time>2017-06-18T12:17:58Z</time>
      </trkpt>
      <trkpt lat="46.363250417634845" lon="9.307103510946035">
        <ele>2151.0900000000001</ele>
        <time>2017-06-18T12:18:28Z</time>
      </trkpt>
      <trkpt lat="46.363277575001121" lon="9.307078616693616">
        <ele>2151.0900000000001</ele>
        <time>2017-06-18T12:18:52Z</time>
      </trkpt>
      <trkpt lat="46.363266427069902" lon="9.307099739089608">
        <ele>2151.0900000000001</ele>
        <time>2017-06-18T12:19:27Z</time>
      </trkpt>
      <trkpt lat="46.363267181441188" lon="9.307088423520327">
        <ele>2151.0900000000001</ele>
        <time>2017-06-18T12:19:53Z</time>
      </trkpt>
      <trkpt lat="46.36327019892633" lon="9.307105774059892">
        <ele>2150.6100000000001</ele>
        <time>2017-06-18T12:20:15Z</time>
      </trkpt>
      <trkpt lat="46.363272797316313" lon="9.30709395557642">
        <ele>2151.0900000000001</ele>
        <time>2017-06-18T12:20:53Z</time>
      </trkpt>
      <trkpt lat="46.363273803144693" lon="9.307110803201795">
        <ele>2151.0900000000001</ele>
        <time>2017-06-18T12:21:27Z</time>
      </trkpt>
      <trkpt lat="46.363273384049535" lon="9.307101164013147">
        <ele>2151.0900000000001</ele>
        <time>2017-06-18T12:21:51Z</time>
      </trkpt>
      <trkpt lat="46.363283526152372" lon="9.307089177891612">
        <ele>2151.0900000000001</ele>
        <time>2017-06-18T12:22:12Z</time>
      </trkpt>
      <trkpt lat="46.363279251381755" lon="9.307094207033515">
        <ele>2151.0900000000001</ele>
        <time>2017-06-18T12:22:38Z</time>
      </trkpt>
      <trkpt lat="46.363272881135345" lon="9.307103930041194">
        <ele>2151.0900000000001</ele>
        <time>2017-06-18T12:23:05Z</time>
      </trkpt>
      <trkpt lat="46.363274306058884" lon="9.307117844000459">
        <ele>2151.0900000000001</ele>
        <time>2017-06-18T12:23:30Z</time>
      </trkpt>
      <trkpt lat="46.363275898620486" lon="9.307116670534015">
        <ele>2150.6100000000001</ele>
        <time>2017-06-18T12:23:52Z</time>
      </trkpt>
      <trkpt lat="46.363267600536346" lon="9.307121364399791">
        <ele>2151.0900000000001</ele>
        <time>2017-06-18T12:24:18Z</time>
      </trkpt>
      <trkpt lat="46.363265756517649" lon="9.30712915956974">
        <ele>2150.6100000000001</ele>
        <time>2017-06-18T12:24:41Z</time>
      </trkpt>
      <trkpt lat="46.363253351300955" lon="9.307127315551043">
        <ele>2150.6100000000001</ele>
        <time>2017-06-18T12:25:10Z</time>
      </trkpt>
      <trkpt lat="46.363266343250871" lon="9.307144749909639">
        <ele>2150.6100000000001</ele>
        <time>2017-06-18T12:25:36Z</time>
      </trkpt>
      <trkpt lat="46.363285202533007" lon="9.307112982496619">
        <ele>2150.6100000000001</ele>
        <time>2017-06-18T12:25:59Z</time>
      </trkpt>
      <trkpt lat="46.363265756517649" lon="9.307136032730341">
        <ele>2150.6100000000001</ele>
        <time>2017-06-18T12:26:19Z</time>
      </trkpt>
      <trkpt lat="46.363271959125996" lon="9.30712228640914">
        <ele>2151.0900000000001</ele>
        <time>2017-06-18T12:26:47Z</time>
      </trkpt>
      <trkpt lat="46.363278413191438" lon="9.30710862390697">
        <ele>2151.0900000000001</ele>
        <time>2017-06-18T12:27:14Z</time>
      </trkpt>
      <trkpt lat="46.363267097622156" lon="9.307123627513647">
        <ele>2150.6100000000001</ele>
        <time>2017-06-18T12:27:52Z</time>
      </trkpt>
      <trkpt lat="46.363267181441188" lon="9.307132428511977">
        <ele>2150.6100000000001</ele>
        <time>2017-06-18T12:28:15Z</time>
      </trkpt>
      <trkpt lat="46.363259218633175" lon="9.30714818648994">
        <ele>2150.6100000000001</ele>
        <time>2017-06-18T12:28:36Z</time>
      </trkpt>
      <trkpt lat="46.363261230289936" lon="9.307131757959724">
        <ele>2150.6100000000001</ele>
        <time>2017-06-18T12:28:55Z</time>
      </trkpt>
      <trkpt lat="46.363253518939018" lon="9.307149024680257">
        <ele>2150.6100000000001</ele>
        <time>2017-06-18T12:29:22Z</time>
      </trkpt>
      <trkpt lat="46.363253016024828" lon="9.307148773223162">
        <ele>2150.6100000000001</ele>
        <time>2017-06-18T12:29:49Z</time>
      </trkpt>
      <trkpt lat="46.363262236118317" lon="9.307160172611475">
        <ele>2150.6100000000001</ele>
        <time>2017-06-18T12:30:06Z</time>
      </trkpt>
      <trkpt lat="46.363268857821822" lon="9.307155730202794">
        <ele>2150.1300000000001</ele>
        <time>2017-06-18T12:30:32Z</time>
      </trkpt>
      <trkpt lat="46.363275814801455" lon="9.30711105465889">
        <ele>2151.0900000000001</ele>
        <time>2017-06-18T12:30:55Z</time>
      </trkpt>
      <trkpt lat="46.363258548080921" lon="9.307089596986771">
        <ele>2151.5700000000002</ele>
        <time>2017-06-18T12:31:03Z</time>
      </trkpt>
      <trkpt lat="46.363263409584761" lon="9.307106612250209">
        <ele>2150.6100000000001</ele>
        <time>2017-06-18T12:31:15Z</time>
      </trkpt>
      <trkpt lat="46.3632717076689" lon="9.307082975283265">
        <ele>2151.5700000000002</ele>
        <time>2017-06-18T12:31:22Z</time>
      </trkpt>
      <trkpt lat="46.363275647163391" lon="9.307119939476252">
        <ele>2152.0500000000002</ele>
        <time>2017-06-18T12:31:31Z</time>
      </trkpt>
      <trkpt lat="46.363272545859218" lon="9.307121699675918">
        <ele>2152.0500000000002</ele>
        <time>2017-06-18T12:31:45Z</time>
      </trkpt>
      <trkpt lat="46.363267516717315" lon="9.307118849828839">
        <ele>2151.0900000000001</ele>
        <time>2017-06-18T12:31:55Z</time>
      </trkpt>
      <trkpt lat="46.363269947469234" lon="9.30713796056807">
        <ele>2151.5700000000002</ele>
        <time>2017-06-18T12:32:04Z</time>
      </trkpt>
      <trkpt lat="46.363315545022488" lon="9.307193364948034">
        <ele>2151.5700000000002</ele>
        <time>2017-06-18T12:32:13Z</time>
      </trkpt>
      <trkpt lat="46.363305570557714" lon="9.307291433215141">
        <ele>2152.0500000000002</ele>
        <time>2017-06-18T12:32:21Z</time>
      </trkpt>
      <trkpt lat="46.363280089572072" lon="9.30742965079844">
        <ele>2152.0500000000002</ele>
        <time>2017-06-18T12:32:32Z</time>
      </trkpt>
      <trkpt lat="46.3632717076689" lon="9.307469464838505">
        <ele>2152.0500000000002</ele>
        <time>2017-06-18T12:32:35Z</time>
      </trkpt>
      <trkpt lat="46.363231474533677" lon="9.307522522285581">
        <ele>2153.9699999999998</ele>
        <time>2017-06-18T12:32:47Z</time>
      </trkpt>
      <trkpt lat="46.363236671313643" lon="9.307474661618471">
        <ele>2153.4899999999998</ele>
        <time>2017-06-18T12:33:00Z</time>
      </trkpt>
      <trkpt lat="46.363254692405462" lon="9.307497041299939">
        <ele>2153.4899999999998</ele>
        <time>2017-06-18T12:33:16Z</time>
      </trkpt>
      <trkpt lat="46.363253183662891" lon="9.307479690760374">
        <ele>2153.4899999999998</ele>
        <time>2017-06-18T12:33:28Z</time>
      </trkpt>
      <trkpt lat="46.363240610808134" lon="9.30752637796104">
        <ele>2153.0100000000002</ele>
        <time>2017-06-18T12:33:45Z</time>
      </trkpt>
      <trkpt lat="46.363240610808134" lon="9.307528641074896">
        <ele>2152.0500000000002</ele>
        <time>2017-06-18T12:34:00Z</time>
      </trkpt>
      <trkpt lat="46.363224433735013" lon="9.307518750429153">
        <ele>2152.0500000000002</ele>
        <time>2017-06-18T12:34:22Z</time>
      </trkpt>
      <trkpt lat="46.363232564181089" lon="9.307525623589754">
        <ele>2152.0500000000002</ele>
        <time>2017-06-18T12:34:42Z</time>
      </trkpt>
      <trkpt lat="46.363228540867567" lon="9.307522941380739">
        <ele>2151.5700000000002</ele>
        <time>2017-06-18T12:35:03Z</time>
      </trkpt>
      <trkpt lat="46.363241784274578" lon="9.307519253343344">
        <ele>2151.5700000000002</ele>
        <time>2017-06-18T12:35:25Z</time>
      </trkpt>
      <trkpt lat="46.363247986882925" lon="9.307528724893928">
        <ele>2152.0500000000002</ele>
        <time>2017-06-18T12:35:50Z</time>
      </trkpt>
      <trkpt lat="46.363229127600789" lon="9.30752344429493">
        <ele>2151.5700000000002</ele>
        <time>2017-06-18T12:36:17Z</time>
      </trkpt>
      <trkpt lat="46.36322770267725" lon="9.307513888925314">
        <ele>2151.5700000000002</ele>
        <time>2017-06-18T12:36:24Z</time>
      </trkpt>
      <trkpt lat="46.363235916942358" lon="9.307498717680574">
        <ele>2152.0500000000002</ele>
        <time>2017-06-18T12:36:26Z</time>
      </trkpt>
      <trkpt lat="46.363254357129335" lon="9.30748337879777">
        <ele>2153.0100000000002</ele>
        <time>2017-06-18T12:36:37Z</time>
      </trkpt>
      <trkpt lat="46.363260895013809" lon="9.307434093207121">
        <ele>2152.5300000000002</ele>
        <time>2017-06-18T12:36:44Z</time>
      </trkpt>
      <trkpt lat="46.36329710483551" lon="9.307296797633171">
        <ele>2151.0900000000001</ele>
        <time>2017-06-18T12:36:54Z</time>
      </trkpt>
      <trkpt lat="46.363354017958045" lon="9.307230412960053">
        <ele>2151.0900000000001</ele>
        <time>2017-06-18T12:37:01Z</time>
      </trkpt>
      <trkpt lat="46.363374385982752" lon="9.307121951133013">
        <ele>2151.5700000000002</ele>
        <time>2017-06-18T12:37:11Z</time>
      </trkpt>
      <trkpt lat="46.363362483680248" lon="9.307073839008808">
        <ele>2152.0500000000002</ele>
        <time>2017-06-18T12:37:19Z</time>
      </trkpt>
      <trkpt lat="46.363333314657211" lon="9.307038132101297">
        <ele>2153.0100000000002</ele>
        <time>2017-06-18T12:37:28Z</time>
      </trkpt>
      <trkpt lat="46.363326944410801" lon="9.3070138245821">
        <ele>2154.9299999999998</ele>
        <time>2017-06-18T12:37:33Z</time>
      </trkpt>
      <trkpt lat="46.36333130300045" lon="9.307005694136024">
        <ele>2155.4099999999999</ele>
        <time>2017-06-18T12:37:46Z</time>
      </trkpt>
      <trkpt lat="46.363325603306293" lon="9.306996893137693">
        <ele>2154.9299999999998</ele>
        <time>2017-06-18T12:37:59Z</time>
      </trkpt>
      <trkpt lat="46.363344378769398" lon="9.307006113231182">
        <ele>2155.4099999999999</ele>
        <time>2017-06-18T12:38:09Z</time>
      </trkpt>
      <trkpt lat="46.363343372941017" lon="9.306977698579431">
        <ele>2154.9299999999998</ele>
        <time>2017-06-18T12:38:13Z</time>
      </trkpt>
      <trkpt lat="46.36336550116539" lon="9.30695959366858">
        <ele>2154.4499999999998</ele>
        <time>2017-06-18T12:38:16Z</time>
      </trkpt>
      <trkpt lat="46.363403890281916" lon="9.306963952258229">
        <ele>2153.9699999999998</ele>
        <time>2017-06-18T12:38:20Z</time>
      </trkpt>
      <trkpt lat="46.363427359610796" lon="9.306982140988112">
        <ele>2155.4099999999999</ele>
        <time>2017-06-18T12:38:25Z</time>
      </trkpt>
      <trkpt lat="46.363440686836839" lon="9.306986164301634">
        <ele>2155.4099999999999</ele>
        <time>2017-06-18T12:38:27Z</time>
      </trkpt>
      <trkpt lat="46.363480919972062" lon="9.306923970580101">
        <ele>2154.9299999999998</ele>
        <time>2017-06-18T12:38:33Z</time>
      </trkpt>
      <trkpt lat="46.36350673623383" lon="9.306891113519669">
        <ele>2154.9299999999998</ele>
        <time>2017-06-18T12:38:38Z</time>
      </trkpt>
      <trkpt lat="46.363502545282245" lon="9.306832775473595">
        <ele>2155.8899999999999</ele>
        <time>2017-06-18T12:38:46Z</time>
      </trkpt>
      <trkpt lat="46.363493828102946" lon="9.306729510426521">
        <ele>2156.3699999999999</ele>
        <time>2017-06-18T12:38:57Z</time>
      </trkpt>
      <trkpt lat="46.363499779254198" lon="9.306724816560745">
        <ele>2156.8600000000001</ele>
        <time>2017-06-18T12:39:10Z</time>
      </trkpt>
      <trkpt lat="46.363499024882913" lon="9.306725990027189">
        <ele>2156.8600000000001</ele>
        <time>2017-06-18T12:39:30Z</time>
      </trkpt>
      <trkpt lat="46.363498270511627" lon="9.306758092716336">
        <ele>2156.8600000000001</ele>
        <time>2017-06-18T12:39:51Z</time>
      </trkpt>
      <trkpt lat="46.363513860851526" lon="9.306745855137706">
        <ele>2156.8600000000001</ele>
        <time>2017-06-18T12:40:11Z</time>
      </trkpt>
      <trkpt lat="46.363514279946685" lon="9.306704364717007">
        <ele>2157.8200000000002</ele>
        <time>2017-06-18T12:40:31Z</time>
      </trkpt>
      <trkpt lat="46.363522494211793" lon="9.306657090783119">
        <ele>2157.8200000000002</ele>
        <time>2017-06-18T12:40:34Z</time>
      </trkpt>
      <trkpt lat="46.363554177805781" lon="9.306559273973107">
        <ele>2157.8200000000002</ele>
        <time>2017-06-18T12:40:40Z</time>
      </trkpt>
      <trkpt lat="46.363593488931656" lon="9.306515101343393">
        <ele>2157.3400000000001</ele>
        <time>2017-06-18T12:40:50Z</time>
      </trkpt>
      <trkpt lat="46.363584436476231" lon="9.306562794372439">
        <ele>2157.3400000000001</ele>
        <time>2017-06-18T12:40:52Z</time>
      </trkpt>
      <trkpt lat="46.363529283553362" lon="9.306661617010832">
        <ele>2157.3400000000001</ele>
        <time>2017-06-18T12:41:02Z</time>
      </trkpt>
      <trkpt lat="46.363510256633162" lon="9.306731270626187">
        <ele>2156.8600000000001</ele>
        <time>2017-06-18T12:41:13Z</time>
      </trkpt>
      <trkpt lat="46.363521236926317" lon="9.306756416335702">
        <ele>2156.8600000000001</ele>
        <time>2017-06-18T12:41:25Z</time>
      </trkpt>
      <trkpt lat="46.363505478948355" lon="9.306885497644544">
        <ele>2155.8899999999999</ele>
        <time>2017-06-18T12:41:38Z</time>
      </trkpt>
      <trkpt lat="46.363504389300942" lon="9.306968729943037">
        <ele>2155.8899999999999</ele>
        <time>2017-06-18T12:41:48Z</time>
      </trkpt>
      <trkpt lat="46.363478405401111" lon="9.307060763239861">
        <ele>2155.4099999999999</ele>
        <time>2017-06-18T12:41:56Z</time>
      </trkpt>
      <trkpt lat="46.363458205014467" lon="9.307098062708974">
        <ele>2155.8899999999999</ele>
        <time>2017-06-18T12:42:00Z</time>
      </trkpt>
      <trkpt lat="46.363420151174068" lon="9.307174505665898">
        <ele>2154.9299999999998</ele>
        <time>2017-06-18T12:42:11Z</time>
      </trkpt>
      <trkpt lat="46.363412104547024" lon="9.307210547849536">
        <ele>2154.9299999999998</ele>
        <time>2017-06-18T12:42:16Z</time>
      </trkpt>
      <trkpt lat="46.36341193690896" lon="9.307444570586085">
        <ele>2155.4099999999999</ele>
        <time>2017-06-18T12:42:31Z</time>
      </trkpt>
      <trkpt lat="46.363410595804453" lon="9.307621261104941">
        <ele>2154.9299999999998</ele>
        <time>2017-06-18T12:42:43Z</time>
      </trkpt>
      <trkpt lat="46.363396095111966" lon="9.30769644677639">
        <ele>2154.9299999999998</ele>
        <time>2017-06-18T12:42:49Z</time>
      </trkpt>
      <trkpt lat="46.363363992422819" lon="9.307727878913283">
        <ele>2155.8899999999999</ele>
        <time>2017-06-18T12:43:00Z</time>
      </trkpt>
      <trkpt lat="46.363368015736341" lon="9.30776534602046">
        <ele>2156.3699999999999</ele>
        <time>2017-06-18T12:43:15Z</time>
      </trkpt>
      <trkpt lat="46.363372709602118" lon="9.307900546118617">
        <ele>2157.3400000000001</ele>
        <time>2017-06-18T12:43:26Z</time>
      </trkpt>
      <trkpt lat="46.363355275243521" lon="9.307955950498581">
        <ele>2155.8899999999999</ele>
        <time>2017-06-18T12:43:32Z</time>
      </trkpt>
      <trkpt lat="46.36333666741848" lon="9.308002218604088">
        <ele>2155.4099999999999</ele>
        <time>2017-06-18T12:43:36Z</time>
      </trkpt>
      <trkpt lat="46.363306241109967" lon="9.308106238022447">
        <ele>2155.4099999999999</ele>
        <time>2017-06-18T12:43:46Z</time>
      </trkpt>
      <trkpt lat="46.363299367949367" lon="9.308211347088218">
        <ele>2156.8600000000001</ele>
        <time>2017-06-18T12:43:56Z</time>
      </trkpt>
      <trkpt lat="46.363283274695277" lon="9.308382673189044">
        <ele>2156.3699999999999</ele>
        <time>2017-06-18T12:44:08Z</time>
      </trkpt>
      <trkpt lat="46.363269612193108" lon="9.308369932696223">
        <ele>2156.3699999999999</ele>
        <time>2017-06-18T12:44:19Z</time>
      </trkpt>
      <trkpt lat="46.363283945247531" lon="9.30841620080173">
        <ele>2156.3699999999999</ele>
        <time>2017-06-18T12:44:30Z</time>
      </trkpt>
      <trkpt lat="46.363283777609468" lon="9.308436904102564">
        <ele>2156.3699999999999</ele>
        <time>2017-06-18T12:44:33Z</time>
      </trkpt>
      <trkpt lat="46.363286795094609" lon="9.308467833325267">
        <ele>2155.8899999999999</ele>
        <time>2017-06-18T12:44:35Z</time>
      </trkpt>
      <trkpt lat="46.363266594707966" lon="9.308577971532941">
        <ele>2155.4099999999999</ele>
        <time>2017-06-18T12:44:47Z</time>
      </trkpt>
      <trkpt lat="46.363280843943357" lon="9.30865902453661">
        <ele>2155.8899999999999</ele>
        <time>2017-06-18T12:44:57Z</time>
      </trkpt>
      <trkpt lat="46.363264080137014" lon="9.308694815263152">
        <ele>2156.3699999999999</ele>
        <time>2017-06-18T12:45:01Z</time>
      </trkpt>
      <trkpt lat="46.363234827294946" lon="9.308792715892196">
        <ele>2157.8200000000002</ele>
        <time>2017-06-18T12:45:12Z</time>
      </trkpt>
      <trkpt lat="46.363186715170741" lon="9.308817610144615">
        <ele>2160.2199999999998</ele>
        <time>2017-06-18T12:45:24Z</time>
      </trkpt>
      <trkpt lat="46.363120665773749" lon="9.308829512447119">
        <ele>2159.7399999999998</ele>
        <time>2017-06-18T12:45:34Z</time>
      </trkpt>
      <trkpt lat="46.363062830641866" lon="9.30882029235363">
        <ele>2160.6999999999998</ele>
        <time>2017-06-18T12:45:43Z</time>
      </trkpt>
      <trkpt lat="46.363027039915323" lon="9.30887158960104">
        <ele>2161.6599999999999</ele>
        <time>2017-06-18T12:45:52Z</time>
      </trkpt>
      <trkpt lat="46.363017568364739" lon="9.308878043666482">
        <ele>2161.1799999999998</ele>
        <time>2017-06-18T12:45:54Z</time>
      </trkpt>
      <trkpt lat="46.363005582243204" lon="9.308871757239103">
        <ele>2160.6999999999998</ele>
        <time>2017-06-18T12:46:04Z</time>
      </trkpt>
      <trkpt lat="46.362983789294958" lon="9.308894136920571">
        <ele>2160.2199999999998</ele>
        <time>2017-06-18T12:46:14Z</time>
      </trkpt>
      <trkpt lat="46.362959817051888" lon="9.308958258479834">
        <ele>2161.6599999999999</ele>
        <time>2017-06-18T12:46:22Z</time>
      </trkpt>
      <trkpt lat="46.362931653857231" lon="9.308967897668481">
        <ele>2162.1399999999999</ele>
        <time>2017-06-18T12:46:25Z</time>
      </trkpt>
      <trkpt lat="46.362911788746715" lon="9.30897468701005">
        <ele>2162.1399999999999</ele>
        <time>2017-06-18T12:46:27Z</time>
      </trkpt>
      <trkpt lat="46.362901143729687" lon="9.308996060863137">
        <ele>2163.0999999999999</ele>
        <time>2017-06-18T12:46:36Z</time>
      </trkpt>
      <trkpt lat="46.36292084120214" lon="9.308974267914891">
        <ele>2162.6199999999999</ele>
        <time>2017-06-18T12:46:49Z</time>
      </trkpt>
      <trkpt lat="46.362924110144377" lon="9.308966053649783">
        <ele>2163.0999999999999</ele>
        <time>2017-06-18T12:47:11Z</time>
      </trkpt>
      <trkpt lat="46.362899215891957" lon="9.30899765342474">
        <ele>2162.6199999999999</ele>
        <time>2017-06-18T12:47:18Z</time>
      </trkpt>
      <trkpt lat="46.362864430993795" lon="9.309162609279156">
        <ele>2164.5500000000002</ele>
        <time>2017-06-18T12:47:28Z</time>
      </trkpt>
      <trkpt lat="46.362827802076936" lon="9.30927911773324">
        <ele>2164.0599999999999</ele>
        <time>2017-06-18T12:47:37Z</time>
      </trkpt>
      <trkpt lat="46.362817324697971" lon="9.30931088514626">
        <ele>2163.5799999999999</ele>
        <time>2017-06-18T12:47:45Z</time>
      </trkpt>
      <trkpt lat="46.362825455144048" lon="9.309303509071469">
        <ele>2162.1399999999999</ele>
        <time>2017-06-18T12:47:54Z</time>
      </trkpt>
      <trkpt lat="46.362831825390458" lon="9.309309376403689">
        <ele>2160.6999999999998</ele>
        <time>2017-06-18T12:48:05Z</time>
      </trkpt>
      <trkpt lat="46.362821850925684" lon="9.309314405545592">
        <ele>2161.1799999999998</ele>
        <time>2017-06-18T12:48:15Z</time>
      </trkpt>
      <trkpt lat="46.362756555899978" lon="9.30934265255928">
        <ele>2158.7800000000002</ele>
        <time>2017-06-18T12:48:24Z</time>
      </trkpt>
      <trkpt lat="46.362704923376441" lon="9.309545746073127">
        <ele>2156.8600000000001</ele>
        <time>2017-06-18T12:48:37Z</time>
      </trkpt>
      <trkpt lat="46.362674497067928" lon="9.309596875682473">
        <ele>2157.3400000000001</ele>
        <time>2017-06-18T12:48:46Z</time>
      </trkpt>
      <trkpt lat="46.362666031345725" lon="9.309606095775962">
        <ele>2157.3400000000001</ele>
        <time>2017-06-18T12:48:48Z</time>
      </trkpt>
      <trkpt lat="46.362635185942054" lon="9.309647502377629">
        <ele>2157.3400000000001</ele>
        <time>2017-06-18T12:48:57Z</time>
      </trkpt>
      <trkpt lat="46.362617835402489" lon="9.309661667793989">
        <ele>2156.8600000000001</ele>
        <time>2017-06-18T12:49:01Z</time>
      </trkpt>
      <trkpt lat="46.362586319446564" lon="9.309723190963268">
        <ele>2155.8899999999999</ele>
        <time>2017-06-18T12:49:12Z</time>
      </trkpt>
      <trkpt lat="46.362557653337717" lon="9.309799382463098">
        <ele>2155.4099999999999</ele>
        <time>2017-06-18T12:49:23Z</time>
      </trkpt>
      <trkpt lat="46.362549858167768" lon="9.30985713377595">
        <ele>2154.4499999999998</ele>
        <time>2017-06-18T12:49:31Z</time>
      </trkpt>
      <trkpt lat="46.362543907016516" lon="9.309867946431041">
        <ele>2154.9299999999998</ele>
        <time>2017-06-18T12:49:40Z</time>
      </trkpt>
      <trkpt lat="46.362511720508337" lon="9.309900216758251">
        <ele>2155.8899999999999</ele>
        <time>2017-06-18T12:49:49Z</time>
      </trkpt>
      <trkpt lat="46.362486323341727" lon="9.309961404651403">
        <ele>2155.4099999999999</ele>
        <time>2017-06-18T12:49:59Z</time>
      </trkpt>
      <trkpt lat="46.362458579242229" lon="9.31001303717494">
        <ele>2153.9699999999998</ele>
        <time>2017-06-18T12:50:08Z</time>
      </trkpt>
      <trkpt lat="46.362443827092648" lon="9.310063496232033">
        <ele>2154.4499999999998</ele>
        <time>2017-06-18T12:50:13Z</time>
      </trkpt>
      <trkpt lat="46.362377945333719" lon="9.310202971100807">
        <ele>2154.4499999999998</ele>
        <time>2017-06-18T12:50:23Z</time>
      </trkpt>
      <trkpt lat="46.362334107980132" lon="9.310330962762237">
        <ele>2153.9699999999998</ele>
        <time>2017-06-18T12:50:32Z</time>
      </trkpt>
      <trkpt lat="46.362287336960435" lon="9.310459122061729">
        <ele>2154.4499999999998</ele>
        <time>2017-06-18T12:50:42Z</time>
      </trkpt>
      <trkpt lat="46.362257497385144" lon="9.310549730435014">
        <ele>2155.4099999999999</ele>
        <time>2017-06-18T12:50:50Z</time>
      </trkpt>
      <trkpt lat="46.362255737185478" lon="9.310604380443692">
        <ele>2156.3699999999999</ele>
        <time>2017-06-18T12:50:55Z</time>
      </trkpt>
      <trkpt lat="46.362248947843909" lon="9.310738071799278">
        <ele>2157.8200000000002</ele>
        <time>2017-06-18T12:51:05Z</time>
      </trkpt>
      <trkpt lat="46.362244421616197" lon="9.310768162831664">
        <ele>2158.7800000000002</ele>
        <time>2017-06-18T12:51:08Z</time>
      </trkpt>
      <trkpt lat="46.362262526527047" lon="9.310799762606621">
        <ele>2159.2600000000002</ele>
        <time>2017-06-18T12:51:12Z</time>
      </trkpt>
      <trkpt lat="46.362271495163441" lon="9.310930855572224">
        <ele>2160.2199999999998</ele>
        <time>2017-06-18T12:51:22Z</time>
      </trkpt>
      <trkpt lat="46.362271159887314" lon="9.310944769531488">
        <ele>2159.7399999999998</ele>
        <time>2017-06-18T12:51:23Z</time>
      </trkpt>
      <trkpt lat="46.362257078289986" lon="9.311003359034658">
        <ele>2159.7399999999998</ele>
        <time>2017-06-18T12:51:27Z</time>
      </trkpt>
      <trkpt lat="46.362276608124375" lon="9.311022218316793">
        <ele>2159.2600000000002</ele>
        <time>2017-06-18T12:51:35Z</time>
      </trkpt>
      <trkpt lat="46.362244840711355" lon="9.311095979064703">
        <ele>2157.8200000000002</ele>
        <time>2017-06-18T12:51:41Z</time>
      </trkpt>
      <trkpt lat="46.362217515707016" lon="9.311128417029977">
        <ele>2156.3699999999999</ele>
        <time>2017-06-18T12:51:44Z</time>
      </trkpt>
      <trkpt lat="46.362212151288986" lon="9.311242746189237">
        <ele>2158.3000000000002</ele>
        <time>2017-06-18T12:51:52Z</time>
      </trkpt>
      <trkpt lat="46.362205864861608" lon="9.311276022344828">
        <ele>2157.3400000000001</ele>
        <time>2017-06-18T12:51:55Z</time>
      </trkpt>
      <trkpt lat="46.362184407189488" lon="9.311316506937146">
        <ele>2158.3000000000002</ele>
        <time>2017-06-18T12:52:06Z</time>
      </trkpt>
      <trkpt lat="46.3621820602566" lon="9.311321536079049">
        <ele>2158.3000000000002</ele>
        <time>2017-06-18T12:52:22Z</time>
      </trkpt>
      <trkpt lat="46.362211145460606" lon="9.311271579936147">
        <ele>2158.3000000000002</ele>
        <time>2017-06-18T12:52:35Z</time>
      </trkpt>
      <trkpt lat="46.362236794084311" lon="9.311170326545835">
        <ele>2156.8600000000001</ele>
        <time>2017-06-18T12:52:45Z</time>
      </trkpt>
      <trkpt lat="46.362227573990822" lon="9.311100589111447">
        <ele>2156.3699999999999</ele>
        <time>2017-06-18T12:52:54Z</time>
      </trkpt>
      <trkpt lat="46.362241236492991" lon="9.311108132824302">
        <ele>2156.3699999999999</ele>
        <time>2017-06-18T12:53:14Z</time>
      </trkpt>
      <trkpt lat="46.362222293391824" lon="9.3111134134233">
        <ele>2155.8899999999999</ele>
        <time>2017-06-18T12:53:39Z</time>
      </trkpt>
      <trkpt lat="46.362217599526048" lon="9.311109306290746">
        <ele>2155.8899999999999</ele>
        <time>2017-06-18T12:53:40Z</time>
      </trkpt>
      <trkpt lat="46.362180216237903" lon="9.311032528057694">
        <ele>2156.8600000000001</ele>
        <time>2017-06-18T12:53:49Z</time>
      </trkpt>
      <trkpt lat="46.362190525978804" lon="9.310867320746183">
        <ele>2155.8899999999999</ele>
        <time>2017-06-18T12:53:59Z</time>
      </trkpt>
      <trkpt lat="46.362208463251591" lon="9.310734467580915">
        <ele>2156.8600000000001</ele>
        <time>2017-06-18T12:54:11Z</time>
      </trkpt>
      <trkpt lat="46.36221282184124" lon="9.310640087351203">
        <ele>2156.3699999999999</ele>
        <time>2017-06-18T12:54:18Z</time>
      </trkpt>
      <trkpt lat="46.362219695001841" lon="9.310565907508135">
        <ele>2157.3400000000001</ele>
        <time>2017-06-18T12:54:23Z</time>
      </trkpt>
      <trkpt lat="46.362226903438568" lon="9.310529362410307">
        <ele>2157.3400000000001</ele>
        <time>2017-06-18T12:54:26Z</time>
      </trkpt>
      <trkpt lat="46.362210642546415" lon="9.310473538935185">
        <ele>2156.3699999999999</ele>
        <time>2017-06-18T12:54:30Z</time>
      </trkpt>
      <trkpt lat="46.362217850983143" lon="9.310386283323169">
        <ele>2155.4099999999999</ele>
        <time>2017-06-18T12:54:36Z</time>
      </trkpt>
      <trkpt lat="46.36220695450902" lon="9.310358371585608">
        <ele>2154.9299999999998</ele>
        <time>2017-06-18T12:54:38Z</time>
      </trkpt>
      <trkpt lat="46.362200919538736" lon="9.310305146500468">
        <ele>2154.4499999999998</ele>
        <time>2017-06-18T12:54:42Z</time>
      </trkpt>
      <trkpt lat="46.362233692780137" lon="9.31022166274488">
        <ele>2153.9699999999998</ele>
        <time>2017-06-18T12:54:47Z</time>
      </trkpt>
      <trkpt lat="46.362264957278967" lon="9.310194253921509">
        <ele>2153.0100000000002</ele>
        <time>2017-06-18T12:54:51Z</time>
      </trkpt>
      <trkpt lat="46.362261269241571" lon="9.310114290565252">
        <ele>2151.5700000000002</ele>
        <time>2017-06-18T12:54:58Z</time>
      </trkpt>
      <trkpt lat="46.362210474908352" lon="9.310078332200646">
        <ele>2151.0900000000001</ele>
        <time>2017-06-18T12:55:05Z</time>
      </trkpt>
      <trkpt lat="46.362128332257271" lon="9.310076655820012">
        <ele>2151.5700000000002</ele>
        <time>2017-06-18T12:55:15Z</time>
      </trkpt>
      <trkpt lat="46.362089104950428" lon="9.310042541474104">
        <ele>2153.0100000000002</ele>
        <time>2017-06-18T12:55:24Z</time>
      </trkpt>
      <trkpt lat="46.362049877643585" lon="9.309941120445728">
        <ele>2155.4099999999999</ele>
        <time>2017-06-18T12:55:37Z</time>
      </trkpt>
      <trkpt lat="46.362004280090332" lon="9.309875154867768">
        <ele>2157.8200000000002</ele>
        <time>2017-06-18T12:55:49Z</time>
      </trkpt>
      <trkpt lat="46.361980978399515" lon="9.309782953932881">
        <ele>2159.7399999999998</ele>
        <time>2017-06-18T12:56:00Z</time>
      </trkpt>
      <trkpt lat="46.361978044733405" lon="9.309709277004004">
        <ele>2158.7800000000002</ele>
        <time>2017-06-18T12:56:06Z</time>
      </trkpt>
      <trkpt lat="46.361981397494674" lon="9.309641132131219">
        <ele>2158.3000000000002</ele>
        <time>2017-06-18T12:56:10Z</time>
      </trkpt>
      <trkpt lat="46.361990869045258" lon="9.30956494063139">
        <ele>2157.3400000000001</ele>
        <time>2017-06-18T12:56:15Z</time>
      </trkpt>
      <trkpt lat="46.361987181007862" lon="9.309411719441414">
        <ele>2155.8899999999999</ele>
        <time>2017-06-18T12:56:25Z</time>
      </trkpt>
      <trkpt lat="46.361941918730736" lon="9.309306778013706">
        <ele>2155.8899999999999</ele>
        <time>2017-06-18T12:56:37Z</time>
      </trkpt>
      <trkpt lat="46.361890453845263" lon="9.309262856841087">
        <ele>2157.3400000000001</ele>
        <time>2017-06-18T12:56:48Z</time>
      </trkpt>
      <trkpt lat="46.361873187124729" lon="9.309272998943925">
        <ele>2158.7800000000002</ele>
        <time>2017-06-18T12:56:59Z</time>
      </trkpt>
      <trkpt lat="46.361885340884328" lon="9.309262102469802">
        <ele>2158.3000000000002</ele>
        <time>2017-06-18T12:57:12Z</time>
      </trkpt>
      <trkpt lat="46.361899673938751" lon="9.309277608990669">
        <ele>2158.3000000000002</ele>
        <time>2017-06-18T12:57:24Z</time>
      </trkpt>
      <trkpt lat="46.361836055293679" lon="9.309245925396681">
        <ele>2156.8600000000001</ele>
        <time>2017-06-18T12:57:39Z</time>
      </trkpt>
      <trkpt lat="46.36172759346664" lon="9.309199154376984">
        <ele>2155.8899999999999</ele>
        <time>2017-06-18T12:57:49Z</time>
      </trkpt>
      <trkpt lat="46.361629692837596" lon="9.309159088879824">
        <ele>2155.4099999999999</ele>
        <time>2017-06-18T12:58:00Z</time>
      </trkpt>
      <trkpt lat="46.361523745581508" lon="9.309138637036085">
        <ele>2155.8899999999999</ele>
        <time>2017-06-18T12:58:11Z</time>
      </trkpt>
      <trkpt lat="46.361515782773495" lon="9.309141905978322">
        <ele>2156.3699999999999</ele>
        <time>2017-06-18T12:58:12Z</time>
      </trkpt>
      <trkpt lat="46.361481584608555" lon="9.30917015299201">
        <ele>2156.8600000000001</ele>
        <time>2017-06-18T12:58:17Z</time>
      </trkpt>
      <trkpt lat="46.361397681757808" lon="9.309123801067472">
        <ele>2157.8200000000002</ele>
        <time>2017-06-18T12:58:28Z</time>
      </trkpt>
      <trkpt lat="46.361336661502719" lon="9.309108294546604">
        <ele>2156.3699999999999</ele>
        <time>2017-06-18T12:58:34Z</time>
      </trkpt>
      <trkpt lat="46.36127857491374" lon="9.309035707265139">
        <ele>2156.3699999999999</ele>
        <time>2017-06-18T12:58:41Z</time>
      </trkpt>
      <trkpt lat="46.361220572143793" lon="9.309029588475823">
        <ele>2155.8899999999999</ele>
        <time>2017-06-18T12:58:47Z</time>
      </trkpt>
      <trkpt lat="46.361205400899053" lon="9.308995641767979">
        <ele>2155.4099999999999</ele>
        <time>2017-06-18T12:58:50Z</time>
      </trkpt>
      <trkpt lat="46.36113440617919" lon="9.308913080021739">
        <ele>2156.3699999999999</ele>
        <time>2017-06-18T12:59:00Z</time>
      </trkpt>
      <trkpt lat="46.361057125031948" lon="9.308849796652794">
        <ele>2157.3400000000001</ele>
        <time>2017-06-18T12:59:11Z</time>
      </trkpt>
      <trkpt lat="46.361021753400564" lon="9.308842504397035">
        <ele>2156.8600000000001</ele>
        <time>2017-06-18T12:59:14Z</time>
      </trkpt>
      <trkpt lat="46.360965678468347" lon="9.308796152472496">
        <ele>2157.3400000000001</ele>
        <time>2017-06-18T12:59:21Z</time>
      </trkpt>
      <trkpt lat="46.360861323773861" lon="9.308788944035769">
        <ele>2157.8200000000002</ele>
        <time>2017-06-18T12:59:31Z</time>
      </trkpt>
      <trkpt lat="46.360768619924784" lon="9.308764971792698">
        <ele>2157.3400000000001</ele>
        <time>2017-06-18T12:59:42Z</time>
      </trkpt>
      <trkpt lat="46.360733835026622" lon="9.308762038126588">
        <ele>2155.8899999999999</ele>
        <time>2017-06-18T12:59:49Z</time>
      </trkpt>
      <trkpt lat="46.360699217766523" lon="9.308773353695869">
        <ele>2153.9699999999998</ele>
        <time>2017-06-18T12:59:55Z</time>
      </trkpt>
      <trkpt lat="46.360651524737477" lon="9.308791039511561">
        <ele>2151.5700000000002</ele>
        <time>2017-06-18T13:00:03Z</time>
      </trkpt>
      <trkpt lat="46.360672395676374" lon="9.308817191049457">
        <ele>2149.6500000000001</ele>
        <time>2017-06-18T13:00:12Z</time>
      </trkpt>
      <trkpt lat="46.360654626041651" lon="9.308847701177001">
        <ele>2147.7199999999998</ele>
        <time>2017-06-18T13:00:19Z</time>
      </trkpt>
      <trkpt lat="46.360626546666026" lon="9.308837475255132">
        <ele>2146.7600000000002</ele>
        <time>2017-06-18T13:00:23Z</time>
      </trkpt>
      <trkpt lat="46.360606094822288" lon="9.308832865208387">
        <ele>2145.8000000000002</ele>
        <time>2017-06-18T13:00:26Z</time>
      </trkpt>
      <trkpt lat="46.360540799796581" lon="9.308861950412393">
        <ele>2143.8800000000001</ele>
        <time>2017-06-18T13:00:35Z</time>
      </trkpt>
      <trkpt lat="46.360529400408268" lon="9.30886572226882">
        <ele>2143.4000000000001</ele>
        <time>2017-06-18T13:00:36Z</time>
      </trkpt>
      <trkpt lat="46.360475672408938" lon="9.308812832459807">
        <ele>2143.4000000000001</ele>
        <time>2017-06-18T13:00:42Z</time>
      </trkpt>
      <trkpt lat="46.360441222786903" lon="9.308806043118238">
        <ele>2141.9499999999998</ele>
        <time>2017-06-18T13:00:51Z</time>
      </trkpt>
      <trkpt lat="46.360421860590577" lon="9.30884669534862">
        <ele>2140.5100000000002</ele>
        <time>2017-06-18T13:00:58Z</time>
      </trkpt>
      <trkpt lat="46.360366959124804" lon="9.308797912672162">
        <ele>2138.1100000000001</ele>
        <time>2017-06-18T13:01:09Z</time>
      </trkpt>
      <trkpt lat="46.360343070700765" lon="9.308789949864149">
        <ele>2136.6700000000001</ele>
        <time>2017-06-18T13:01:17Z</time>
      </trkpt>
      <trkpt lat="46.360297808423638" lon="9.308770671486855">
        <ele>2133.7800000000002</ele>
        <time>2017-06-18T13:01:27Z</time>
      </trkpt>
      <trkpt lat="46.360236620530486" lon="9.308784585446119">
        <ele>2131.8600000000001</ele>
        <time>2017-06-18T13:01:38Z</time>
      </trkpt>
      <trkpt lat="46.360163781791925" lon="9.308801768347621">
        <ele>2130.4200000000001</ele>
        <time>2017-06-18T13:01:48Z</time>
      </trkpt>
      <trkpt lat="46.36010779067874" lon="9.308806210756302">
        <ele>2129.46</ele>
        <time>2017-06-18T13:01:56Z</time>
      </trkpt>
      <trkpt lat="46.360077699646354" lon="9.308824399486184">
        <ele>2128.5</ele>
        <time>2017-06-18T13:02:00Z</time>
      </trkpt>
      <trkpt lat="46.360033946111798" lon="9.308854155242443">
        <ele>2127.0500000000002</ele>
        <time>2017-06-18T13:02:10Z</time>
      </trkpt>
      <trkpt lat="46.360015757381916" lon="9.308884413912892">
        <ele>2125.6100000000001</ele>
        <time>2017-06-18T13:02:15Z</time>
      </trkpt>
      <trkpt lat="46.359951635822654" lon="9.308868739753962">
        <ele>2124.6500000000001</ele>
        <time>2017-06-18T13:02:24Z</time>
      </trkpt>
      <trkpt lat="46.359923221170902" lon="9.308923725038767">
        <ele>2123.21</ele>
        <time>2017-06-18T13:02:32Z</time>
      </trkpt>
      <trkpt lat="46.359860692173243" lon="9.308928670361638">
        <ele>2122.73</ele>
        <time>2017-06-18T13:02:40Z</time>
      </trkpt>
      <trkpt lat="46.359792798757553" lon="9.308907380327582">
        <ele>2123.6900000000001</ele>
        <time>2017-06-18T13:02:50Z</time>
      </trkpt>
      <trkpt lat="46.359775867313147" lon="9.308943254873157">
        <ele>2122.25</ele>
        <time>2017-06-18T13:02:56Z</time>
      </trkpt>
      <trkpt lat="46.359692635014653" lon="9.308946942910552">
        <ele>2121.29</ele>
        <time>2017-06-18T13:03:05Z</time>
      </trkpt>
      <trkpt lat="46.359605966135859" lon="9.308980135247111">
        <ele>2121.29</ele>
        <time>2017-06-18T13:03:15Z</time>
      </trkpt>
      <trkpt lat="46.359585430473089" lon="9.308994049206376">
        <ele>2121.77</ele>
        <time>2017-06-18T13:03:19Z</time>
      </trkpt>
      <trkpt lat="46.359536061063409" lon="9.309044675901532">
        <ele>2121.29</ele>
        <time>2017-06-18T13:03:28Z</time>
      </trkpt>
      <trkpt lat="46.359509825706482" lon="9.309066971763969">
        <ele>2121.29</ele>
        <time>2017-06-18T13:03:31Z</time>
      </trkpt>
      <trkpt lat="46.35940077714622" lon="9.309112569317222">
        <ele>2121.29</ele>
        <time>2017-06-18T13:03:42Z</time>
      </trkpt>
      <trkpt lat="46.359299188479781" lon="9.309085244312882">
        <ele>2121.77</ele>
        <time>2017-06-18T13:03:54Z</time>
      </trkpt>
      <trkpt lat="46.359269097447395" lon="9.309103852137923">
        <ele>2122.25</ele>
        <time>2017-06-18T13:03:59Z</time>
      </trkpt>
      <trkpt lat="46.359218303114176" lon="9.309121705591679">
        <ele>2121.77</ele>
        <time>2017-06-18T13:04:09Z</time>
      </trkpt>
      <trkpt lat="46.3592136092484" lon="9.309144923463464">
        <ele>2121.29</ele>
        <time>2017-06-18T13:04:11Z</time>
      </trkpt>
      <trkpt lat="46.359152169898152" lon="9.309149198234081">
        <ele>2120.8099999999999</ele>
        <time>2017-06-18T13:04:19Z</time>
      </trkpt>
      <trkpt lat="46.359098860993981" lon="9.309169063344598">
        <ele>2119.8400000000001</ele>
        <time>2017-06-18T13:04:29Z</time>
      </trkpt>
      <trkpt lat="46.359045719727874" lon="9.309246176853776">
        <ele>2119.3600000000001</ele>
        <time>2017-06-18T13:04:41Z</time>
      </trkpt>
      <trkpt lat="46.359034823253751" lon="9.309261264279485">
        <ele>2119.3600000000001</ele>
        <time>2017-06-18T13:04:43Z</time>
      </trkpt>
      <trkpt lat="46.359000205993652" lon="9.309338880702853">
        <ele>2118.8800000000001</ele>
        <time>2017-06-18T13:04:53Z</time>
      </trkpt>
      <trkpt lat="46.358997104689479" lon="9.309370731934905">
        <ele>2118.8800000000001</ele>
        <time>2017-06-18T13:04:56Z</time>
      </trkpt>
      <trkpt lat="46.358970114961267" lon="9.30949654430151">
        <ele>2118.8800000000001</ele>
        <time>2017-06-18T13:05:08Z</time>
      </trkpt>
      <trkpt lat="46.358966426923871" lon="9.309535017237067">
        <ele>2117.9200000000001</ele>
        <time>2017-06-18T13:05:16Z</time>
      </trkpt>
      <trkpt lat="46.358959721401334" lon="9.309550691395998">
        <ele>2117.9200000000001</ele>
        <time>2017-06-18T13:05:27Z</time>
      </trkpt>
      <trkpt lat="46.358950836583972" lon="9.309573573991656">
        <ele>2117.4400000000001</ele>
        <time>2017-06-18T13:05:41Z</time>
      </trkpt>
      <trkpt lat="46.358972964808345" lon="9.309574328362942">
        <ele>2116.96</ele>
        <time>2017-06-18T13:05:45Z</time>
      </trkpt>
      <trkpt lat="46.358979335054755" lon="9.309663344174624">
        <ele>2115.04</ele>
        <time>2017-06-18T13:05:55Z</time>
      </trkpt>
      <trkpt lat="46.359018813818693" lon="9.309631576761603">
        <ele>2113.5999999999999</ele>
        <time>2017-06-18T13:06:03Z</time>
      </trkpt>
      <trkpt lat="46.359042534604669" lon="9.3096939381212">
        <ele>2111.1900000000001</ele>
        <time>2017-06-18T13:06:10Z</time>
      </trkpt>
      <trkpt lat="46.359053682535887" lon="9.309843303635716">
        <ele>2108.79</ele>
        <time>2017-06-18T13:06:21Z</time>
      </trkpt>
      <trkpt lat="46.359061477705836" lon="9.309874903410673">
        <ele>2108.3099999999999</ele>
        <time>2017-06-18T13:06:24Z</time>
      </trkpt>
      <trkpt lat="46.359079331159592" lon="9.309983868151903">
        <ele>2108.3099999999999</ele>
        <time>2017-06-18T13:06:32Z</time>
      </trkpt>
      <trkpt lat="46.359079331159592" lon="9.309996105730534">
        <ele>2108.3099999999999</ele>
        <time>2017-06-18T13:06:33Z</time>
      </trkpt>
      <trkpt lat="46.359054520726204" lon="9.310125941410661">
        <ele>2107.8299999999999</ele>
        <time>2017-06-18T13:06:44Z</time>
      </trkpt>
      <trkpt lat="46.359037673100829" lon="9.310140442103148">
        <ele>2106.8699999999999</ele>
        <time>2017-06-18T13:06:56Z</time>
      </trkpt>
      <trkpt lat="46.359034487977624" lon="9.310199031606317">
        <ele>2106.3899999999999</ele>
        <time>2017-06-18T13:07:07Z</time>
      </trkpt>
      <trkpt lat="46.359055610373616" lon="9.31029056198895">
        <ele>2106.8699999999999</ele>
        <time>2017-06-18T13:07:17Z</time>
      </trkpt>
      <trkpt lat="46.359063070267439" lon="9.310363568365574">
        <ele>2105.9099999999999</ele>
        <time>2017-06-18T13:07:28Z</time>
      </trkpt>
      <trkpt lat="46.359107745811343" lon="9.310427522286773">
        <ele>2106.3899999999999</ele>
        <time>2017-06-18T13:07:39Z</time>
      </trkpt>
      <trkpt lat="46.359133226796985" lon="9.310476137325168">
        <ele>2107.3499999999999</ele>
        <time>2017-06-18T13:07:49Z</time>
      </trkpt>
      <trkpt lat="46.359171699732542" lon="9.310540426522493">
        <ele>2106.8699999999999</ele>
        <time>2017-06-18T13:07:58Z</time>
      </trkpt>
      <trkpt lat="46.359233725816011" lon="9.310622569173574">
        <ele>2106.8699999999999</ele>
        <time>2017-06-18T13:08:09Z</time>
      </trkpt>
      <trkpt lat="46.35925711132586" lon="9.310656515881419">
        <ele>2107.3499999999999</ele>
        <time>2017-06-18T13:08:13Z</time>
      </trkpt>
      <trkpt lat="46.359303630888462" lon="9.310757853090763">
        <ele>2107.8299999999999</ele>
        <time>2017-06-18T13:08:22Z</time>
      </trkpt>
      <trkpt lat="46.359320897608995" lon="9.310796242207289">
        <ele>2107.8299999999999</ele>
        <time>2017-06-18T13:08:32Z</time>
      </trkpt>
      <trkpt lat="46.35933481156826" lon="9.310845779255033">
        <ele>2106.8699999999999</ele>
        <time>2017-06-18T13:08:41Z</time>
      </trkpt>
      <trkpt lat="46.359378146007657" lon="9.310910236090422">
        <ele>2105.4200000000001</ele>
        <time>2017-06-18T13:08:51Z</time>
      </trkpt>
      <trkpt lat="46.35941494256258" lon="9.311011489480734">
        <ele>2105.4200000000001</ele>
        <time>2017-06-18T13:09:01Z</time>
      </trkpt>
      <trkpt lat="46.359442435204983" lon="9.311047615483403">
        <ele>2104.9400000000001</ele>
        <time>2017-06-18T13:09:09Z</time>
      </trkpt>
      <trkpt lat="46.359478142112494" lon="9.311123806983233">
        <ele>2103.5</ele>
        <time>2017-06-18T13:09:18Z</time>
      </trkpt>
      <trkpt lat="46.359508819878101" lon="9.311252469196916">
        <ele>2104.46</ele>
        <time>2017-06-18T13:09:29Z</time>
      </trkpt>
      <trkpt lat="46.35951803997159" lon="9.311289936304092">
        <ele>2104.46</ele>
        <time>2017-06-18T13:09:32Z</time>
      </trkpt>
      <trkpt lat="46.359521644189954" lon="9.311379874125123">
        <ele>2103.98</ele>
        <time>2017-06-18T13:09:40Z</time>
      </trkpt>
      <trkpt lat="46.359512927010655" lon="9.311547009274364">
        <ele>2103.02</ele>
        <time>2017-06-18T13:09:53Z</time>
      </trkpt>
      <trkpt lat="46.359524494037032" lon="9.31168464012444">
        <ele>2103.5</ele>
        <time>2017-06-18T13:10:04Z</time>
      </trkpt>
      <trkpt lat="46.359548214823008" lon="9.311763262376189">
        <ele>2102.54</ele>
        <time>2017-06-18T13:10:14Z</time>
      </trkpt>
      <trkpt lat="46.359568918123841" lon="9.311927044764161">
        <ele>2102.0599999999999</ele>
        <time>2017-06-18T13:10:26Z</time>
      </trkpt>
      <trkpt lat="46.359575623646379" lon="9.312065346166492">
        <ele>2101.5799999999999</ele>
        <time>2017-06-18T13:10:37Z</time>
      </trkpt>
      <trkpt lat="46.359573695808649" lon="9.31214882992208">
        <ele>2102.0599999999999</ele>
        <time>2017-06-18T13:10:44Z</time>
      </trkpt>
      <trkpt lat="46.359586687758565" lon="9.312247987836599">
        <ele>2101.0999999999999</ele>
        <time>2017-06-18T13:10:55Z</time>
      </trkpt>
      <trkpt lat="46.359583837911487" lon="9.312311857938767">
        <ele>2100.1399999999999</ele>
        <time>2017-06-18T13:11:00Z</time>
      </trkpt>
      <trkpt lat="46.359551567584276" lon="9.312494667246938">
        <ele>2100.1399999999999</ele>
        <time>2017-06-18T13:11:14Z</time>
      </trkpt>
      <trkpt lat="46.359554920345545" lon="9.312578989192843">
        <ele>2099.1799999999998</ele>
        <time>2017-06-18T13:11:25Z</time>
      </trkpt>
      <trkpt lat="46.359583754092455" lon="9.312677895650268">
        <ele>2096.77</ele>
        <time>2017-06-18T13:11:37Z</time>
      </trkpt>
      <trkpt lat="46.35958693921566" lon="9.312687031924725">
        <ele>2096.29</ele>
        <time>2017-06-18T13:11:38Z</time>
      </trkpt>
      <trkpt lat="46.359596410766244" lon="9.312726259231567">
        <ele>2095.8099999999999</ele>
        <time>2017-06-18T13:11:41Z</time>
      </trkpt>
      <trkpt lat="46.359586687758565" lon="9.312858022749424">
        <ele>2096.29</ele>
        <time>2017-06-18T13:11:55Z</time>
      </trkpt>
      <trkpt lat="46.359580652788281" lon="9.312961036339402">
        <ele>2097.73</ele>
        <time>2017-06-18T13:12:05Z</time>
      </trkpt>
      <trkpt lat="46.35957520455122" lon="9.313082490116358">
        <ele>2098.21</ele>
        <time>2017-06-18T13:12:16Z</time>
      </trkpt>
      <trkpt lat="46.35957327671349" lon="9.313169913366437">
        <ele>2099.1799999999998</ele>
        <time>2017-06-18T13:12:25Z</time>
      </trkpt>
      <trkpt lat="46.359586687758565" lon="9.313194137066603">
        <ele>2098.6999999999998</ele>
        <time>2017-06-18T13:12:36Z</time>
      </trkpt>
      <trkpt lat="46.35958107188344" lon="9.313207296654582">
        <ele>2098.21</ele>
        <time>2017-06-18T13:12:44Z</time>
      </trkpt>
      <trkpt lat="46.359573528170586" lon="9.313291702419519">
        <ele>2096.77</ele>
        <time>2017-06-18T13:12:53Z</time>
      </trkpt>
      <trkpt lat="46.359582832083106" lon="9.313440062105656">
        <ele>2095.3299999999999</ele>
        <time>2017-06-18T13:13:07Z</time>
      </trkpt>
      <trkpt lat="46.359585011377931" lon="9.313521534204483">
        <ele>2094.3699999999999</ele>
        <time>2017-06-18T13:13:14Z</time>
      </trkpt>
      <trkpt lat="46.359563888981938" lon="9.313606275245547">
        <ele>2093.4099999999999</ele>
        <time>2017-06-18T13:13:26Z</time>
      </trkpt>
      <trkpt lat="46.359558021649718" lon="9.31363619863987">
        <ele>2092.9299999999998</ele>
        <time>2017-06-18T13:13:30Z</time>
      </trkpt>
      <trkpt lat="46.359527846798301" lon="9.313681712374091">
        <ele>2092.9299999999998</ele>
        <time>2017-06-18T13:13:36Z</time>
      </trkpt>
      <trkpt lat="46.359494989737868" lon="9.3137485999614">
        <ele>2092.9299999999998</ele>
        <time>2017-06-18T13:13:45Z</time>
      </trkpt>
      <trkpt lat="46.359505299478769" lon="9.313761675730348">
        <ele>2091.4899999999998</ele>
        <time>2017-06-18T13:13:54Z</time>
      </trkpt>
      <trkpt lat="46.359518878161907" lon="9.313801741227508">
        <ele>2090.04</ele>
        <time>2017-06-18T13:14:02Z</time>
      </trkpt>
      <trkpt lat="46.359510160982609" lon="9.313851362094283">
        <ele>2090.52</ele>
        <time>2017-06-18T13:14:06Z</time>
      </trkpt>
      <trkpt lat="46.359499515965581" lon="9.313945658504963">
        <ele>2091</ele>
        <time>2017-06-18T13:14:16Z</time>
      </trkpt>
      <trkpt lat="46.359488787129521" lon="9.313980443403125">
        <ele>2091</ele>
        <time>2017-06-18T13:14:20Z</time>
      </trkpt>
      <trkpt lat="46.359445787966251" lon="9.314137101173401">
        <ele>2091.4899999999998</ele>
        <time>2017-06-18T13:14:32Z</time>
      </trkpt>
      <trkpt lat="46.359412092715502" lon="9.314268361777067">
        <ele>2090.52</ele>
        <time>2017-06-18T13:14:42Z</time>
      </trkpt>
      <trkpt lat="46.359413350000978" lon="9.314290573820472">
        <ele>2091</ele>
        <time>2017-06-18T13:14:53Z</time>
      </trkpt>
      <trkpt lat="46.359388036653399" lon="9.314317647367716">
        <ele>2091</ele>
        <time>2017-06-18T13:14:56Z</time>
      </trkpt>
      <trkpt lat="46.359357023611665" lon="9.314344385638833">
        <ele>2091</ele>
        <time>2017-06-18T13:15:06Z</time>
      </trkpt>
      <trkpt lat="46.359386444091797" lon="9.314361736178398">
        <ele>2090.52</ele>
        <time>2017-06-18T13:15:10Z</time>
      </trkpt>
      <trkpt lat="46.359444614499807" lon="9.314570361748338">
        <ele>2090.52</ele>
        <time>2017-06-18T13:15:25Z</time>
      </trkpt>
      <trkpt lat="46.359498258680105" lon="9.314779574051499">
        <ele>2090.52</ele>
        <time>2017-06-18T13:15:39Z</time>
      </trkpt>
      <trkpt lat="46.359513346105814" lon="9.314885437488556">
        <ele>2091</ele>
        <time>2017-06-18T13:15:47Z</time>
      </trkpt>
      <trkpt lat="46.359451906755567" lon="9.315021391957998">
        <ele>2092.4499999999998</ele>
        <time>2017-06-18T13:15:59Z</time>
      </trkpt>
      <trkpt lat="46.35939784348011" lon="9.3151387386024">
        <ele>2092.9299999999998</ele>
        <time>2017-06-18T13:16:10Z</time>
      </trkpt>
      <trkpt lat="46.359380912035704" lon="9.315188610926271">
        <ele>2093.4099999999999</ele>
        <time>2017-06-18T13:16:20Z</time>
      </trkpt>
      <trkpt lat="46.359417038038373" lon="9.315194813534617">
        <ele>2092.4499999999998</ele>
        <time>2017-06-18T13:16:32Z</time>
      </trkpt>
      <trkpt lat="46.359460707753897" lon="9.315252900123596">
        <ele>2092.4499999999998</ele>
        <time>2017-06-18T13:16:43Z</time>
      </trkpt>
      <trkpt lat="46.359470598399639" lon="9.315281147137284">
        <ele>2093.8899999999999</ele>
        <time>2017-06-18T13:16:45Z</time>
      </trkpt>
      <trkpt lat="46.359539413824677" lon="9.315457418560982">
        <ele>2093.4099999999999</ele>
        <time>2017-06-18T13:16:59Z</time>
      </trkpt>
      <trkpt lat="46.359573444351554" lon="9.315515588968992">
        <ele>2092.9299999999998</ele>
        <time>2017-06-18T13:17:08Z</time>
      </trkpt>
      <trkpt lat="46.359569169580936" lon="9.315517265349627">
        <ele>2093.4099999999999</ele>
        <time>2017-06-18T13:17:10Z</time>
      </trkpt>
      <trkpt lat="46.359622059389949" lon="9.31566009297967">
        <ele>2094.8499999999999</ele>
        <time>2017-06-18T13:17:20Z</time>
      </trkpt>
      <trkpt lat="46.35968710295856" lon="9.315886236727238">
        <ele>2093.8899999999999</ele>
        <time>2017-06-18T13:17:34Z</time>
      </trkpt>
      <trkpt lat="46.359742674976587" lon="9.3160470854491">
        <ele>2092.4499999999998</ele>
        <time>2017-06-18T13:17:45Z</time>
      </trkpt>
      <trkpt lat="46.359764467924833" lon="9.316144399344921">
        <ele>2091.4899999999998</ele>
        <time>2017-06-18T13:17:51Z</time>
      </trkpt>
      <trkpt lat="46.359769916161895" lon="9.316159738227725">
        <ele>2094.8499999999999</ele>
        <time>2017-06-18T13:17:52Z</time>
      </trkpt>
      <trkpt lat="46.359817525371909" lon="9.31636031717062">
        <ele>2094.8499999999999</ele>
        <time>2017-06-18T13:18:05Z</time>
      </trkpt>
      <trkpt lat="46.359846778213978" lon="9.316550251096487">
        <ele>2093.4099999999999</ele>
        <time>2017-06-18T13:18:16Z</time>
      </trkpt>
      <trkpt lat="46.359876450151205" lon="9.316753093153238">
        <ele>2093.4099999999999</ele>
        <time>2017-06-18T13:18:29Z</time>
      </trkpt>
      <trkpt lat="46.359885837882757" lon="9.31681863963604">
        <ele>2092.9299999999998</ele>
        <time>2017-06-18T13:18:33Z</time>
      </trkpt>
      <trkpt lat="46.359896566718817" lon="9.317024080082774">
        <ele>2092.9299999999998</ele>
        <time>2017-06-18T13:18:46Z</time>
      </trkpt>
      <trkpt lat="46.359910480678082" lon="9.317208649590612">
        <ele>2093.4099999999999</ele>
        <time>2017-06-18T13:18:57Z</time>
      </trkpt>
      <trkpt lat="46.359914923086762" lon="9.317415934056044">
        <ele>2093.4099999999999</ele>
        <time>2017-06-18T13:19:10Z</time>
      </trkpt>
      <trkpt lat="46.359919533133507" lon="9.317618776112795">
        <ele>2094.8499999999999</ele>
        <time>2017-06-18T13:19:23Z</time>
      </trkpt>
      <trkpt lat="46.359923472627997" lon="9.317754898220301">
        <ele>2094.3699999999999</ele>
        <time>2017-06-18T13:19:32Z</time>
      </trkpt>
      <trkpt lat="46.359947863966227" lon="9.318011635914445">
        <ele>2093.4099999999999</ele>
        <time>2017-06-18T13:19:48Z</time>
      </trkpt>
      <trkpt lat="46.35995339602232" lon="9.318212801590562">
        <ele>2093.8899999999999</ele>
        <time>2017-06-18T13:20:01Z</time>
      </trkpt>
      <trkpt lat="46.359955994412303" lon="9.318427043035626">
        <ele>2093.8899999999999</ele>
        <time>2017-06-18T13:20:15Z</time>
      </trkpt>
      <trkpt lat="46.359960688278079" lon="9.318625694140792">
        <ele>2093.8899999999999</ele>
        <time>2017-06-18T13:20:28Z</time>
      </trkpt>
      <trkpt lat="46.359966387972236" lon="9.31870917789638">
        <ele>2093.4099999999999</ele>
        <time>2017-06-18T13:20:34Z</time>
      </trkpt>
      <trkpt lat="46.359995221719146" lon="9.318825770169497">
        <ele>2093.4099999999999</ele>
        <time>2017-06-18T13:20:46Z</time>
      </trkpt>
      <trkpt lat="46.360000586137176" lon="9.318922497332096">
        <ele>2090.04</ele>
        <time>2017-06-18T13:20:55Z</time>
      </trkpt>
      <trkpt lat="46.360016763210297" lon="9.319019224494696">
        <ele>2087.6399999999999</ele>
        <time>2017-06-18T13:21:05Z</time>
      </trkpt>
      <trkpt lat="46.360042914748192" lon="9.319119555875659">
        <ele>2084.2800000000002</ele>
        <time>2017-06-18T13:21:17Z</time>
      </trkpt>
      <trkpt lat="46.360067976638675" lon="9.319209577515721">
        <ele>2082.3499999999999</ele>
        <time>2017-06-18T13:21:27Z</time>
      </trkpt>
      <trkpt lat="46.359985247254372" lon="9.319117963314056">
        <ele>2079.9499999999998</ele>
        <time>2017-06-18T13:21:41Z</time>
      </trkpt>
      <trkpt lat="46.359926657751203" lon="9.319049064069986">
        <ele>2077.5500000000002</ele>
        <time>2017-06-18T13:21:51Z</time>
      </trkpt>
      <trkpt lat="46.359834205359221" lon="9.318951163440943">
        <ele>2074.6599999999999</ele>
        <time>2017-06-18T13:22:06Z</time>
      </trkpt>
      <trkpt lat="46.359836384654045" lon="9.319031964987516">
        <ele>2072.2600000000002</ele>
        <time>2017-06-18T13:22:16Z</time>
      </trkpt>
      <trkpt lat="46.359795732423663" lon="9.319143863394857">
        <ele>2069.8600000000001</ele>
        <time>2017-06-18T13:22:27Z</time>
      </trkpt>
      <trkpt lat="46.359742591157556" lon="9.319283338263631">
        <ele>2066.4899999999998</ele>
        <time>2017-06-18T13:22:43Z</time>
      </trkpt>
      <trkpt lat="46.359704369679093" lon="9.319371096789837">
        <ele>2064.0900000000001</ele>
        <time>2017-06-18T13:22:54Z</time>
      </trkpt>
      <trkpt lat="46.359653910622001" lon="9.319475451484323">
        <ele>2061.6799999999998</ele>
        <time>2017-06-18T13:23:06Z</time>
      </trkpt>
      <trkpt lat="46.359595656394958" lon="9.319525994360447">
        <ele>2058.8000000000002</ele>
        <time>2017-06-18T13:23:17Z</time>
      </trkpt>
      <trkpt lat="46.359535222873092" lon="9.319469500333071">
        <ele>2055.4400000000001</ele>
        <time>2017-06-18T13:23:28Z</time>
      </trkpt>
      <trkpt lat="46.359470263123512" lon="9.319384507834911">
        <ele>2052.5500000000002</ele>
        <time>2017-06-18T13:23:40Z</time>
      </trkpt>
      <trkpt lat="46.359424330294132" lon="9.319310998544097">
        <ele>2049.1900000000001</ele>
        <time>2017-06-18T13:23:52Z</time>
      </trkpt>
      <trkpt lat="46.35944277048111" lon="9.319439828395844">
        <ele>2046.78</ele>
        <time>2017-06-18T13:24:04Z</time>
      </trkpt>
      <trkpt lat="46.359449727460742" lon="9.319547954946756">
        <ele>2043.9000000000001</ele>
        <time>2017-06-18T13:24:15Z</time>
      </trkpt>
      <trkpt lat="46.359476801007986" lon="9.319607466459274">
        <ele>2041.02</ele>
        <time>2017-06-18T13:24:27Z</time>
      </trkpt>
      <trkpt lat="46.359464144334197" lon="9.319690950214863">
        <ele>2038.1300000000001</ele>
        <time>2017-06-18T13:24:38Z</time>
      </trkpt>
      <trkpt lat="46.359468922019005" lon="9.319788850843906">
        <ele>2034.77</ele>
        <time>2017-06-18T13:24:50Z</time>
      </trkpt>
      <trkpt lat="46.359442016109824" lon="9.319744678214192">
        <ele>2033.8099999999999</ele>
        <time>2017-06-18T13:24:59Z</time>
      </trkpt>
      <trkpt lat="46.359399184584618" lon="9.319646107032895">
        <ele>2031.8800000000001</ele>
        <time>2017-06-18T13:25:09Z</time>
      </trkpt>
      <trkpt lat="46.35934947989881" lon="9.319527754560113">
        <ele>2029.96</ele>
        <time>2017-06-18T13:25:21Z</time>
      </trkpt>
      <trkpt lat="46.35929767973721" lon="9.319428764283657">
        <ele>2029.48</ele>
        <time>2017-06-18T13:25:32Z</time>
      </trkpt>
      <trkpt lat="46.359213776886463" lon="9.319424573332071">
        <ele>2027.0799999999999</ele>
        <time>2017-06-18T13:25:44Z</time>
      </trkpt>
      <trkpt lat="46.359135657548904" lon="9.31942549534142">
        <ele>2024.1900000000001</ele>
        <time>2017-06-18T13:25:55Z</time>
      </trkpt>
      <trkpt lat="46.359079917892814" lon="9.319465644657612">
        <ele>2021.79</ele>
        <time>2017-06-18T13:26:05Z</time>
      </trkpt>
      <trkpt lat="46.359049826860428" lon="9.319564048200846">
        <ele>2022.75</ele>
        <time>2017-06-18T13:26:14Z</time>
      </trkpt>
      <trkpt lat="46.359009342268109" lon="9.319645687937737">
        <ele>2019.8699999999999</ele>
        <time>2017-06-18T13:26:25Z</time>
      </trkpt>
      <trkpt lat="46.358980005607009" lon="9.319681730121374">
        <ele>2019.3900000000001</ele>
        <time>2017-06-18T13:26:35Z</time>
      </trkpt>
      <trkpt lat="46.359016802161932" lon="9.319756831973791">
        <ele>2019.3900000000001</ele>
        <time>2017-06-18T13:26:44Z</time>
      </trkpt>
      <trkpt lat="46.359089724719524" lon="9.319837130606175">
        <ele>2018.4300000000001</ele>
        <time>2017-06-18T13:26:57Z</time>
      </trkpt>
      <trkpt lat="46.35912861675024" lon="9.31996051222086">
        <ele>2018.4300000000001</ele>
        <time>2017-06-18T13:27:07Z</time>
      </trkpt>
      <trkpt lat="46.359213273972273" lon="9.320097472518683">
        <ele>2018.4300000000001</ele>
        <time>2017-06-18T13:27:20Z</time>
      </trkpt>
      <trkpt lat="46.359247304499149" lon="9.320143405348063">
        <ele>2017.9400000000001</ele>
        <time>2017-06-18T13:27:33Z</time>
      </trkpt>
      <trkpt lat="46.359241269528866" lon="9.320161007344723">
        <ele>2017.9400000000001</ele>
        <time>2017-06-18T13:27:48Z</time>
      </trkpt>
      <trkpt lat="46.359246633946896" lon="9.320139465853572">
        <ele>2017.46</ele>
        <time>2017-06-18T13:28:06Z</time>
      </trkpt>
      <trkpt lat="46.359234983101487" lon="9.32013401761651">
        <ele>2017.46</ele>
        <time>2017-06-18T13:28:36Z</time>
      </trkpt>
      <trkpt lat="46.359259625896811" lon="9.320197133347392">
        <ele>2018.4300000000001</ele>
        <time>2017-06-18T13:28:51Z</time>
      </trkpt>
      <trkpt lat="46.359251411631703" lon="9.320208951830864">
        <ele>2018.9100000000001</ele>
        <time>2017-06-18T13:29:11Z</time>
      </trkpt>
      <trkpt lat="46.359247388318181" lon="9.320211047306657">
        <ele>2017.9400000000001</ele>
        <time>2017-06-18T13:29:22Z</time>
      </trkpt>
      <trkpt lat="46.359258200973272" lon="9.320201743394136">
        <ele>2018.9100000000001</ele>
        <time>2017-06-18T13:29:41Z</time>
      </trkpt>
      <trkpt lat="46.35924344882369" lon="9.320161426439881">
        <ele>2017.9400000000001</ele>
        <time>2017-06-18T13:29:50Z</time>
      </trkpt>
      <trkpt lat="46.359255518764257" lon="9.320147428661585">
        <ele>2017.9400000000001</ele>
        <time>2017-06-18T13:30:03Z</time>
      </trkpt>
      <trkpt lat="46.359229618683457" lon="9.320132927969098">
        <ele>2017.46</ele>
        <time>2017-06-18T13:30:33Z</time>
      </trkpt>
      <trkpt lat="46.359258787706494" lon="9.320133682340384">
        <ele>2017.9400000000001</ele>
        <time>2017-06-18T13:31:04Z</time>
      </trkpt>
      <trkpt lat="46.359253255650401" lon="9.320116583257914">
        <ele>2017.9400000000001</ele>
        <time>2017-06-18T13:31:24Z</time>
      </trkpt>
      <trkpt lat="46.359250992536545" lon="9.320124629884958">
        <ele>2018.9100000000001</ele>
        <time>2017-06-18T13:31:38Z</time>
      </trkpt>
      <trkpt lat="46.359247053042054" lon="9.320146003738046">
        <ele>2018.9100000000001</ele>
        <time>2017-06-18T13:31:46Z</time>
      </trkpt>
      <trkpt lat="46.359256692230701" lon="9.320173999294639">
        <ele>2018.9100000000001</ele>
        <time>2017-06-18T13:31:57Z</time>
      </trkpt>
      <trkpt lat="46.359333135187626" lon="9.320222781971097">
        <ele>2018.4300000000001</ele>
        <time>2017-06-18T13:32:08Z</time>
      </trkpt>
      <trkpt lat="46.359332045540214" lon="9.320222530514002">
        <ele>2018.9100000000001</ele>
        <time>2017-06-18T13:32:20Z</time>
      </trkpt>
      <trkpt lat="46.359334643930197" lon="9.320208616554737">
        <ele>2018.4300000000001</ele>
        <time>2017-06-18T13:32:32Z</time>
      </trkpt>
      <trkpt lat="46.359329028055072" lon="9.320241305977106">
        <ele>2018.4300000000001</ele>
        <time>2017-06-18T13:32:42Z</time>
      </trkpt>
      <trkpt lat="46.35932550765574" lon="9.320247592404485">
        <ele>2018.4300000000001</ele>
        <time>2017-06-18T13:32:52Z</time>
      </trkpt>
      <trkpt lat="46.359327519312501" lon="9.320223536342382">
        <ele>2018.9100000000001</ele>
        <time>2017-06-18T13:33:05Z</time>
      </trkpt>
      <trkpt lat="46.359318969771266" lon="9.320284053683281">
        <ele>2018.9100000000001</ele>
        <time>2017-06-18T13:33:13Z</time>
      </trkpt>
      <trkpt lat="46.359365740790963" lon="9.320430401712656">
        <ele>2018.9100000000001</ele>
        <time>2017-06-18T13:33:24Z</time>
      </trkpt>
      <trkpt lat="46.359397508203983" lon="9.32053123600781">
        <ele>2019.3900000000001</ele>
        <time>2017-06-18T13:33:31Z</time>
      </trkpt>
      <trkpt lat="46.359468335285783" lon="9.320700634270906">
        <ele>2019.8699999999999</ele>
        <time>2017-06-18T13:33:44Z</time>
      </trkpt>
      <trkpt lat="46.359530948102474" lon="9.320837426930666">
        <ele>2020.3499999999999</ele>
        <time>2017-06-18T13:33:56Z</time>
      </trkpt>
      <trkpt lat="46.35957864113152" lon="9.320973632857204">
        <ele>2020.3499999999999</ele>
        <time>2017-06-18T13:34:07Z</time>
      </trkpt>
      <trkpt lat="46.359625663608313" lon="9.321102378889918">
        <ele>2020.8299999999999</ele>
        <time>2017-06-18T13:34:18Z</time>
      </trkpt>
      <trkpt lat="46.359649635851383" lon="9.321144791319966">
        <ele>2020.8299999999999</ele>
        <time>2017-06-18T13:34:22Z</time>
      </trkpt>
      <trkpt lat="46.359665393829346" lon="9.321183012798429">
        <ele>2020.8299999999999</ele>
        <time>2017-06-18T13:34:25Z</time>
      </trkpt>
      <trkpt lat="46.359707219526172" lon="9.321312429383397">
        <ele>2021.3099999999999</ele>
        <time>2017-06-18T13:34:36Z</time>
      </trkpt>
      <trkpt lat="46.359737478196621" lon="9.321409994736314">
        <ele>2021.3099999999999</ele>
        <time>2017-06-18T13:34:44Z</time>
      </trkpt>
      <trkpt lat="46.359755834564567" lon="9.321502363309264">
        <ele>2021.79</ele>
        <time>2017-06-18T13:34:51Z</time>
      </trkpt>
      <trkpt lat="46.359797073528171" lon="9.321650806814432">
        <ele>2022.27</ele>
        <time>2017-06-18T13:35:03Z</time>
      </trkpt>
      <trkpt lat="46.359802354127169" lon="9.321665056049824">
        <ele>2022.27</ele>
        <time>2017-06-18T13:35:04Z</time>
      </trkpt>
      <trkpt lat="46.359815262258053" lon="9.32168978266418">
        <ele>2022.75</ele>
        <time>2017-06-18T13:35:06Z</time>
      </trkpt>
      <trkpt lat="46.359867732971907" lon="9.321811320260167">
        <ele>2023.71</ele>
        <time>2017-06-18T13:35:18Z</time>
      </trkpt>
      <trkpt lat="46.35987376794219" lon="9.321829592809081">
        <ele>2023.71</ele>
        <time>2017-06-18T13:35:20Z</time>
      </trkpt>
      <trkpt lat="46.359909223392606" lon="9.321969151496887">
        <ele>2024.6700000000001</ele>
        <time>2017-06-18T13:35:31Z</time>
      </trkpt>
      <trkpt lat="46.359954820945859" lon="9.322116170078516">
        <ele>2025.6400000000001</ele>
        <time>2017-06-18T13:35:44Z</time>
      </trkpt>
      <trkpt lat="46.359986755996943" lon="9.322213483974338">
        <ele>2026.5999999999999</ele>
        <time>2017-06-18T13:35:53Z</time>
      </trkpt>
      <trkpt lat="46.36003109626472" lon="9.322341727092862">
        <ele>2028.04</ele>
        <time>2017-06-18T13:36:05Z</time>
      </trkpt>
      <trkpt lat="46.360037969425321" lon="9.322356060147286">
        <ele>2028.04</ele>
        <time>2017-06-18T13:36:07Z</time>
      </trkpt>
      <trkpt lat="46.360069150105119" lon="9.322442729026079">
        <ele>2029</ele>
        <time>2017-06-18T13:36:15Z</time>
      </trkpt>
      <trkpt lat="46.360104102641344" lon="9.322562338784337">
        <ele>2028.52</ele>
        <time>2017-06-18T13:36:24Z</time>
      </trkpt>
      <trkpt lat="46.360104186460376" lon="9.322579940780997">
        <ele>2028.52</ele>
        <time>2017-06-18T13:36:34Z</time>
      </trkpt>
      <trkpt lat="46.360133271664381" lon="9.322612546384335">
        <ele>2028.52</ele>
        <time>2017-06-18T13:36:39Z</time>
      </trkpt>
      <trkpt lat="46.36014542542398" lon="9.322626627981663">
        <ele>2028.52</ele>
        <time>2017-06-18T13:36:41Z</time>
      </trkpt>
      <trkpt lat="46.360173253342509" lon="9.322761660441756">
        <ele>2029</ele>
        <time>2017-06-18T13:36:52Z</time>
      </trkpt>
      <trkpt lat="46.360212899744511" lon="9.322852017357945">
        <ele>2029.48</ele>
        <time>2017-06-18T13:37:03Z</time>
      </trkpt>
      <trkpt lat="46.360257910564542" lon="9.322967268526554">
        <ele>2029.48</ele>
        <time>2017-06-18T13:37:15Z</time>
      </trkpt>
      <trkpt lat="46.360314320772886" lon="9.323146305978298">
        <ele>2029</ele>
        <time>2017-06-18T13:37:26Z</time>
      </trkpt>
      <trkpt lat="46.360327312722802" lon="9.323250241577625">
        <ele>2029</ele>
        <time>2017-06-18T13:37:32Z</time>
      </trkpt>
      <trkpt lat="46.360347513109446" lon="9.323313860222697">
        <ele>2028.52</ele>
        <time>2017-06-18T13:37:36Z</time>
      </trkpt>
      <trkpt lat="46.360358828678727" lon="9.323341939598322">
        <ele>2028.52</ele>
        <time>2017-06-18T13:37:38Z</time>
      </trkpt>
      <trkpt lat="46.360369557514787" lon="9.32349381968379">
        <ele>2028.04</ele>
        <time>2017-06-18T13:37:51Z</time>
      </trkpt>
      <trkpt lat="46.360377939417958" lon="9.323629355058074">
        <ele>2028.52</ele>
        <time>2017-06-18T13:38:01Z</time>
      </trkpt>
      <trkpt lat="46.360360840335488" lon="9.323818953707814">
        <ele>2027.5599999999999</ele>
        <time>2017-06-18T13:38:15Z</time>
      </trkpt>
      <trkpt lat="46.360329324379563" lon="9.323951974511147">
        <ele>2026.1199999999999</ele>
        <time>2017-06-18T13:38:29Z</time>
      </trkpt>
      <trkpt lat="46.360342986881733" lon="9.324102262035012">
        <ele>2025.1500000000001</ele>
        <time>2017-06-18T13:38:41Z</time>
      </trkpt>
      <trkpt lat="46.36031549423933" lon="9.324226230382919">
        <ele>2024.1900000000001</ele>
        <time>2017-06-18T13:38:51Z</time>
      </trkpt>
      <trkpt lat="46.360297976061702" lon="9.324273336678743">
        <ele>2023.71</ele>
        <time>2017-06-18T13:38:54Z</time>
      </trkpt>
      <trkpt lat="46.360222455114126" lon="9.324357742443681">
        <ele>2022.27</ele>
        <time>2017-06-18T13:39:05Z</time>
      </trkpt>
      <trkpt lat="46.360128745436668" lon="9.324446842074394">
        <ele>2019.8699999999999</ele>
        <time>2017-06-18T13:39:16Z</time>
      </trkpt>
      <trkpt lat="46.360081806778908" lon="9.32458832859993">
        <ele>2017.46</ele>
        <time>2017-06-18T13:39:29Z</time>
      </trkpt>
      <trkpt lat="46.360080633312464" lon="9.324620263651013">
        <ele>2016.5</ele>
        <time>2017-06-18T13:39:32Z</time>
      </trkpt>
      <trkpt lat="46.360049871727824" lon="9.324823776260018">
        <ele>2013.6199999999999</ele>
        <time>2017-06-18T13:39:49Z</time>
      </trkpt>
      <trkpt lat="46.360035203397274" lon="9.324981356039643">
        <ele>2012.1800000000001</ele>
        <time>2017-06-18T13:40:01Z</time>
      </trkpt>
      <trkpt lat="46.360034113749862" lon="9.32503835298121">
        <ele>2011.7</ele>
        <time>2017-06-18T13:40:06Z</time>
      </trkpt>
      <trkpt lat="46.360001089051366" lon="9.325211774557829">
        <ele>2008.8099999999999</ele>
        <time>2017-06-18T13:40:19Z</time>
      </trkpt>
      <trkpt lat="46.359965549781919" lon="9.325237087905407">
        <ele>2007.3699999999999</ele>
        <time>2017-06-18T13:40:27Z</time>
      </trkpt>
      <trkpt lat="46.359940320253372" lon="9.325167769566178">
        <ele>2005.9300000000001</ele>
        <time>2017-06-18T13:40:36Z</time>
      </trkpt>
      <trkpt lat="46.35991333052516" lon="9.325065426528454">
        <ele>2003.52</ele>
        <time>2017-06-18T13:40:47Z</time>
      </trkpt>
      <trkpt lat="46.359914587810636" lon="9.325135834515095">
        <ele>2002.5599999999999</ele>
        <time>2017-06-18T13:40:55Z</time>
      </trkpt>
      <trkpt lat="46.359861614182591" lon="9.325239770114422">
        <ele>2000.1600000000001</ele>
        <time>2017-06-18T13:41:08Z</time>
      </trkpt>
      <trkpt lat="46.359856082126498" lon="9.32522501796484">
        <ele>2000.1600000000001</ele>
        <time>2017-06-18T13:41:10Z</time>
      </trkpt>
      <trkpt lat="46.359835881739855" lon="9.325091410428286">
        <ele>1997.76</ele>
        <time>2017-06-18T13:41:22Z</time>
      </trkpt>
      <trkpt lat="46.359785003587604" lon="9.325082022696734">
        <ele>1996.8</ele>
        <time>2017-06-18T13:41:34Z</time>
      </trkpt>
      <trkpt lat="46.359784500673413" lon="9.325195513665676">
        <ele>1994.3900000000001</ele>
        <time>2017-06-18T13:41:46Z</time>
      </trkpt>
      <trkpt lat="46.359749129042029" lon="9.32529148645699">
        <ele>1991.51</ele>
        <time>2017-06-18T13:41:59Z</time>
      </trkpt>
      <trkpt lat="46.359739992767572" lon="9.325308836996555">
        <ele>1991.03</ele>
        <time>2017-06-18T13:42:01Z</time>
      </trkpt>
      <trkpt lat="46.359699089080095" lon="9.325182354077697">
        <ele>1988.6199999999999</ele>
        <time>2017-06-18T13:42:12Z</time>
      </trkpt>
      <trkpt lat="46.35966656729579" lon="9.325093254446983">
        <ele>1986.22</ele>
        <time>2017-06-18T13:42:23Z</time>
      </trkpt>
      <trkpt lat="46.359636140987277" lon="9.325098535045981">
        <ele>1984.78</ele>
        <time>2017-06-18T13:42:34Z</time>
      </trkpt>
      <trkpt lat="46.359621053561568" lon="9.325116220861673">
        <ele>1984.3</ele>
        <time>2017-06-18T13:42:36Z</time>
      </trkpt>
      <trkpt lat="46.359594650566578" lon="9.325265083462">
        <ele>1981.9000000000001</ele>
        <time>2017-06-18T13:42:49Z</time>
      </trkpt>
      <trkpt lat="46.359557518735528" lon="9.325213618576527">
        <ele>1979.97</ele>
        <time>2017-06-18T13:43:00Z</time>
      </trkpt>
      <trkpt lat="46.359546957537532" lon="9.325157711282373">
        <ele>1978.53</ele>
        <time>2017-06-18T13:43:04Z</time>
      </trkpt>
      <trkpt lat="46.35954150930047" lon="9.325021086260676">
        <ele>1977.5699999999999</ele>
        <time>2017-06-18T13:43:15Z</time>
      </trkpt>
      <trkpt lat="46.359524410218" lon="9.324960066005588">
        <ele>1976.6099999999999</ele>
        <time>2017-06-18T13:43:26Z</time>
      </trkpt>
      <trkpt lat="46.359520303085446" lon="9.324970291927457">
        <ele>1976.6099999999999</ele>
        <time>2017-06-18T13:43:27Z</time>
      </trkpt>
      <trkpt lat="46.359467916190624" lon="9.325093338266015">
        <ele>1974.2</ele>
        <time>2017-06-18T13:43:39Z</time>
      </trkpt>
      <trkpt lat="46.359433047473431" lon="9.325115717947483">
        <ele>1972.76</ele>
        <time>2017-06-18T13:43:47Z</time>
      </trkpt>
      <trkpt lat="46.359450984746218" lon="9.324909523129463">
        <ele>1971.3199999999999</ele>
        <time>2017-06-18T13:44:00Z</time>
      </trkpt>
      <trkpt lat="46.359457606449723" lon="9.324801480397582">
        <ele>1970.8399999999999</ele>
        <time>2017-06-18T13:44:10Z</time>
      </trkpt>
      <trkpt lat="46.359432796016335" lon="9.324745824560523">
        <ele>1970.3599999999999</ele>
        <time>2017-06-18T13:44:17Z</time>
      </trkpt>
      <trkpt lat="46.359422821551561" lon="9.324719589203596">
        <ele>1968.9200000000001</ele>
        <time>2017-06-18T13:44:20Z</time>
      </trkpt>
      <trkpt lat="46.359411673620343" lon="9.324752613902092">
        <ele>1967.96</ele>
        <time>2017-06-18T13:44:27Z</time>
      </trkpt>
      <trkpt lat="46.359356353059411" lon="9.324840791523457">
        <ele>1966.51</ele>
        <time>2017-06-18T13:44:38Z</time>
      </trkpt>
      <trkpt lat="46.359330033883452" lon="9.324836852028966">
        <ele>1966.51</ele>
        <time>2017-06-18T13:44:49Z</time>
      </trkpt>
      <trkpt lat="46.359302792698145" lon="9.324867948889732">
        <ele>1963.6300000000001</ele>
        <time>2017-06-18T13:44:54Z</time>
      </trkpt>
      <trkpt lat="46.359296422451735" lon="9.324869960546494">
        <ele>1963.6300000000001</ele>
        <time>2017-06-18T13:44:55Z</time>
      </trkpt>
      <trkpt lat="46.359286783263087" lon="9.324878510087729">
        <ele>1963.6300000000001</ele>
        <time>2017-06-18T13:44:59Z</time>
      </trkpt>
      <trkpt lat="46.359239760786295" lon="9.324976410716772">
        <ele>1961.23</ele>
        <time>2017-06-18T13:45:10Z</time>
      </trkpt>
      <trkpt lat="46.359209502115846" lon="9.324988061562181">
        <ele>1959.3</ele>
        <time>2017-06-18T13:45:15Z</time>
      </trkpt>
      <trkpt lat="46.35919164866209" lon="9.324900470674038">
        <ele>1956.9000000000001</ele>
        <time>2017-06-18T13:45:26Z</time>
      </trkpt>
      <trkpt lat="46.359166502952576" lon="9.324800474569202">
        <ele>1955.9400000000001</ele>
        <time>2017-06-18T13:45:37Z</time>
      </trkpt>
      <trkpt lat="46.359159210696816" lon="9.324825620278716">
        <ele>1955.46</ele>
        <time>2017-06-18T13:45:41Z</time>
      </trkpt>
      <trkpt lat="46.359135741367936" lon="9.324928466230631">
        <ele>1953.54</ele>
        <time>2017-06-18T13:45:51Z</time>
      </trkpt>
      <trkpt lat="46.359097436070442" lon="9.325015554204583">
        <ele>1951.6099999999999</ele>
        <time>2017-06-18T13:46:01Z</time>
      </trkpt>
      <trkpt lat="46.359042283147573" lon="9.324973560869694">
        <ele>1949.6900000000001</ele>
        <time>2017-06-18T13:46:11Z</time>
      </trkpt>
      <trkpt lat="46.359041780233383" lon="9.324953025206924">
        <ele>1949.21</ele>
        <time>2017-06-18T13:46:22Z</time>
      </trkpt>
      <trkpt lat="46.359034152701497" lon="9.324938608333468">
        <ele>1948.73</ele>
        <time>2017-06-18T13:46:24Z</time>
      </trkpt>
      <trkpt lat="46.359009090811014" lon="9.324850179255009">
        <ele>1946.8099999999999</ele>
        <time>2017-06-18T13:46:31Z</time>
      </trkpt>
      <trkpt lat="46.358970366418362" lon="9.324708441272378">
        <ele>1942.96</ele>
        <time>2017-06-18T13:46:42Z</time>
      </trkpt>
      <trkpt lat="46.358947064727545" lon="9.324642810970545">
        <ele>1942</ele>
        <time>2017-06-18T13:46:49Z</time>
      </trkpt>
      <trkpt lat="46.358939940109849" lon="9.32446762919426">
        <ele>1940.5599999999999</ele>
        <time>2017-06-18T13:47:01Z</time>
      </trkpt>
      <trkpt lat="46.35893021710217" lon="9.324347097426653">
        <ele>1939.1199999999999</ele>
        <time>2017-06-18T13:47:12Z</time>
      </trkpt>
      <trkpt lat="46.358911022543907" lon="9.324228409677744">
        <ele>1940.0799999999999</ele>
        <time>2017-06-18T13:47:22Z</time>
      </trkpt>
      <trkpt lat="46.358881099149585" lon="9.324113158509135">
        <ele>1941.04</ele>
        <time>2017-06-18T13:47:33Z</time>
      </trkpt>
      <trkpt lat="46.358860060572624" lon="9.324034536257386">
        <ele>1942</ele>
        <time>2017-06-18T13:47:42Z</time>
      </trkpt>
      <trkpt lat="46.358846062794328" lon="9.323965385556221">
        <ele>1942.96</ele>
        <time>2017-06-18T13:47:53Z</time>
      </trkpt>
      <trkpt lat="46.358845224604011" lon="9.323937306180596">
        <ele>1942.48</ele>
        <time>2017-06-18T13:48:01Z</time>
      </trkpt>
      <trkpt lat="46.358818653970957" lon="9.32378844358027">
        <ele>1943.4400000000001</ele>
        <time>2017-06-18T13:48:13Z</time>
      </trkpt>
      <trkpt lat="46.358807757496834" lon="9.323656596243382">
        <ele>1942.96</ele>
        <time>2017-06-18T13:48:23Z</time>
      </trkpt>
      <trkpt lat="46.358792334794998" lon="9.323525838553906">
        <ele>1939.5999999999999</ele>
        <time>2017-06-18T13:48:35Z</time>
      </trkpt>
      <trkpt lat="46.358785796910524" lon="9.323414610698819">
        <ele>1938.1600000000001</ele>
        <time>2017-06-18T13:48:45Z</time>
      </trkpt>
      <trkpt lat="46.358770541846752" lon="9.323464818298817">
        <ele>1936.71</ele>
        <time>2017-06-18T13:48:54Z</time>
      </trkpt>
      <trkpt lat="46.358737181872129" lon="9.323579398915172">
        <ele>1934.79</ele>
        <time>2017-06-18T13:49:05Z</time>
      </trkpt>
      <trkpt lat="46.358728967607021" lon="9.323712000623345">
        <ele>1932.3900000000001</ele>
        <time>2017-06-18T13:49:18Z</time>
      </trkpt>
      <trkpt lat="46.358727039769292" lon="9.323837896808982">
        <ele>1930.95</ele>
        <time>2017-06-18T13:49:30Z</time>
      </trkpt>
      <trkpt lat="46.35868932120502" lon="9.323812164366245">
        <ele>1929.02</ele>
        <time>2017-06-18T13:49:38Z</time>
      </trkpt>
      <trkpt lat="46.358649842441082" lon="9.323680987581611">
        <ele>1928.0599999999999</ele>
        <time>2017-06-18T13:49:49Z</time>
      </trkpt>
      <trkpt lat="46.358637940138578" lon="9.323527095839381">
        <ele>1926.6199999999999</ele>
        <time>2017-06-18T13:50:00Z</time>
      </trkpt>
      <trkpt lat="46.358640622347593" lon="9.323408575728536">
        <ele>1926.6199999999999</ele>
        <time>2017-06-18T13:50:08Z</time>
      </trkpt>
      <trkpt lat="46.358619835227728" lon="9.32330958545208">
        <ele>1926.1400000000001</ele>
        <time>2017-06-18T13:50:16Z</time>
      </trkpt>
      <trkpt lat="46.35859158821404" lon="9.323235908523202">
        <ele>1925.1800000000001</ele>
        <time>2017-06-18T13:50:24Z</time>
      </trkpt>
      <trkpt lat="46.358584631234407" lon="9.323055362328887">
        <ele>1923.74</ele>
        <time>2017-06-18T13:50:37Z</time>
      </trkpt>
      <trkpt lat="46.358584882691503" lon="9.322904488071799">
        <ele>1922.77</ele>
        <time>2017-06-18T13:50:49Z</time>
      </trkpt>
      <trkpt lat="46.358591001480818" lon="9.322854029014707">
        <ele>1922.77</ele>
        <time>2017-06-18T13:50:59Z</time>
      </trkpt>
      <trkpt lat="46.35858865454793" lon="9.322814466431737">
        <ele>1922.29</ele>
        <time>2017-06-18T13:51:10Z</time>
      </trkpt>
      <trkpt lat="46.358552612364292" lon="9.322800803929567">
        <ele>1920.8499999999999</ele>
        <time>2017-06-18T13:51:21Z</time>
      </trkpt>
      <trkpt lat="46.358553702011704" lon="9.322814969345927">
        <ele>1920.8499999999999</ele>
        <time>2017-06-18T13:51:28Z</time>
      </trkpt>
      <trkpt lat="46.358548756688833" lon="9.322842797264457">
        <ele>1920.3699999999999</ele>
        <time>2017-06-18T13:51:31Z</time>
      </trkpt>
      <trkpt lat="46.35849972255528" lon="9.322907170280814">
        <ele>1917.97</ele>
        <time>2017-06-18T13:51:42Z</time>
      </trkpt>
      <trkpt lat="46.358404168859124" lon="9.322879677638412">
        <ele>1915.5599999999999</ele>
        <time>2017-06-18T13:51:54Z</time>
      </trkpt>
      <trkpt lat="46.358367037028074" lon="9.322897111997008">
        <ele>1913.6400000000001</ele>
        <time>2017-06-18T13:52:03Z</time>
      </trkpt>
      <trkpt lat="46.358397547155619" lon="9.322908259928227">
        <ele>1913.6400000000001</ele>
        <time>2017-06-18T13:52:12Z</time>
      </trkpt>
      <trkpt lat="46.358428308740258" lon="9.32297975756228">
        <ele>1913.1600000000001</ele>
        <time>2017-06-18T13:52:21Z</time>
      </trkpt>
      <trkpt lat="46.358402157202363" lon="9.323120070621371">
        <ele>1909.3199999999999</ele>
        <time>2017-06-18T13:52:35Z</time>
      </trkpt>
      <trkpt lat="46.358354883268476" lon="9.32320355437696">
        <ele>1907.3900000000001</ele>
        <time>2017-06-18T13:52:45Z</time>
      </trkpt>
      <trkpt lat="46.358279278501868" lon="9.323321990668774">
        <ele>1906.4300000000001</ele>
        <time>2017-06-18T13:52:56Z</time>
      </trkpt>
      <trkpt lat="46.358209708705544" lon="9.323482671752572">
        <ele>1905.47</ele>
        <time>2017-06-18T13:53:09Z</time>
      </trkpt>
      <trkpt lat="46.358219431713223" lon="9.323631953448057">
        <ele>1906.4300000000001</ele>
        <time>2017-06-18T13:53:21Z</time>
      </trkpt>
      <trkpt lat="46.358240554109216" lon="9.323824737221003">
        <ele>1906.9100000000001</ele>
        <time>2017-06-18T13:53:34Z</time>
      </trkpt>
      <trkpt lat="46.358255557715893" lon="9.323927080258727">
        <ele>1905.95</ele>
        <time>2017-06-18T13:53:41Z</time>
      </trkpt>
      <trkpt lat="46.358305010944605" lon="9.323992794379592">
        <ele>1905.95</ele>
        <time>2017-06-18T13:53:55Z</time>
      </trkpt>
      <trkpt lat="46.358365612104535" lon="9.324039565399289">
        <ele>1904.51</ele>
        <time>2017-06-18T13:54:04Z</time>
      </trkpt>
      <trkpt lat="46.358369719237089" lon="9.324098071083427">
        <ele>1903.0699999999999</ele>
        <time>2017-06-18T13:54:14Z</time>
      </trkpt>
      <trkpt lat="46.358397463336587" lon="9.324098490178585">
        <ele>1901.6300000000001</ele>
        <time>2017-06-18T13:54:24Z</time>
      </trkpt>
      <trkpt lat="46.358432918787003" lon="9.324138974770904">
        <ele>1900.1800000000001</ele>
        <time>2017-06-18T13:54:30Z</time>
      </trkpt>
      <trkpt lat="46.358488155528903" lon="9.324219943955541">
        <ele>1898.26</ele>
        <time>2017-06-18T13:54:38Z</time>
      </trkpt>
      <trkpt lat="46.358568454161286" lon="9.324385235086083">
        <ele>1897.3</ele>
        <time>2017-06-18T13:54:52Z</time>
      </trkpt>
      <trkpt lat="46.358570884913206" lon="9.324535438790917">
        <ele>1895.8599999999999</ele>
        <time>2017-06-18T13:55:03Z</time>
      </trkpt>
      <trkpt lat="46.358516067266464" lon="9.324666447937489">
        <ele>1893.45</ele>
        <time>2017-06-18T13:55:15Z</time>
      </trkpt>
      <trkpt lat="46.358444150537252" lon="9.32475202716887">
        <ele>1892.01</ele>
        <time>2017-06-18T13:55:28Z</time>
      </trkpt>
      <trkpt lat="46.358375586569309" lon="9.324772479012609">
        <ele>1890.0899999999999</ele>
        <time>2017-06-18T13:55:39Z</time>
      </trkpt>
      <trkpt lat="46.358343400061131" lon="9.324794271960855">
        <ele>1888.6500000000001</ele>
        <time>2017-06-18T13:55:45Z</time>
      </trkpt>
      <trkpt lat="46.358322529122233" lon="9.324898291379213">
        <ele>1887.21</ele>
        <time>2017-06-18T13:55:56Z</time>
      </trkpt>
      <trkpt lat="46.358285648748279" lon="9.324890580028296">
        <ele>1886.72</ele>
        <time>2017-06-18T13:56:05Z</time>
      </trkpt>
      <trkpt lat="46.35826519690454" lon="9.32485026307404">
        <ele>1885.28</ele>
        <time>2017-06-18T13:56:15Z</time>
      </trkpt>
      <trkpt lat="46.358288498595357" lon="9.324717409908772">
        <ele>1883.8399999999999</ele>
        <time>2017-06-18T13:56:26Z</time>
      </trkpt>
      <trkpt lat="46.358294114470482" lon="9.324704837054014">
        <ele>1883.8399999999999</ele>
        <time>2017-06-18T13:56:27Z</time>
      </trkpt>
      <trkpt lat="46.358301490545273" lon="9.324655551463366">
        <ele>1881.4400000000001</ele>
        <time>2017-06-18T13:56:40Z</time>
      </trkpt>
      <trkpt lat="46.358288582414389" lon="9.324670219793916">
        <ele>1881.4400000000001</ele>
        <time>2017-06-18T13:56:42Z</time>
      </trkpt>
      <trkpt lat="46.358207864686847" lon="9.32478278875351">
        <ele>1879.51</ele>
        <time>2017-06-18T13:56:55Z</time>
      </trkpt>
      <trkpt lat="46.358166374266148" lon="9.324746746569872">
        <ele>1878.55</ele>
        <time>2017-06-18T13:57:03Z</time>
      </trkpt>
      <trkpt lat="46.358164194971323" lon="9.324731742963195">
        <ele>1878.0699999999999</ele>
        <time>2017-06-18T13:57:04Z</time>
      </trkpt>
      <trkpt lat="46.358200823888183" lon="9.324641469866037">
        <ele>1876.6300000000001</ele>
        <time>2017-06-18T13:57:13Z</time>
      </trkpt>
      <trkpt lat="46.358221862465143" lon="9.324527140706778">
        <ele>1874.71</ele>
        <time>2017-06-18T13:57:22Z</time>
      </trkpt>
      <trkpt lat="46.358192777261138" lon="9.324502497911453">
        <ele>1873.75</ele>
        <time>2017-06-18T13:57:32Z</time>
      </trkpt>
      <trkpt lat="46.358156315982342" lon="9.324594782665372">
        <ele>1871.8199999999999</ele>
        <time>2017-06-18T13:57:44Z</time>
      </trkpt>
      <trkpt lat="46.358151203021407" lon="9.324602326378226">
        <ele>1871.3399999999999</ele>
        <time>2017-06-18T13:57:46Z</time>
      </trkpt>
      <trkpt lat="46.358129242435098" lon="9.324558908119798">
        <ele>1869.4200000000001</ele>
        <time>2017-06-18T13:57:54Z</time>
      </trkpt>
      <trkpt lat="46.358125386759639" lon="9.324406441301107">
        <ele>1868.9400000000001</ele>
        <time>2017-06-18T13:58:05Z</time>
      </trkpt>
      <trkpt lat="46.358101330697536" lon="9.324335614219308">
        <ele>1867.5</ele>
        <time>2017-06-18T13:58:17Z</time>
      </trkpt>
      <trkpt lat="46.358078196644783" lon="9.324370231479406">
        <ele>1866.0599999999999</ele>
        <time>2017-06-18T13:58:26Z</time>
      </trkpt>
      <trkpt lat="46.358048021793365" lon="9.324468215927482">
        <ele>1864.1300000000001</ele>
        <time>2017-06-18T13:58:36Z</time>
      </trkpt>
      <trkpt lat="46.358010470867157" lon="9.324601236730814">
        <ele>1862.6900000000001</ele>
        <time>2017-06-18T13:58:48Z</time>
      </trkpt>
      <trkpt lat="46.357953473925591" lon="9.324605260044336">
        <ele>1860.77</ele>
        <time>2017-06-18T13:58:59Z</time>
      </trkpt>
      <trkpt lat="46.357913827523589" lon="9.324575671926141">
        <ele>1858.3699999999999</ele>
        <time>2017-06-18T13:59:14Z</time>
      </trkpt>
      <trkpt lat="46.357870241627097" lon="9.324702825397253">
        <ele>1855.48</ele>
        <time>2017-06-18T13:59:29Z</time>
      </trkpt>
      <trkpt lat="46.357816681265831" lon="9.324714811518788">
        <ele>1853.0799999999999</ele>
        <time>2017-06-18T13:59:44Z</time>
      </trkpt>
      <trkpt lat="46.357788434252143" lon="9.324545245617628">
        <ele>1851.1600000000001</ele>
        <time>2017-06-18T13:59:59Z</time>
      </trkpt>
      <trkpt lat="46.357805952429771" lon="9.324412560090423">
        <ele>1849.23</ele>
        <time>2017-06-18T14:00:12Z</time>
      </trkpt>
      <trkpt lat="46.357764294371009" lon="9.324356317520142">
        <ele>1846.8299999999999</ele>
        <time>2017-06-18T14:00:27Z</time>
      </trkpt>
      <trkpt lat="46.357707297429442" lon="9.324260177090764">
        <ele>1843.95</ele>
        <time>2017-06-18T14:00:41Z</time>
      </trkpt>
      <trkpt lat="46.357711656019092" lon="9.324249280616641">
        <ele>1843.47</ele>
        <time>2017-06-18T14:00:51Z</time>
      </trkpt>
      <trkpt lat="46.357696149498224" lon="9.324310049414635">
        <ele>1842.5</ele>
        <time>2017-06-18T14:00:59Z</time>
      </trkpt>
      <trkpt lat="46.35765734128654" lon="9.32442270219326">
        <ele>1841.54</ele>
        <time>2017-06-18T14:01:08Z</time>
      </trkpt>
      <trkpt lat="46.357605373486876" lon="9.324545916169882">
        <ele>1838.6600000000001</ele>
        <time>2017-06-18T14:01:22Z</time>
      </trkpt>
      <trkpt lat="46.357576958835125" lon="9.324478441849351">
        <ele>1837.22</ele>
        <time>2017-06-18T14:01:28Z</time>
      </trkpt>
      <trkpt lat="46.357560865581036" lon="9.324439465999603">
        <ele>1836.74</ele>
        <time>2017-06-18T14:01:32Z</time>
      </trkpt>
      <trkpt lat="46.357511160895228" lon="9.324268978089094">
        <ele>1834.8099999999999</ele>
        <time>2017-06-18T14:01:45Z</time>
      </trkpt>
      <trkpt lat="46.35748584754765" lon="9.324195301160216">
        <ele>1833.3699999999999</ele>
        <time>2017-06-18T14:01:55Z</time>
      </trkpt>
      <trkpt lat="46.357465060427785" lon="9.324297392740846">
        <ele>1831.45</ele>
        <time>2017-06-18T14:02:06Z</time>
      </trkpt>
      <trkpt lat="46.357443770393729" lon="9.324416415765882">
        <ele>1829.53</ele>
        <time>2017-06-18T14:02:18Z</time>
      </trkpt>
      <trkpt lat="46.357447626069188" lon="9.324446255341172">
        <ele>1829.05</ele>
        <time>2017-06-18T14:02:21Z</time>
      </trkpt>
      <trkpt lat="46.357426503673196" lon="9.324579862877727">
        <ele>1827.1199999999999</ele>
        <time>2017-06-18T14:02:33Z</time>
      </trkpt>
      <trkpt lat="46.357384761795402" lon="9.324658401310444">
        <ele>1824.72</ele>
        <time>2017-06-18T14:02:43Z</time>
      </trkpt>
      <trkpt lat="46.357359113171697" lon="9.324757978320122">
        <ele>1822.3199999999999</ele>
        <time>2017-06-18T14:02:56Z</time>
      </trkpt>
      <trkpt lat="46.357315191999078" lon="9.324813047423959">
        <ele>1820.8699999999999</ele>
        <time>2017-06-18T14:03:07Z</time>
      </trkpt>
      <trkpt lat="46.357307061553001" lon="9.324828973039985">
        <ele>1819.9100000000001</ele>
        <time>2017-06-18T14:03:15Z</time>
      </trkpt>
      <trkpt lat="46.357257440686226" lon="9.324911031872034">
        <ele>1817.03</ele>
        <time>2017-06-18T14:03:26Z</time>
      </trkpt>
      <trkpt lat="46.357231792062521" lon="9.324840120971203">
        <ele>1815.5899999999999</ele>
        <time>2017-06-18T14:03:36Z</time>
      </trkpt>
      <trkpt lat="46.357213016599417" lon="9.324795696884394">
        <ele>1813.6600000000001</ele>
        <time>2017-06-18T14:03:46Z</time>
      </trkpt>
      <trkpt lat="46.357152834534645" lon="9.324844479560852">
        <ele>1811.26</ele>
        <time>2017-06-18T14:03:59Z</time>
      </trkpt>
      <trkpt lat="46.35710371658206" lon="9.324808018282056">
        <ele>1809.3399999999999</ele>
        <time>2017-06-18T14:04:10Z</time>
      </trkpt>
      <trkpt lat="46.357119893655181" lon="9.324691677466035">
        <ele>1807.9000000000001</ele>
        <time>2017-06-18T14:04:22Z</time>
      </trkpt>
      <trkpt lat="46.357102459296584" lon="9.324649265035987">
        <ele>1806.45</ele>
        <time>2017-06-18T14:04:31Z</time>
      </trkpt>
      <trkpt lat="46.357080917805433" lon="9.324679272249341">
        <ele>1805.01</ele>
        <time>2017-06-18T14:04:42Z</time>
      </trkpt>
      <trkpt lat="46.357057699933648" lon="9.324688827618957">
        <ele>1804.05</ele>
        <time>2017-06-18T14:04:52Z</time>
      </trkpt>
      <trkpt lat="46.357030961662531" lon="9.324627052992582">
        <ele>1802.1300000000001</ele>
        <time>2017-06-18T14:05:03Z</time>
      </trkpt>
      <trkpt lat="46.357068428769708" lon="9.324489925056696">
        <ele>1799.73</ele>
        <time>2017-06-18T14:05:15Z</time>
      </trkpt>
      <trkpt lat="46.357031380757689" lon="9.324532588943839">
        <ele>1798.76</ele>
        <time>2017-06-18T14:05:25Z</time>
      </trkpt>
      <trkpt lat="46.357007743790746" lon="9.324498474597931">
        <ele>1796.8399999999999</ele>
        <time>2017-06-18T14:05:37Z</time>
      </trkpt>
      <trkpt lat="46.357010006904602" lon="9.324455391615629">
        <ele>1796.3599999999999</ele>
        <time>2017-06-18T14:05:41Z</time>
      </trkpt>
      <trkpt lat="46.357045629993081" lon="9.32433133944869">
        <ele>1793.96</ele>
        <time>2017-06-18T14:05:53Z</time>
      </trkpt>
      <trkpt lat="46.357018891721964" lon="9.324291525408626">
        <ele>1792.52</ele>
        <time>2017-06-18T14:06:04Z</time>
      </trkpt>
      <trkpt lat="46.356980670243502" lon="9.324257494881749">
        <ele>1790.5899999999999</ele>
        <time>2017-06-18T14:06:14Z</time>
      </trkpt>
      <trkpt lat="46.356978071853518" lon="9.324264954775572">
        <ele>1790.5899999999999</ele>
        <time>2017-06-18T14:06:16Z</time>
      </trkpt>
      <trkpt lat="46.356957955285907" lon="9.324216758832336">
        <ele>1789.1500000000001</ele>
        <time>2017-06-18T14:06:26Z</time>
      </trkpt>
      <trkpt lat="46.356927696615458" lon="9.324239641427994">
        <ele>1786.75</ele>
        <time>2017-06-18T14:06:36Z</time>
      </trkpt>
      <trkpt lat="46.356888134032488" lon="9.324265206232667">
        <ele>1785.3099999999999</ele>
        <time>2017-06-18T14:06:45Z</time>
      </trkpt>
      <trkpt lat="46.356883943080902" lon="9.324168311432004">
        <ele>1783.8599999999999</ele>
        <time>2017-06-18T14:06:56Z</time>
      </trkpt>
      <trkpt lat="46.356886373832822" lon="9.324187086895108">
        <ele>1783.8599999999999</ele>
        <time>2017-06-18T14:07:09Z</time>
      </trkpt>
      <trkpt lat="46.35687748901546" lon="9.32417593896389">
        <ele>1783.3800000000001</ele>
        <time>2017-06-18T14:07:24Z</time>
      </trkpt>
      <trkpt lat="46.356863491237164" lon="9.324179878458381">
        <ele>1783.3800000000001</ele>
        <time>2017-06-18T14:07:37Z</time>
      </trkpt>
      <trkpt lat="46.356838764622808" lon="9.324211729690433">
        <ele>1781.9400000000001</ele>
        <time>2017-06-18T14:07:47Z</time>
      </trkpt>
      <trkpt lat="46.356821162626147" lon="9.324120869860053">
        <ele>1780.5</ele>
        <time>2017-06-18T14:07:57Z</time>
      </trkpt>
      <trkpt lat="46.356796938925982" lon="9.324180716648698">
        <ele>1779.54</ele>
        <time>2017-06-18T14:08:07Z</time>
      </trkpt>
      <trkpt lat="46.356769278645515" lon="9.324277695268393">
        <ele>1777.6099999999999</ele>
        <time>2017-06-18T14:08:20Z</time>
      </trkpt>
      <trkpt lat="46.356731057167053" lon="9.324339386075735">
        <ele>1775.6900000000001</ele>
        <time>2017-06-18T14:08:31Z</time>
      </trkpt>
      <trkpt lat="46.35671035386622" lon="9.324394874274731">
        <ele>1774.73</ele>
        <time>2017-06-18T14:08:42Z</time>
      </trkpt>
      <trkpt lat="46.356663582846522" lon="9.324391186237335">
        <ele>1773.29</ele>
        <time>2017-06-18T14:08:51Z</time>
      </trkpt>
      <trkpt lat="46.356656961143017" lon="9.32449160143733">
        <ele>1771.3699999999999</ele>
        <time>2017-06-18T14:09:02Z</time>
      </trkpt>
      <trkpt lat="46.356606669723988" lon="9.324441310018301">
        <ele>1769.4400000000001</ele>
        <time>2017-06-18T14:09:13Z</time>
      </trkpt>
      <trkpt lat="46.356577919796109" lon="9.324434688314796">
        <ele>1767.52</ele>
        <time>2017-06-18T14:09:26Z</time>
      </trkpt>
      <trkpt lat="46.356538608670235" lon="9.32442513294518">
        <ele>1766.0799999999999</ele>
        <time>2017-06-18T14:09:35Z</time>
      </trkpt>
      <trkpt lat="46.356531400233507" lon="9.32441440410912">
        <ele>1765.5999999999999</ele>
        <time>2017-06-18T14:09:36Z</time>
      </trkpt>
      <trkpt lat="46.356505751609802" lon="9.324389006942511">
        <ele>1764.1600000000001</ele>
        <time>2017-06-18T14:09:47Z</time>
      </trkpt>
      <trkpt lat="46.356471050530672" lon="9.32448179461062">
        <ele>1762.23</ele>
        <time>2017-06-18T14:09:58Z</time>
      </trkpt>
      <trkpt lat="46.35646753013134" lon="9.324598470702767">
        <ele>1760.3099999999999</ele>
        <time>2017-06-18T14:10:10Z</time>
      </trkpt>
      <trkpt lat="46.356445401906967" lon="9.324626801535487">
        <ele>1759.8299999999999</ele>
        <time>2017-06-18T14:10:14Z</time>
      </trkpt>
      <trkpt lat="46.356396535411477" lon="9.324685307219625">
        <ele>1757.4300000000001</ele>
        <time>2017-06-18T14:10:25Z</time>
      </trkpt>
      <trkpt lat="46.35634733363986" lon="9.324787063524127">
        <ele>1755.02</ele>
        <time>2017-06-18T14:10:38Z</time>
      </trkpt>
      <trkpt lat="46.356322271749377" lon="9.324882868677378">
        <ele>1753.0999999999999</ele>
        <time>2017-06-18T14:10:49Z</time>
      </trkpt>
      <trkpt lat="46.356287067756057" lon="9.324827883392572">
        <ele>1752.1400000000001</ele>
        <time>2017-06-18T14:10:57Z</time>
      </trkpt>
      <trkpt lat="46.356281284242868" lon="9.324713135138154">
        <ele>1750.22</ele>
        <time>2017-06-18T14:11:07Z</time>
      </trkpt>
      <trkpt lat="46.356274494901299" lon="9.324794188141823">
        <ele>1748.78</ele>
        <time>2017-06-18T14:11:18Z</time>
      </trkpt>
      <trkpt lat="46.356248175725341" lon="9.324684133753181">
        <ele>1747.3299999999999</ele>
        <time>2017-06-18T14:11:29Z</time>
      </trkpt>
      <trkpt lat="46.356235602870584" lon="9.324590591713786">
        <ele>1744.9300000000001</ele>
        <time>2017-06-18T14:11:41Z</time>
      </trkpt>
      <trkpt lat="46.356237949803472" lon="9.32451163418591">
        <ele>1743.49</ele>
        <time>2017-06-18T14:11:50Z</time>
      </trkpt>
      <trkpt lat="46.356249768286943" lon="9.324407866224647">
        <ele>1741.5699999999999</ele>
        <time>2017-06-18T14:12:01Z</time>
      </trkpt>
      <trkpt lat="46.356231495738029" lon="9.324363358318806">
        <ele>1739.6400000000001</ele>
        <time>2017-06-18T14:12:11Z</time>
      </trkpt>
      <trkpt lat="46.356199812144041" lon="9.32439872995019">
        <ele>1738.2</ele>
        <time>2017-06-18T14:12:22Z</time>
      </trkpt>
      <trkpt lat="46.356177432462573" lon="9.324345672503114">
        <ele>1736.28</ele>
        <time>2017-06-18T14:12:32Z</time>
      </trkpt>
      <trkpt lat="46.356205511838198" lon="9.324280796572566">
        <ele>1734.8399999999999</ele>
        <time>2017-06-18T14:12:41Z</time>
      </trkpt>
      <trkpt lat="46.356192100793123" lon="9.324246095493436">
        <ele>1732.9100000000001</ele>
        <time>2017-06-18T14:12:53Z</time>
      </trkpt>
      <trkpt lat="46.356211295351386" lon="9.32416764087975">
        <ele>1731.95</ele>
        <time>2017-06-18T14:13:03Z</time>
      </trkpt>
      <trkpt lat="46.356138456612825" lon="9.324156744405627">
        <ele>1729.55</ele>
        <time>2017-06-18T14:13:16Z</time>
      </trkpt>
      <trkpt lat="46.356120519340038" lon="9.324070578441024">
        <ele>1727.6300000000001</ele>
        <time>2017-06-18T14:13:27Z</time>
      </trkpt>
      <trkpt lat="46.356139462441206" lon="9.32399564422667">
        <ele>1726.6700000000001</ele>
        <time>2017-06-18T14:13:37Z</time>
      </trkpt>
      <trkpt lat="46.356083052232862" lon="9.324017101898789">
        <ele>1724.26</ele>
        <time>2017-06-18T14:13:49Z</time>
      </trkpt>
      <trkpt lat="46.356033179908991" lon="9.324058508500457">
        <ele>1722.8199999999999</ele>
        <time>2017-06-18T14:14:01Z</time>
      </trkpt>
      <trkpt lat="46.355987833812833" lon="9.324091784656048">
        <ele>1720.9000000000001</ele>
        <time>2017-06-18T14:14:12Z</time>
      </trkpt>
      <trkpt lat="46.355947852134705" lon="9.324032356962562">
        <ele>1718.49</ele>
        <time>2017-06-18T14:14:23Z</time>
      </trkpt>
      <trkpt lat="46.355911223217845" lon="9.323940994217992">
        <ele>1715.6099999999999</ele>
        <time>2017-06-18T14:14:36Z</time>
      </trkpt>
      <trkpt lat="46.355911390855908" lon="9.323936132714152">
        <ele>1715.6099999999999</ele>
        <time>2017-06-18T14:14:37Z</time>
      </trkpt>
      <trkpt lat="46.355947768315673" lon="9.323802692815661">
        <ele>1715.1300000000001</ele>
        <time>2017-06-18T14:14:50Z</time>
      </trkpt>
      <trkpt lat="46.35590854100883" lon="9.323704037815332">
        <ele>1712.25</ele>
        <time>2017-06-18T14:15:03Z</time>
      </trkpt>
      <trkpt lat="46.35591340251267" lon="9.323604041710496">
        <ele>1710.3199999999999</ele>
        <time>2017-06-18T14:15:16Z</time>
      </trkpt>
      <trkpt lat="46.355881048366427" lon="9.32359884493053">
        <ele>1709.3599999999999</ele>
        <time>2017-06-18T14:15:25Z</time>
      </trkpt>
      <trkpt lat="46.355826733633876" lon="9.323574537411332">
        <ele>1707.9200000000001</ele>
        <time>2017-06-18T14:15:36Z</time>
      </trkpt>
      <trkpt lat="46.355803264304996" lon="9.323619548231363">
        <ele>1705.04</ele>
        <time>2017-06-18T14:15:48Z</time>
      </trkpt>
      <trkpt lat="46.355818016454577" lon="9.323730692267418">
        <ele>1702.1500000000001</ele>
        <time>2017-06-18T14:16:03Z</time>
      </trkpt>
      <trkpt lat="46.355787757784128" lon="9.323879135772586">
        <ele>1699.75</ele>
        <time>2017-06-18T14:16:16Z</time>
      </trkpt>
      <trkpt lat="46.355749452486634" lon="9.323970833793283">
        <ele>1698.3099999999999</ele>
        <time>2017-06-18T14:16:27Z</time>
      </trkpt>
      <trkpt lat="46.355717098340392" lon="9.323919033631682">
        <ele>1696.8599999999999</ele>
        <time>2017-06-18T14:16:36Z</time>
      </trkpt>
      <trkpt lat="46.355695892125368" lon="9.323852313682437">
        <ele>1694.46</ele>
        <time>2017-06-18T14:16:48Z</time>
      </trkpt>
      <trkpt lat="46.355666052550077" lon="9.323832280933857">
        <ele>1691.5799999999999</ele>
        <time>2017-06-18T14:17:04Z</time>
      </trkpt>
      <trkpt lat="46.355633111670613" lon="9.323914255946875">
        <ele>1689.1700000000001</ele>
        <time>2017-06-18T14:17:16Z</time>
      </trkpt>
      <trkpt lat="46.355627411976457" lon="9.324011821299791">
        <ele>1687.73</ele>
        <time>2017-06-18T14:17:25Z</time>
      </trkpt>
      <trkpt lat="46.355569744482636" lon="9.324112320318818">
        <ele>1685.3299999999999</ele>
        <time>2017-06-18T14:17:38Z</time>
      </trkpt>
      <trkpt lat="46.355540994554758" lon="9.324018862098455">
        <ele>1683.4100000000001</ele>
        <time>2017-06-18T14:17:49Z</time>
      </trkpt>
      <trkpt lat="46.355496570467949" lon="9.323919871822">
        <ele>1681.48</ele>
        <time>2017-06-18T14:18:00Z</time>
      </trkpt>
      <trkpt lat="46.355483327060938" lon="9.323850050568581">
        <ele>1680.52</ele>
        <time>2017-06-18T14:18:09Z</time>
      </trkpt>
      <trkpt lat="46.355476537719369" lon="9.323736727237701">
        <ele>1678.5999999999999</ele>
        <time>2017-06-18T14:18:20Z</time>
      </trkpt>
      <trkpt lat="46.355448039248586" lon="9.323637904599309">
        <ele>1676.6800000000001</ele>
        <time>2017-06-18T14:18:31Z</time>
      </trkpt>
      <trkpt lat="46.355438567698002" lon="9.323706887662411">
        <ele>1674.75</ele>
        <time>2017-06-18T14:18:43Z</time>
      </trkpt>
      <trkpt lat="46.355400430038571" lon="9.323769249022007">
        <ele>1672.8299999999999</ele>
        <time>2017-06-18T14:18:53Z</time>
      </trkpt>
      <trkpt lat="46.355359777808189" lon="9.323831107467413">
        <ele>1670.9100000000001</ele>
        <time>2017-06-18T14:19:05Z</time>
      </trkpt>
      <trkpt lat="46.355327758938074" lon="9.32389841414988">
        <ele>1668.51</ele>
        <time>2017-06-18T14:19:19Z</time>
      </trkpt>
      <trkpt lat="46.35529825463891" lon="9.323805877938867">
        <ele>1667.0599999999999</ele>
        <time>2017-06-18T14:19:29Z</time>
      </trkpt>
      <trkpt lat="46.355267744511366" lon="9.323719460517168">
        <ele>1665.6199999999999</ele>
        <time>2017-06-18T14:19:38Z</time>
      </trkpt>
      <trkpt lat="46.355275707319379" lon="9.32377721183002">
        <ele>1664.1800000000001</ele>
        <time>2017-06-18T14:19:48Z</time>
      </trkpt>
      <trkpt lat="46.355255842208862" lon="9.323863042518497">
        <ele>1662.26</ele>
        <time>2017-06-18T14:20:00Z</time>
      </trkpt>
      <trkpt lat="46.355196246877313" lon="9.323844937607646">
        <ele>1659.8499999999999</ele>
        <time>2017-06-18T14:20:12Z</time>
      </trkpt>
      <trkpt lat="46.355164479464293" lon="9.323755921795964">
        <ele>1657.9300000000001</ele>
        <time>2017-06-18T14:20:21Z</time>
      </trkpt>
      <trkpt lat="46.355141177773476" lon="9.323757598176599">
        <ele>1656.49</ele>
        <time>2017-06-18T14:20:30Z</time>
      </trkpt>
      <trkpt lat="46.355145536363125" lon="9.323863042518497">
        <ele>1654.0899999999999</ele>
        <time>2017-06-18T14:20:44Z</time>
      </trkpt>
      <trkpt lat="46.355161461979151" lon="9.323983239009976">
        <ele>1651.6800000000001</ele>
        <time>2017-06-18T14:20:57Z</time>
      </trkpt>
      <trkpt lat="46.355146206915379" lon="9.324082648381591">
        <ele>1648.8</ele>
        <time>2017-06-18T14:21:10Z</time>
      </trkpt>
      <trkpt lat="46.355141177773476" lon="9.324175603687763">
        <ele>1647.3599999999999</ele>
        <time>2017-06-18T14:21:22Z</time>
      </trkpt>
      <trkpt lat="46.35512818582356" lon="9.324274593964219">
        <ele>1645.4300000000001</ele>
        <time>2017-06-18T14:21:34Z</time>
      </trkpt>
      <trkpt lat="46.355076301842928" lon="9.32420963421464">
        <ele>1643.51</ele>
        <time>2017-06-18T14:21:43Z</time>
      </trkpt>
      <trkpt lat="46.35503439232707" lon="9.324123803526163">
        <ele>1642.0699999999999</ele>
        <time>2017-06-18T14:21:55Z</time>
      </trkpt>
      <trkpt lat="46.354972030967474" lon="9.324076026678085">
        <ele>1639.1900000000001</ele>
        <time>2017-06-18T14:22:08Z</time>
      </trkpt>
      <trkpt lat="46.35497965849936" lon="9.32414073497057">
        <ele>1637.74</ele>
        <time>2017-06-18T14:22:19Z</time>
      </trkpt>
      <trkpt lat="46.354949399828911" lon="9.324193960055709">
        <ele>1636.3</ele>
        <time>2017-06-18T14:22:31Z</time>
      </trkpt>
      <trkpt lat="46.354896174743772" lon="9.324143584817648">
        <ele>1634.3800000000001</ele>
        <time>2017-06-18T14:22:42Z</time>
      </trkpt>
      <trkpt lat="46.354868598282337" lon="9.324052473530173">
        <ele>1632.46</ele>
        <time>2017-06-18T14:22:53Z</time>
      </trkpt>
      <trkpt lat="46.354836076498032" lon="9.323945352807641">
        <ele>1630.53</ele>
        <time>2017-06-18T14:23:04Z</time>
      </trkpt>
      <trkpt lat="46.35481252335012" lon="9.324024729430676">
        <ele>1629.5699999999999</ele>
        <time>2017-06-18T14:23:14Z</time>
      </trkpt>
      <trkpt lat="46.354776481166482" lon="9.32407770305872">
        <ele>1627.6500000000001</ele>
        <time>2017-06-18T14:23:24Z</time>
      </trkpt>
      <trkpt lat="46.354741528630257" lon="9.323968989774585">
        <ele>1626.21</ele>
        <time>2017-06-18T14:23:35Z</time>
      </trkpt>
      <trkpt lat="46.354727363213897" lon="9.323872765526176">
        <ele>1624.28</ele>
        <time>2017-06-18T14:23:46Z</time>
      </trkpt>
      <trkpt lat="46.354716718196869" lon="9.323749886825681">
        <ele>1622.3599999999999</ele>
        <time>2017-06-18T14:23:59Z</time>
      </trkpt>
      <trkpt lat="46.354679921641946" lon="9.323655841872096">
        <ele>1621.4000000000001</ele>
        <time>2017-06-18T14:24:11Z</time>
      </trkpt>
      <trkpt lat="46.35461219586432" lon="9.323587026447058">
        <ele>1621.8800000000001</ele>
        <time>2017-06-18T14:24:23Z</time>
      </trkpt>
      <trkpt lat="46.354578835889697" lon="9.32348552159965">
        <ele>1621.8800000000001</ele>
        <time>2017-06-18T14:24:31Z</time>
      </trkpt>
      <trkpt lat="46.354532819241285" lon="9.323401618748903">
        <ele>1619.96</ele>
        <time>2017-06-18T14:24:42Z</time>
      </trkpt>
      <trkpt lat="46.354470374062657" lon="9.323320398107171">
        <ele>1618.04</ele>
        <time>2017-06-18T14:24:53Z</time>
      </trkpt>
      <trkpt lat="46.354413880035281" lon="9.323281673714519">
        <ele>1616.5899999999999</ele>
        <time>2017-06-18T14:25:01Z</time>
      </trkpt>
      <trkpt lat="46.354324026033282" lon="9.323210427537561">
        <ele>1616.1099999999999</ele>
        <time>2017-06-18T14:25:12Z</time>
      </trkpt>
      <trkpt lat="46.354270800948143" lon="9.323116298764944">
        <ele>1614.6700000000001</ele>
        <time>2017-06-18T14:25:24Z</time>
      </trkpt>
      <trkpt lat="46.354228556156158" lon="9.323052680119872">
        <ele>1612.75</ele>
        <time>2017-06-18T14:25:34Z</time>
      </trkpt>
      <trkpt lat="46.354179019108415" lon="9.322959557175636">
        <ele>1610.3499999999999</ele>
        <time>2017-06-18T14:25:48Z</time>
      </trkpt>
      <trkpt lat="46.354177678003907" lon="9.323044549673796">
        <ele>1608.9000000000001</ele>
        <time>2017-06-18T14:26:00Z</time>
      </trkpt>
      <trkpt lat="46.354148089885712" lon="9.323052009567618">
        <ele>1606.98</ele>
        <time>2017-06-18T14:26:10Z</time>
      </trkpt>
      <trkpt lat="46.354090673848987" lon="9.322982858866453">
        <ele>1605.0599999999999</ele>
        <time>2017-06-18T14:26:23Z</time>
      </trkpt>
      <trkpt lat="46.3540502730757" lon="9.322960898280144">
        <ele>1602.6600000000001</ele>
        <time>2017-06-18T14:26:36Z</time>
      </trkpt>
      <trkpt lat="46.354041891172528" lon="9.322882192209363">
        <ele>1602.1700000000001</ele>
        <time>2017-06-18T14:26:59Z</time>
      </trkpt>
      <trkpt lat="46.353986151516438" lon="9.322852101176977">
        <ele>1601.21</ele>
        <time>2017-06-18T14:27:09Z</time>
      </trkpt>
      <trkpt lat="46.353929322212934" lon="9.322799714282155">
        <ele>1598.3299999999999</ele>
        <time>2017-06-18T14:27:20Z</time>
      </trkpt>
      <trkpt lat="46.353897638618946" lon="9.32280876673758">
        <ele>1595.9300000000001</ele>
        <time>2017-06-18T14:27:32Z</time>
      </trkpt>
      <trkpt lat="46.353937620297074" lon="9.322906248271465">
        <ele>1593.04</ele>
        <time>2017-06-18T14:27:44Z</time>
      </trkpt>
      <trkpt lat="46.35396528057754" lon="9.32301253080368">
        <ele>1590.6400000000001</ele>
        <time>2017-06-18T14:27:56Z</time>
      </trkpt>
      <trkpt lat="46.353955389931798" lon="9.323133062571287">
        <ele>1588.24</ele>
        <time>2017-06-18T14:28:09Z</time>
      </trkpt>
      <trkpt lat="46.353957653045654" lon="9.323209505528212">
        <ele>1585.8299999999999</ele>
        <time>2017-06-18T14:28:21Z</time>
      </trkpt>
      <trkpt lat="46.353918509557843" lon="9.323234064504504">
        <ele>1585.3499999999999</ele>
        <time>2017-06-18T14:28:32Z</time>
      </trkpt>
      <trkpt lat="46.353848688304424" lon="9.323190310969949">
        <ele>1582.47</ele>
        <time>2017-06-18T14:28:42Z</time>
      </trkpt>
      <trkpt lat="46.353785069659352" lon="9.323119483888149">
        <ele>1580.0599999999999</ele>
        <time>2017-06-18T14:28:55Z</time>
      </trkpt>
      <trkpt lat="46.353760845959187" lon="9.323122249916196">
        <ele>1579.0999999999999</ele>
        <time>2017-06-18T14:29:07Z</time>
      </trkpt>
      <trkpt lat="46.353777190670371" lon="9.323233058676124">
        <ele>1576.22</ele>
        <time>2017-06-18T14:29:19Z</time>
      </trkpt>
      <trkpt lat="46.353793870657682" lon="9.323310507461429">
        <ele>1574.78</ele>
        <time>2017-06-18T14:29:28Z</time>
      </trkpt>
      <trkpt lat="46.353823123499751" lon="9.323407569900155">
        <ele>1573.3299999999999</ele>
        <time>2017-06-18T14:29:39Z</time>
      </trkpt>
      <trkpt lat="46.353835696354508" lon="9.323434811085463">
        <ele>1572.8499999999999</ele>
        <time>2017-06-18T14:29:42Z</time>
      </trkpt>
      <trkpt lat="46.353907193988562" lon="9.323483342304826">
        <ele>1570.9300000000001</ele>
        <time>2017-06-18T14:29:54Z</time>
      </trkpt>
      <trkpt lat="46.353980535641313" lon="9.323573615401983">
        <ele>1569.97</ele>
        <time>2017-06-18T14:30:07Z</time>
      </trkpt>
      <trkpt lat="46.35399017482996" lon="9.323698421940208">
        <ele>1569.01</ele>
        <time>2017-06-18T14:30:18Z</time>
      </trkpt>
      <trkpt lat="46.354002915322781" lon="9.323795484378934">
        <ele>1567.5699999999999</ele>
        <time>2017-06-18T14:30:27Z</time>
      </trkpt>
      <trkpt lat="46.354007693007588" lon="9.323913333937526">
        <ele>1566.1199999999999</ele>
        <time>2017-06-18T14:30:38Z</time>
      </trkpt>
      <trkpt lat="46.354043148458004" lon="9.323992040008307">
        <ele>1564.6800000000001</ele>
        <time>2017-06-18T14:30:52Z</time>
      </trkpt>
      <trkpt lat="46.354017332196236" lon="9.324081391096115">
        <ele>1563.24</ele>
        <time>2017-06-18T14:31:03Z</time>
      </trkpt>
      <trkpt lat="46.353996796533465" lon="9.324118103832007">
        <ele>1561.8</ele>
        <time>2017-06-18T14:31:13Z</time>
      </trkpt>
      <trkpt lat="46.353971399366856" lon="9.324188595637679">
        <ele>1560.8399999999999</ele>
        <time>2017-06-18T14:31:24Z</time>
      </trkpt>
      <trkpt lat="46.353987911716104" lon="9.32425950653851">
        <ele>1559.4000000000001</ele>
        <time>2017-06-18T14:31:36Z</time>
      </trkpt>
      <trkpt lat="46.354000736027956" lon="9.324275096878409">
        <ele>1558.9200000000001</ele>
        <time>2017-06-18T14:31:48Z</time>
      </trkpt>
      <trkpt lat="46.354019930586219" lon="9.32425070554018">
        <ele>1558.9200000000001</ele>
        <time>2017-06-18T14:32:03Z</time>
      </trkpt>
      <trkpt lat="46.354023953899741" lon="9.324248861521483">
        <ele>1558.9200000000001</ele>
        <time>2017-06-18T14:32:19Z</time>
      </trkpt>
      <trkpt lat="46.354015488177538" lon="9.32426973246038">
        <ele>1558.9200000000001</ele>
        <time>2017-06-18T14:32:32Z</time>
      </trkpt>
      <trkpt lat="46.35401314124465" lon="9.324272079393268">
        <ele>1558.9200000000001</ele>
        <time>2017-06-18T14:32:44Z</time>
      </trkpt>
      <trkpt lat="46.35400140658021" lon="9.3242565728724">
        <ele>1558.9200000000001</ele>
        <time>2017-06-18T14:32:54Z</time>
      </trkpt>
      <trkpt lat="46.354015655815601" lon="9.324297560378909">
        <ele>1558.4300000000001</ele>
        <time>2017-06-18T14:33:05Z</time>
      </trkpt>
      <trkpt lat="46.354019092395902" lon="9.324389677494764">
        <ele>1555.55</ele>
        <time>2017-06-18T14:33:17Z</time>
      </trkpt>
      <trkpt lat="46.353927394375205" lon="9.324427982792258">
        <ele>1552.6700000000001</ele>
        <time>2017-06-18T14:33:29Z</time>
      </trkpt>
      <trkpt lat="46.353964945301414" lon="9.324465952813625">
        <ele>1551.71</ele>
        <time>2017-06-18T14:33:40Z</time>
      </trkpt>
      <trkpt lat="46.354030994698405" lon="9.324555639177561">
        <ele>1548.8199999999999</ele>
        <time>2017-06-18T14:33:52Z</time>
      </trkpt>
      <trkpt lat="46.354057062417269" lon="9.324679858982563">
        <ele>1547.3800000000001</ele>
        <time>2017-06-18T14:34:02Z</time>
      </trkpt>
      <trkpt lat="46.354118753224611" lon="9.324746495112777">
        <ele>1544.5</ele>
        <time>2017-06-18T14:34:12Z</time>
      </trkpt>
      <trkpt lat="46.354189999401569" lon="9.32484439574182">
        <ele>1541.6099999999999</ele>
        <time>2017-06-18T14:34:23Z</time>
      </trkpt>
      <trkpt lat="46.354261580854654" lon="9.324966855347157">
        <ele>1539.21</ele>
        <time>2017-06-18T14:34:35Z</time>
      </trkpt>
      <trkpt lat="46.354363672435284" lon="9.3250837828964">
        <ele>1536.8</ele>
        <time>2017-06-18T14:34:48Z</time>
      </trkpt>
      <trkpt lat="46.354449084028602" lon="9.32511605322361">
        <ele>1535.8399999999999</ele>
        <time>2017-06-18T14:35:00Z</time>
      </trkpt>
      <trkpt lat="46.354478755965829" lon="9.325250163674355">
        <ele>1534.4000000000001</ele>
        <time>2017-06-18T14:35:11Z</time>
      </trkpt>
      <trkpt lat="46.35452963411808" lon="9.325366085395217">
        <ele>1532.48</ele>
        <time>2017-06-18T14:35:23Z</time>
      </trkpt>
      <trkpt lat="46.354569112882018" lon="9.325389890000224">
        <ele>1531.04</ele>
        <time>2017-06-18T14:35:33Z</time>
      </trkpt>
      <trkpt lat="46.354578835889697" lon="9.32543070986867">
        <ele>1529.1099999999999</ele>
        <time>2017-06-18T14:35:43Z</time>
      </trkpt>
      <trkpt lat="46.354618817567825" lon="9.325456861406565">
        <ele>1528.1500000000001</ele>
        <time>2017-06-18T14:35:52Z</time>
      </trkpt>
      <trkpt lat="46.354619739577174" lon="9.325476307421923">
        <ele>1528.1500000000001</ele>
        <time>2017-06-18T14:35:56Z</time>
      </trkpt>
      <trkpt lat="46.35462393052876" lon="9.325505560263991">
        <ele>1527.1900000000001</ele>
        <time>2017-06-18T14:36:01Z</time>
      </trkpt>
      <trkpt lat="46.354628875851631" lon="9.325530203059316">
        <ele>1527.1900000000001</ele>
        <time>2017-06-18T14:36:03Z</time>
      </trkpt>
      <trkpt lat="46.354646729305387" lon="9.325652830302715">
        <ele>1526.23</ele>
        <time>2017-06-18T14:36:13Z</time>
      </trkpt>
      <trkpt lat="46.354634407907724" lon="9.325843686237931">
        <ele>1523.8299999999999</ele>
        <time>2017-06-18T14:36:27Z</time>
      </trkpt>
      <trkpt lat="46.354582104831934" lon="9.325988776981831">
        <ele>1521.9000000000001</ele>
        <time>2017-06-18T14:36:39Z</time>
      </trkpt>
      <trkpt lat="46.354502812027931" lon="9.326099585741758">
        <ele>1519.5</ele>
        <time>2017-06-18T14:36:52Z</time>
      </trkpt>
      <trkpt lat="46.354455538094044" lon="9.326164294034243">
        <ele>1517.5799999999999</ele>
        <time>2017-06-18T14:37:03Z</time>
      </trkpt>
      <trkpt lat="46.354369539767504" lon="9.326280970126391">
        <ele>1515.1800000000001</ele>
        <time>2017-06-18T14:37:17Z</time>
      </trkpt>
      <trkpt lat="46.354308938607574" lon="9.326372165232897">
        <ele>1512.77</ele>
        <time>2017-06-18T14:37:28Z</time>
      </trkpt>
      <trkpt lat="46.354293851181865" lon="9.326380966231227">
        <ele>1512.29</ele>
        <time>2017-06-18T14:37:31Z</time>
      </trkpt>
      <trkpt lat="46.354301562532783" lon="9.326224476099014">
        <ele>1510.8499999999999</ele>
        <time>2017-06-18T14:37:43Z</time>
      </trkpt>
      <trkpt lat="46.354304077103734" lon="9.326093550771475">
        <ele>1508.45</ele>
        <time>2017-06-18T14:37:55Z</time>
      </trkpt>
      <trkpt lat="46.354276081547141" lon="9.326052227988839">
        <ele>1506.04</ele>
        <time>2017-06-18T14:38:06Z</time>
      </trkpt>
      <trkpt lat="46.354215815663338" lon="9.32611433789134">
        <ele>1503.1600000000001</ele>
        <time>2017-06-18T14:38:17Z</time>
      </trkpt>
      <trkpt lat="46.354143731296062" lon="9.326214836910367">
        <ele>1501.24</ele>
        <time>2017-06-18T14:38:28Z</time>
      </trkpt>
      <trkpt lat="46.354072401300073" lon="9.326312737539411">
        <ele>1499.79</ele>
        <time>2017-06-18T14:38:39Z</time>
      </trkpt>
      <trkpt lat="46.354054464027286" lon="9.326331848278642">
        <ele>1499.3099999999999</ele>
        <time>2017-06-18T14:38:51Z</time>
      </trkpt>
      <trkpt lat="46.354003921151161" lon="9.326332435011864">
        <ele>1497.3900000000001</ele>
        <time>2017-06-18T14:39:02Z</time>
      </trkpt>
      <trkpt lat="46.35399897582829" lon="9.326328998431563">
        <ele>1496.9100000000001</ele>
        <time>2017-06-18T14:39:03Z</time>
      </trkpt>
      <trkpt lat="46.354002077132463" lon="9.326190361753106">
        <ele>1495.47</ele>
        <time>2017-06-18T14:39:14Z</time>
      </trkpt>
      <trkpt lat="46.353990510106087" lon="9.32610310614109">
        <ele>1493.0599999999999</ele>
        <time>2017-06-18T14:39:26Z</time>
      </trkpt>
      <trkpt lat="46.353937787935138" lon="9.326223218813539">
        <ele>1491.6199999999999</ele>
        <time>2017-06-18T14:39:38Z</time>
      </trkpt>
      <trkpt lat="46.353892190381885" lon="9.326315000653267">
        <ele>1489.22</ele>
        <time>2017-06-18T14:39:51Z</time>
      </trkpt>
      <trkpt lat="46.353825973346829" lon="9.326380882412195">
        <ele>1487.3</ele>
        <time>2017-06-18T14:40:02Z</time>
      </trkpt>
      <trkpt lat="46.353742657229304" lon="9.326495714485645">
        <ele>1483.9300000000001</ele>
        <time>2017-06-18T14:40:16Z</time>
      </trkpt>
      <trkpt lat="46.353700496256351" lon="9.326561512425542">
        <ele>1482.49</ele>
        <time>2017-06-18T14:40:25Z</time>
      </trkpt>
      <trkpt lat="46.353643666952848" lon="9.326620940119028">
        <ele>1480.0899999999999</ele>
        <time>2017-06-18T14:40:36Z</time>
      </trkpt>
      <trkpt lat="46.353581640869379" lon="9.326686654239893">
        <ele>1477.6800000000001</ele>
        <time>2017-06-18T14:40:46Z</time>
      </trkpt>
      <trkpt lat="46.353531684726477" lon="9.326629741117358">
        <ele>1475.28</ele>
        <time>2017-06-18T14:40:56Z</time>
      </trkpt>
      <trkpt lat="46.353479046374559" lon="9.326507281512022">
        <ele>1472.8800000000001</ele>
        <time>2017-06-18T14:41:08Z</time>
      </trkpt>
      <trkpt lat="46.353432359173894" lon="9.326537204906344">
        <ele>1470.47</ele>
        <time>2017-06-18T14:41:20Z</time>
      </trkpt>
      <trkpt lat="46.353411488234997" lon="9.326675925403833">
        <ele>1468.0699999999999</ele>
        <time>2017-06-18T14:41:32Z</time>
      </trkpt>
      <trkpt lat="46.353397825732827" lon="9.326701909303665">
        <ele>1467.5899999999999</ele>
        <time>2017-06-18T14:41:34Z</time>
      </trkpt>
      <trkpt lat="46.353357005864382" lon="9.326692521572113">
        <ele>1466.1500000000001</ele>
        <time>2017-06-18T14:41:38Z</time>
      </trkpt>
      <trkpt lat="46.35329581797123" lon="9.326602835208178">
        <ele>1464.71</ele>
        <time>2017-06-18T14:41:49Z</time>
      </trkpt>
      <trkpt lat="46.353228930383921" lon="9.326643906533718">
        <ele>1461.8199999999999</ele>
        <time>2017-06-18T14:42:01Z</time>
      </trkpt>
      <trkpt lat="46.353193810209632" lon="9.326769970357418">
        <ele>1459.9000000000001</ele>
        <time>2017-06-18T14:42:13Z</time>
      </trkpt>
      <trkpt lat="46.353130359202623" lon="9.326714230701327">
        <ele>1457.98</ele>
        <time>2017-06-18T14:42:23Z</time>
      </trkpt>
      <trkpt lat="46.353098088875413" lon="9.326752284541726">
        <ele>1455.5699999999999</ele>
        <time>2017-06-18T14:42:34Z</time>
      </trkpt>
      <trkpt lat="46.353100184351206" lon="9.326871139928699">
        <ele>1453.6500000000001</ele>
        <time>2017-06-18T14:42:46Z</time>
      </trkpt>
      <trkpt lat="46.353057939559221" lon="9.326894022524357">
        <ele>1451.73</ele>
        <time>2017-06-18T14:42:57Z</time>
      </trkpt>
      <trkpt lat="46.352977138012648" lon="9.326840629801154">
        <ele>1450.29</ele>
        <time>2017-06-18T14:43:07Z</time>
      </trkpt>
      <trkpt lat="46.352903796359897" lon="9.326745495200157">
        <ele>1447.8800000000001</ele>
        <time>2017-06-18T14:43:18Z</time>
      </trkpt>
      <trkpt lat="46.352862389758229" lon="9.326749602332711">
        <ele>1445.96</ele>
        <time>2017-06-18T14:43:30Z</time>
      </trkpt>
      <trkpt lat="46.352823078632355" lon="9.326787739992142">
        <ele>1443.5599999999999</ele>
        <time>2017-06-18T14:43:42Z</time>
      </trkpt>
      <trkpt lat="46.352776307612658" lon="9.32657852768898">
        <ele>1442.1099999999999</ele>
        <time>2017-06-18T14:43:57Z</time>
      </trkpt>
      <trkpt lat="46.352733643725514" lon="9.32666645385325">
        <ele>1438.75</ele>
        <time>2017-06-18T14:44:10Z</time>
      </trkpt>
      <trkpt lat="46.352722998708487" lon="9.326679864898324">
        <ele>1437.3099999999999</ele>
        <time>2017-06-18T14:44:12Z</time>
      </trkpt>
      <trkpt lat="46.352716125547886" lon="9.32681892067194">
        <ele>1435.8699999999999</ele>
        <time>2017-06-18T14:44:23Z</time>
      </trkpt>
      <trkpt lat="46.352720484137535" lon="9.327016146853566">
        <ele>1432.98</ele>
        <time>2017-06-18T14:44:35Z</time>
      </trkpt>
      <trkpt lat="46.352717885747552" lon="9.327032240107656">
        <ele>1432.98</ele>
        <time>2017-06-18T14:44:36Z</time>
      </trkpt>
      <trkpt lat="46.352717634290457" lon="9.32712921872735">
        <ele>1432.02</ele>
        <time>2017-06-18T14:44:43Z</time>
      </trkpt>
      <trkpt lat="46.352673377841711" lon="9.327220916748047">
        <ele>1429.1400000000001</ele>
        <time>2017-06-18T14:44:55Z</time>
      </trkpt>
      <trkpt lat="46.352618141099811" lon="9.327202895656228">
        <ele>1427.7</ele>
        <time>2017-06-18T14:45:07Z</time>
      </trkpt>
      <trkpt lat="46.352606574073434" lon="9.327307334169745">
        <ele>1424.8099999999999</ele>
        <time>2017-06-18T14:45:18Z</time>
      </trkpt>
      <trkpt lat="46.352539351209998" lon="9.327256875112653">
        <ele>1423.3699999999999</ele>
        <time>2017-06-18T14:45:28Z</time>
      </trkpt>
      <trkpt lat="46.352544715628028" lon="9.327359972521663">
        <ele>1421.45</ele>
        <time>2017-06-18T14:45:36Z</time>
      </trkpt>
      <trkpt lat="46.352494340389967" lon="9.327304819598794">
        <ele>1420.49</ele>
        <time>2017-06-18T14:45:42Z</time>
      </trkpt>
      <trkpt lat="46.35247397236526" lon="9.327272465452552">
        <ele>1419.04</ele>
        <time>2017-06-18T14:45:52Z</time>
      </trkpt>
      <trkpt lat="46.352474726736546" lon="9.327300377190113">
        <ele>1418.5599999999999</ele>
        <time>2017-06-18T14:45:55Z</time>
      </trkpt>
      <trkpt lat="46.352466596290469" lon="9.327416550368071">
        <ele>1415.6800000000001</ele>
        <time>2017-06-18T14:46:05Z</time>
      </trkpt>
      <trkpt lat="46.352400630712509" lon="9.327397104352713">
        <ele>1413.76</ele>
        <time>2017-06-18T14:46:15Z</time>
      </trkpt>
      <trkpt lat="46.352327791973948" lon="9.327377742156386">
        <ele>1410.8699999999999</ele>
        <time>2017-06-18T14:46:26Z</time>
      </trkpt>
      <trkpt lat="46.352331228554249" lon="9.327416131272912">
        <ele>1409.9100000000001</ele>
        <time>2017-06-18T14:46:30Z</time>
      </trkpt>
      <trkpt lat="46.352388560771942" lon="9.327516881749034">
        <ele>1408.95</ele>
        <time>2017-06-18T14:46:41Z</time>
      </trkpt>
      <trkpt lat="46.352319661527872" lon="9.327505901455879">
        <ele>1407.03</ele>
        <time>2017-06-18T14:46:49Z</time>
      </trkpt>
      <trkpt lat="46.352251181378961" lon="9.327512523159385">
        <ele>1404.6199999999999</ele>
        <time>2017-06-18T14:47:00Z</time>
      </trkpt>
      <trkpt lat="46.352173229679465" lon="9.327483270317316">
        <ele>1401.74</ele>
        <time>2017-06-18T14:47:14Z</time>
      </trkpt>
      <trkpt lat="46.352134505286813" lon="9.32750103995204">
        <ele>1399.8199999999999</ele>
        <time>2017-06-18T14:47:25Z</time>
      </trkpt>
      <trkpt lat="46.352141462266445" lon="9.327613189816475">
        <ele>1397.4100000000001</ele>
        <time>2017-06-18T14:47:37Z</time>
      </trkpt>
      <trkpt lat="46.352017493918538" lon="9.327583517879248">
        <ele>1394.53</ele>
        <time>2017-06-18T14:47:51Z</time>
      </trkpt>
      <trkpt lat="46.352005004882813" lon="9.327610256150365">
        <ele>1392.6099999999999</ele>
        <time>2017-06-18T14:48:02Z</time>
      </trkpt>
      <trkpt lat="46.35204590857029" lon="9.327705642208457">
        <ele>1390.2</ele>
        <time>2017-06-18T14:48:12Z</time>
      </trkpt>
      <trkpt lat="46.352092679589987" lon="9.327861713245511">
        <ele>1388.28</ele>
        <time>2017-06-18T14:48:25Z</time>
      </trkpt>
      <trkpt lat="46.352011878043413" lon="9.327840590849519">
        <ele>1385.8800000000001</ele>
        <time>2017-06-18T14:48:35Z</time>
      </trkpt>
      <trkpt lat="46.351961502805352" lon="9.327840758487582">
        <ele>1384.9200000000001</ele>
        <time>2017-06-18T14:48:42Z</time>
      </trkpt>
      <trkpt lat="46.351848347112536" lon="9.327795999124646">
        <ele>1382.51</ele>
        <time>2017-06-18T14:48:54Z</time>
      </trkpt>
      <trkpt lat="46.351870056241751" lon="9.327907562255859">
        <ele>1380.1099999999999</ele>
        <time>2017-06-18T14:49:05Z</time>
      </trkpt>
      <trkpt lat="46.351903164759278" lon="9.328069081529975">
        <ele>1376.75</ele>
        <time>2017-06-18T14:49:19Z</time>
      </trkpt>
      <trkpt lat="46.352004921063781" lon="9.328182740136981">
        <ele>1373.8599999999999</ele>
        <time>2017-06-18T14:49:33Z</time>
      </trkpt>
      <trkpt lat="46.352116651833057" lon="9.328308133408427">
        <ele>1371.46</ele>
        <time>2017-06-18T14:49:48Z</time>
      </trkpt>
      <trkpt lat="46.352134337648749" lon="9.328382397070527">
        <ele>1370.98</ele>
        <time>2017-06-18T14:49:57Z</time>
      </trkpt>
      <trkpt lat="46.352086560800672" lon="9.328467892482877">
        <ele>1370.02</ele>
        <time>2017-06-18T14:50:08Z</time>
      </trkpt>
      <trkpt lat="46.352078346535563" lon="9.328612647950649">
        <ele>1366.6500000000001</ele>
        <time>2017-06-18T14:50:22Z</time>
      </trkpt>
      <trkpt lat="46.352082705125213" lon="9.328764444217086">
        <ele>1363.77</ele>
        <time>2017-06-18T14:50:36Z</time>
      </trkpt>
      <trkpt lat="46.352009950205684" lon="9.328757235780358">
        <ele>1362.3299999999999</ele>
        <time>2017-06-18T14:50:47Z</time>
      </trkpt>
      <trkpt lat="46.35196284390986" lon="9.328704262152314">
        <ele>1361.3599999999999</ele>
        <time>2017-06-18T14:50:57Z</time>
      </trkpt>
      <trkpt lat="46.351922443136573" lon="9.328617760911584">
        <ele>1359.4400000000001</ele>
        <time>2017-06-18T14:51:07Z</time>
      </trkpt>
      <trkpt lat="46.351923616603017" lon="9.328703172504902">
        <ele>1357.52</ele>
        <time>2017-06-18T14:51:15Z</time>
      </trkpt>
      <trkpt lat="46.351943649351597" lon="9.328877180814743">
        <ele>1355.5999999999999</ele>
        <time>2017-06-18T14:51:28Z</time>
      </trkpt>
      <trkpt lat="46.351908864453435" lon="9.328960496932268">
        <ele>1354.6300000000001</ele>
        <time>2017-06-18T14:51:39Z</time>
      </trkpt>
      <trkpt lat="46.351867876946926" lon="9.328894363716245">
        <ele>1353.6700000000001</ele>
        <time>2017-06-18T14:51:46Z</time>
      </trkpt>
      <trkpt lat="46.351797133684158" lon="9.328803503885865">
        <ele>1351.75</ele>
        <time>2017-06-18T14:51:57Z</time>
      </trkpt>
      <trkpt lat="46.351731419563293" lon="9.328754134476185">
        <ele>1348.8699999999999</ele>
        <time>2017-06-18T14:52:09Z</time>
      </trkpt>
      <trkpt lat="46.351724127307534" lon="9.328846167773008">
        <ele>1346.9400000000001</ele>
        <time>2017-06-18T14:52:19Z</time>
      </trkpt>
      <trkpt lat="46.351725971326232" lon="9.328941470012069">
        <ele>1345.02</ele>
        <time>2017-06-18T14:52:29Z</time>
      </trkpt>
      <trkpt lat="46.351674757897854" lon="9.329059068113565">
        <ele>1344.0599999999999</ele>
        <time>2017-06-18T14:52:40Z</time>
      </trkpt>
      <trkpt lat="46.35166822001338" lon="9.329115226864815">
        <ele>1341.6600000000001</ele>
        <time>2017-06-18T14:52:45Z</time>
      </trkpt>
      <trkpt lat="46.351624298840761" lon="9.329300634562969">
        <ele>1339.25</ele>
        <time>2017-06-18T14:53:01Z</time>
      </trkpt>
      <trkpt lat="46.351588843390346" lon="9.329434912651777">
        <ele>1337.3299999999999</ele>
        <time>2017-06-18T14:53:13Z</time>
      </trkpt>
      <trkpt lat="46.351549113169312" lon="9.329369030892849">
        <ele>1335.4100000000001</ele>
        <time>2017-06-18T14:53:23Z</time>
      </trkpt>
      <trkpt lat="46.351492535322905" lon="9.329213378950954">
        <ele>1333.49</ele>
        <time>2017-06-18T14:53:35Z</time>
      </trkpt>
      <trkpt lat="46.351453475654125" lon="9.329278422519565">
        <ele>1331.0799999999999</ele>
        <time>2017-06-18T14:53:46Z</time>
      </trkpt>
      <trkpt lat="46.351439310237765" lon="9.329402055591345">
        <ele>1329.1600000000001</ele>
        <time>2017-06-18T14:53:58Z</time>
      </trkpt>
      <trkpt lat="46.351412404328585" lon="9.329547313973308">
        <ele>1326.28</ele>
        <time>2017-06-18T14:54:10Z</time>
      </trkpt>
      <trkpt lat="46.351374266669154" lon="9.329670276492834">
        <ele>1324.3499999999999</ele>
        <time>2017-06-18T14:54:22Z</time>
      </trkpt>
      <trkpt lat="46.351371919736266" lon="9.32978636585176">
        <ele>1321.95</ele>
        <time>2017-06-18T14:54:34Z</time>
      </trkpt>
      <trkpt lat="46.351308217272162" lon="9.329882673919201">
        <ele>1319.55</ele>
        <time>2017-06-18T14:54:46Z</time>
      </trkpt>
      <trkpt lat="46.351255076006055" lon="9.329910753294826">
        <ele>1317.1400000000001</ele>
        <time>2017-06-18T14:54:56Z</time>
      </trkpt>
      <trkpt lat="46.351224314421415" lon="9.329876722767949">
        <ele>1316.6600000000001</ele>
        <time>2017-06-18T14:55:00Z</time>
      </trkpt>
      <trkpt lat="46.351173520088196" lon="9.329772619530559">
        <ele>1315.22</ele>
        <time>2017-06-18T14:55:10Z</time>
      </trkpt>
      <trkpt lat="46.351148039102554" lon="9.32971260510385">
        <ele>1315.22</ele>
        <time>2017-06-18T14:55:21Z</time>
      </trkpt>
      <trkpt lat="46.35111702606082" lon="9.329656697809696">
        <ele>1314.26</ele>
        <time>2017-06-18T14:55:32Z</time>
      </trkpt>
      <trkpt lat="46.351072182878852" lon="9.329543961212039">
        <ele>1312.3399999999999</ele>
        <time>2017-06-18T14:55:43Z</time>
      </trkpt>
      <trkpt lat="46.351000601425767" lon="9.329426363110542">
        <ele>1310.4100000000001</ele>
        <time>2017-06-18T14:55:55Z</time>
      </trkpt>
      <trkpt lat="46.350959111005068" lon="9.329303232952952">
        <ele>1308.01</ele>
        <time>2017-06-18T14:56:06Z</time>
      </trkpt>
      <trkpt lat="46.350883422419429" lon="9.329239530488849">
        <ele>1306.0899999999999</ele>
        <time>2017-06-18T14:56:19Z</time>
      </trkpt>
      <trkpt lat="46.35084779933095" lon="9.329401636496186">
        <ele>1303.2</ele>
        <time>2017-06-18T14:56:32Z</time>
      </trkpt>
      <trkpt lat="46.350783258676529" lon="9.329370204359293">
        <ele>1301.28</ele>
        <time>2017-06-18T14:56:43Z</time>
      </trkpt>
      <trkpt lat="46.35077060200274" lon="9.329351931810379">
        <ele>1300.3199999999999</ele>
        <time>2017-06-18T14:56:45Z</time>
      </trkpt>
      <trkpt lat="46.350746713578701" lon="9.329316141083837">
        <ele>1299.8399999999999</ele>
        <time>2017-06-18T14:56:48Z</time>
      </trkpt>
      <trkpt lat="46.350686196237803" lon="9.329344220459461">
        <ele>1298.4000000000001</ele>
        <time>2017-06-18T14:56:59Z</time>
      </trkpt>
      <trkpt lat="46.350685860961676" lon="9.329321002587676">
        <ele>1297.9200000000001</ele>
        <time>2017-06-18T14:57:10Z</time>
      </trkpt>
      <trkpt lat="46.350694661960006" lon="9.329283116385341">
        <ele>1298.8800000000001</ele>
        <time>2017-06-18T14:57:22Z</time>
      </trkpt>
      <trkpt lat="46.350689716637135" lon="9.329253695905209">
        <ele>1298.8800000000001</ele>
        <time>2017-06-18T14:57:33Z</time>
      </trkpt>
      <trkpt lat="46.350635988637805" lon="9.329198291525245">
        <ele>1297.4400000000001</ele>
        <time>2017-06-18T14:57:44Z</time>
      </trkpt>
      <trkpt lat="46.350606065243483" lon="9.329275572672486">
        <ele>1295.51</ele>
        <time>2017-06-18T14:57:54Z</time>
      </trkpt>
      <trkpt lat="46.35052383877337" lon="9.329346735030413">
        <ele>1293.1099999999999</ele>
        <time>2017-06-18T14:58:06Z</time>
      </trkpt>
      <trkpt lat="46.350492825731635" lon="9.329306334257126">
        <ele>1292.1500000000001</ele>
        <time>2017-06-18T14:58:11Z</time>
      </trkpt>
      <trkpt lat="46.350410263985395" lon="9.3291677813977">
        <ele>1290.23</ele>
        <time>2017-06-18T14:58:24Z</time>
      </trkpt>
      <trkpt lat="46.350351674482226" lon="9.329031659290195">
        <ele>1287.8199999999999</ele>
        <time>2017-06-18T14:58:39Z</time>
      </trkpt>
      <trkpt lat="46.350326193496585" lon="9.329085471108556">
        <ele>1285.9000000000001</ele>
        <time>2017-06-18T14:58:52Z</time>
      </trkpt>
      <trkpt lat="46.350272465497255" lon="9.329040041193366">
        <ele>1283.5</ele>
        <time>2017-06-18T14:59:05Z</time>
      </trkpt>
      <trkpt lat="46.350256875157356" lon="9.329058984294534">
        <ele>1283.02</ele>
        <time>2017-06-18T14:59:09Z</time>
      </trkpt>
      <trkpt lat="46.350216390565038" lon="9.329086309298873">
        <ele>1280.6099999999999</ele>
        <time>2017-06-18T14:59:19Z</time>
      </trkpt>
      <trkpt lat="46.350155789405107" lon="9.329146659001708">
        <ele>1278.21</ele>
        <time>2017-06-18T14:59:30Z</time>
      </trkpt>
      <trkpt lat="46.350075071677566" lon="9.32915261015296">
        <ele>1275.8099999999999</ele>
        <time>2017-06-18T14:59:43Z</time>
      </trkpt>
      <trkpt lat="46.350082447752357" lon="9.329155460000038">
        <ele>1275.8099999999999</ele>
        <time>2017-06-18T14:59:53Z</time>
      </trkpt>
      <trkpt lat="46.350091081112623" lon="9.329136935994029">
        <ele>1275.3299999999999</ele>
        <time>2017-06-18T15:00:05Z</time>
      </trkpt>
      <trkpt lat="46.350086890161037" lon="9.329139618203044">
        <ele>1275.8099999999999</ele>
        <time>2017-06-18T15:00:18Z</time>
      </trkpt>
      <trkpt lat="46.350079933181405" lon="9.329099133610725">
        <ele>1275.3299999999999</ele>
        <time>2017-06-18T15:00:43Z</time>
      </trkpt>
      <trkpt lat="46.350065600126982" lon="9.329066276550293">
        <ele>1275.3299999999999</ele>
        <time>2017-06-18T15:01:07Z</time>
      </trkpt>
      <trkpt lat="46.350067779421806" lon="9.329115813598037">
        <ele>1275.3299999999999</ele>
        <time>2017-06-18T15:01:23Z</time>
      </trkpt>
      <trkpt lat="46.350085297599435" lon="9.329117825254798">
        <ele>1274.8499999999999</ele>
        <time>2017-06-18T15:01:46Z</time>
      </trkpt>
      <trkpt lat="46.350071216002107" lon="9.329105922952294">
        <ele>1274.8499999999999</ele>
        <time>2017-06-18T15:02:08Z</time>
      </trkpt>
      <trkpt lat="46.350089991465211" lon="9.329104330390692">
        <ele>1274.8499999999999</ele>
        <time>2017-06-18T15:02:29Z</time>
      </trkpt>
      <trkpt lat="46.350083369761705" lon="9.329105755314231">
        <ele>1274.8499999999999</ele>
        <time>2017-06-18T15:02:40Z</time>
      </trkpt>
      <trkpt lat="46.350084627047181" lon="9.329131403937936">
        <ele>1274.8499999999999</ele>
        <time>2017-06-18T15:02:57Z</time>
      </trkpt>
      <trkpt lat="46.350098457187414" lon="9.329124530777335">
        <ele>1274.8499999999999</ele>
        <time>2017-06-18T15:03:14Z</time>
      </trkpt>
      <trkpt lat="46.35007775388658" lon="9.329120256006718">
        <ele>1274.3599999999999</ele>
        <time>2017-06-18T15:03:31Z</time>
      </trkpt>
      <trkpt lat="46.350090494379401" lon="9.329117070883513">
        <ele>1274.3599999999999</ele>
        <time>2017-06-18T15:03:46Z</time>
      </trkpt>
      <trkpt lat="46.350090829655528" lon="9.329145401716232">
        <ele>1274.3599999999999</ele>
        <time>2017-06-18T15:04:10Z</time>
      </trkpt>
      <trkpt lat="46.350083034485579" lon="9.329137271270156">
        <ele>1274.3599999999999</ele>
        <time>2017-06-18T15:04:33Z</time>
      </trkpt>
      <trkpt lat="46.350063337013125" lon="9.329134756699204">
        <ele>1274.3599999999999</ele>
        <time>2017-06-18T15:04:59Z</time>
      </trkpt>
      <trkpt lat="46.350089069455862" lon="9.329177839681506">
        <ele>1274.3599999999999</ele>
        <time>2017-06-18T15:05:25Z</time>
      </trkpt>
      <trkpt lat="46.350071802735329" lon="9.32915068231523">
        <ele>1274.3599999999999</ele>
        <time>2017-06-18T15:05:46Z</time>
      </trkpt>
      <trkpt lat="46.350071970373392" lon="9.329150933772326">
        <ele>1273.8800000000001</ele>
        <time>2017-06-18T15:06:05Z</time>
      </trkpt>
      <trkpt lat="46.350087309256196" lon="9.329157052561641">
        <ele>1273.8800000000001</ele>
        <time>2017-06-18T15:06:33Z</time>
      </trkpt>
      <trkpt lat="46.35008504614234" lon="9.329137271270156">
        <ele>1273.8800000000001</ele>
        <time>2017-06-18T15:06:59Z</time>
      </trkpt>
      <trkpt lat="46.350082447752357" lon="9.329180018976331">
        <ele>1273.8800000000001</ele>
        <time>2017-06-18T15:07:23Z</time>
      </trkpt>
      <trkpt lat="46.350100385025144" lon="9.329148083925247">
        <ele>1273.8800000000001</ele>
        <time>2017-06-18T15:07:30Z</time>
      </trkpt>
      <trkpt lat="46.350074401125312" lon="9.329151352867484">
        <ele>1273.8800000000001</ele>
        <time>2017-06-18T15:07:41Z</time>
      </trkpt>
      <trkpt lat="46.350067444145679" lon="9.329172307625413">
        <ele>1273.8800000000001</ele>
        <time>2017-06-18T15:07:52Z</time>
      </trkpt>
      <trkpt lat="46.35007431730628" lon="9.329162752255797">
        <ele>1273.8800000000001</ele>
        <time>2017-06-18T15:08:08Z</time>
      </trkpt>
      <trkpt lat="46.350074904039502" lon="9.329115310683847">
        <ele>1273.8800000000001</ele>
        <time>2017-06-18T15:08:19Z</time>
      </trkpt>
      <trkpt lat="46.35005621239543" lon="9.329109778627753">
        <ele>1273.8800000000001</ele>
        <time>2017-06-18T15:08:38Z</time>
      </trkpt>
      <trkpt lat="46.350067779421806" lon="9.329124698415399">
        <ele>1273.4000000000001</ele>
        <time>2017-06-18T15:08:55Z</time>
      </trkpt>
      <trkpt lat="46.350069623440504" lon="9.329142216593027">
        <ele>1273.4000000000001</ele>
        <time>2017-06-18T15:09:08Z</time>
      </trkpt>
      <trkpt lat="46.350080603733659" lon="9.329142384231091">
        <ele>1273.4000000000001</ele>
        <time>2017-06-18T15:09:22Z</time>
      </trkpt>
      <trkpt lat="46.350051099434495" lon="9.329152191057801">
        <ele>1273.4000000000001</ele>
        <time>2017-06-18T15:09:40Z</time>
      </trkpt>
      <trkpt lat="46.349979769438505" lon="9.329188317060471">
        <ele>1271</ele>
        <time>2017-06-18T15:09:53Z</time>
      </trkpt>
      <trkpt lat="46.349927634000778" lon="9.329202985391021">
        <ele>1268.5999999999999</ele>
        <time>2017-06-18T15:09:59Z</time>
      </trkpt>
      <trkpt lat="46.349869547411799" lon="9.329188400879502">
        <ele>1267.1600000000001</ele>
        <time>2017-06-18T15:10:06Z</time>
      </trkpt>
      <trkpt lat="46.349831828847528" lon="9.329219916835427">
        <ele>1266.1900000000001</ele>
        <time>2017-06-18T15:10:10Z</time>
      </trkpt>
      <trkpt lat="46.349781202152371" lon="9.329436589032412">
        <ele>1265.71</ele>
        <time>2017-06-18T15:10:25Z</time>
      </trkpt>
      <trkpt lat="46.349766701459885" lon="9.329600539058447">
        <ele>1264.75</ele>
        <time>2017-06-18T15:10:36Z</time>
      </trkpt>
      <trkpt lat="46.349789584055543" lon="9.329813942313194">
        <ele>1264.75</ele>
        <time>2017-06-18T15:10:48Z</time>
      </trkpt>
      <trkpt lat="46.349795619025826" lon="9.329982921481133">
        <ele>1262.8299999999999</ele>
        <time>2017-06-18T15:10:58Z</time>
      </trkpt>
      <trkpt lat="46.349776592105627" lon="9.330141423270106">
        <ele>1260.9100000000001</ele>
        <time>2017-06-18T15:11:08Z</time>
      </trkpt>
      <trkpt lat="46.349741220474243" lon="9.330385671928525">
        <ele>1258.02</ele>
        <time>2017-06-18T15:11:23Z</time>
      </trkpt>
      <trkpt lat="46.349734012037516" lon="9.330393886193633">
        <ele>1258.02</ele>
        <time>2017-06-18T15:11:24Z</time>
      </trkpt>
      <trkpt lat="46.349675841629505" lon="9.330439232289791">
        <ele>1256.5799999999999</ele>
        <time>2017-06-18T15:11:29Z</time>
      </trkpt>
      <trkpt lat="46.349662933498621" lon="9.330464880913496">
        <ele>1256.0999999999999</ele>
        <time>2017-06-18T15:11:31Z</time>
      </trkpt>
      <trkpt lat="46.349664023146033" lon="9.330522296950221">
        <ele>1254.6600000000001</ele>
        <time>2017-06-18T15:11:36Z</time>
      </trkpt>
      <trkpt lat="46.349683972075582" lon="9.330703681334853">
        <ele>1252.25</ele>
        <time>2017-06-18T15:11:48Z</time>
      </trkpt>
      <trkpt lat="46.349679445847869" lon="9.330778531730175">
        <ele>1251.29</ele>
        <time>2017-06-18T15:11:53Z</time>
      </trkpt>
      <trkpt lat="46.349596716463566" lon="9.330963604152203">
        <ele>1248.4100000000001</ele>
        <time>2017-06-18T15:12:06Z</time>
      </trkpt>
      <trkpt lat="46.349582467228174" lon="9.331033676862717">
        <ele>1247.45</ele>
        <time>2017-06-18T15:12:12Z</time>
      </trkpt>
      <trkpt lat="46.349597219377756" lon="9.33110810816288">
        <ele>1246.49</ele>
        <time>2017-06-18T15:12:17Z</time>
      </trkpt>
      <trkpt lat="46.34960912168026" lon="9.331313129514456">
        <ele>1244.5599999999999</ele>
        <time>2017-06-18T15:12:31Z</time>
      </trkpt>
      <trkpt lat="46.349631417542696" lon="9.331521587446332">
        <ele>1242.6400000000001</ele>
        <time>2017-06-18T15:12:44Z</time>
      </trkpt>
      <trkpt lat="46.349537959322333" lon="9.331604149192572">
        <ele>1240.72</ele>
        <time>2017-06-18T15:12:53Z</time>
      </trkpt>
      <trkpt lat="46.349513819441199" lon="9.331644885241985">
        <ele>1239.76</ele>
        <time>2017-06-18T15:12:57Z</time>
      </trkpt>
      <trkpt lat="46.349531756713986" lon="9.331850409507752">
        <ele>1237.8299999999999</ele>
        <time>2017-06-18T15:13:10Z</time>
      </trkpt>
      <trkpt lat="46.349591603502631" lon="9.331989381462336">
        <ele>1238.3199999999999</ele>
        <time>2017-06-18T15:13:21Z</time>
      </trkpt>
      <trkpt lat="46.349656227976084" lon="9.332110416144133">
        <ele>1238.3199999999999</ele>
        <time>2017-06-18T15:13:31Z</time>
      </trkpt>
      <trkpt lat="46.349630076438189" lon="9.332287525758147">
        <ele>1238.3199999999999</ele>
        <time>2017-06-18T15:13:42Z</time>
      </trkpt>
      <trkpt lat="46.349669806659222" lon="9.332504700869322">
        <ele>1237.3499999999999</ele>
        <time>2017-06-18T15:13:57Z</time>
      </trkpt>
      <trkpt lat="46.349668800830841" lon="9.332514004781842">
        <ele>1237.3499999999999</ele>
        <time>2017-06-18T15:13:58Z</time>
      </trkpt>
      <trkpt lat="46.349660670384765" lon="9.332555746659637">
        <ele>1237.3499999999999</ele>
        <time>2017-06-18T15:14:01Z</time>
      </trkpt>
      <trkpt lat="46.349568469449878" lon="9.332708632573485">
        <ele>1236.3900000000001</ele>
        <time>2017-06-18T15:14:13Z</time>
      </trkpt>
      <trkpt lat="46.349489092826843" lon="9.332890352234244">
        <ele>1233.51</ele>
        <time>2017-06-18T15:14:27Z</time>
      </trkpt>
      <trkpt lat="46.349480375647545" lon="9.333105515688658">
        <ele>1232.0699999999999</ele>
        <time>2017-06-18T15:14:40Z</time>
      </trkpt>
      <trkpt lat="46.349389348179102" lon="9.333297293633223">
        <ele>1230.1400000000001</ele>
        <time>2017-06-18T15:14:54Z</time>
      </trkpt>
      <trkpt lat="46.349372584372759" lon="9.333331994712353">
        <ele>1229.6600000000001</ele>
        <time>2017-06-18T15:14:57Z</time>
      </trkpt>
      <trkpt lat="46.349366800859571" lon="9.333365438506007">
        <ele>1229.6600000000001</ele>
        <time>2017-06-18T15:14:59Z</time>
      </trkpt>
      <trkpt lat="46.349427988752723" lon="9.333556797355413">
        <ele>1229.1800000000001</ele>
        <time>2017-06-18T15:15:12Z</time>
      </trkpt>
      <trkpt lat="46.349493283778429" lon="9.333648243919015">
        <ele>1228.7</ele>
        <time>2017-06-18T15:15:21Z</time>
      </trkpt>
      <trkpt lat="46.349505940452218" lon="9.333748323842883">
        <ele>1226.78</ele>
        <time>2017-06-18T15:15:27Z</time>
      </trkpt>
      <trkpt lat="46.349482219666243" lon="9.333955524489284">
        <ele>1224.8599999999999</ele>
        <time>2017-06-18T15:15:41Z</time>
      </trkpt>
      <trkpt lat="46.349513148888946" lon="9.334145626053214">
        <ele>1222.9300000000001</ele>
        <time>2017-06-18T15:15:54Z</time>
      </trkpt>
      <trkpt lat="46.349456738680601" lon="9.334331369027495">
        <ele>1221.49</ele>
        <time>2017-06-18T15:16:06Z</time>
      </trkpt>
      <trkpt lat="46.349430754780769" lon="9.33446204289794">
        <ele>1220.53</ele>
        <time>2017-06-18T15:16:14Z</time>
      </trkpt>
      <trkpt lat="46.349387755617499" lon="9.33463990688324">
        <ele>1220.05</ele>
        <time>2017-06-18T15:16:26Z</time>
      </trkpt>
      <trkpt lat="46.349363280460238" lon="9.334824224933982">
        <ele>1220.53</ele>
        <time>2017-06-18T15:16:39Z</time>
      </trkpt>
      <trkpt lat="46.349351210519671" lon="9.334866302087903">
        <ele>1221.01</ele>
        <time>2017-06-18T15:16:43Z</time>
      </trkpt>
      <trkpt lat="46.349332518875599" lon="9.334964957088232">
        <ele>1221.49</ele>
        <time>2017-06-18T15:16:50Z</time>
      </trkpt>
      <trkpt lat="46.349306786432862" lon="9.335056403651834">
        <ele>1221.97</ele>
        <time>2017-06-18T15:16:57Z</time>
      </trkpt>
      <trkpt lat="46.349281808361411" lon="9.335182216018438">
        <ele>1221.97</ele>
        <time>2017-06-18T15:17:07Z</time>
      </trkpt>
      <trkpt lat="46.349240317940712" lon="9.33532252907753">
        <ele>1221.97</ele>
        <time>2017-06-18T15:17:17Z</time>
      </trkpt>
      <trkpt lat="46.349211148917675" lon="9.335430236533284">
        <ele>1222.45</ele>
        <time>2017-06-18T15:17:26Z</time>
      </trkpt>
      <trkpt lat="46.349159935489297" lon="9.335601227357984">
        <ele>1221.97</ele>
        <time>2017-06-18T15:17:39Z</time>
      </trkpt>
      <trkpt lat="46.349075781181455" lon="9.335726369172335">
        <ele>1221.49</ele>
        <time>2017-06-18T15:17:50Z</time>
      </trkpt>
      <trkpt lat="46.349034206941724" lon="9.335747323930264">
        <ele>1221.01</ele>
        <time>2017-06-18T15:17:57Z</time>
      </trkpt>
      <trkpt lat="46.349003696814179" lon="9.33579602278769">
        <ele>1221.01</ele>
        <time>2017-06-18T15:18:02Z</time>
      </trkpt>
      <trkpt lat="46.348978634923697" lon="9.335916638374329">
        <ele>1221.49</ele>
        <time>2017-06-18T15:18:12Z</time>
      </trkpt>
      <trkpt lat="46.348982825875282" lon="9.336104057729244">
        <ele>1222.45</ele>
        <time>2017-06-18T15:18:26Z</time>
      </trkpt>
      <trkpt lat="46.34899104014039" lon="9.336219895631075">
        <ele>1222.45</ele>
        <time>2017-06-18T15:18:36Z</time>
      </trkpt>
      <trkpt lat="46.349015347659588" lon="9.336298769339919">
        <ele>1222.9300000000001</ele>
        <time>2017-06-18T15:18:47Z</time>
      </trkpt>
      <trkpt lat="46.349039822816849" lon="9.336380157619715">
        <ele>1221.97</ele>
        <time>2017-06-18T15:18:58Z</time>
      </trkpt>
      <trkpt lat="46.349019706249237" lon="9.336497252807021">
        <ele>1221.97</ele>
        <time>2017-06-18T15:19:09Z</time>
      </trkpt>
      <trkpt lat="46.348981903865933" lon="9.336624322459102">
        <ele>1222.45</ele>
        <time>2017-06-18T15:19:20Z</time>
      </trkpt>
      <trkpt lat="46.348894983530045" lon="9.336685761809349">
        <ele>1221.97</ele>
        <time>2017-06-18T15:19:31Z</time>
      </trkpt>
      <trkpt lat="46.348815355449915" lon="9.336751056835055">
        <ele>1221.97</ele>
        <time>2017-06-18T15:19:41Z</time>
      </trkpt>
      <trkpt lat="46.348746456205845" lon="9.336807131767273">
        <ele>1221.49</ele>
        <time>2017-06-18T15:19:52Z</time>
      </trkpt>
      <trkpt lat="46.34875500574708" lon="9.336904278025031">
        <ele>1222.9300000000001</ele>
        <time>2017-06-18T15:20:03Z</time>
      </trkpt>
      <trkpt lat="46.348753245547414" lon="9.336992036551237">
        <ele>1222.9300000000001</ele>
        <time>2017-06-18T15:20:10Z</time>
      </trkpt>
      <trkpt lat="46.348721561953425" lon="9.337187418714166">
        <ele>1223.4200000000001</ele>
        <time>2017-06-18T15:20:24Z</time>
      </trkpt>
      <trkpt lat="46.348725920543075" lon="9.337316835299134">
        <ele>1223.9000000000001</ele>
        <time>2017-06-18T15:20:34Z</time>
      </trkpt>
      <trkpt lat="46.348776966333389" lon="9.337406354025006">
        <ele>1223.9000000000001</ele>
        <time>2017-06-18T15:20:45Z</time>
      </trkpt>
      <trkpt lat="46.348807727918029" lon="9.337451700121164">
        <ele>1223.9000000000001</ele>
        <time>2017-06-18T15:20:55Z</time>
      </trkpt>
      <trkpt lat="46.348821809515357" lon="9.337467877194285">
        <ele>1223.9000000000001</ele>
        <time>2017-06-18T15:21:05Z</time>
      </trkpt>
      <trkpt lat="46.348859276622534" lon="9.337489083409309">
        <ele>1224.3800000000001</ele>
        <time>2017-06-18T15:21:10Z</time>
      </trkpt>
      <trkpt lat="46.348893055692315" lon="9.337655380368233">
        <ele>1225.3399999999999</ele>
        <time>2017-06-18T15:21:21Z</time>
      </trkpt>
      <trkpt lat="46.348868161439896" lon="9.337723106145859">
        <ele>1225.3399999999999</ele>
        <time>2017-06-18T15:21:25Z</time>
      </trkpt>
      <trkpt lat="46.348731620237231" lon="9.337810026481748">
        <ele>1226.3</ele>
        <time>2017-06-18T15:21:38Z</time>
      </trkpt>
      <trkpt lat="46.348702451214194" lon="9.337883619591594">
        <ele>1228.22</ele>
        <time>2017-06-18T15:21:46Z</time>
      </trkpt>
      <trkpt lat="46.348691303282976" lon="9.338046815246344">
        <ele>1230.1400000000001</ele>
        <time>2017-06-18T15:21:58Z</time>
      </trkpt>
      <trkpt lat="46.348665822297335" lon="9.338189559057355">
        <ele>1232.0699999999999</ele>
        <time>2017-06-18T15:22:09Z</time>
      </trkpt>
      <trkpt lat="46.3486641459167" lon="9.338253429159522">
        <ele>1232.55</ele>
        <time>2017-06-18T15:22:14Z</time>
      </trkpt>
      <trkpt lat="46.348676048219204" lon="9.338370524346829">
        <ele>1234.95</ele>
        <time>2017-06-18T15:22:25Z</time>
      </trkpt>
      <trkpt lat="46.348644699901342" lon="9.33848736807704">
        <ele>1236.3900000000001</ele>
        <time>2017-06-18T15:22:36Z</time>
      </trkpt>
      <trkpt lat="46.348615698516369" lon="9.338604211807251">
        <ele>1238.8</ele>
        <time>2017-06-18T15:22:49Z</time>
      </trkpt>
      <trkpt lat="46.348584182560444" lon="9.338704459369183">
        <ele>1240.72</ele>
        <time>2017-06-18T15:22:59Z</time>
      </trkpt>
      <trkpt lat="46.348545961081982" lon="9.338785093277693">
        <ele>1242.6400000000001</ele>
        <time>2017-06-18T15:23:09Z</time>
      </trkpt>
      <trkpt lat="46.348602036014199" lon="9.33882943354547">
        <ele>1244.0799999999999</ele>
        <time>2017-06-18T15:23:17Z</time>
      </trkpt>
      <trkpt lat="46.348695326596498" lon="9.338812250643969">
        <ele>1246.01</ele>
        <time>2017-06-18T15:23:29Z</time>
      </trkpt>
      <trkpt lat="46.348713599145412" lon="9.338832534849644">
        <ele>1246.97</ele>
        <time>2017-06-18T15:23:32Z</time>
      </trkpt>
      <trkpt lat="46.348623745143414" lon="9.339004615321755">
        <ele>1246.97</ele>
        <time>2017-06-18T15:23:43Z</time>
      </trkpt>
      <trkpt lat="46.348571106791496" lon="9.339155238121748">
        <ele>1247.9300000000001</ele>
        <time>2017-06-18T15:23:54Z</time>
      </trkpt>
      <trkpt lat="46.348572447896004" lon="9.339183401316404">
        <ele>1247.9300000000001</ele>
        <time>2017-06-18T15:23:56Z</time>
      </trkpt>
      <trkpt lat="46.348637407645583" lon="9.339382136240602">
        <ele>1247.9300000000001</ele>
        <time>2017-06-18T15:24:08Z</time>
      </trkpt>
      <trkpt lat="46.348649058490992" lon="9.339628228917718">
        <ele>1247.9300000000001</ele>
        <time>2017-06-18T15:24:21Z</time>
      </trkpt>
      <trkpt lat="46.348618967458606" lon="9.339765273034573">
        <ele>1249.3699999999999</ele>
        <time>2017-06-18T15:24:31Z</time>
      </trkpt>
      <trkpt lat="46.348629780113697" lon="9.339992003515363">
        <ele>1250.8099999999999</ele>
        <time>2017-06-18T15:24:44Z</time>
      </trkpt>
      <trkpt lat="46.348614608868957" lon="9.340216554701328">
        <ele>1251.29</ele>
        <time>2017-06-18T15:24:57Z</time>
      </trkpt>
      <trkpt lat="46.348582841455936" lon="9.340463234111667">
        <ele>1252.25</ele>
        <time>2017-06-18T15:25:12Z</time>
      </trkpt>
      <trkpt lat="46.348563898354769" lon="9.340630955994129">
        <ele>1254.1800000000001</ele>
        <time>2017-06-18T15:25:23Z</time>
      </trkpt>
      <trkpt lat="46.348559791222215" lon="9.340783003717661">
        <ele>1256.0999999999999</ele>
        <time>2017-06-18T15:25:34Z</time>
      </trkpt>
      <trkpt lat="46.348550152033567" lon="9.340977882966399">
        <ele>1258.5</ele>
        <time>2017-06-18T15:25:47Z</time>
      </trkpt>
      <trkpt lat="46.34851654060185" lon="9.341119537129998">
        <ele>1260.9100000000001</ele>
        <time>2017-06-18T15:25:58Z</time>
      </trkpt>
      <trkpt lat="46.348486784845591" lon="9.34124912135303">
        <ele>1263.3099999999999</ele>
        <time>2017-06-18T15:26:08Z</time>
      </trkpt>
      <trkpt lat="46.348483515903354" lon="9.341432182118297">
        <ele>1266.1900000000001</ele>
        <time>2017-06-18T15:26:21Z</time>
      </trkpt>
      <trkpt lat="46.348451664671302" lon="9.341557826846838">
        <ele>1268.1199999999999</ele>
        <time>2017-06-18T15:26:31Z</time>
      </trkpt>
      <trkpt lat="46.348410006612539" lon="9.341694116592407">
        <ele>1268.5999999999999</ele>
        <time>2017-06-18T15:26:40Z</time>
      </trkpt>
      <trkpt lat="46.348366253077984" lon="9.341863347217441">
        <ele>1271</ele>
        <time>2017-06-18T15:26:52Z</time>
      </trkpt>
      <trkpt lat="46.348360888659954" lon="9.342032913118601">
        <ele>1269.5599999999999</ele>
        <time>2017-06-18T15:27:03Z</time>
      </trkpt>
      <trkpt lat="46.348284361883998" lon="9.342190325260162">
        <ele>1266.6700000000001</ele>
        <time>2017-06-18T15:27:16Z</time>
      </trkpt>
      <trkpt lat="46.348248906433582" lon="9.342282107099891">
        <ele>1265.23</ele>
        <time>2017-06-18T15:27:23Z</time>
      </trkpt>
      <trkpt lat="46.348248822614551" lon="9.34247019700706">
        <ele>1264.75</ele>
        <time>2017-06-18T15:27:34Z</time>
      </trkpt>
      <trkpt lat="46.348236752673984" lon="9.342585699632764">
        <ele>1264.27</ele>
        <time>2017-06-18T15:27:40Z</time>
      </trkpt>
      <trkpt lat="46.34816718287766" lon="9.342798432335258">
        <ele>1264.27</ele>
        <time>2017-06-18T15:27:53Z</time>
      </trkpt>
      <trkpt lat="46.348071880638599" lon="9.343023234978318">
        <ele>1263.79</ele>
        <time>2017-06-18T15:28:08Z</time>
      </trkpt>
      <trkpt lat="46.348076909780502" lon="9.34325197711587">
        <ele>1262.3499999999999</ele>
        <time>2017-06-18T15:28:22Z</time>
      </trkpt>
      <trkpt lat="46.348116220906377" lon="9.343409473076463">
        <ele>1261.3900000000001</ele>
        <time>2017-06-18T15:28:32Z</time>
      </trkpt>
      <trkpt lat="46.348099373281002" lon="9.343517180532217">
        <ele>1261.3900000000001</ele>
        <time>2017-06-18T15:28:38Z</time>
      </trkpt>
      <trkpt lat="46.348049249500036" lon="9.34370200149715">
        <ele>1258.98</ele>
        <time>2017-06-18T15:28:49Z</time>
      </trkpt>
      <trkpt lat="46.348017146810889" lon="9.343813061714172">
        <ele>1258.02</ele>
        <time>2017-06-18T15:28:56Z</time>
      </trkpt>
      <trkpt lat="46.347967274487019" lon="9.343990255147219">
        <ele>1256.5799999999999</ele>
        <time>2017-06-18T15:29:07Z</time>
      </trkpt>
      <trkpt lat="46.347928466275334" lon="9.344152696430683">
        <ele>1255.6199999999999</ele>
        <time>2017-06-18T15:29:17Z</time>
      </trkpt>
      <trkpt lat="46.347902901470661" lon="9.344239365309477">
        <ele>1255.6199999999999</ele>
        <time>2017-06-18T15:29:23Z</time>
      </trkpt>
      <trkpt lat="46.347892256453633" lon="9.344347659498453">
        <ele>1255.1400000000001</ele>
        <time>2017-06-18T15:29:30Z</time>
      </trkpt>
      <trkpt lat="46.347860153764486" lon="9.344561817124486">
        <ele>1253.7</ele>
        <time>2017-06-18T15:29:42Z</time>
      </trkpt>
      <trkpt lat="46.347796786576509" lon="9.344725850969553">
        <ele>1252.74</ele>
        <time>2017-06-18T15:29:53Z</time>
      </trkpt>
      <trkpt lat="46.347784046083689" lon="9.34475845657289">
        <ele>1252.74</ele>
        <time>2017-06-18T15:29:55Z</time>
      </trkpt>
      <trkpt lat="46.34770592674613" lon="9.344828529283404">
        <ele>1252.25</ele>
        <time>2017-06-18T15:30:02Z</time>
      </trkpt>
      <trkpt lat="46.34767659008503" lon="9.344857782125473">
        <ele>1252.25</ele>
        <time>2017-06-18T15:30:05Z</time>
      </trkpt>
      <trkpt lat="46.347634345293045" lon="9.344965321943164">
        <ele>1251.77</ele>
        <time>2017-06-18T15:30:12Z</time>
      </trkpt>
      <trkpt lat="46.347570056095719" lon="9.345176881179214">
        <ele>1250.8099999999999</ele>
        <time>2017-06-18T15:30:25Z</time>
      </trkpt>
      <trkpt lat="46.347552537918091" lon="9.345393972471356">
        <ele>1249.8499999999999</ele>
        <time>2017-06-18T15:30:37Z</time>
      </trkpt>
      <trkpt lat="46.347547676414251" lon="9.345514085143805">
        <ele>1248.8900000000001</ele>
        <time>2017-06-18T15:30:44Z</time>
      </trkpt>
      <trkpt lat="46.347538456320763" lon="9.345639059320092">
        <ele>1248.4100000000001</ele>
        <time>2017-06-18T15:30:52Z</time>
      </trkpt>
      <trkpt lat="46.347458912059665" lon="9.345840895548463">
        <ele>1246.49</ele>
        <time>2017-06-18T15:31:07Z</time>
      </trkpt>
      <trkpt lat="46.347440555691719" lon="9.345941310748458">
        <ele>1245.04</ele>
        <time>2017-06-18T15:31:14Z</time>
      </trkpt>
      <trkpt lat="46.347500486299396" lon="9.346131831407547">
        <ele>1242.1600000000001</ele>
        <time>2017-06-18T15:31:28Z</time>
      </trkpt>
      <trkpt lat="46.347551448270679" lon="9.346312461420894">
        <ele>1240.24</ele>
        <time>2017-06-18T15:31:40Z</time>
      </trkpt>
      <trkpt lat="46.347551783546805" lon="9.346538772806525">
        <ele>1238.3199999999999</ele>
        <time>2017-06-18T15:31:54Z</time>
      </trkpt>
      <trkpt lat="46.347547257319093" lon="9.34676181524992">
        <ele>1236.8699999999999</ele>
        <time>2017-06-18T15:32:07Z</time>
      </trkpt>
      <trkpt lat="46.347574582323432" lon="9.346999190747738">
        <ele>1235.9100000000001</ele>
        <time>2017-06-18T15:32:21Z</time>
      </trkpt>
      <trkpt lat="46.347582712769508" lon="9.34719180688262">
        <ele>1235.4300000000001</ele>
        <time>2017-06-18T15:32:32Z</time>
      </trkpt>
      <trkpt lat="46.347579108551145" lon="9.347457094117999">
        <ele>1235.4300000000001</ele>
        <time>2017-06-18T15:32:48Z</time>
      </trkpt>
      <trkpt lat="46.347606433555484" lon="9.34762523509562">
        <ele>1234.95</ele>
        <time>2017-06-18T15:32:59Z</time>
      </trkpt>
      <trkpt lat="46.347628645598888" lon="9.3477972317487">
        <ele>1231.5899999999999</ele>
        <time>2017-06-18T15:33:09Z</time>
      </trkpt>
      <trkpt lat="46.347676087170839" lon="9.348046258091927">
        <ele>1228.7</ele>
        <time>2017-06-18T15:33:25Z</time>
      </trkpt>
      <trkpt lat="46.347681954503059" lon="9.348238622769713">
        <ele>1226.3</ele>
        <time>2017-06-18T15:33:38Z</time>
      </trkpt>
      <trkpt lat="46.347690168768167" lon="9.348389664664865">
        <ele>1224.3800000000001</ele>
        <time>2017-06-18T15:33:48Z</time>
      </trkpt>
      <trkpt lat="46.347701484337449" lon="9.348640283569694">
        <ele>1221.49</ele>
        <time>2017-06-18T15:34:03Z</time>
      </trkpt>
      <trkpt lat="46.347687821835279" lon="9.348898949101567">
        <ele>1218.6099999999999</ele>
        <time>2017-06-18T15:34:18Z</time>
      </trkpt>
      <trkpt lat="46.347671393305063" lon="9.349185777828097">
        <ele>1217.1700000000001</ele>
        <time>2017-06-18T15:34:34Z</time>
      </trkpt>
      <trkpt lat="46.34768832474947" lon="9.349395744502544">
        <ele>1214.28</ele>
        <time>2017-06-18T15:34:48Z</time>
      </trkpt>
      <trkpt lat="46.347677428275347" lon="9.349615601822734">
        <ele>1211.8800000000001</ele>
        <time>2017-06-18T15:35:02Z</time>
      </trkpt>
      <trkpt lat="46.347634429112077" lon="9.349837386980653">
        <ele>1209</ele>
        <time>2017-06-18T15:35:17Z</time>
      </trkpt>
      <trkpt lat="46.347570810467005" lon="9.350009132176638">
        <ele>1207.55</ele>
        <time>2017-06-18T15:35:30Z</time>
      </trkpt>
      <trkpt lat="46.34751096367836" lon="9.350177776068449">
        <ele>1205.1500000000001</ele>
        <time>2017-06-18T15:35:43Z</time>
      </trkpt>
      <trkpt lat="46.34745916351676" lon="9.35039377771318">
        <ele>1202.75</ele>
        <time>2017-06-18T15:35:57Z</time>
      </trkpt>
      <trkpt lat="46.347430497407913" lon="9.350642301142216">
        <ele>1199.3800000000001</ele>
        <time>2017-06-18T15:36:12Z</time>
      </trkpt>
      <trkpt lat="46.347527224570513" lon="9.350890321657062">
        <ele>1196.98</ele>
        <time>2017-06-18T15:36:27Z</time>
      </trkpt>
      <trkpt lat="46.347583886235952" lon="9.351084446534514">
        <ele>1196.5</ele>
        <time>2017-06-18T15:36:38Z</time>
      </trkpt>
      <trkpt lat="46.347645744681358" lon="9.351335568353534">
        <ele>1196.02</ele>
        <time>2017-06-18T15:36:53Z</time>
      </trkpt>
      <trkpt lat="46.347710285335779" lon="9.351520305499435">
        <ele>1195.54</ele>
        <time>2017-06-18T15:37:04Z</time>
      </trkpt>
      <trkpt lat="46.347751105204225" lon="9.351646956056356">
        <ele>1195.54</ele>
        <time>2017-06-18T15:37:12Z</time>
      </trkpt>
      <trkpt lat="46.34779779240489" lon="9.351763883605599">
        <ele>1196.02</ele>
        <time>2017-06-18T15:37:19Z</time>
      </trkpt>
      <trkpt lat="46.347867278382182" lon="9.352045515552163">
        <ele>1195.54</ele>
        <time>2017-06-18T15:37:35Z</time>
      </trkpt>
      <trkpt lat="46.347865602001548" lon="9.352362351492047">
        <ele>1193.1300000000001</ele>
        <time>2017-06-18T15:37:51Z</time>
      </trkpt>
      <trkpt lat="46.34786426089704" lon="9.352398477494717">
        <ele>1192.6500000000001</ele>
        <time>2017-06-18T15:37:53Z</time>
      </trkpt>
      <trkpt lat="46.347868535667658" lon="9.352670721709728">
        <ele>1189.77</ele>
        <time>2017-06-18T15:38:07Z</time>
      </trkpt>
      <trkpt lat="46.347858225926757" lon="9.352838192135096">
        <ele>1188.3299999999999</ele>
        <time>2017-06-18T15:38:15Z</time>
      </trkpt>
      <trkpt lat="46.347727300599217" lon="9.352811118587852">
        <ele>1186.4000000000001</ele>
        <time>2017-06-18T15:38:25Z</time>
      </trkpt>
      <trkpt lat="46.347702573984861" lon="9.352795109152794">
        <ele>1185.9200000000001</ele>
        <time>2017-06-18T15:38:27Z</time>
      </trkpt>
      <trkpt lat="46.347649851813912" lon="9.352725790813565">
        <ele>1185.4400000000001</ele>
        <time>2017-06-18T15:38:32Z</time>
      </trkpt>
      <trkpt lat="46.347513645887375" lon="9.352482128888369">
        <ele>1183.52</ele>
        <time>2017-06-18T15:38:48Z</time>
      </trkpt>
      <trkpt lat="46.347410548478365" lon="9.352348269894719">
        <ele>1182.0799999999999</ele>
        <time>2017-06-18T15:38:58Z</time>
      </trkpt>
      <trkpt lat="46.347396718338132" lon="9.352350113913417">
        <ele>1181.5999999999999</ele>
        <time>2017-06-18T15:38:59Z</time>
      </trkpt>
      <trkpt lat="46.347380708903074" lon="9.352415157482028">
        <ele>1181.5999999999999</ele>
        <time>2017-06-18T15:39:03Z</time>
      </trkpt>
      <trkpt lat="46.34746503084898" lon="9.352666530758143">
        <ele>1179.6700000000001</ele>
        <time>2017-06-18T15:39:17Z</time>
      </trkpt>
      <trkpt lat="46.347554633393884" lon="9.352961406111717">
        <ele>1177.27</ele>
        <time>2017-06-18T15:39:33Z</time>
      </trkpt>
      <trkpt lat="46.347594615072012" lon="9.353190315887332">
        <ele>1175.8299999999999</ele>
        <time>2017-06-18T15:39:45Z</time>
      </trkpt>
      <trkpt lat="46.347651444375515" lon="9.353415621444583">
        <ele>1173.4300000000001</ele>
        <time>2017-06-18T15:39:57Z</time>
      </trkpt>
      <trkpt lat="46.34774012491107" lon="9.353715777397156">
        <ele>1171.02</ele>
        <time>2017-06-18T15:40:13Z</time>
      </trkpt>
      <trkpt lat="46.347822267562151" lon="9.353884588927031">
        <ele>1168.6199999999999</ele>
        <time>2017-06-18T15:40:24Z</time>
      </trkpt>
      <trkpt lat="46.347893429920077" lon="9.353964049369097">
        <ele>1167.1800000000001</ele>
        <time>2017-06-18T15:40:34Z</time>
      </trkpt>
      <trkpt lat="46.347890244796872" lon="9.353967988863587">
        <ele>1166.22</ele>
        <time>2017-06-18T15:40:42Z</time>
      </trkpt>
      <trkpt lat="46.347872223705053" lon="9.353972431272268">
        <ele>1166.7</ele>
        <time>2017-06-18T15:41:00Z</time>
      </trkpt>
    </trkseg>
  </trk>

</gpx>